<?xml version="1.0" encoding="UTF-8" standalone="no" ?>
<gpx xmlns="http://www.topografix.com/GPX/1/1" xmlns:xsi="http://www.w3.org/2001/XMLSchema-instance" xsi:schemaLocation="http://www.topografix.com/GPX/1/1 http://www.topografix.com/GPX/1/1/gpx.xsd" version="1.1" creator="VisuGPX - https://www.visugpx.com">
  <metadata>
    <name>Pornichet 09/12/2021</name>
    <desc><![CDATA[Sortie vtt jeudi 09 décembre 2021]]></desc>
  </metadata>
  <trk>
    <name><![CDATA[Pornichet Cyclisme]]></name>
    <trkseg>
      <trkpt lat="47.26409" lon="-2.31559">
        <ele>8.8000001907349</ele>
        <time>2021-12-09T08:15:54.000Z</time>
      </trkpt>
      <trkpt lat="47.26409" lon="-2.31564">
        <ele>8.8000001907349</ele>
        <time>2021-12-09T08:15:55.000Z</time>
      </trkpt>
      <trkpt lat="47.2641" lon="-2.31578">
        <ele>8.8000001907349</ele>
        <time>2021-12-09T08:15:58.000Z</time>
      </trkpt>
      <trkpt lat="47.26409" lon="-2.31583">
        <ele>8.8000001907349</ele>
        <time>2021-12-09T08:15:59.000Z</time>
      </trkpt>
      <trkpt lat="47.2641" lon="-2.3161">
        <ele>8.8000001907349</ele>
        <time>2021-12-09T08:16:05.000Z</time>
      </trkpt>
      <trkpt lat="47.2641" lon="-2.31644">
        <ele>8.8000001907349</ele>
        <time>2021-12-09T08:16:11.000Z</time>
      </trkpt>
      <trkpt lat="47.26406" lon="-2.31664">
        <ele>8.8000001907349</ele>
        <time>2021-12-09T08:16:16.000Z</time>
      </trkpt>
      <trkpt lat="47.26391" lon="-2.3167">
        <ele>8.8000001907349</ele>
        <time>2021-12-09T08:16:20.000Z</time>
      </trkpt>
      <trkpt lat="47.26387" lon="-2.31672">
        <ele>8.8000001907349</ele>
        <time>2021-12-09T08:16:21.000Z</time>
      </trkpt>
      <trkpt lat="47.26368" lon="-2.31684">
        <ele>8.3999996185303</ele>
        <time>2021-12-09T08:16:25.000Z</time>
      </trkpt>
      <trkpt lat="47.26363" lon="-2.31686">
        <ele>7.8000001907349</ele>
        <time>2021-12-09T08:16:26.000Z</time>
      </trkpt>
      <trkpt lat="47.26359" lon="-2.31689">
        <ele>7.4000000953674</ele>
        <time>2021-12-09T08:16:27.000Z</time>
      </trkpt>
      <trkpt lat="47.26354" lon="-2.31693">
        <ele>7</ele>
        <time>2021-12-09T08:16:28.000Z</time>
      </trkpt>
      <trkpt lat="47.26349" lon="-2.31696">
        <ele>6.5999999046326</ele>
        <time>2021-12-09T08:16:29.000Z</time>
      </trkpt>
      <trkpt lat="47.26327" lon="-2.31706">
        <ele>6.5999999046326</ele>
        <time>2021-12-09T08:16:33.000Z</time>
      </trkpt>
      <trkpt lat="47.26313" lon="-2.31715">
        <ele>6</ele>
        <time>2021-12-09T08:16:36.000Z</time>
      </trkpt>
      <trkpt lat="47.26309" lon="-2.31717">
        <ele>5.5999999046326</ele>
        <time>2021-12-09T08:16:37.000Z</time>
      </trkpt>
      <trkpt lat="47.26306" lon="-2.31721">
        <ele>5.1999998092651</ele>
        <time>2021-12-09T08:16:38.000Z</time>
      </trkpt>
      <trkpt lat="47.26303" lon="-2.31725">
        <ele>4.8000001907349</ele>
        <time>2021-12-09T08:16:39.000Z</time>
      </trkpt>
      <trkpt lat="47.26301" lon="-2.31729">
        <ele>4.1999998092651</ele>
        <time>2021-12-09T08:16:40.000Z</time>
      </trkpt>
      <trkpt lat="47.26302" lon="-2.31732">
        <ele>4.1999998092651</ele>
        <time>2021-12-09T08:16:41.000Z</time>
      </trkpt>
      <trkpt lat="47.26304" lon="-2.31741">
        <ele>4.1999998092651</ele>
        <time>2021-12-09T08:16:43.000Z</time>
      </trkpt>
      <trkpt lat="47.26309" lon="-2.31759">
        <ele>4.1999998092651</ele>
        <time>2021-12-09T08:16:47.000Z</time>
      </trkpt>
      <trkpt lat="47.26313" lon="-2.3179">
        <ele>4.1999998092651</ele>
        <time>2021-12-09T08:16:53.000Z</time>
      </trkpt>
      <trkpt lat="47.26314" lon="-2.3181">
        <ele>4.1999998092651</ele>
        <time>2021-12-09T08:16:57.000Z</time>
      </trkpt>
      <trkpt lat="47.26315" lon="-2.31824">
        <ele>4.1999998092651</ele>
        <time>2021-12-09T08:17:00.000Z</time>
      </trkpt>
      <trkpt lat="47.26313" lon="-2.31858">
        <ele>4.1999998092651</ele>
        <time>2021-12-09T08:17:07.000Z</time>
      </trkpt>
      <trkpt lat="47.26309" lon="-2.31876">
        <ele>4.1999998092651</ele>
        <time>2021-12-09T08:17:12.000Z</time>
      </trkpt>
      <trkpt lat="47.26301" lon="-2.31881">
        <ele>3.7999999523163</ele>
        <time>2021-12-09T08:17:15.000Z</time>
      </trkpt>
      <trkpt lat="47.26298" lon="-2.31882">
        <ele>3.4000000953674</ele>
        <time>2021-12-09T08:17:16.000Z</time>
      </trkpt>
      <trkpt lat="47.26295" lon="-2.31883">
        <ele>3</ele>
        <time>2021-12-09T08:17:17.000Z</time>
      </trkpt>
      <trkpt lat="47.26293" lon="-2.31884">
        <ele>2.5999999046326</ele>
        <time>2021-12-09T08:17:18.000Z</time>
      </trkpt>
      <trkpt lat="47.26288" lon="-2.31891">
        <ele>2.2000000476837</ele>
        <time>2021-12-09T08:17:19.000Z</time>
      </trkpt>
      <trkpt lat="47.26282" lon="-2.31902">
        <ele>2.2000000476837</ele>
        <time>2021-12-09T08:17:22.000Z</time>
      </trkpt>
      <trkpt lat="47.26262" lon="-2.31942">
        <ele>2.2000000476837</ele>
        <time>2021-12-09T08:17:30.000Z</time>
      </trkpt>
      <trkpt lat="47.26243" lon="-2.31956">
        <ele>2.2000000476837</ele>
        <time>2021-12-09T08:17:35.000Z</time>
      </trkpt>
      <trkpt lat="47.26233" lon="-2.31971">
        <ele>2.2000000476837</ele>
        <time>2021-12-09T08:17:40.000Z</time>
      </trkpt>
      <trkpt lat="47.26215" lon="-2.31988">
        <ele>2.2000000476837</ele>
        <time>2021-12-09T08:17:46.000Z</time>
      </trkpt>
      <trkpt lat="47.26211" lon="-2.31991">
        <ele>2.2000000476837</ele>
        <time>2021-12-09T08:17:47.000Z</time>
      </trkpt>
      <trkpt lat="47.26205" lon="-2.31997">
        <ele>2.2000000476837</ele>
        <time>2021-12-09T08:17:49.000Z</time>
      </trkpt>
      <trkpt lat="47.26205" lon="-2.32002">
        <ele>2.2000000476837</ele>
        <time>2021-12-09T08:17:50.000Z</time>
      </trkpt>
      <trkpt lat="47.26203" lon="-2.32011">
        <ele>2.2000000476837</ele>
        <time>2021-12-09T08:17:53.000Z</time>
      </trkpt>
      <trkpt lat="47.26201" lon="-2.32014">
        <ele>2.2000000476837</ele>
        <time>2021-12-09T08:17:55.000Z</time>
      </trkpt>
      <trkpt lat="47.26187" lon="-2.32017">
        <ele>2.2000000476837</ele>
        <time>2021-12-09T08:18:01.000Z</time>
      </trkpt>
      <trkpt lat="47.26171" lon="-2.32025">
        <ele>2.2000000476837</ele>
        <time>2021-12-09T08:18:06.000Z</time>
      </trkpt>
      <trkpt lat="47.2616" lon="-2.32043">
        <ele>2.2000000476837</ele>
        <time>2021-12-09T08:18:10.000Z</time>
      </trkpt>
      <trkpt lat="47.2615" lon="-2.32076">
        <ele>2.2000000476837</ele>
        <time>2021-12-09T08:18:16.000Z</time>
      </trkpt>
      <trkpt lat="47.26138" lon="-2.32115">
        <ele>2.2000000476837</ele>
        <time>2021-12-09T08:18:23.000Z</time>
      </trkpt>
      <trkpt lat="47.26121" lon="-2.32162">
        <ele>2.2000000476837</ele>
        <time>2021-12-09T08:18:31.000Z</time>
      </trkpt>
      <trkpt lat="47.26119" lon="-2.32167">
        <ele>2.2000000476837</ele>
        <time>2021-12-09T08:18:32.000Z</time>
      </trkpt>
      <trkpt lat="47.26109" lon="-2.32191">
        <ele>2.2000000476837</ele>
        <time>2021-12-09T08:18:36.000Z</time>
      </trkpt>
      <trkpt lat="47.26107" lon="-2.32197">
        <ele>2.2000000476837</ele>
        <time>2021-12-09T08:18:37.000Z</time>
      </trkpt>
      <trkpt lat="47.26101" lon="-2.32208">
        <ele>2.2000000476837</ele>
        <time>2021-12-09T08:18:39.000Z</time>
      </trkpt>
      <trkpt lat="47.2609" lon="-2.32226">
        <ele>2.2000000476837</ele>
        <time>2021-12-09T08:18:43.000Z</time>
      </trkpt>
      <trkpt lat="47.26069" lon="-2.32252">
        <ele>2.2000000476837</ele>
        <time>2021-12-09T08:18:49.000Z</time>
      </trkpt>
      <trkpt lat="47.26061" lon="-2.32263">
        <ele>2.2000000476837</ele>
        <time>2021-12-09T08:18:52.000Z</time>
      </trkpt>
      <trkpt lat="47.2605" lon="-2.32273">
        <ele>2.2000000476837</ele>
        <time>2021-12-09T08:18:55.000Z</time>
      </trkpt>
      <trkpt lat="47.26025" lon="-2.32301">
        <ele>2.2000000476837</ele>
        <time>2021-12-09T08:19:02.000Z</time>
      </trkpt>
      <trkpt lat="47.26018" lon="-2.32308">
        <ele>2.2000000476837</ele>
        <time>2021-12-09T08:19:04.000Z</time>
      </trkpt>
      <trkpt lat="47.26005" lon="-2.32325">
        <ele>2.2000000476837</ele>
        <time>2021-12-09T08:19:08.000Z</time>
      </trkpt>
      <trkpt lat="47.25981" lon="-2.32355">
        <ele>2.2000000476837</ele>
        <time>2021-12-09T08:19:15.000Z</time>
      </trkpt>
      <trkpt lat="47.25955" lon="-2.3239">
        <ele>2.2000000476837</ele>
        <time>2021-12-09T08:19:23.000Z</time>
      </trkpt>
      <trkpt lat="47.25933" lon="-2.3242">
        <ele>2.2000000476837</ele>
        <time>2021-12-09T08:19:30.000Z</time>
      </trkpt>
      <trkpt lat="47.25917" lon="-2.32442">
        <ele>2.2000000476837</ele>
        <time>2021-12-09T08:19:35.000Z</time>
      </trkpt>
      <trkpt lat="47.25911" lon="-2.32449">
        <ele>2.2000000476837</ele>
        <time>2021-12-09T08:19:37.000Z</time>
      </trkpt>
      <trkpt lat="47.25905" lon="-2.32455">
        <ele>2.2000000476837</ele>
        <time>2021-12-09T08:19:39.000Z</time>
      </trkpt>
      <trkpt lat="47.25902" lon="-2.32464">
        <ele>2.2000000476837</ele>
        <time>2021-12-09T08:19:41.000Z</time>
      </trkpt>
      <trkpt lat="47.25902" lon="-2.32468">
        <ele>2.2000000476837</ele>
        <time>2021-12-09T08:19:42.000Z</time>
      </trkpt>
      <trkpt lat="47.2591" lon="-2.32475">
        <ele>2.2000000476837</ele>
        <time>2021-12-09T08:19:45.000Z</time>
      </trkpt>
      <trkpt lat="47.25917" lon="-2.32482">
        <ele>2.2000000476837</ele>
        <time>2021-12-09T08:19:47.000Z</time>
      </trkpt>
      <trkpt lat="47.25926" lon="-2.32498">
        <ele>2.2000000476837</ele>
        <time>2021-12-09T08:19:50.000Z</time>
      </trkpt>
      <trkpt lat="47.2593" lon="-2.3251">
        <ele>2.2000000476837</ele>
        <time>2021-12-09T08:19:52.000Z</time>
      </trkpt>
      <trkpt lat="47.25939" lon="-2.32539">
        <ele>2.2000000476837</ele>
        <time>2021-12-09T08:19:57.000Z</time>
      </trkpt>
      <trkpt lat="47.25954" lon="-2.32586">
        <ele>2.2000000476837</ele>
        <time>2021-12-09T08:20:05.000Z</time>
      </trkpt>
      <trkpt lat="47.25955" lon="-2.32592">
        <ele>2.2000000476837</ele>
        <time>2021-12-09T08:20:06.000Z</time>
      </trkpt>
      <trkpt lat="47.25959" lon="-2.32611">
        <ele>2.2000000476837</ele>
        <time>2021-12-09T08:20:09.000Z</time>
      </trkpt>
      <trkpt lat="47.25961" lon="-2.32622">
        <ele>2.2000000476837</ele>
        <time>2021-12-09T08:20:11.000Z</time>
      </trkpt>
      <trkpt lat="47.25962" lon="-2.32641">
        <ele>2.2000000476837</ele>
        <time>2021-12-09T08:20:14.000Z</time>
      </trkpt>
      <trkpt lat="47.25965" lon="-2.32657">
        <ele>2.2000000476837</ele>
        <time>2021-12-09T08:20:17.000Z</time>
      </trkpt>
      <trkpt lat="47.25975" lon="-2.32657">
        <ele>2.2000000476837</ele>
        <time>2021-12-09T08:20:20.000Z</time>
      </trkpt>
      <trkpt lat="47.25991" lon="-2.32658">
        <ele>2.2000000476837</ele>
        <time>2021-12-09T08:20:24.000Z</time>
      </trkpt>
      <trkpt lat="47.2602" lon="-2.32653">
        <ele>2.2000000476837</ele>
        <time>2021-12-09T08:20:31.000Z</time>
      </trkpt>
      <trkpt lat="47.26058" lon="-2.32646">
        <ele>2.2000000476837</ele>
        <time>2021-12-09T08:20:40.000Z</time>
      </trkpt>
      <trkpt lat="47.26091" lon="-2.32639">
        <ele>2.2000000476837</ele>
        <time>2021-12-09T08:20:48.000Z</time>
      </trkpt>
      <trkpt lat="47.2612" lon="-2.32636">
        <ele>2.2000000476837</ele>
        <time>2021-12-09T08:20:55.000Z</time>
      </trkpt>
      <trkpt lat="47.26133" lon="-2.32638">
        <ele>2.5999999046326</ele>
        <time>2021-12-09T08:20:58.000Z</time>
      </trkpt>
      <trkpt lat="47.26138" lon="-2.32638">
        <ele>3</ele>
        <time>2021-12-09T08:20:59.000Z</time>
      </trkpt>
      <trkpt lat="47.26142" lon="-2.3264">
        <ele>3.5999999046326</ele>
        <time>2021-12-09T08:21:00.000Z</time>
      </trkpt>
      <trkpt lat="47.26146" lon="-2.32642">
        <ele>4</ele>
        <time>2021-12-09T08:21:01.000Z</time>
      </trkpt>
      <trkpt lat="47.2615" lon="-2.32644">
        <ele>4.4000000953674</ele>
        <time>2021-12-09T08:21:02.000Z</time>
      </trkpt>
      <trkpt lat="47.2617" lon="-2.32653">
        <ele>4.4000000953674</ele>
        <time>2021-12-09T08:21:07.000Z</time>
      </trkpt>
      <trkpt lat="47.26179" lon="-2.32658">
        <ele>4.4000000953674</ele>
        <time>2021-12-09T08:21:09.000Z</time>
      </trkpt>
      <trkpt lat="47.26193" lon="-2.32672">
        <ele>4.4000000953674</ele>
        <time>2021-12-09T08:21:13.000Z</time>
      </trkpt>
      <trkpt lat="47.262" lon="-2.3268">
        <ele>4.4000000953674</ele>
        <time>2021-12-09T08:21:15.000Z</time>
      </trkpt>
      <trkpt lat="47.26227" lon="-2.32714">
        <ele>4.4000000953674</ele>
        <time>2021-12-09T08:21:23.000Z</time>
      </trkpt>
      <trkpt lat="47.26255" lon="-2.32754">
        <ele>4.4000000953674</ele>
        <time>2021-12-09T08:21:31.000Z</time>
      </trkpt>
      <trkpt lat="47.26274" lon="-2.32789">
        <ele>4.4000000953674</ele>
        <time>2021-12-09T08:21:37.000Z</time>
      </trkpt>
      <trkpt lat="47.26276" lon="-2.32795">
        <ele>4.4000000953674</ele>
        <time>2021-12-09T08:21:38.000Z</time>
      </trkpt>
      <trkpt lat="47.2628" lon="-2.32807">
        <ele>4</ele>
        <time>2021-12-09T08:21:40.000Z</time>
      </trkpt>
      <trkpt lat="47.26283" lon="-2.32813">
        <ele>3.5999999046326</ele>
        <time>2021-12-09T08:21:41.000Z</time>
      </trkpt>
      <trkpt lat="47.26285" lon="-2.3282">
        <ele>3.2000000476837</ele>
        <time>2021-12-09T08:21:42.000Z</time>
      </trkpt>
      <trkpt lat="47.26286" lon="-2.32826">
        <ele>2.7999999523163</ele>
        <time>2021-12-09T08:21:43.000Z</time>
      </trkpt>
      <trkpt lat="47.26287" lon="-2.32832">
        <ele>2.4000000953674</ele>
        <time>2021-12-09T08:21:44.000Z</time>
      </trkpt>
      <trkpt lat="47.26287" lon="-2.32839">
        <ele>2.4000000953674</ele>
        <time>2021-12-09T08:21:45.000Z</time>
      </trkpt>
      <trkpt lat="47.26289" lon="-2.32845">
        <ele>2.4000000953674</ele>
        <time>2021-12-09T08:21:46.000Z</time>
      </trkpt>
      <trkpt lat="47.26297" lon="-2.3286">
        <ele>2.4000000953674</ele>
        <time>2021-12-09T08:21:49.000Z</time>
      </trkpt>
      <trkpt lat="47.26315" lon="-2.32868">
        <ele>2.4000000953674</ele>
        <time>2021-12-09T08:21:53.000Z</time>
      </trkpt>
      <trkpt lat="47.26325" lon="-2.3289">
        <ele>2.4000000953674</ele>
        <time>2021-12-09T08:21:57.000Z</time>
      </trkpt>
      <trkpt lat="47.26328" lon="-2.32902">
        <ele>2.4000000953674</ele>
        <time>2021-12-09T08:21:59.000Z</time>
      </trkpt>
      <trkpt lat="47.26339" lon="-2.32939">
        <ele>2.4000000953674</ele>
        <time>2021-12-09T08:22:05.000Z</time>
      </trkpt>
      <trkpt lat="47.26349" lon="-2.32967">
        <ele>2.4000000953674</ele>
        <time>2021-12-09T08:22:10.000Z</time>
      </trkpt>
      <trkpt lat="47.26351" lon="-2.32972">
        <ele>2.4000000953674</ele>
        <time>2021-12-09T08:22:11.000Z</time>
      </trkpt>
      <trkpt lat="47.26355" lon="-2.32976">
        <ele>2.4000000953674</ele>
        <time>2021-12-09T08:22:12.000Z</time>
      </trkpt>
      <trkpt lat="47.26365" lon="-2.32986">
        <ele>2.4000000953674</ele>
        <time>2021-12-09T08:22:15.000Z</time>
      </trkpt>
      <trkpt lat="47.26367" lon="-2.32991">
        <ele>2.4000000953674</ele>
        <time>2021-12-09T08:22:16.000Z</time>
      </trkpt>
      <trkpt lat="47.26367" lon="-2.3301">
        <ele>2.4000000953674</ele>
        <time>2021-12-09T08:22:19.000Z</time>
      </trkpt>
      <trkpt lat="47.26368" lon="-2.33017">
        <ele>2.4000000953674</ele>
        <time>2021-12-09T08:22:20.000Z</time>
      </trkpt>
      <trkpt lat="47.2637" lon="-2.33063">
        <ele>2.4000000953674</ele>
        <time>2021-12-09T08:22:27.000Z</time>
      </trkpt>
      <trkpt lat="47.26371" lon="-2.33083">
        <ele>2.4000000953674</ele>
        <time>2021-12-09T08:22:30.000Z</time>
      </trkpt>
      <trkpt lat="47.26373" lon="-2.33109">
        <ele>2.4000000953674</ele>
        <time>2021-12-09T08:22:34.000Z</time>
      </trkpt>
      <trkpt lat="47.26376" lon="-2.33162">
        <ele>2.4000000953674</ele>
        <time>2021-12-09T08:22:42.000Z</time>
      </trkpt>
      <trkpt lat="47.26379" lon="-2.33222">
        <ele>2.4000000953674</ele>
        <time>2021-12-09T08:22:51.000Z</time>
      </trkpt>
      <trkpt lat="47.2638" lon="-2.33229">
        <ele>2.4000000953674</ele>
        <time>2021-12-09T08:22:52.000Z</time>
      </trkpt>
      <trkpt lat="47.26382" lon="-2.33248">
        <ele>2.4000000953674</ele>
        <time>2021-12-09T08:22:55.000Z</time>
      </trkpt>
      <trkpt lat="47.26387" lon="-2.33259">
        <ele>2.4000000953674</ele>
        <time>2021-12-09T08:22:57.000Z</time>
      </trkpt>
      <trkpt lat="47.264" lon="-2.33267">
        <ele>2.4000000953674</ele>
        <time>2021-12-09T08:23:00.000Z</time>
      </trkpt>
      <trkpt lat="47.26414" lon="-2.33268">
        <ele>2.4000000953674</ele>
        <time>2021-12-09T08:23:03.000Z</time>
      </trkpt>
      <trkpt lat="47.26423" lon="-2.3327">
        <ele>2.4000000953674</ele>
        <time>2021-12-09T08:23:05.000Z</time>
      </trkpt>
      <trkpt lat="47.26459" lon="-2.33275">
        <ele>2.4000000953674</ele>
        <time>2021-12-09T08:23:13.000Z</time>
      </trkpt>
      <trkpt lat="47.2648" lon="-2.3328">
        <ele>2.4000000953674</ele>
        <time>2021-12-09T08:23:18.000Z</time>
      </trkpt>
      <trkpt lat="47.26489" lon="-2.3328">
        <ele>2.4000000953674</ele>
        <time>2021-12-09T08:23:20.000Z</time>
      </trkpt>
      <trkpt lat="47.26503" lon="-2.33282">
        <ele>2.4000000953674</ele>
        <time>2021-12-09T08:23:23.000Z</time>
      </trkpt>
      <trkpt lat="47.26511" lon="-2.33288">
        <ele>2.4000000953674</ele>
        <time>2021-12-09T08:23:25.000Z</time>
      </trkpt>
      <trkpt lat="47.26521" lon="-2.33298">
        <ele>2.4000000953674</ele>
        <time>2021-12-09T08:23:28.000Z</time>
      </trkpt>
      <trkpt lat="47.26528" lon="-2.33315">
        <ele>2.4000000953674</ele>
        <time>2021-12-09T08:23:31.000Z</time>
      </trkpt>
      <trkpt lat="47.26527" lon="-2.33342">
        <ele>2.4000000953674</ele>
        <time>2021-12-09T08:23:35.000Z</time>
      </trkpt>
      <trkpt lat="47.26533" lon="-2.33372">
        <ele>2.4000000953674</ele>
        <time>2021-12-09T08:23:39.000Z</time>
      </trkpt>
      <trkpt lat="47.26535" lon="-2.33379">
        <ele>2.4000000953674</ele>
        <time>2021-12-09T08:23:40.000Z</time>
      </trkpt>
      <trkpt lat="47.26546" lon="-2.33425">
        <ele>2.4000000953674</ele>
        <time>2021-12-09T08:23:47.000Z</time>
      </trkpt>
      <trkpt lat="47.26555" lon="-2.33489">
        <ele>2.4000000953674</ele>
        <time>2021-12-09T08:23:56.000Z</time>
      </trkpt>
      <trkpt lat="47.26556" lon="-2.33495">
        <ele>2.4000000953674</ele>
        <time>2021-12-09T08:23:57.000Z</time>
      </trkpt>
      <trkpt lat="47.26564" lon="-2.33518">
        <ele>2.4000000953674</ele>
        <time>2021-12-09T08:24:01.000Z</time>
      </trkpt>
      <trkpt lat="47.26573" lon="-2.33569">
        <ele>2.4000000953674</ele>
        <time>2021-12-09T08:24:09.000Z</time>
      </trkpt>
      <trkpt lat="47.26575" lon="-2.33582">
        <ele>2.4000000953674</ele>
        <time>2021-12-09T08:24:11.000Z</time>
      </trkpt>
      <trkpt lat="47.26578" lon="-2.33594">
        <ele>2.4000000953674</ele>
        <time>2021-12-09T08:24:13.000Z</time>
      </trkpt>
      <trkpt lat="47.26578" lon="-2.33601">
        <ele>2.4000000953674</ele>
        <time>2021-12-09T08:24:14.000Z</time>
      </trkpt>
      <trkpt lat="47.26581" lon="-2.33619">
        <ele>2.4000000953674</ele>
        <time>2021-12-09T08:24:17.000Z</time>
      </trkpt>
      <trkpt lat="47.26582" lon="-2.33631">
        <ele>2.4000000953674</ele>
        <time>2021-12-09T08:24:19.000Z</time>
      </trkpt>
      <trkpt lat="47.26583" lon="-2.33655">
        <ele>2.7999999523163</ele>
        <time>2021-12-09T08:24:23.000Z</time>
      </trkpt>
      <trkpt lat="47.26583" lon="-2.3366">
        <ele>3.2000000476837</ele>
        <time>2021-12-09T08:24:24.000Z</time>
      </trkpt>
      <trkpt lat="47.26584" lon="-2.33665">
        <ele>3.5999999046326</ele>
        <time>2021-12-09T08:24:25.000Z</time>
      </trkpt>
      <trkpt lat="47.26586" lon="-2.3367">
        <ele>4</ele>
        <time>2021-12-09T08:24:26.000Z</time>
      </trkpt>
      <trkpt lat="47.26589" lon="-2.33673">
        <ele>4.4000000953674</ele>
        <time>2021-12-09T08:24:27.000Z</time>
      </trkpt>
      <trkpt lat="47.26591" lon="-2.33677">
        <ele>4.4000000953674</ele>
        <time>2021-12-09T08:24:28.000Z</time>
      </trkpt>
      <trkpt lat="47.26601" lon="-2.33696">
        <ele>4.4000000953674</ele>
        <time>2021-12-09T08:24:32.000Z</time>
      </trkpt>
      <trkpt lat="47.26606" lon="-2.33703">
        <ele>4.4000000953674</ele>
        <time>2021-12-09T08:24:34.000Z</time>
      </trkpt>
      <trkpt lat="47.2661" lon="-2.33724">
        <ele>4.4000000953674</ele>
        <time>2021-12-09T08:24:38.000Z</time>
      </trkpt>
      <trkpt lat="47.26608" lon="-2.33746">
        <ele>4.8000001907349</ele>
        <time>2021-12-09T08:24:42.000Z</time>
      </trkpt>
      <trkpt lat="47.26608" lon="-2.33752">
        <ele>5.1999998092651</ele>
        <time>2021-12-09T08:24:43.000Z</time>
      </trkpt>
      <trkpt lat="47.26607" lon="-2.33758">
        <ele>5.5999999046326</ele>
        <time>2021-12-09T08:24:44.000Z</time>
      </trkpt>
      <trkpt lat="47.26606" lon="-2.33764">
        <ele>6</ele>
        <time>2021-12-09T08:24:45.000Z</time>
      </trkpt>
      <trkpt lat="47.26605" lon="-2.3377">
        <ele>6.4000000953674</ele>
        <time>2021-12-09T08:24:46.000Z</time>
      </trkpt>
      <trkpt lat="47.26604" lon="-2.33786">
        <ele>6.4000000953674</ele>
        <time>2021-12-09T08:24:49.000Z</time>
      </trkpt>
      <trkpt lat="47.266" lon="-2.33817">
        <ele>6.4000000953674</ele>
        <time>2021-12-09T08:24:54.000Z</time>
      </trkpt>
      <trkpt lat="47.26599" lon="-2.33823">
        <ele>6.4000000953674</ele>
        <time>2021-12-09T08:24:55.000Z</time>
      </trkpt>
      <trkpt lat="47.26598" lon="-2.33841">
        <ele>6.8000001907349</ele>
        <time>2021-12-09T08:24:58.000Z</time>
      </trkpt>
      <trkpt lat="47.26597" lon="-2.33847">
        <ele>7.1999998092651</ele>
        <time>2021-12-09T08:24:59.000Z</time>
      </trkpt>
      <trkpt lat="47.26596" lon="-2.33853">
        <ele>7.5999999046326</ele>
        <time>2021-12-09T08:25:00.000Z</time>
      </trkpt>
      <trkpt lat="47.26596" lon="-2.33858">
        <ele>8</ele>
        <time>2021-12-09T08:25:01.000Z</time>
      </trkpt>
      <trkpt lat="47.26595" lon="-2.33864">
        <ele>8.3999996185303</ele>
        <time>2021-12-09T08:25:02.000Z</time>
      </trkpt>
      <trkpt lat="47.26591" lon="-2.33902">
        <ele>8.3999996185303</ele>
        <time>2021-12-09T08:25:08.000Z</time>
      </trkpt>
      <trkpt lat="47.26589" lon="-2.33909">
        <ele>8.3999996185303</ele>
        <time>2021-12-09T08:25:09.000Z</time>
      </trkpt>
      <trkpt lat="47.26587" lon="-2.33922">
        <ele>8.3999996185303</ele>
        <time>2021-12-09T08:25:11.000Z</time>
      </trkpt>
      <trkpt lat="47.26586" lon="-2.33928">
        <ele>8.3999996185303</ele>
        <time>2021-12-09T08:25:12.000Z</time>
      </trkpt>
      <trkpt lat="47.26584" lon="-2.33963">
        <ele>8.3999996185303</ele>
        <time>2021-12-09T08:25:18.000Z</time>
      </trkpt>
      <trkpt lat="47.26584" lon="-2.33968">
        <ele>8.3999996185303</ele>
        <time>2021-12-09T08:25:19.000Z</time>
      </trkpt>
      <trkpt lat="47.26581" lon="-2.33992">
        <ele>8.3999996185303</ele>
        <time>2021-12-09T08:25:23.000Z</time>
      </trkpt>
      <trkpt lat="47.26573" lon="-2.34039">
        <ele>8.3999996185303</ele>
        <time>2021-12-09T08:25:30.000Z</time>
      </trkpt>
      <trkpt lat="47.26573" lon="-2.34055">
        <ele>8.3999996185303</ele>
        <time>2021-12-09T08:25:33.000Z</time>
      </trkpt>
      <trkpt lat="47.26576" lon="-2.34059">
        <ele>8.3999996185303</ele>
        <time>2021-12-09T08:25:34.000Z</time>
      </trkpt>
      <trkpt lat="47.26587" lon="-2.34065">
        <ele>8.3999996185303</ele>
        <time>2021-12-09T08:25:37.000Z</time>
      </trkpt>
      <trkpt lat="47.26591" lon="-2.34067">
        <ele>8.3999996185303</ele>
        <time>2021-12-09T08:25:38.000Z</time>
      </trkpt>
      <trkpt lat="47.26602" lon="-2.34075">
        <ele>8.3999996185303</ele>
        <time>2021-12-09T08:25:41.000Z</time>
      </trkpt>
      <trkpt lat="47.26613" lon="-2.34084">
        <ele>8.3999996185303</ele>
        <time>2021-12-09T08:25:44.000Z</time>
      </trkpt>
      <trkpt lat="47.26634" lon="-2.34098">
        <ele>8.3999996185303</ele>
        <time>2021-12-09T08:25:50.000Z</time>
      </trkpt>
      <trkpt lat="47.26666" lon="-2.3412">
        <ele>8.3999996185303</ele>
        <time>2021-12-09T08:25:58.000Z</time>
      </trkpt>
      <trkpt lat="47.26685" lon="-2.34136">
        <ele>8.3999996185303</ele>
        <time>2021-12-09T08:26:03.000Z</time>
      </trkpt>
      <trkpt lat="47.26689" lon="-2.34139">
        <ele>8.3999996185303</ele>
        <time>2021-12-09T08:26:04.000Z</time>
      </trkpt>
      <trkpt lat="47.26719" lon="-2.34158">
        <ele>8.3999996185303</ele>
        <time>2021-12-09T08:26:12.000Z</time>
      </trkpt>
      <trkpt lat="47.26724" lon="-2.3416">
        <ele>8.3999996185303</ele>
        <time>2021-12-09T08:26:13.000Z</time>
      </trkpt>
      <trkpt lat="47.26752" lon="-2.34178">
        <ele>8.3999996185303</ele>
        <time>2021-12-09T08:26:20.000Z</time>
      </trkpt>
      <trkpt lat="47.2676" lon="-2.34185">
        <ele>8.3999996185303</ele>
        <time>2021-12-09T08:26:22.000Z</time>
      </trkpt>
      <trkpt lat="47.26775" lon="-2.342">
        <ele>8.3999996185303</ele>
        <time>2021-12-09T08:26:26.000Z</time>
      </trkpt>
      <trkpt lat="47.26783" lon="-2.34205">
        <ele>8.3999996185303</ele>
        <time>2021-12-09T08:26:28.000Z</time>
      </trkpt>
      <trkpt lat="47.26795" lon="-2.34213">
        <ele>8.3999996185303</ele>
        <time>2021-12-09T08:26:31.000Z</time>
      </trkpt>
      <trkpt lat="47.26811" lon="-2.34224">
        <ele>8.3999996185303</ele>
        <time>2021-12-09T08:26:35.000Z</time>
      </trkpt>
      <trkpt lat="47.26819" lon="-2.34231">
        <ele>8.3999996185303</ele>
        <time>2021-12-09T08:26:37.000Z</time>
      </trkpt>
      <trkpt lat="47.2683" lon="-2.34239">
        <ele>8.3999996185303</ele>
        <time>2021-12-09T08:26:40.000Z</time>
      </trkpt>
      <trkpt lat="47.26838" lon="-2.34245">
        <ele>8.3999996185303</ele>
        <time>2021-12-09T08:26:42.000Z</time>
      </trkpt>
      <trkpt lat="47.26868" lon="-2.34267">
        <ele>8.3999996185303</ele>
        <time>2021-12-09T08:26:49.000Z</time>
      </trkpt>
      <trkpt lat="47.26887" lon="-2.34278">
        <ele>8.3999996185303</ele>
        <time>2021-12-09T08:26:53.000Z</time>
      </trkpt>
      <trkpt lat="47.26899" lon="-2.34284">
        <ele>8.3999996185303</ele>
        <time>2021-12-09T08:26:56.000Z</time>
      </trkpt>
      <trkpt lat="47.26907" lon="-2.34291">
        <ele>8.3999996185303</ele>
        <time>2021-12-09T08:26:58.000Z</time>
      </trkpt>
      <trkpt lat="47.2691" lon="-2.34295">
        <ele>8.3999996185303</ele>
        <time>2021-12-09T08:26:59.000Z</time>
      </trkpt>
      <trkpt lat="47.26915" lon="-2.34303">
        <ele>8.3999996185303</ele>
        <time>2021-12-09T08:27:01.000Z</time>
      </trkpt>
      <trkpt lat="47.26927" lon="-2.34307">
        <ele>8.3999996185303</ele>
        <time>2021-12-09T08:27:04.000Z</time>
      </trkpt>
      <trkpt lat="47.26931" lon="-2.34307">
        <ele>8.3999996185303</ele>
        <time>2021-12-09T08:27:05.000Z</time>
      </trkpt>
      <trkpt lat="47.26959" lon="-2.3431">
        <ele>8.3999996185303</ele>
        <time>2021-12-09T08:27:11.000Z</time>
      </trkpt>
      <trkpt lat="47.26972" lon="-2.34313">
        <ele>8.3999996185303</ele>
        <time>2021-12-09T08:27:14.000Z</time>
      </trkpt>
      <trkpt lat="47.26986" lon="-2.34314">
        <ele>8.3999996185303</ele>
        <time>2021-12-09T08:27:17.000Z</time>
      </trkpt>
      <trkpt lat="47.27028" lon="-2.3432">
        <ele>8.3999996185303</ele>
        <time>2021-12-09T08:27:27.000Z</time>
      </trkpt>
      <trkpt lat="47.27035" lon="-2.34324">
        <ele>8.3999996185303</ele>
        <time>2021-12-09T08:27:29.000Z</time>
      </trkpt>
      <trkpt lat="47.2704" lon="-2.34334">
        <ele>8.3999996185303</ele>
        <time>2021-12-09T08:27:31.000Z</time>
      </trkpt>
      <trkpt lat="47.27045" lon="-2.34355">
        <ele>8.3999996185303</ele>
        <time>2021-12-09T08:27:34.000Z</time>
      </trkpt>
      <trkpt lat="47.27046" lon="-2.34361">
        <ele>8.3999996185303</ele>
        <time>2021-12-09T08:27:35.000Z</time>
      </trkpt>
      <trkpt lat="47.27059" lon="-2.34415">
        <ele>8.3999996185303</ele>
        <time>2021-12-09T08:27:43.000Z</time>
      </trkpt>
      <trkpt lat="47.2707" lon="-2.34462">
        <ele>8.3999996185303</ele>
        <time>2021-12-09T08:27:50.000Z</time>
      </trkpt>
      <trkpt lat="47.27075" lon="-2.3448">
        <ele>8.3999996185303</ele>
        <time>2021-12-09T08:27:53.000Z</time>
      </trkpt>
      <trkpt lat="47.27078" lon="-2.34492">
        <ele>8.3999996185303</ele>
        <time>2021-12-09T08:27:55.000Z</time>
      </trkpt>
      <trkpt lat="47.2708" lon="-2.34498">
        <ele>8.3999996185303</ele>
        <time>2021-12-09T08:27:56.000Z</time>
      </trkpt>
      <trkpt lat="47.27091" lon="-2.3455">
        <ele>8.3999996185303</ele>
        <time>2021-12-09T08:28:04.000Z</time>
      </trkpt>
      <trkpt lat="47.27102" lon="-2.34602">
        <ele>8.3999996185303</ele>
        <time>2021-12-09T08:28:12.000Z</time>
      </trkpt>
      <trkpt lat="47.27115" lon="-2.34659">
        <ele>8.3999996185303</ele>
        <time>2021-12-09T08:28:20.000Z</time>
      </trkpt>
      <trkpt lat="47.27129" lon="-2.34717">
        <ele>8.3999996185303</ele>
        <time>2021-12-09T08:28:28.000Z</time>
      </trkpt>
      <trkpt lat="47.27133" lon="-2.3474">
        <ele>8.3999996185303</ele>
        <time>2021-12-09T08:28:31.000Z</time>
      </trkpt>
      <trkpt lat="47.27138" lon="-2.34768">
        <ele>8.3999996185303</ele>
        <time>2021-12-09T08:28:35.000Z</time>
      </trkpt>
      <trkpt lat="47.27149" lon="-2.34816">
        <ele>8.3999996185303</ele>
        <time>2021-12-09T08:28:42.000Z</time>
      </trkpt>
      <trkpt lat="47.27151" lon="-2.3483">
        <ele>8.3999996185303</ele>
        <time>2021-12-09T08:28:44.000Z</time>
      </trkpt>
      <trkpt lat="47.27157" lon="-2.34857">
        <ele>8.3999996185303</ele>
        <time>2021-12-09T08:28:48.000Z</time>
      </trkpt>
      <trkpt lat="47.27171" lon="-2.3491">
        <ele>8.3999996185303</ele>
        <time>2021-12-09T08:28:56.000Z</time>
      </trkpt>
      <trkpt lat="47.27187" lon="-2.34961">
        <ele>8.3999996185303</ele>
        <time>2021-12-09T08:29:04.000Z</time>
      </trkpt>
      <trkpt lat="47.27202" lon="-2.35002">
        <ele>8.3999996185303</ele>
        <time>2021-12-09T08:29:11.000Z</time>
      </trkpt>
      <trkpt lat="47.27217" lon="-2.35044">
        <ele>8.3999996185303</ele>
        <time>2021-12-09T08:29:18.000Z</time>
      </trkpt>
      <trkpt lat="47.2722" lon="-2.35051">
        <ele>9.1999998092651</ele>
        <time>2021-12-09T08:29:19.000Z</time>
      </trkpt>
      <trkpt lat="47.27223" lon="-2.35057">
        <ele>9.6000003814697</ele>
        <time>2021-12-09T08:29:20.000Z</time>
      </trkpt>
      <trkpt lat="47.27225" lon="-2.35063">
        <ele>10</ele>
        <time>2021-12-09T08:29:21.000Z</time>
      </trkpt>
      <trkpt lat="47.27228" lon="-2.3507">
        <ele>10.39999961853</ele>
        <time>2021-12-09T08:29:22.000Z</time>
      </trkpt>
      <trkpt lat="47.27239" lon="-2.35095">
        <ele>10.39999961853</ele>
        <time>2021-12-09T08:29:26.000Z</time>
      </trkpt>
      <trkpt lat="47.27254" lon="-2.35123">
        <ele>10.39999961853</ele>
        <time>2021-12-09T08:29:32.000Z</time>
      </trkpt>
      <trkpt lat="47.27257" lon="-2.35124">
        <ele>10.39999961853</ele>
        <time>2021-12-09T08:29:33.000Z</time>
      </trkpt>
      <trkpt lat="47.27265" lon="-2.35121">
        <ele>10.39999961853</ele>
        <time>2021-12-09T08:29:35.000Z</time>
      </trkpt>
      <trkpt lat="47.27273" lon="-2.35117">
        <ele>10.39999961853</ele>
        <time>2021-12-09T08:29:37.000Z</time>
      </trkpt>
      <trkpt lat="47.2729" lon="-2.35109">
        <ele>10.39999961853</ele>
        <time>2021-12-09T08:29:41.000Z</time>
      </trkpt>
      <trkpt lat="47.27315" lon="-2.35094">
        <ele>10.39999961853</ele>
        <time>2021-12-09T08:29:47.000Z</time>
      </trkpt>
      <trkpt lat="47.27323" lon="-2.3509">
        <ele>11</ele>
        <time>2021-12-09T08:29:49.000Z</time>
      </trkpt>
      <trkpt lat="47.27326" lon="-2.35088">
        <ele>11.39999961853</ele>
        <time>2021-12-09T08:29:50.000Z</time>
      </trkpt>
      <trkpt lat="47.2733" lon="-2.35086">
        <ele>11.800000190735</ele>
        <time>2021-12-09T08:29:51.000Z</time>
      </trkpt>
      <trkpt lat="47.27333" lon="-2.35084">
        <ele>12.199999809265</ele>
        <time>2021-12-09T08:29:52.000Z</time>
      </trkpt>
      <trkpt lat="47.27336" lon="-2.35081">
        <ele>12.800000190735</ele>
        <time>2021-12-09T08:29:53.000Z</time>
      </trkpt>
      <trkpt lat="47.27351" lon="-2.35075">
        <ele>13.199999809265</ele>
        <time>2021-12-09T08:29:57.000Z</time>
      </trkpt>
      <trkpt lat="47.27355" lon="-2.35073">
        <ele>13.60000038147</ele>
        <time>2021-12-09T08:29:58.000Z</time>
      </trkpt>
      <trkpt lat="47.27358" lon="-2.35072">
        <ele>14</ele>
        <time>2021-12-09T08:29:59.000Z</time>
      </trkpt>
      <trkpt lat="47.27362" lon="-2.3507">
        <ele>14.60000038147</ele>
        <time>2021-12-09T08:30:00.000Z</time>
      </trkpt>
      <trkpt lat="47.27366" lon="-2.35068">
        <ele>15</ele>
        <time>2021-12-09T08:30:01.000Z</time>
      </trkpt>
      <trkpt lat="47.27384" lon="-2.35059">
        <ele>15</ele>
        <time>2021-12-09T08:30:06.000Z</time>
      </trkpt>
      <trkpt lat="47.27388" lon="-2.35057">
        <ele>15.39999961853</ele>
        <time>2021-12-09T08:30:07.000Z</time>
      </trkpt>
      <trkpt lat="47.27391" lon="-2.35056">
        <ele>16.200000762939</ele>
        <time>2021-12-09T08:30:08.000Z</time>
      </trkpt>
      <trkpt lat="47.27395" lon="-2.35055">
        <ele>16.60000038147</ele>
        <time>2021-12-09T08:30:09.000Z</time>
      </trkpt>
      <trkpt lat="47.27397" lon="-2.35057">
        <ele>17</ele>
        <time>2021-12-09T08:30:10.000Z</time>
      </trkpt>
      <trkpt lat="47.27399" lon="-2.35061">
        <ele>17</ele>
        <time>2021-12-09T08:30:11.000Z</time>
      </trkpt>
      <trkpt lat="47.27407" lon="-2.35088">
        <ele>17</ele>
        <time>2021-12-09T08:30:16.000Z</time>
      </trkpt>
      <trkpt lat="47.27419" lon="-2.35142">
        <ele>17</ele>
        <time>2021-12-09T08:30:25.000Z</time>
      </trkpt>
      <trkpt lat="47.2743" lon="-2.35172">
        <ele>17</ele>
        <time>2021-12-09T08:30:31.000Z</time>
      </trkpt>
      <trkpt lat="47.2744" lon="-2.35169">
        <ele>17</ele>
        <time>2021-12-09T08:30:34.000Z</time>
      </trkpt>
      <trkpt lat="47.27451" lon="-2.3516">
        <ele>17.39999961853</ele>
        <time>2021-12-09T08:30:37.000Z</time>
      </trkpt>
      <trkpt lat="47.27455" lon="-2.35158">
        <ele>17.799999237061</ele>
        <time>2021-12-09T08:30:38.000Z</time>
      </trkpt>
      <trkpt lat="47.27459" lon="-2.35157">
        <ele>18.200000762939</ele>
        <time>2021-12-09T08:30:39.000Z</time>
      </trkpt>
      <trkpt lat="47.27463" lon="-2.35155">
        <ele>18.799999237061</ele>
        <time>2021-12-09T08:30:40.000Z</time>
      </trkpt>
      <trkpt lat="47.27467" lon="-2.35154">
        <ele>19.200000762939</ele>
        <time>2021-12-09T08:30:41.000Z</time>
      </trkpt>
      <trkpt lat="47.27475" lon="-2.35151">
        <ele>19.200000762939</ele>
        <time>2021-12-09T08:30:43.000Z</time>
      </trkpt>
      <trkpt lat="47.27502" lon="-2.35138">
        <ele>19.200000762939</ele>
        <time>2021-12-09T08:30:50.000Z</time>
      </trkpt>
      <trkpt lat="47.27506" lon="-2.35135">
        <ele>19.200000762939</ele>
        <time>2021-12-09T08:30:51.000Z</time>
      </trkpt>
      <trkpt lat="47.27517" lon="-2.35132">
        <ele>19.200000762939</ele>
        <time>2021-12-09T08:30:54.000Z</time>
      </trkpt>
      <trkpt lat="47.27521" lon="-2.35133">
        <ele>19.60000038147</ele>
        <time>2021-12-09T08:30:55.000Z</time>
      </trkpt>
      <trkpt lat="47.27525" lon="-2.35135">
        <ele>20</ele>
        <time>2021-12-09T08:30:56.000Z</time>
      </trkpt>
      <trkpt lat="47.27528" lon="-2.35137">
        <ele>20.799999237061</ele>
        <time>2021-12-09T08:30:57.000Z</time>
      </trkpt>
      <trkpt lat="47.27532" lon="-2.35139">
        <ele>21.200000762939</ele>
        <time>2021-12-09T08:30:58.000Z</time>
      </trkpt>
      <trkpt lat="47.27545" lon="-2.3514">
        <ele>21.200000762939</ele>
        <time>2021-12-09T08:31:01.000Z</time>
      </trkpt>
      <trkpt lat="47.27583" lon="-2.35133">
        <ele>21.200000762939</ele>
        <time>2021-12-09T08:31:09.000Z</time>
      </trkpt>
      <trkpt lat="47.27597" lon="-2.35133">
        <ele>21.200000762939</ele>
        <time>2021-12-09T08:31:12.000Z</time>
      </trkpt>
      <trkpt lat="47.27606" lon="-2.35138">
        <ele>21.200000762939</ele>
        <time>2021-12-09T08:31:14.000Z</time>
      </trkpt>
      <trkpt lat="47.27611" lon="-2.35159">
        <ele>21.200000762939</ele>
        <time>2021-12-09T08:31:17.000Z</time>
      </trkpt>
      <trkpt lat="47.27612" lon="-2.35165">
        <ele>21.200000762939</ele>
        <time>2021-12-09T08:31:18.000Z</time>
      </trkpt>
      <trkpt lat="47.27619" lon="-2.35173">
        <ele>21.200000762939</ele>
        <time>2021-12-09T08:31:20.000Z</time>
      </trkpt>
      <trkpt lat="47.27629" lon="-2.35175">
        <ele>21.200000762939</ele>
        <time>2021-12-09T08:31:22.000Z</time>
      </trkpt>
      <trkpt lat="47.27635" lon="-2.35174">
        <ele>21.200000762939</ele>
        <time>2021-12-09T08:31:23.000Z</time>
      </trkpt>
      <trkpt lat="47.2764" lon="-2.35172">
        <ele>21.200000762939</ele>
        <time>2021-12-09T08:31:24.000Z</time>
      </trkpt>
      <trkpt lat="47.27656" lon="-2.3517">
        <ele>20.799999237061</ele>
        <time>2021-12-09T08:31:27.000Z</time>
      </trkpt>
      <trkpt lat="47.27662" lon="-2.35171">
        <ele>20.39999961853</ele>
        <time>2021-12-09T08:31:28.000Z</time>
      </trkpt>
      <trkpt lat="47.27667" lon="-2.35173">
        <ele>20</ele>
        <time>2021-12-09T08:31:29.000Z</time>
      </trkpt>
      <trkpt lat="47.27671" lon="-2.35177">
        <ele>19.60000038147</ele>
        <time>2021-12-09T08:31:30.000Z</time>
      </trkpt>
      <trkpt lat="47.27674" lon="-2.35184">
        <ele>19.200000762939</ele>
        <time>2021-12-09T08:31:31.000Z</time>
      </trkpt>
      <trkpt lat="47.27675" lon="-2.35192">
        <ele>19.200000762939</ele>
        <time>2021-12-09T08:31:32.000Z</time>
      </trkpt>
      <trkpt lat="47.27678" lon="-2.35217">
        <ele>19.200000762939</ele>
        <time>2021-12-09T08:31:36.000Z</time>
      </trkpt>
      <trkpt lat="47.2768" lon="-2.3522">
        <ele>18.799999237061</ele>
        <time>2021-12-09T08:31:37.000Z</time>
      </trkpt>
      <trkpt lat="47.27684" lon="-2.3522">
        <ele>18.200000762939</ele>
        <time>2021-12-09T08:31:38.000Z</time>
      </trkpt>
      <trkpt lat="47.27688" lon="-2.3522">
        <ele>17.799999237061</ele>
        <time>2021-12-09T08:31:39.000Z</time>
      </trkpt>
      <trkpt lat="47.27693" lon="-2.35218">
        <ele>17.200000762939</ele>
        <time>2021-12-09T08:31:40.000Z</time>
      </trkpt>
      <trkpt lat="47.27698" lon="-2.35217">
        <ele>16.799999237061</ele>
        <time>2021-12-09T08:31:41.000Z</time>
      </trkpt>
      <trkpt lat="47.27719" lon="-2.3521">
        <ele>16.799999237061</ele>
        <time>2021-12-09T08:31:45.000Z</time>
      </trkpt>
      <trkpt lat="47.27754" lon="-2.352">
        <ele>16.39999961853</ele>
        <time>2021-12-09T08:31:51.000Z</time>
      </trkpt>
      <trkpt lat="47.27759" lon="-2.35199">
        <ele>16</ele>
        <time>2021-12-09T08:31:52.000Z</time>
      </trkpt>
      <trkpt lat="47.27764" lon="-2.35199">
        <ele>15.60000038147</ele>
        <time>2021-12-09T08:31:53.000Z</time>
      </trkpt>
      <trkpt lat="47.27768" lon="-2.352">
        <ele>15.199999809265</ele>
        <time>2021-12-09T08:31:54.000Z</time>
      </trkpt>
      <trkpt lat="47.27771" lon="-2.35203">
        <ele>14.800000190735</ele>
        <time>2021-12-09T08:31:55.000Z</time>
      </trkpt>
      <trkpt lat="47.27776" lon="-2.35221">
        <ele>14.800000190735</ele>
        <time>2021-12-09T08:31:58.000Z</time>
      </trkpt>
      <trkpt lat="47.27778" lon="-2.35227">
        <ele>14.800000190735</ele>
        <time>2021-12-09T08:31:59.000Z</time>
      </trkpt>
      <trkpt lat="47.27779" lon="-2.35235">
        <ele>14.800000190735</ele>
        <time>2021-12-09T08:32:00.000Z</time>
      </trkpt>
      <trkpt lat="47.27786" lon="-2.35273">
        <ele>14.800000190735</ele>
        <time>2021-12-09T08:32:05.000Z</time>
      </trkpt>
      <trkpt lat="47.27788" lon="-2.35288">
        <ele>14.800000190735</ele>
        <time>2021-12-09T08:32:07.000Z</time>
      </trkpt>
      <trkpt lat="47.27795" lon="-2.35319">
        <ele>14.800000190735</ele>
        <time>2021-12-09T08:32:11.000Z</time>
      </trkpt>
      <trkpt lat="47.27806" lon="-2.35354">
        <ele>14.800000190735</ele>
        <time>2021-12-09T08:32:16.000Z</time>
      </trkpt>
      <trkpt lat="47.2781" lon="-2.35359">
        <ele>14.800000190735</ele>
        <time>2021-12-09T08:32:17.000Z</time>
      </trkpt>
      <trkpt lat="47.27824" lon="-2.35364">
        <ele>14.800000190735</ele>
        <time>2021-12-09T08:32:20.000Z</time>
      </trkpt>
      <trkpt lat="47.27833" lon="-2.35363">
        <ele>14.800000190735</ele>
        <time>2021-12-09T08:32:22.000Z</time>
      </trkpt>
      <trkpt lat="47.27852" lon="-2.35361">
        <ele>14.800000190735</ele>
        <time>2021-12-09T08:32:26.000Z</time>
      </trkpt>
      <trkpt lat="47.27865" lon="-2.35361">
        <ele>14.800000190735</ele>
        <time>2021-12-09T08:32:29.000Z</time>
      </trkpt>
      <trkpt lat="47.27873" lon="-2.35365">
        <ele>14.800000190735</ele>
        <time>2021-12-09T08:32:31.000Z</time>
      </trkpt>
      <trkpt lat="47.27893" lon="-2.35389">
        <ele>14.800000190735</ele>
        <time>2021-12-09T08:32:37.000Z</time>
      </trkpt>
      <trkpt lat="47.27902" lon="-2.35403">
        <ele>14.800000190735</ele>
        <time>2021-12-09T08:32:40.000Z</time>
      </trkpt>
      <trkpt lat="47.27913" lon="-2.35417">
        <ele>14.800000190735</ele>
        <time>2021-12-09T08:32:43.000Z</time>
      </trkpt>
      <trkpt lat="47.27944" lon="-2.35451">
        <ele>14.800000190735</ele>
        <time>2021-12-09T08:32:51.000Z</time>
      </trkpt>
      <trkpt lat="47.27953" lon="-2.35458">
        <ele>14.800000190735</ele>
        <time>2021-12-09T08:32:53.000Z</time>
      </trkpt>
      <trkpt lat="47.27971" lon="-2.35472">
        <ele>14.800000190735</ele>
        <time>2021-12-09T08:32:57.000Z</time>
      </trkpt>
      <trkpt lat="47.27989" lon="-2.35501">
        <ele>14.800000190735</ele>
        <time>2021-12-09T08:33:02.000Z</time>
      </trkpt>
      <trkpt lat="47.28004" lon="-2.35539">
        <ele>14.800000190735</ele>
        <time>2021-12-09T08:33:09.000Z</time>
      </trkpt>
      <trkpt lat="47.28009" lon="-2.35551">
        <ele>15.199999809265</ele>
        <time>2021-12-09T08:33:12.000Z</time>
      </trkpt>
      <trkpt lat="47.28012" lon="-2.35554">
        <ele>15.60000038147</ele>
        <time>2021-12-09T08:33:13.000Z</time>
      </trkpt>
      <trkpt lat="47.28016" lon="-2.35555">
        <ele>16</ele>
        <time>2021-12-09T08:33:14.000Z</time>
      </trkpt>
      <trkpt lat="47.2802" lon="-2.35557">
        <ele>16.39999961853</ele>
        <time>2021-12-09T08:33:15.000Z</time>
      </trkpt>
      <trkpt lat="47.28024" lon="-2.3556">
        <ele>16.799999237061</ele>
        <time>2021-12-09T08:33:16.000Z</time>
      </trkpt>
      <trkpt lat="47.28034" lon="-2.35569">
        <ele>16.799999237061</ele>
        <time>2021-12-09T08:33:19.000Z</time>
      </trkpt>
      <trkpt lat="47.28057" lon="-2.3558">
        <ele>17.60000038147</ele>
        <time>2021-12-09T08:33:26.000Z</time>
      </trkpt>
      <trkpt lat="47.2806" lon="-2.35581">
        <ele>18</ele>
        <time>2021-12-09T08:33:27.000Z</time>
      </trkpt>
      <trkpt lat="47.28063" lon="-2.35582">
        <ele>18.39999961853</ele>
        <time>2021-12-09T08:33:28.000Z</time>
      </trkpt>
      <trkpt lat="47.28066" lon="-2.35584">
        <ele>18.799999237061</ele>
        <time>2021-12-09T08:33:29.000Z</time>
      </trkpt>
      <trkpt lat="47.28068" lon="-2.35587">
        <ele>18.799999237061</ele>
        <time>2021-12-09T08:33:30.000Z</time>
      </trkpt>
      <trkpt lat="47.28081" lon="-2.35607">
        <ele>18.799999237061</ele>
        <time>2021-12-09T08:33:36.000Z</time>
      </trkpt>
      <trkpt lat="47.28082" lon="-2.3561">
        <ele>18.799999237061</ele>
        <time>2021-12-09T08:33:37.000Z</time>
      </trkpt>
      <trkpt lat="47.28082" lon="-2.35613">
        <ele>18.799999237061</ele>
        <time>2021-12-09T08:33:39.000Z</time>
      </trkpt>
      <trkpt lat="47.28082" lon="-2.35614">
        <ele>18.799999237061</ele>
        <time>2021-12-09T08:33:42.000Z</time>
      </trkpt>
      <trkpt lat="47.28078" lon="-2.35607">
        <ele>18.799999237061</ele>
        <time>2021-12-09T08:35:44.000Z</time>
      </trkpt>
      <trkpt lat="47.28077" lon="-2.35606">
        <ele>18.799999237061</ele>
        <time>2021-12-09T08:35:45.000Z</time>
      </trkpt>
      <trkpt lat="47.28073" lon="-2.35614">
        <ele>18.799999237061</ele>
        <time>2021-12-09T08:35:49.000Z</time>
      </trkpt>
      <trkpt lat="47.28073" lon="-2.3562">
        <ele>18.799999237061</ele>
        <time>2021-12-09T08:35:51.000Z</time>
      </trkpt>
      <trkpt lat="47.28074" lon="-2.35626">
        <ele>18.799999237061</ele>
        <time>2021-12-09T08:35:53.000Z</time>
      </trkpt>
      <trkpt lat="47.28074" lon="-2.35629">
        <ele>19.60000038147</ele>
        <time>2021-12-09T08:35:54.000Z</time>
      </trkpt>
      <trkpt lat="47.28075" lon="-2.35633">
        <ele>20</ele>
        <time>2021-12-09T08:35:55.000Z</time>
      </trkpt>
      <trkpt lat="47.28076" lon="-2.35637">
        <ele>20.39999961853</ele>
        <time>2021-12-09T08:35:56.000Z</time>
      </trkpt>
      <trkpt lat="47.28077" lon="-2.35642">
        <ele>21</ele>
        <time>2021-12-09T08:35:57.000Z</time>
      </trkpt>
      <trkpt lat="47.28077" lon="-2.35646">
        <ele>21</ele>
        <time>2021-12-09T08:35:58.000Z</time>
      </trkpt>
      <trkpt lat="47.28078" lon="-2.3565">
        <ele>21.39999961853</ele>
        <time>2021-12-09T08:35:59.000Z</time>
      </trkpt>
      <trkpt lat="47.28079" lon="-2.35654">
        <ele>21.799999237061</ele>
        <time>2021-12-09T08:36:00.000Z</time>
      </trkpt>
      <trkpt lat="47.2808" lon="-2.35659">
        <ele>22.200000762939</ele>
        <time>2021-12-09T08:36:01.000Z</time>
      </trkpt>
      <trkpt lat="47.28082" lon="-2.35662">
        <ele>22.799999237061</ele>
        <time>2021-12-09T08:36:02.000Z</time>
      </trkpt>
      <trkpt lat="47.28083" lon="-2.35666">
        <ele>23.200000762939</ele>
        <time>2021-12-09T08:36:03.000Z</time>
      </trkpt>
      <trkpt lat="47.28084" lon="-2.35669">
        <ele>23.200000762939</ele>
        <time>2021-12-09T08:36:04.000Z</time>
      </trkpt>
      <trkpt lat="47.28088" lon="-2.35689">
        <ele>23.60000038147</ele>
        <time>2021-12-09T08:36:09.000Z</time>
      </trkpt>
      <trkpt lat="47.28089" lon="-2.35692">
        <ele>24</ele>
        <time>2021-12-09T08:36:10.000Z</time>
      </trkpt>
      <trkpt lat="47.28091" lon="-2.35695">
        <ele>24.39999961853</ele>
        <time>2021-12-09T08:36:11.000Z</time>
      </trkpt>
      <trkpt lat="47.28092" lon="-2.35698">
        <ele>24.799999237061</ele>
        <time>2021-12-09T08:36:12.000Z</time>
      </trkpt>
      <trkpt lat="47.28093" lon="-2.35702">
        <ele>25.200000762939</ele>
        <time>2021-12-09T08:36:13.000Z</time>
      </trkpt>
      <trkpt lat="47.28094" lon="-2.35705">
        <ele>25.200000762939</ele>
        <time>2021-12-09T08:36:14.000Z</time>
      </trkpt>
      <trkpt lat="47.28093" lon="-2.35728">
        <ele>25.200000762939</ele>
        <time>2021-12-09T08:36:20.000Z</time>
      </trkpt>
      <trkpt lat="47.2809" lon="-2.35753">
        <ele>25.200000762939</ele>
        <time>2021-12-09T08:36:24.000Z</time>
      </trkpt>
      <trkpt lat="47.28088" lon="-2.35767">
        <ele>25.200000762939</ele>
        <time>2021-12-09T08:36:26.000Z</time>
      </trkpt>
      <trkpt lat="47.28081" lon="-2.35796">
        <ele>25.200000762939</ele>
        <time>2021-12-09T08:36:31.000Z</time>
      </trkpt>
      <trkpt lat="47.2808" lon="-2.35801">
        <ele>24.799999237061</ele>
        <time>2021-12-09T08:36:32.000Z</time>
      </trkpt>
      <trkpt lat="47.28081" lon="-2.35806">
        <ele>24.39999961853</ele>
        <time>2021-12-09T08:36:33.000Z</time>
      </trkpt>
      <trkpt lat="47.28083" lon="-2.35811">
        <ele>23.799999237061</ele>
        <time>2021-12-09T08:36:34.000Z</time>
      </trkpt>
      <trkpt lat="47.28087" lon="-2.35818">
        <ele>23.39999961853</ele>
        <time>2021-12-09T08:36:35.000Z</time>
      </trkpt>
      <trkpt lat="47.2809" lon="-2.35824">
        <ele>23</ele>
        <time>2021-12-09T08:36:36.000Z</time>
      </trkpt>
      <trkpt lat="47.28092" lon="-2.35829">
        <ele>23</ele>
        <time>2021-12-09T08:36:37.000Z</time>
      </trkpt>
      <trkpt lat="47.28094" lon="-2.35834">
        <ele>23</ele>
        <time>2021-12-09T08:36:38.000Z</time>
      </trkpt>
      <trkpt lat="47.28108" lon="-2.35856">
        <ele>23</ele>
        <time>2021-12-09T08:36:44.000Z</time>
      </trkpt>
      <trkpt lat="47.28122" lon="-2.35881">
        <ele>23</ele>
        <time>2021-12-09T08:36:50.000Z</time>
      </trkpt>
      <trkpt lat="47.28135" lon="-2.35905">
        <ele>23</ele>
        <time>2021-12-09T08:36:57.000Z</time>
      </trkpt>
      <trkpt lat="47.28152" lon="-2.35932">
        <ele>23</ele>
        <time>2021-12-09T08:37:03.000Z</time>
      </trkpt>
      <trkpt lat="47.28166" lon="-2.35961">
        <ele>22.60000038147</ele>
        <time>2021-12-09T08:37:09.000Z</time>
      </trkpt>
      <trkpt lat="47.28169" lon="-2.35966">
        <ele>22.200000762939</ele>
        <time>2021-12-09T08:37:10.000Z</time>
      </trkpt>
      <trkpt lat="47.28171" lon="-2.35972">
        <ele>21.799999237061</ele>
        <time>2021-12-09T08:37:11.000Z</time>
      </trkpt>
      <trkpt lat="47.28173" lon="-2.35978">
        <ele>21.39999961853</ele>
        <time>2021-12-09T08:37:12.000Z</time>
      </trkpt>
      <trkpt lat="47.28175" lon="-2.35984">
        <ele>20.799999237061</ele>
        <time>2021-12-09T08:37:13.000Z</time>
      </trkpt>
      <trkpt lat="47.28177" lon="-2.3599">
        <ele>20.799999237061</ele>
        <time>2021-12-09T08:37:14.000Z</time>
      </trkpt>
      <trkpt lat="47.28179" lon="-2.35996">
        <ele>20.799999237061</ele>
        <time>2021-12-09T08:37:15.000Z</time>
      </trkpt>
      <trkpt lat="47.28191" lon="-2.36028">
        <ele>20.799999237061</ele>
        <time>2021-12-09T08:37:21.000Z</time>
      </trkpt>
      <trkpt lat="47.28202" lon="-2.36047">
        <ele>20.799999237061</ele>
        <time>2021-12-09T08:37:26.000Z</time>
      </trkpt>
      <trkpt lat="47.28212" lon="-2.36077">
        <ele>20.799999237061</ele>
        <time>2021-12-09T08:37:32.000Z</time>
      </trkpt>
      <trkpt lat="47.28218" lon="-2.36096">
        <ele>20.799999237061</ele>
        <time>2021-12-09T08:37:37.000Z</time>
      </trkpt>
      <trkpt lat="47.28226" lon="-2.36114">
        <ele>20.799999237061</ele>
        <time>2021-12-09T08:37:42.000Z</time>
      </trkpt>
      <trkpt lat="47.28235" lon="-2.36137">
        <ele>20.799999237061</ele>
        <time>2021-12-09T08:37:46.000Z</time>
      </trkpt>
      <trkpt lat="47.28237" lon="-2.36144">
        <ele>20.799999237061</ele>
        <time>2021-12-09T08:37:47.000Z</time>
      </trkpt>
      <trkpt lat="47.28249" lon="-2.36176">
        <ele>20.799999237061</ele>
        <time>2021-12-09T08:37:52.000Z</time>
      </trkpt>
      <trkpt lat="47.28263" lon="-2.36217">
        <ele>20.799999237061</ele>
        <time>2021-12-09T08:37:58.000Z</time>
      </trkpt>
      <trkpt lat="47.2827" lon="-2.36231">
        <ele>20.799999237061</ele>
        <time>2021-12-09T08:38:00.000Z</time>
      </trkpt>
      <trkpt lat="47.28277" lon="-2.36237">
        <ele>20.799999237061</ele>
        <time>2021-12-09T08:38:02.000Z</time>
      </trkpt>
      <trkpt lat="47.28285" lon="-2.3624">
        <ele>20.799999237061</ele>
        <time>2021-12-09T08:38:04.000Z</time>
      </trkpt>
      <trkpt lat="47.28303" lon="-2.36243">
        <ele>20.799999237061</ele>
        <time>2021-12-09T08:38:09.000Z</time>
      </trkpt>
      <trkpt lat="47.28321" lon="-2.36248">
        <ele>20.799999237061</ele>
        <time>2021-12-09T08:38:15.000Z</time>
      </trkpt>
      <trkpt lat="47.28337" lon="-2.36255">
        <ele>20.799999237061</ele>
        <time>2021-12-09T08:38:21.000Z</time>
      </trkpt>
      <trkpt lat="47.28339" lon="-2.36256">
        <ele>21.39999961853</ele>
        <time>2021-12-09T08:38:22.000Z</time>
      </trkpt>
      <trkpt lat="47.28342" lon="-2.36256">
        <ele>21.799999237061</ele>
        <time>2021-12-09T08:38:23.000Z</time>
      </trkpt>
      <trkpt lat="47.28344" lon="-2.36257">
        <ele>22.200000762939</ele>
        <time>2021-12-09T08:38:24.000Z</time>
      </trkpt>
      <trkpt lat="47.28346" lon="-2.36258">
        <ele>22.60000038147</ele>
        <time>2021-12-09T08:38:25.000Z</time>
      </trkpt>
      <trkpt lat="47.28349" lon="-2.36259">
        <ele>23</ele>
        <time>2021-12-09T08:38:26.000Z</time>
      </trkpt>
      <trkpt lat="47.28351" lon="-2.3626">
        <ele>23</ele>
        <time>2021-12-09T08:38:27.000Z</time>
      </trkpt>
      <trkpt lat="47.28366" lon="-2.36266">
        <ele>23</ele>
        <time>2021-12-09T08:38:34.000Z</time>
      </trkpt>
      <trkpt lat="47.28368" lon="-2.36266">
        <ele>23.39999961853</ele>
        <time>2021-12-09T08:38:35.000Z</time>
      </trkpt>
      <trkpt lat="47.28369" lon="-2.36266">
        <ele>23.799999237061</ele>
        <time>2021-12-09T08:38:36.000Z</time>
      </trkpt>
      <trkpt lat="47.28371" lon="-2.36266">
        <ele>24.200000762939</ele>
        <time>2021-12-09T08:38:37.000Z</time>
      </trkpt>
      <trkpt lat="47.28373" lon="-2.36266">
        <ele>24.60000038147</ele>
        <time>2021-12-09T08:38:38.000Z</time>
      </trkpt>
      <trkpt lat="47.28375" lon="-2.36267">
        <ele>25</ele>
        <time>2021-12-09T08:38:39.000Z</time>
      </trkpt>
      <trkpt lat="47.28378" lon="-2.36268">
        <ele>25</ele>
        <time>2021-12-09T08:38:40.000Z</time>
      </trkpt>
      <trkpt lat="47.28388" lon="-2.36272">
        <ele>25</ele>
        <time>2021-12-09T08:38:46.000Z</time>
      </trkpt>
      <trkpt lat="47.28392" lon="-2.36275">
        <ele>25</ele>
        <time>2021-12-09T08:38:48.000Z</time>
      </trkpt>
      <trkpt lat="47.28399" lon="-2.3628">
        <ele>25.39999961853</ele>
        <time>2021-12-09T08:38:50.000Z</time>
      </trkpt>
      <trkpt lat="47.28404" lon="-2.36284">
        <ele>25.799999237061</ele>
        <time>2021-12-09T08:38:51.000Z</time>
      </trkpt>
      <trkpt lat="47.28408" lon="-2.36284">
        <ele>26.200000762939</ele>
        <time>2021-12-09T08:38:52.000Z</time>
      </trkpt>
      <trkpt lat="47.28412" lon="-2.36285">
        <ele>26.799999237061</ele>
        <time>2021-12-09T08:38:53.000Z</time>
      </trkpt>
      <trkpt lat="47.28415" lon="-2.36285">
        <ele>27.200000762939</ele>
        <time>2021-12-09T08:38:54.000Z</time>
      </trkpt>
      <trkpt lat="47.28426" lon="-2.36286">
        <ele>27.200000762939</ele>
        <time>2021-12-09T08:38:57.000Z</time>
      </trkpt>
      <trkpt lat="47.28441" lon="-2.36296">
        <ele>27.200000762939</ele>
        <time>2021-12-09T08:39:03.000Z</time>
      </trkpt>
      <trkpt lat="47.28443" lon="-2.36297">
        <ele>27.200000762939</ele>
        <time>2021-12-09T08:39:04.000Z</time>
      </trkpt>
      <trkpt lat="47.28454" lon="-2.36292">
        <ele>27.60000038147</ele>
        <time>2021-12-09T08:39:09.000Z</time>
      </trkpt>
      <trkpt lat="47.28456" lon="-2.3629">
        <ele>28</ele>
        <time>2021-12-09T08:39:10.000Z</time>
      </trkpt>
      <trkpt lat="47.28457" lon="-2.36287">
        <ele>28.39999961853</ele>
        <time>2021-12-09T08:39:11.000Z</time>
      </trkpt>
      <trkpt lat="47.28459" lon="-2.36285">
        <ele>29.200000762939</ele>
        <time>2021-12-09T08:39:12.000Z</time>
      </trkpt>
      <trkpt lat="47.28459" lon="-2.36278">
        <ele>29.200000762939</ele>
        <time>2021-12-09T08:39:15.000Z</time>
      </trkpt>
      <trkpt lat="47.28458" lon="-2.36257">
        <ele>29.200000762939</ele>
        <time>2021-12-09T08:39:20.000Z</time>
      </trkpt>
      <trkpt lat="47.28457" lon="-2.36253">
        <ele>29.200000762939</ele>
        <time>2021-12-09T08:39:21.000Z</time>
      </trkpt>
      <trkpt lat="47.28457" lon="-2.36228">
        <ele>29.200000762939</ele>
        <time>2021-12-09T08:39:27.000Z</time>
      </trkpt>
      <trkpt lat="47.28456" lon="-2.36207">
        <ele>29.200000762939</ele>
        <time>2021-12-09T08:39:33.000Z</time>
      </trkpt>
      <trkpt lat="47.28458" lon="-2.36202">
        <ele>29.60000038147</ele>
        <time>2021-12-09T08:39:35.000Z</time>
      </trkpt>
      <trkpt lat="47.28459" lon="-2.36199">
        <ele>30</ele>
        <time>2021-12-09T08:39:36.000Z</time>
      </trkpt>
      <trkpt lat="47.28461" lon="-2.36197">
        <ele>30.799999237061</ele>
        <time>2021-12-09T08:39:37.000Z</time>
      </trkpt>
      <trkpt lat="47.28463" lon="-2.36194">
        <ele>31.39999961853</ele>
        <time>2021-12-09T08:39:38.000Z</time>
      </trkpt>
      <trkpt lat="47.28469" lon="-2.36186">
        <ele>31.39999961853</ele>
        <time>2021-12-09T08:39:41.000Z</time>
      </trkpt>
      <trkpt lat="47.28471" lon="-2.36184">
        <ele>31.39999961853</ele>
        <time>2021-12-09T08:39:42.000Z</time>
      </trkpt>
      <trkpt lat="47.28479" lon="-2.36174">
        <ele>31.39999961853</ele>
        <time>2021-12-09T08:39:47.000Z</time>
      </trkpt>
      <trkpt lat="47.2848" lon="-2.36172">
        <ele>31.799999237061</ele>
        <time>2021-12-09T08:39:48.000Z</time>
      </trkpt>
      <trkpt lat="47.28481" lon="-2.3617">
        <ele>32.200000762939</ele>
        <time>2021-12-09T08:39:49.000Z</time>
      </trkpt>
      <trkpt lat="47.28482" lon="-2.36168">
        <ele>32.599998474121</ele>
        <time>2021-12-09T08:39:50.000Z</time>
      </trkpt>
      <trkpt lat="47.28483" lon="-2.36167">
        <ele>33</ele>
        <time>2021-12-09T08:39:51.000Z</time>
      </trkpt>
      <trkpt lat="47.28484" lon="-2.36166">
        <ele>33.400001525879</ele>
        <time>2021-12-09T08:39:52.000Z</time>
      </trkpt>
      <trkpt lat="47.28488" lon="-2.36162">
        <ele>33.400001525879</ele>
        <time>2021-12-09T08:39:54.000Z</time>
      </trkpt>
      <trkpt lat="47.28499" lon="-2.3615">
        <ele>33.400001525879</ele>
        <time>2021-12-09T08:40:00.000Z</time>
      </trkpt>
      <trkpt lat="47.28503" lon="-2.36149">
        <ele>33.400001525879</ele>
        <time>2021-12-09T08:40:02.000Z</time>
      </trkpt>
      <trkpt lat="47.28505" lon="-2.36149">
        <ele>33.799999237061</ele>
        <time>2021-12-09T08:40:03.000Z</time>
      </trkpt>
      <trkpt lat="47.28507" lon="-2.3615">
        <ele>34.200000762939</ele>
        <time>2021-12-09T08:40:04.000Z</time>
      </trkpt>
      <trkpt lat="47.28509" lon="-2.36151">
        <ele>34.799999237061</ele>
        <time>2021-12-09T08:40:05.000Z</time>
      </trkpt>
      <trkpt lat="47.28511" lon="-2.36153">
        <ele>35.200000762939</ele>
        <time>2021-12-09T08:40:06.000Z</time>
      </trkpt>
      <trkpt lat="47.28513" lon="-2.36154">
        <ele>35.599998474121</ele>
        <time>2021-12-09T08:40:07.000Z</time>
      </trkpt>
      <trkpt lat="47.28523" lon="-2.36153">
        <ele>35.599998474121</ele>
        <time>2021-12-09T08:40:12.000Z</time>
      </trkpt>
      <trkpt lat="47.28527" lon="-2.36152">
        <ele>36</ele>
        <time>2021-12-09T08:40:14.000Z</time>
      </trkpt>
      <trkpt lat="47.28529" lon="-2.36152">
        <ele>36.400001525879</ele>
        <time>2021-12-09T08:40:15.000Z</time>
      </trkpt>
      <trkpt lat="47.2853" lon="-2.36152">
        <ele>37</ele>
        <time>2021-12-09T08:40:16.000Z</time>
      </trkpt>
      <trkpt lat="47.28532" lon="-2.36153">
        <ele>37.400001525879</ele>
        <time>2021-12-09T08:40:17.000Z</time>
      </trkpt>
      <trkpt lat="47.28533" lon="-2.36153">
        <ele>37.799999237061</ele>
        <time>2021-12-09T08:40:18.000Z</time>
      </trkpt>
      <trkpt lat="47.28543" lon="-2.36156">
        <ele>38.200000762939</ele>
        <time>2021-12-09T08:40:22.000Z</time>
      </trkpt>
      <trkpt lat="47.28545" lon="-2.36156">
        <ele>38.599998474121</ele>
        <time>2021-12-09T08:40:23.000Z</time>
      </trkpt>
      <trkpt lat="47.28546" lon="-2.36155">
        <ele>39</ele>
        <time>2021-12-09T08:40:24.000Z</time>
      </trkpt>
      <trkpt lat="47.28547" lon="-2.36155">
        <ele>39.400001525879</ele>
        <time>2021-12-09T08:40:25.000Z</time>
      </trkpt>
      <trkpt lat="47.28547" lon="-2.36154">
        <ele>40</ele>
        <time>2021-12-09T08:40:26.000Z</time>
      </trkpt>
      <trkpt lat="47.28546" lon="-2.36152">
        <ele>40</ele>
        <time>2021-12-09T08:40:27.000Z</time>
      </trkpt>
      <trkpt lat="47.28544" lon="-2.36145">
        <ele>40</ele>
        <time>2021-12-09T08:40:29.000Z</time>
      </trkpt>
      <trkpt lat="47.28535" lon="-2.36118">
        <ele>40</ele>
        <time>2021-12-09T08:40:35.000Z</time>
      </trkpt>
      <trkpt lat="47.28534" lon="-2.36109">
        <ele>40</ele>
        <time>2021-12-09T08:40:37.000Z</time>
      </trkpt>
      <trkpt lat="47.28531" lon="-2.36092">
        <ele>40.400001525879</ele>
        <time>2021-12-09T08:40:42.000Z</time>
      </trkpt>
      <trkpt lat="47.2853" lon="-2.36088">
        <ele>40.799999237061</ele>
        <time>2021-12-09T08:40:43.000Z</time>
      </trkpt>
      <trkpt lat="47.2853" lon="-2.36085">
        <ele>41.200000762939</ele>
        <time>2021-12-09T08:40:44.000Z</time>
      </trkpt>
      <trkpt lat="47.28529" lon="-2.36081">
        <ele>41.599998474121</ele>
        <time>2021-12-09T08:40:45.000Z</time>
      </trkpt>
      <trkpt lat="47.28528" lon="-2.36078">
        <ele>42</ele>
        <time>2021-12-09T08:40:46.000Z</time>
      </trkpt>
      <trkpt lat="47.28527" lon="-2.36075">
        <ele>42</ele>
        <time>2021-12-09T08:40:47.000Z</time>
      </trkpt>
      <trkpt lat="47.28525" lon="-2.36073">
        <ele>42</ele>
        <time>2021-12-09T08:40:48.000Z</time>
      </trkpt>
      <trkpt lat="47.28512" lon="-2.36055">
        <ele>42</ele>
        <time>2021-12-09T08:40:54.000Z</time>
      </trkpt>
      <trkpt lat="47.28495" lon="-2.36041">
        <ele>42</ele>
        <time>2021-12-09T08:41:00.000Z</time>
      </trkpt>
      <trkpt lat="47.2848" lon="-2.36034">
        <ele>42</ele>
        <time>2021-12-09T08:41:04.000Z</time>
      </trkpt>
      <trkpt lat="47.28464" lon="-2.3602">
        <ele>42</ele>
        <time>2021-12-09T08:41:08.000Z</time>
      </trkpt>
      <trkpt lat="47.28454" lon="-2.35997">
        <ele>42</ele>
        <time>2021-12-09T08:41:13.000Z</time>
      </trkpt>
      <trkpt lat="47.28456" lon="-2.35968">
        <ele>41.599998474121</ele>
        <time>2021-12-09T08:41:18.000Z</time>
      </trkpt>
      <trkpt lat="47.28458" lon="-2.35962">
        <ele>41</ele>
        <time>2021-12-09T08:41:19.000Z</time>
      </trkpt>
      <trkpt lat="47.28461" lon="-2.35956">
        <ele>40.599998474121</ele>
        <time>2021-12-09T08:41:20.000Z</time>
      </trkpt>
      <trkpt lat="47.28463" lon="-2.3595">
        <ele>40</ele>
        <time>2021-12-09T08:41:21.000Z</time>
      </trkpt>
      <trkpt lat="47.28466" lon="-2.35943">
        <ele>39.599998474121</ele>
        <time>2021-12-09T08:41:22.000Z</time>
      </trkpt>
      <trkpt lat="47.28469" lon="-2.35936">
        <ele>39</ele>
        <time>2021-12-09T08:41:23.000Z</time>
      </trkpt>
      <trkpt lat="47.28472" lon="-2.35929">
        <ele>38.599998474121</ele>
        <time>2021-12-09T08:41:24.000Z</time>
      </trkpt>
      <trkpt lat="47.28474" lon="-2.35922">
        <ele>38</ele>
        <time>2021-12-09T08:41:25.000Z</time>
      </trkpt>
      <trkpt lat="47.28476" lon="-2.35916">
        <ele>37.400001525879</ele>
        <time>2021-12-09T08:41:26.000Z</time>
      </trkpt>
      <trkpt lat="47.28476" lon="-2.3591">
        <ele>36.799999237061</ele>
        <time>2021-12-09T08:41:27.000Z</time>
      </trkpt>
      <trkpt lat="47.28475" lon="-2.35905">
        <ele>36.200000762939</ele>
        <time>2021-12-09T08:41:28.000Z</time>
      </trkpt>
      <trkpt lat="47.28473" lon="-2.359">
        <ele>35.599998474121</ele>
        <time>2021-12-09T08:41:29.000Z</time>
      </trkpt>
      <trkpt lat="47.2847" lon="-2.35896">
        <ele>35</ele>
        <time>2021-12-09T08:41:30.000Z</time>
      </trkpt>
      <trkpt lat="47.28466" lon="-2.35893">
        <ele>34.400001525879</ele>
        <time>2021-12-09T08:41:31.000Z</time>
      </trkpt>
      <trkpt lat="47.28462" lon="-2.3589">
        <ele>33.799999237061</ele>
        <time>2021-12-09T08:41:32.000Z</time>
      </trkpt>
      <trkpt lat="47.28457" lon="-2.35888">
        <ele>33.200000762939</ele>
        <time>2021-12-09T08:41:33.000Z</time>
      </trkpt>
      <trkpt lat="47.28452" lon="-2.35886">
        <ele>32.599998474121</ele>
        <time>2021-12-09T08:41:34.000Z</time>
      </trkpt>
      <trkpt lat="47.28443" lon="-2.35879">
        <ele>32.599998474121</ele>
        <time>2021-12-09T08:41:36.000Z</time>
      </trkpt>
      <trkpt lat="47.2844" lon="-2.35875">
        <ele>32.200000762939</ele>
        <time>2021-12-09T08:41:37.000Z</time>
      </trkpt>
      <trkpt lat="47.28437" lon="-2.3587">
        <ele>31.799999237061</ele>
        <time>2021-12-09T08:41:38.000Z</time>
      </trkpt>
      <trkpt lat="47.28434" lon="-2.35866">
        <ele>31.39999961853</ele>
        <time>2021-12-09T08:41:39.000Z</time>
      </trkpt>
      <trkpt lat="47.28431" lon="-2.35862">
        <ele>31</ele>
        <time>2021-12-09T08:41:40.000Z</time>
      </trkpt>
      <trkpt lat="47.28429" lon="-2.35859">
        <ele>30.60000038147</ele>
        <time>2021-12-09T08:41:41.000Z</time>
      </trkpt>
      <trkpt lat="47.28428" lon="-2.35856">
        <ele>30.60000038147</ele>
        <time>2021-12-09T08:41:42.000Z</time>
      </trkpt>
      <trkpt lat="47.28426" lon="-2.35849">
        <ele>30.60000038147</ele>
        <time>2021-12-09T08:41:45.000Z</time>
      </trkpt>
      <trkpt lat="47.28427" lon="-2.35844">
        <ele>30.60000038147</ele>
        <time>2021-12-09T08:41:47.000Z</time>
      </trkpt>
      <trkpt lat="47.28433" lon="-2.35837">
        <ele>30.60000038147</ele>
        <time>2021-12-09T08:41:50.000Z</time>
      </trkpt>
      <trkpt lat="47.28435" lon="-2.35835">
        <ele>30.60000038147</ele>
        <time>2021-12-09T08:41:51.000Z</time>
      </trkpt>
      <trkpt lat="47.28447" lon="-2.35831">
        <ele>30.60000038147</ele>
        <time>2021-12-09T08:41:55.000Z</time>
      </trkpt>
      <trkpt lat="47.28461" lon="-2.3583">
        <ele>30.60000038147</ele>
        <time>2021-12-09T08:42:01.000Z</time>
      </trkpt>
      <trkpt lat="47.28471" lon="-2.35825">
        <ele>30.60000038147</ele>
        <time>2021-12-09T08:42:06.000Z</time>
      </trkpt>
      <trkpt lat="47.28478" lon="-2.35809">
        <ele>30.60000038147</ele>
        <time>2021-12-09T08:42:12.000Z</time>
      </trkpt>
      <trkpt lat="47.28477" lon="-2.35798">
        <ele>30.60000038147</ele>
        <time>2021-12-09T08:42:16.000Z</time>
      </trkpt>
      <trkpt lat="47.28476" lon="-2.35795">
        <ele>30.60000038147</ele>
        <time>2021-12-09T08:42:17.000Z</time>
      </trkpt>
      <trkpt lat="47.28467" lon="-2.35773">
        <ele>30.60000038147</ele>
        <time>2021-12-09T08:42:23.000Z</time>
      </trkpt>
      <trkpt lat="47.28468" lon="-2.35767">
        <ele>30.60000038147</ele>
        <time>2021-12-09T08:42:25.000Z</time>
      </trkpt>
      <trkpt lat="47.28472" lon="-2.35761">
        <ele>30.60000038147</ele>
        <time>2021-12-09T08:42:27.000Z</time>
      </trkpt>
      <trkpt lat="47.28487" lon="-2.35737">
        <ele>30.60000038147</ele>
        <time>2021-12-09T08:42:34.000Z</time>
      </trkpt>
      <trkpt lat="47.28498" lon="-2.35713">
        <ele>30.60000038147</ele>
        <time>2021-12-09T08:42:40.000Z</time>
      </trkpt>
      <trkpt lat="47.28492" lon="-2.35698">
        <ele>30.60000038147</ele>
        <time>2021-12-09T08:42:44.000Z</time>
      </trkpt>
      <trkpt lat="47.28477" lon="-2.35674">
        <ele>30.60000038147</ele>
        <time>2021-12-09T08:42:50.000Z</time>
      </trkpt>
      <trkpt lat="47.28466" lon="-2.3566">
        <ele>30.60000038147</ele>
        <time>2021-12-09T08:42:55.000Z</time>
      </trkpt>
      <trkpt lat="47.28456" lon="-2.35647">
        <ele>30.60000038147</ele>
        <time>2021-12-09T08:43:01.000Z</time>
      </trkpt>
      <trkpt lat="47.2845" lon="-2.35641">
        <ele>30.60000038147</ele>
        <time>2021-12-09T08:43:06.000Z</time>
      </trkpt>
      <trkpt lat="47.28447" lon="-2.3564">
        <ele>30.60000038147</ele>
        <time>2021-12-09T08:43:08.000Z</time>
      </trkpt>
      <trkpt lat="47.28444" lon="-2.35637">
        <ele>30.60000038147</ele>
        <time>2021-12-09T08:43:11.000Z</time>
      </trkpt>
      <trkpt lat="47.28444" lon="-2.35633">
        <ele>30.60000038147</ele>
        <time>2021-12-09T08:43:12.000Z</time>
      </trkpt>
      <trkpt lat="47.28441" lon="-2.35617">
        <ele>30.60000038147</ele>
        <time>2021-12-09T08:43:16.000Z</time>
      </trkpt>
      <trkpt lat="47.28431" lon="-2.356">
        <ele>30.60000038147</ele>
        <time>2021-12-09T08:43:20.000Z</time>
      </trkpt>
      <trkpt lat="47.28418" lon="-2.35575">
        <ele>30.200000762939</ele>
        <time>2021-12-09T08:43:25.000Z</time>
      </trkpt>
      <trkpt lat="47.28416" lon="-2.3557">
        <ele>29.799999237061</ele>
        <time>2021-12-09T08:43:26.000Z</time>
      </trkpt>
      <trkpt lat="47.28414" lon="-2.35566">
        <ele>29.39999961853</ele>
        <time>2021-12-09T08:43:27.000Z</time>
      </trkpt>
      <trkpt lat="47.28412" lon="-2.35562">
        <ele>29</ele>
        <time>2021-12-09T08:43:28.000Z</time>
      </trkpt>
      <trkpt lat="47.2841" lon="-2.35559">
        <ele>28.60000038147</ele>
        <time>2021-12-09T08:43:29.000Z</time>
      </trkpt>
      <trkpt lat="47.28406" lon="-2.3555">
        <ele>28.60000038147</ele>
        <time>2021-12-09T08:43:31.000Z</time>
      </trkpt>
      <trkpt lat="47.28403" lon="-2.35535">
        <ele>28.60000038147</ele>
        <time>2021-12-09T08:43:34.000Z</time>
      </trkpt>
      <trkpt lat="47.28404" lon="-2.35526">
        <ele>28.60000038147</ele>
        <time>2021-12-09T08:43:36.000Z</time>
      </trkpt>
      <trkpt lat="47.2841" lon="-2.35494">
        <ele>28.60000038147</ele>
        <time>2021-12-09T08:43:43.000Z</time>
      </trkpt>
      <trkpt lat="47.28415" lon="-2.35477">
        <ele>29</ele>
        <time>2021-12-09T08:43:47.000Z</time>
      </trkpt>
      <trkpt lat="47.28417" lon="-2.35473">
        <ele>29.39999961853</ele>
        <time>2021-12-09T08:43:48.000Z</time>
      </trkpt>
      <trkpt lat="47.28419" lon="-2.3547">
        <ele>29.799999237061</ele>
        <time>2021-12-09T08:43:49.000Z</time>
      </trkpt>
      <trkpt lat="47.28421" lon="-2.35465">
        <ele>30.200000762939</ele>
        <time>2021-12-09T08:43:50.000Z</time>
      </trkpt>
      <trkpt lat="47.28423" lon="-2.35461">
        <ele>30.60000038147</ele>
        <time>2021-12-09T08:43:51.000Z</time>
      </trkpt>
      <trkpt lat="47.28428" lon="-2.35442">
        <ele>30.60000038147</ele>
        <time>2021-12-09T08:43:55.000Z</time>
      </trkpt>
      <trkpt lat="47.28431" lon="-2.35436">
        <ele>31</ele>
        <time>2021-12-09T08:43:57.000Z</time>
      </trkpt>
      <trkpt lat="47.28433" lon="-2.35433">
        <ele>31.60000038147</ele>
        <time>2021-12-09T08:43:58.000Z</time>
      </trkpt>
      <trkpt lat="47.28434" lon="-2.3543">
        <ele>32</ele>
        <time>2021-12-09T08:43:59.000Z</time>
      </trkpt>
      <trkpt lat="47.28436" lon="-2.35429">
        <ele>32.400001525879</ele>
        <time>2021-12-09T08:44:00.000Z</time>
      </trkpt>
      <trkpt lat="47.28438" lon="-2.35428">
        <ele>32.799999237061</ele>
        <time>2021-12-09T08:44:01.000Z</time>
      </trkpt>
      <trkpt lat="47.28441" lon="-2.35429">
        <ele>32.799999237061</ele>
        <time>2021-12-09T08:44:02.000Z</time>
      </trkpt>
      <trkpt lat="47.28445" lon="-2.35435">
        <ele>32.799999237061</ele>
        <time>2021-12-09T08:44:04.000Z</time>
      </trkpt>
      <trkpt lat="47.28448" lon="-2.3544">
        <ele>33.200000762939</ele>
        <time>2021-12-09T08:44:06.000Z</time>
      </trkpt>
      <trkpt lat="47.28449" lon="-2.35443">
        <ele>33.599998474121</ele>
        <time>2021-12-09T08:44:07.000Z</time>
      </trkpt>
      <trkpt lat="47.2845" lon="-2.35445">
        <ele>34</ele>
        <time>2021-12-09T08:44:08.000Z</time>
      </trkpt>
      <trkpt lat="47.28451" lon="-2.35448">
        <ele>34.799999237061</ele>
        <time>2021-12-09T08:44:09.000Z</time>
      </trkpt>
      <trkpt lat="47.28451" lon="-2.35451">
        <ele>34.799999237061</ele>
        <time>2021-12-09T08:44:10.000Z</time>
      </trkpt>
      <trkpt lat="47.28452" lon="-2.35458">
        <ele>35.200000762939</ele>
        <time>2021-12-09T08:44:13.000Z</time>
      </trkpt>
      <trkpt lat="47.28452" lon="-2.3546">
        <ele>35.599998474121</ele>
        <time>2021-12-09T08:44:14.000Z</time>
      </trkpt>
      <trkpt lat="47.28452" lon="-2.35463">
        <ele>36.200000762939</ele>
        <time>2021-12-09T08:44:15.000Z</time>
      </trkpt>
      <trkpt lat="47.28453" lon="-2.35465">
        <ele>36.599998474121</ele>
        <time>2021-12-09T08:44:16.000Z</time>
      </trkpt>
      <trkpt lat="47.28454" lon="-2.35467">
        <ele>37</ele>
        <time>2021-12-09T08:44:17.000Z</time>
      </trkpt>
      <trkpt lat="47.28461" lon="-2.35481">
        <ele>37</ele>
        <time>2021-12-09T08:44:23.000Z</time>
      </trkpt>
      <trkpt lat="47.28464" lon="-2.35486">
        <ele>37.400001525879</ele>
        <time>2021-12-09T08:44:25.000Z</time>
      </trkpt>
      <trkpt lat="47.28465" lon="-2.35488">
        <ele>37.799999237061</ele>
        <time>2021-12-09T08:44:26.000Z</time>
      </trkpt>
      <trkpt lat="47.28467" lon="-2.35491">
        <ele>38.200000762939</ele>
        <time>2021-12-09T08:44:27.000Z</time>
      </trkpt>
      <trkpt lat="47.28468" lon="-2.35493">
        <ele>38.599998474121</ele>
        <time>2021-12-09T08:44:28.000Z</time>
      </trkpt>
      <trkpt lat="47.2847" lon="-2.35495">
        <ele>39</ele>
        <time>2021-12-09T08:44:29.000Z</time>
      </trkpt>
      <trkpt lat="47.28471" lon="-2.35497">
        <ele>39</ele>
        <time>2021-12-09T08:44:30.000Z</time>
      </trkpt>
      <trkpt lat="47.28473" lon="-2.35502">
        <ele>39.400001525879</ele>
        <time>2021-12-09T08:44:33.000Z</time>
      </trkpt>
      <trkpt lat="47.28473" lon="-2.35504">
        <ele>39.799999237061</ele>
        <time>2021-12-09T08:44:34.000Z</time>
      </trkpt>
      <trkpt lat="47.28474" lon="-2.35506">
        <ele>40.200000762939</ele>
        <time>2021-12-09T08:44:35.000Z</time>
      </trkpt>
      <trkpt lat="47.28474" lon="-2.35509">
        <ele>40.799999237061</ele>
        <time>2021-12-09T08:44:36.000Z</time>
      </trkpt>
      <trkpt lat="47.28475" lon="-2.35512">
        <ele>41.200000762939</ele>
        <time>2021-12-09T08:44:37.000Z</time>
      </trkpt>
      <trkpt lat="47.28477" lon="-2.3552">
        <ele>41.200000762939</ele>
        <time>2021-12-09T08:44:40.000Z</time>
      </trkpt>
      <trkpt lat="47.2848" lon="-2.35536">
        <ele>41.200000762939</ele>
        <time>2021-12-09T08:44:44.000Z</time>
      </trkpt>
      <trkpt lat="47.28489" lon="-2.35561">
        <ele>41.200000762939</ele>
        <time>2021-12-09T08:44:50.000Z</time>
      </trkpt>
      <trkpt lat="47.28498" lon="-2.35584">
        <ele>41.200000762939</ele>
        <time>2021-12-09T08:44:55.000Z</time>
      </trkpt>
      <trkpt lat="47.28498" lon="-2.35598">
        <ele>40.200000762939</ele>
        <time>2021-12-09T08:44:58.000Z</time>
      </trkpt>
      <trkpt lat="47.28499" lon="-2.35601">
        <ele>39.799999237061</ele>
        <time>2021-12-09T08:44:59.000Z</time>
      </trkpt>
      <trkpt lat="47.28501" lon="-2.35604">
        <ele>39.200000762939</ele>
        <time>2021-12-09T08:45:00.000Z</time>
      </trkpt>
      <trkpt lat="47.28503" lon="-2.35607">
        <ele>38.799999237061</ele>
        <time>2021-12-09T08:45:01.000Z</time>
      </trkpt>
      <trkpt lat="47.28511" lon="-2.35607">
        <ele>38.799999237061</ele>
        <time>2021-12-09T08:45:04.000Z</time>
      </trkpt>
      <trkpt lat="47.28517" lon="-2.35603">
        <ele>38.400001525879</ele>
        <time>2021-12-09T08:45:06.000Z</time>
      </trkpt>
      <trkpt lat="47.28519" lon="-2.35601">
        <ele>38</ele>
        <time>2021-12-09T08:45:07.000Z</time>
      </trkpt>
      <trkpt lat="47.28521" lon="-2.35599">
        <ele>37.400001525879</ele>
        <time>2021-12-09T08:45:08.000Z</time>
      </trkpt>
      <trkpt lat="47.28523" lon="-2.35598">
        <ele>37</ele>
        <time>2021-12-09T08:45:09.000Z</time>
      </trkpt>
      <trkpt lat="47.28524" lon="-2.35596">
        <ele>36.599998474121</ele>
        <time>2021-12-09T08:45:10.000Z</time>
      </trkpt>
      <trkpt lat="47.28526" lon="-2.35589">
        <ele>36.599998474121</ele>
        <time>2021-12-09T08:45:13.000Z</time>
      </trkpt>
      <trkpt lat="47.28526" lon="-2.35586">
        <ele>36.200000762939</ele>
        <time>2021-12-09T08:45:14.000Z</time>
      </trkpt>
      <trkpt lat="47.28527" lon="-2.35585">
        <ele>35.799999237061</ele>
        <time>2021-12-09T08:45:15.000Z</time>
      </trkpt>
      <trkpt lat="47.28528" lon="-2.35584">
        <ele>35.400001525879</ele>
        <time>2021-12-09T08:45:16.000Z</time>
      </trkpt>
      <trkpt lat="47.28529" lon="-2.35583">
        <ele>35</ele>
        <time>2021-12-09T08:45:17.000Z</time>
      </trkpt>
      <trkpt lat="47.2853" lon="-2.35579">
        <ele>34.599998474121</ele>
        <time>2021-12-09T08:45:35.000Z</time>
      </trkpt>
      <trkpt lat="47.2853" lon="-2.3557">
        <ele>34.599998474121</ele>
        <time>2021-12-09T08:45:40.000Z</time>
      </trkpt>
      <trkpt lat="47.28529" lon="-2.35563">
        <ele>34</ele>
        <time>2021-12-09T08:45:42.000Z</time>
      </trkpt>
      <trkpt lat="47.28528" lon="-2.35558">
        <ele>33.599998474121</ele>
        <time>2021-12-09T08:45:43.000Z</time>
      </trkpt>
      <trkpt lat="47.28527" lon="-2.35554">
        <ele>33.200000762939</ele>
        <time>2021-12-09T08:45:44.000Z</time>
      </trkpt>
      <trkpt lat="47.28526" lon="-2.35549">
        <ele>32.799999237061</ele>
        <time>2021-12-09T08:45:45.000Z</time>
      </trkpt>
      <trkpt lat="47.28525" lon="-2.35545">
        <ele>32.400001525879</ele>
        <time>2021-12-09T08:45:46.000Z</time>
      </trkpt>
      <trkpt lat="47.28521" lon="-2.35526">
        <ele>32</ele>
        <time>2021-12-09T08:45:51.000Z</time>
      </trkpt>
      <trkpt lat="47.28521" lon="-2.35523">
        <ele>31.60000038147</ele>
        <time>2021-12-09T08:45:52.000Z</time>
      </trkpt>
      <trkpt lat="47.28521" lon="-2.35521">
        <ele>31.200000762939</ele>
        <time>2021-12-09T08:45:53.000Z</time>
      </trkpt>
      <trkpt lat="47.28521" lon="-2.35518">
        <ele>30.799999237061</ele>
        <time>2021-12-09T08:45:54.000Z</time>
      </trkpt>
      <trkpt lat="47.28521" lon="-2.35515">
        <ele>30.200000762939</ele>
        <time>2021-12-09T08:45:55.000Z</time>
      </trkpt>
      <trkpt lat="47.28522" lon="-2.35512">
        <ele>30.200000762939</ele>
        <time>2021-12-09T08:45:57.000Z</time>
      </trkpt>
      <trkpt lat="47.28523" lon="-2.35511">
        <ele>29.799999237061</ele>
        <time>2021-12-09T08:45:58.000Z</time>
      </trkpt>
      <trkpt lat="47.28523" lon="-2.35509">
        <ele>29.39999961853</ele>
        <time>2021-12-09T08:45:59.000Z</time>
      </trkpt>
      <trkpt lat="47.28523" lon="-2.35508">
        <ele>29</ele>
        <time>2021-12-09T08:46:00.000Z</time>
      </trkpt>
      <trkpt lat="47.28523" lon="-2.35508">
        <ele>28.60000038147</ele>
        <time>2021-12-09T08:46:01.000Z</time>
      </trkpt>
      <trkpt lat="47.28514" lon="-2.35473">
        <ele>28.200000762939</ele>
        <time>2021-12-09T08:46:41.000Z</time>
      </trkpt>
      <trkpt lat="47.28513" lon="-2.35471">
        <ele>28.200000762939</ele>
        <time>2021-12-09T08:46:42.000Z</time>
      </trkpt>
      <trkpt lat="47.28507" lon="-2.35464">
        <ele>28.200000762939</ele>
        <time>2021-12-09T08:46:45.000Z</time>
      </trkpt>
      <trkpt lat="47.28502" lon="-2.3546">
        <ele>28.200000762939</ele>
        <time>2021-12-09T08:46:47.000Z</time>
      </trkpt>
      <trkpt lat="47.28488" lon="-2.35442">
        <ele>28.200000762939</ele>
        <time>2021-12-09T08:46:53.000Z</time>
      </trkpt>
      <trkpt lat="47.28484" lon="-2.35428">
        <ele>28.200000762939</ele>
        <time>2021-12-09T08:46:55.000Z</time>
      </trkpt>
      <trkpt lat="47.28482" lon="-2.35412">
        <ele>28.200000762939</ele>
        <time>2021-12-09T08:46:57.000Z</time>
      </trkpt>
      <trkpt lat="47.2848" lon="-2.35403">
        <ele>27.799999237061</ele>
        <time>2021-12-09T08:46:58.000Z</time>
      </trkpt>
      <trkpt lat="47.28478" lon="-2.35394">
        <ele>27.39999961853</ele>
        <time>2021-12-09T08:46:59.000Z</time>
      </trkpt>
      <trkpt lat="47.28476" lon="-2.35386">
        <ele>27</ele>
        <time>2021-12-09T08:47:00.000Z</time>
      </trkpt>
      <trkpt lat="47.28474" lon="-2.35379">
        <ele>26</ele>
        <time>2021-12-09T08:47:01.000Z</time>
      </trkpt>
      <trkpt lat="47.28471" lon="-2.35374">
        <ele>26</ele>
        <time>2021-12-09T08:47:02.000Z</time>
      </trkpt>
      <trkpt lat="47.28464" lon="-2.35366">
        <ele>26</ele>
        <time>2021-12-09T08:47:05.000Z</time>
      </trkpt>
      <trkpt lat="47.28458" lon="-2.35367">
        <ele>26</ele>
        <time>2021-12-09T08:47:09.000Z</time>
      </trkpt>
      <trkpt lat="47.28457" lon="-2.35368">
        <ele>26.39999961853</ele>
        <time>2021-12-09T08:47:12.000Z</time>
      </trkpt>
      <trkpt lat="47.28457" lon="-2.35369">
        <ele>26.799999237061</ele>
        <time>2021-12-09T08:47:13.000Z</time>
      </trkpt>
      <trkpt lat="47.28457" lon="-2.3537">
        <ele>27.200000762939</ele>
        <time>2021-12-09T08:47:14.000Z</time>
      </trkpt>
      <trkpt lat="47.28456" lon="-2.35372">
        <ele>27.60000038147</ele>
        <time>2021-12-09T08:47:15.000Z</time>
      </trkpt>
      <trkpt lat="47.28455" lon="-2.35373">
        <ele>28</ele>
        <time>2021-12-09T08:47:16.000Z</time>
      </trkpt>
      <trkpt lat="47.28453" lon="-2.35377">
        <ele>28.60000038147</ele>
        <time>2021-12-09T08:47:18.000Z</time>
      </trkpt>
      <trkpt lat="47.28453" lon="-2.35378">
        <ele>29</ele>
        <time>2021-12-09T08:47:19.000Z</time>
      </trkpt>
      <trkpt lat="47.28452" lon="-2.3538">
        <ele>29.39999961853</ele>
        <time>2021-12-09T08:47:20.000Z</time>
      </trkpt>
      <trkpt lat="47.28452" lon="-2.35382">
        <ele>29.799999237061</ele>
        <time>2021-12-09T08:47:21.000Z</time>
      </trkpt>
      <trkpt lat="47.28452" lon="-2.35384">
        <ele>30.200000762939</ele>
        <time>2021-12-09T08:47:22.000Z</time>
      </trkpt>
      <trkpt lat="47.28451" lon="-2.35394">
        <ele>31.200000762939</ele>
        <time>2021-12-09T08:47:26.000Z</time>
      </trkpt>
      <trkpt lat="47.28451" lon="-2.35396">
        <ele>31.60000038147</ele>
        <time>2021-12-09T08:47:27.000Z</time>
      </trkpt>
      <trkpt lat="47.28451" lon="-2.35398">
        <ele>32.200000762939</ele>
        <time>2021-12-09T08:47:28.000Z</time>
      </trkpt>
      <trkpt lat="47.28449" lon="-2.35401">
        <ele>32.599998474121</ele>
        <time>2021-12-09T08:47:29.000Z</time>
      </trkpt>
      <trkpt lat="47.28442" lon="-2.35405">
        <ele>33</ele>
        <time>2021-12-09T08:47:34.000Z</time>
      </trkpt>
      <trkpt lat="47.2844" lon="-2.35406">
        <ele>33.400001525879</ele>
        <time>2021-12-09T08:47:35.000Z</time>
      </trkpt>
      <trkpt lat="47.28439" lon="-2.35406">
        <ele>34</ele>
        <time>2021-12-09T08:47:36.000Z</time>
      </trkpt>
      <trkpt lat="47.28438" lon="-2.35407">
        <ele>34.400001525879</ele>
        <time>2021-12-09T08:47:37.000Z</time>
      </trkpt>
      <trkpt lat="47.28437" lon="-2.35408">
        <ele>34.799999237061</ele>
        <time>2021-12-09T08:47:38.000Z</time>
      </trkpt>
      <trkpt lat="47.28432" lon="-2.35411">
        <ele>34.799999237061</ele>
        <time>2021-12-09T08:47:40.000Z</time>
      </trkpt>
      <trkpt lat="47.28422" lon="-2.35425">
        <ele>34.799999237061</ele>
        <time>2021-12-09T08:47:43.000Z</time>
      </trkpt>
      <trkpt lat="47.28418" lon="-2.35428">
        <ele>34.799999237061</ele>
        <time>2021-12-09T08:47:44.000Z</time>
      </trkpt>
      <trkpt lat="47.28408" lon="-2.35425">
        <ele>34.799999237061</ele>
        <time>2021-12-09T08:47:47.000Z</time>
      </trkpt>
      <trkpt lat="47.28396" lon="-2.35415">
        <ele>34.799999237061</ele>
        <time>2021-12-09T08:47:51.000Z</time>
      </trkpt>
      <trkpt lat="47.28391" lon="-2.3541">
        <ele>34.799999237061</ele>
        <time>2021-12-09T08:47:53.000Z</time>
      </trkpt>
      <trkpt lat="47.28382" lon="-2.35399">
        <ele>34.400001525879</ele>
        <time>2021-12-09T08:47:56.000Z</time>
      </trkpt>
      <trkpt lat="47.28379" lon="-2.35395">
        <ele>34</ele>
        <time>2021-12-09T08:47:57.000Z</time>
      </trkpt>
      <trkpt lat="47.28377" lon="-2.35391">
        <ele>33.400001525879</ele>
        <time>2021-12-09T08:47:58.000Z</time>
      </trkpt>
      <trkpt lat="47.28375" lon="-2.35387">
        <ele>32.799999237061</ele>
        <time>2021-12-09T08:47:59.000Z</time>
      </trkpt>
      <trkpt lat="47.28373" lon="-2.35383">
        <ele>32</ele>
        <time>2021-12-09T08:48:00.000Z</time>
      </trkpt>
      <trkpt lat="47.28372" lon="-2.35378">
        <ele>31.200000762939</ele>
        <time>2021-12-09T08:48:01.000Z</time>
      </trkpt>
      <trkpt lat="47.2837" lon="-2.35374">
        <ele>30.39999961853</ele>
        <time>2021-12-09T08:48:02.000Z</time>
      </trkpt>
      <trkpt lat="47.28368" lon="-2.35369">
        <ele>29.60000038147</ele>
        <time>2021-12-09T08:48:03.000Z</time>
      </trkpt>
      <trkpt lat="47.28367" lon="-2.35366">
        <ele>28.799999237061</ele>
        <time>2021-12-09T08:48:04.000Z</time>
      </trkpt>
      <trkpt lat="47.28365" lon="-2.35362">
        <ele>28.200000762939</ele>
        <time>2021-12-09T08:48:05.000Z</time>
      </trkpt>
      <trkpt lat="47.28364" lon="-2.35357">
        <ele>27.39999961853</ele>
        <time>2021-12-09T08:48:06.000Z</time>
      </trkpt>
      <trkpt lat="47.28362" lon="-2.35353">
        <ele>27.39999961853</ele>
        <time>2021-12-09T08:48:07.000Z</time>
      </trkpt>
      <trkpt lat="47.28359" lon="-2.35346">
        <ele>26.799999237061</ele>
        <time>2021-12-09T08:48:08.000Z</time>
      </trkpt>
      <trkpt lat="47.28356" lon="-2.35339">
        <ele>26.39999961853</ele>
        <time>2021-12-09T08:48:09.000Z</time>
      </trkpt>
      <trkpt lat="47.28354" lon="-2.35332">
        <ele>26</ele>
        <time>2021-12-09T08:48:10.000Z</time>
      </trkpt>
      <trkpt lat="47.28353" lon="-2.35324">
        <ele>25.60000038147</ele>
        <time>2021-12-09T08:48:11.000Z</time>
      </trkpt>
      <trkpt lat="47.28352" lon="-2.3532">
        <ele>25</ele>
        <time>2021-12-09T08:48:12.000Z</time>
      </trkpt>
      <trkpt lat="47.28349" lon="-2.35312">
        <ele>25</ele>
        <time>2021-12-09T08:48:15.000Z</time>
      </trkpt>
      <trkpt lat="47.28349" lon="-2.35311">
        <ele>25</ele>
        <time>2021-12-09T08:48:16.000Z</time>
      </trkpt>
      <trkpt lat="47.28349" lon="-2.35301">
        <ele>25</ele>
        <time>2021-12-09T08:50:33.000Z</time>
      </trkpt>
      <trkpt lat="47.28351" lon="-2.35295">
        <ele>25</ele>
        <time>2021-12-09T08:50:35.000Z</time>
      </trkpt>
      <trkpt lat="47.28354" lon="-2.3529">
        <ele>25</ele>
        <time>2021-12-09T08:50:37.000Z</time>
      </trkpt>
      <trkpt lat="47.28363" lon="-2.35277">
        <ele>25</ele>
        <time>2021-12-09T08:50:41.000Z</time>
      </trkpt>
      <trkpt lat="47.2838" lon="-2.35245">
        <ele>25</ele>
        <time>2021-12-09T08:50:49.000Z</time>
      </trkpt>
      <trkpt lat="47.28389" lon="-2.35222">
        <ele>25</ele>
        <time>2021-12-09T08:50:54.000Z</time>
      </trkpt>
      <trkpt lat="47.28386" lon="-2.35201">
        <ele>25</ele>
        <time>2021-12-09T08:50:58.000Z</time>
      </trkpt>
      <trkpt lat="47.28375" lon="-2.35167">
        <ele>25</ele>
        <time>2021-12-09T08:51:05.000Z</time>
      </trkpt>
      <trkpt lat="47.28357" lon="-2.35118">
        <ele>25</ele>
        <time>2021-12-09T08:51:15.000Z</time>
      </trkpt>
      <trkpt lat="47.28343" lon="-2.35092">
        <ele>25</ele>
        <time>2021-12-09T08:51:20.000Z</time>
      </trkpt>
      <trkpt lat="47.2834" lon="-2.35088">
        <ele>25</ele>
        <time>2021-12-09T08:51:21.000Z</time>
      </trkpt>
      <trkpt lat="47.28326" lon="-2.35081">
        <ele>25.39999961853</ele>
        <time>2021-12-09T08:51:24.000Z</time>
      </trkpt>
      <trkpt lat="47.28322" lon="-2.3508">
        <ele>25.799999237061</ele>
        <time>2021-12-09T08:51:25.000Z</time>
      </trkpt>
      <trkpt lat="47.28317" lon="-2.35079">
        <ele>26.200000762939</ele>
        <time>2021-12-09T08:51:26.000Z</time>
      </trkpt>
      <trkpt lat="47.28312" lon="-2.35077">
        <ele>26.799999237061</ele>
        <time>2021-12-09T08:51:27.000Z</time>
      </trkpt>
      <trkpt lat="47.28307" lon="-2.35076">
        <ele>27.200000762939</ele>
        <time>2021-12-09T08:51:28.000Z</time>
      </trkpt>
      <trkpt lat="47.28294" lon="-2.35071">
        <ele>27.200000762939</ele>
        <time>2021-12-09T08:51:31.000Z</time>
      </trkpt>
      <trkpt lat="47.28285" lon="-2.35067">
        <ele>27.200000762939</ele>
        <time>2021-12-09T08:51:33.000Z</time>
      </trkpt>
      <trkpt lat="47.28281" lon="-2.35064">
        <ele>27.200000762939</ele>
        <time>2021-12-09T08:51:34.000Z</time>
      </trkpt>
      <trkpt lat="47.28259" lon="-2.3504">
        <ele>27.200000762939</ele>
        <time>2021-12-09T08:51:40.000Z</time>
      </trkpt>
      <trkpt lat="47.28231" lon="-2.35">
        <ele>27.200000762939</ele>
        <time>2021-12-09T08:51:48.000Z</time>
      </trkpt>
      <trkpt lat="47.28211" lon="-2.34958">
        <ele>27.200000762939</ele>
        <time>2021-12-09T08:51:55.000Z</time>
      </trkpt>
      <trkpt lat="47.28208" lon="-2.34951">
        <ele>27.200000762939</ele>
        <time>2021-12-09T08:51:56.000Z</time>
      </trkpt>
      <trkpt lat="47.28194" lon="-2.349">
        <ele>27.200000762939</ele>
        <time>2021-12-09T08:52:03.000Z</time>
      </trkpt>
      <trkpt lat="47.28183" lon="-2.34856">
        <ele>27.200000762939</ele>
        <time>2021-12-09T08:52:09.000Z</time>
      </trkpt>
      <trkpt lat="47.28179" lon="-2.34804">
        <ele>27.200000762939</ele>
        <time>2021-12-09T08:52:16.000Z</time>
      </trkpt>
      <trkpt lat="47.28178" lon="-2.34791">
        <ele>27.200000762939</ele>
        <time>2021-12-09T08:52:18.000Z</time>
      </trkpt>
      <trkpt lat="47.28172" lon="-2.34781">
        <ele>27.200000762939</ele>
        <time>2021-12-09T08:52:20.000Z</time>
      </trkpt>
      <trkpt lat="47.2816" lon="-2.34784">
        <ele>27.200000762939</ele>
        <time>2021-12-09T08:52:23.000Z</time>
      </trkpt>
      <trkpt lat="47.28147" lon="-2.34794">
        <ele>27.200000762939</ele>
        <time>2021-12-09T08:52:26.000Z</time>
      </trkpt>
      <trkpt lat="47.28135" lon="-2.34803">
        <ele>27.200000762939</ele>
        <time>2021-12-09T08:52:29.000Z</time>
      </trkpt>
      <trkpt lat="47.2813" lon="-2.34808">
        <ele>26.60000038147</ele>
        <time>2021-12-09T08:52:31.000Z</time>
      </trkpt>
      <trkpt lat="47.28128" lon="-2.3481">
        <ele>26.200000762939</ele>
        <time>2021-12-09T08:52:32.000Z</time>
      </trkpt>
      <trkpt lat="47.28127" lon="-2.34811">
        <ele>25.799999237061</ele>
        <time>2021-12-09T08:52:33.000Z</time>
      </trkpt>
      <trkpt lat="47.28126" lon="-2.34812">
        <ele>25.39999961853</ele>
        <time>2021-12-09T08:52:34.000Z</time>
      </trkpt>
      <trkpt lat="47.28125" lon="-2.34813">
        <ele>25</ele>
        <time>2021-12-09T08:52:35.000Z</time>
      </trkpt>
      <trkpt lat="47.28124" lon="-2.34814">
        <ele>25</ele>
        <time>2021-12-09T08:52:37.000Z</time>
      </trkpt>
      <trkpt lat="47.28121" lon="-2.34815">
        <ele>25</ele>
        <time>2021-12-09T08:53:56.000Z</time>
      </trkpt>
      <trkpt lat="47.28119" lon="-2.34816">
        <ele>25</ele>
        <time>2021-12-09T08:53:57.000Z</time>
      </trkpt>
      <trkpt lat="47.28103" lon="-2.34828">
        <ele>25</ele>
        <time>2021-12-09T08:54:04.000Z</time>
      </trkpt>
      <trkpt lat="47.28081" lon="-2.34843">
        <ele>25</ele>
        <time>2021-12-09T08:54:10.000Z</time>
      </trkpt>
      <trkpt lat="47.28077" lon="-2.34846">
        <ele>25</ele>
        <time>2021-12-09T08:54:11.000Z</time>
      </trkpt>
      <trkpt lat="47.28053" lon="-2.34863">
        <ele>25</ele>
        <time>2021-12-09T08:54:17.000Z</time>
      </trkpt>
      <trkpt lat="47.28049" lon="-2.34864">
        <ele>25</ele>
        <time>2021-12-09T08:54:18.000Z</time>
      </trkpt>
      <trkpt lat="47.28034" lon="-2.34871">
        <ele>25</ele>
        <time>2021-12-09T08:54:22.000Z</time>
      </trkpt>
      <trkpt lat="47.28001" lon="-2.34891">
        <ele>25</ele>
        <time>2021-12-09T08:54:30.000Z</time>
      </trkpt>
      <trkpt lat="47.2798" lon="-2.34913">
        <ele>25</ele>
        <time>2021-12-09T08:54:36.000Z</time>
      </trkpt>
      <trkpt lat="47.27969" lon="-2.34923">
        <ele>25</ele>
        <time>2021-12-09T08:54:39.000Z</time>
      </trkpt>
      <trkpt lat="47.27962" lon="-2.34929">
        <ele>25</ele>
        <time>2021-12-09T08:54:41.000Z</time>
      </trkpt>
      <trkpt lat="47.27939" lon="-2.34956">
        <ele>25</ele>
        <time>2021-12-09T08:54:47.000Z</time>
      </trkpt>
      <trkpt lat="47.27923" lon="-2.34973">
        <ele>24.200000762939</ele>
        <time>2021-12-09T08:54:51.000Z</time>
      </trkpt>
      <trkpt lat="47.27919" lon="-2.34978">
        <ele>23.799999237061</ele>
        <time>2021-12-09T08:54:52.000Z</time>
      </trkpt>
      <trkpt lat="47.27915" lon="-2.34983">
        <ele>23.39999961853</ele>
        <time>2021-12-09T08:54:53.000Z</time>
      </trkpt>
      <trkpt lat="47.27911" lon="-2.34987">
        <ele>23</ele>
        <time>2021-12-09T08:54:54.000Z</time>
      </trkpt>
      <trkpt lat="47.27898" lon="-2.35">
        <ele>23</ele>
        <time>2021-12-09T08:54:58.000Z</time>
      </trkpt>
      <trkpt lat="47.2789" lon="-2.34996">
        <ele>23</ele>
        <time>2021-12-09T08:55:00.000Z</time>
      </trkpt>
      <trkpt lat="47.27888" lon="-2.3499">
        <ele>23</ele>
        <time>2021-12-09T08:55:01.000Z</time>
      </trkpt>
      <trkpt lat="47.27875" lon="-2.34961">
        <ele>23</ele>
        <time>2021-12-09T08:55:06.000Z</time>
      </trkpt>
      <trkpt lat="47.27869" lon="-2.34951">
        <ele>23</ele>
        <time>2021-12-09T08:55:08.000Z</time>
      </trkpt>
      <trkpt lat="47.27858" lon="-2.34939">
        <ele>23</ele>
        <time>2021-12-09T08:55:11.000Z</time>
      </trkpt>
      <trkpt lat="47.27826" lon="-2.34903">
        <ele>23</ele>
        <time>2021-12-09T08:55:19.000Z</time>
      </trkpt>
      <trkpt lat="47.278" lon="-2.34881">
        <ele>22.60000038147</ele>
        <time>2021-12-09T08:55:25.000Z</time>
      </trkpt>
      <trkpt lat="47.27797" lon="-2.34879">
        <ele>22.200000762939</ele>
        <time>2021-12-09T08:55:26.000Z</time>
      </trkpt>
      <trkpt lat="47.27794" lon="-2.34877">
        <ele>21.799999237061</ele>
        <time>2021-12-09T08:55:27.000Z</time>
      </trkpt>
      <trkpt lat="47.27791" lon="-2.34875">
        <ele>21.39999961853</ele>
        <time>2021-12-09T08:55:28.000Z</time>
      </trkpt>
      <trkpt lat="47.27787" lon="-2.34872">
        <ele>21</ele>
        <time>2021-12-09T08:55:29.000Z</time>
      </trkpt>
      <trkpt lat="47.27784" lon="-2.34868">
        <ele>21</ele>
        <time>2021-12-09T08:55:30.000Z</time>
      </trkpt>
      <trkpt lat="47.2778" lon="-2.34864">
        <ele>21</ele>
        <time>2021-12-09T08:55:31.000Z</time>
      </trkpt>
      <trkpt lat="47.27769" lon="-2.34844">
        <ele>21</ele>
        <time>2021-12-09T08:55:35.000Z</time>
      </trkpt>
      <trkpt lat="47.27753" lon="-2.34813">
        <ele>21</ele>
        <time>2021-12-09T08:55:41.000Z</time>
      </trkpt>
      <trkpt lat="47.2775" lon="-2.34808">
        <ele>21.39999961853</ele>
        <time>2021-12-09T08:55:42.000Z</time>
      </trkpt>
      <trkpt lat="47.27748" lon="-2.34802">
        <ele>21.799999237061</ele>
        <time>2021-12-09T08:55:43.000Z</time>
      </trkpt>
      <trkpt lat="47.27745" lon="-2.34796">
        <ele>22.200000762939</ele>
        <time>2021-12-09T08:55:44.000Z</time>
      </trkpt>
      <trkpt lat="47.27742" lon="-2.3479">
        <ele>22.60000038147</ele>
        <time>2021-12-09T08:55:45.000Z</time>
      </trkpt>
      <trkpt lat="47.27739" lon="-2.34785">
        <ele>23</ele>
        <time>2021-12-09T08:55:46.000Z</time>
      </trkpt>
      <trkpt lat="47.27733" lon="-2.34774">
        <ele>23</ele>
        <time>2021-12-09T08:55:48.000Z</time>
      </trkpt>
      <trkpt lat="47.27727" lon="-2.34765">
        <ele>23</ele>
        <time>2021-12-09T08:55:50.000Z</time>
      </trkpt>
      <trkpt lat="47.27718" lon="-2.34746">
        <ele>23</ele>
        <time>2021-12-09T08:55:54.000Z</time>
      </trkpt>
      <trkpt lat="47.27706" lon="-2.34708">
        <ele>23</ele>
        <time>2021-12-09T08:56:00.000Z</time>
      </trkpt>
      <trkpt lat="47.27698" lon="-2.34687">
        <ele>23</ele>
        <time>2021-12-09T08:56:05.000Z</time>
      </trkpt>
      <trkpt lat="47.27697" lon="-2.34679">
        <ele>23</ele>
        <time>2021-12-09T08:56:08.000Z</time>
      </trkpt>
      <trkpt lat="47.27696" lon="-2.3467">
        <ele>23</ele>
        <time>2021-12-09T08:56:10.000Z</time>
      </trkpt>
      <trkpt lat="47.27692" lon="-2.34643">
        <ele>23</ele>
        <time>2021-12-09T08:56:15.000Z</time>
      </trkpt>
      <trkpt lat="47.27691" lon="-2.34606">
        <ele>23</ele>
        <time>2021-12-09T08:56:21.000Z</time>
      </trkpt>
      <trkpt lat="47.27686" lon="-2.34589">
        <ele>23</ele>
        <time>2021-12-09T08:56:25.000Z</time>
      </trkpt>
      <trkpt lat="47.27684" lon="-2.3458">
        <ele>23</ele>
        <time>2021-12-09T08:56:31.000Z</time>
      </trkpt>
      <trkpt lat="47.2768" lon="-2.34567">
        <ele>23</ele>
        <time>2021-12-09T08:56:46.000Z</time>
      </trkpt>
      <trkpt lat="47.27685" lon="-2.3456">
        <ele>23</ele>
        <time>2021-12-09T08:56:48.000Z</time>
      </trkpt>
      <trkpt lat="47.27695" lon="-2.34548">
        <ele>23</ele>
        <time>2021-12-09T08:56:51.000Z</time>
      </trkpt>
      <trkpt lat="47.27704" lon="-2.34541">
        <ele>23</ele>
        <time>2021-12-09T08:56:53.000Z</time>
      </trkpt>
      <trkpt lat="47.27707" lon="-2.34536">
        <ele>23</ele>
        <time>2021-12-09T08:56:54.000Z</time>
      </trkpt>
      <trkpt lat="47.27719" lon="-2.34522">
        <ele>23</ele>
        <time>2021-12-09T08:56:57.000Z</time>
      </trkpt>
      <trkpt lat="47.27727" lon="-2.34513">
        <ele>23</ele>
        <time>2021-12-09T08:56:59.000Z</time>
      </trkpt>
      <trkpt lat="47.27745" lon="-2.34498">
        <ele>23</ele>
        <time>2021-12-09T08:57:03.000Z</time>
      </trkpt>
      <trkpt lat="47.27763" lon="-2.34485">
        <ele>23.39999961853</ele>
        <time>2021-12-09T08:57:07.000Z</time>
      </trkpt>
      <trkpt lat="47.27767" lon="-2.34481">
        <ele>23.799999237061</ele>
        <time>2021-12-09T08:57:08.000Z</time>
      </trkpt>
      <trkpt lat="47.27771" lon="-2.34477">
        <ele>24.200000762939</ele>
        <time>2021-12-09T08:57:09.000Z</time>
      </trkpt>
      <trkpt lat="47.27775" lon="-2.34472">
        <ele>24.60000038147</ele>
        <time>2021-12-09T08:57:10.000Z</time>
      </trkpt>
      <trkpt lat="47.27779" lon="-2.34467">
        <ele>25</ele>
        <time>2021-12-09T08:57:11.000Z</time>
      </trkpt>
      <trkpt lat="47.27792" lon="-2.34447">
        <ele>25</ele>
        <time>2021-12-09T08:57:15.000Z</time>
      </trkpt>
      <trkpt lat="47.2782" lon="-2.34403">
        <ele>25</ele>
        <time>2021-12-09T08:57:23.000Z</time>
      </trkpt>
      <trkpt lat="47.27843" lon="-2.34372">
        <ele>25</ele>
        <time>2021-12-09T08:57:29.000Z</time>
      </trkpt>
      <trkpt lat="47.27846" lon="-2.34366">
        <ele>25</ele>
        <time>2021-12-09T08:57:30.000Z</time>
      </trkpt>
      <trkpt lat="47.27871" lon="-2.3433">
        <ele>25</ele>
        <time>2021-12-09T08:57:37.000Z</time>
      </trkpt>
      <trkpt lat="47.27896" lon="-2.34288">
        <ele>25.39999961853</ele>
        <time>2021-12-09T08:57:45.000Z</time>
      </trkpt>
      <trkpt lat="47.27899" lon="-2.34283">
        <ele>25.799999237061</ele>
        <time>2021-12-09T08:57:46.000Z</time>
      </trkpt>
      <trkpt lat="47.27902" lon="-2.34278">
        <ele>26.200000762939</ele>
        <time>2021-12-09T08:57:47.000Z</time>
      </trkpt>
      <trkpt lat="47.27905" lon="-2.34274">
        <ele>26.60000038147</ele>
        <time>2021-12-09T08:57:48.000Z</time>
      </trkpt>
      <trkpt lat="47.27908" lon="-2.3427">
        <ele>27</ele>
        <time>2021-12-09T08:57:49.000Z</time>
      </trkpt>
      <trkpt lat="47.2792" lon="-2.3426">
        <ele>27</ele>
        <time>2021-12-09T08:57:52.000Z</time>
      </trkpt>
      <trkpt lat="47.27929" lon="-2.34255">
        <ele>27</ele>
        <time>2021-12-09T08:57:54.000Z</time>
      </trkpt>
      <trkpt lat="47.27945" lon="-2.34251">
        <ele>27</ele>
        <time>2021-12-09T08:57:57.000Z</time>
      </trkpt>
      <trkpt lat="47.27955" lon="-2.3425">
        <ele>27</ele>
        <time>2021-12-09T08:57:59.000Z</time>
      </trkpt>
      <trkpt lat="47.27972" lon="-2.34256">
        <ele>27</ele>
        <time>2021-12-09T08:58:02.000Z</time>
      </trkpt>
      <trkpt lat="47.28003" lon="-2.34273">
        <ele>27</ele>
        <time>2021-12-09T08:58:08.000Z</time>
      </trkpt>
      <trkpt lat="47.28041" lon="-2.34293">
        <ele>27</ele>
        <time>2021-12-09T08:58:15.000Z</time>
      </trkpt>
      <trkpt lat="47.28046" lon="-2.34293">
        <ele>27</ele>
        <time>2021-12-09T08:58:16.000Z</time>
      </trkpt>
      <trkpt lat="47.28058" lon="-2.34279">
        <ele>27</ele>
        <time>2021-12-09T08:58:19.000Z</time>
      </trkpt>
      <trkpt lat="47.28062" lon="-2.34264">
        <ele>27</ele>
        <time>2021-12-09T08:58:21.000Z</time>
      </trkpt>
      <trkpt lat="47.28068" lon="-2.3424">
        <ele>27</ele>
        <time>2021-12-09T08:58:24.000Z</time>
      </trkpt>
      <trkpt lat="47.28083" lon="-2.34183">
        <ele>27</ele>
        <time>2021-12-09T08:58:31.000Z</time>
      </trkpt>
      <trkpt lat="47.28085" lon="-2.34175">
        <ele>27</ele>
        <time>2021-12-09T08:58:32.000Z</time>
      </trkpt>
      <trkpt lat="47.28096" lon="-2.34144">
        <ele>27</ele>
        <time>2021-12-09T08:58:36.000Z</time>
      </trkpt>
      <trkpt lat="47.281" lon="-2.34138">
        <ele>27</ele>
        <time>2021-12-09T08:58:37.000Z</time>
      </trkpt>
      <trkpt lat="47.28126" lon="-2.34083">
        <ele>27</ele>
        <time>2021-12-09T08:58:45.000Z</time>
      </trkpt>
      <trkpt lat="47.28132" lon="-2.34069">
        <ele>27</ele>
        <time>2021-12-09T08:58:47.000Z</time>
      </trkpt>
      <trkpt lat="47.28135" lon="-2.34063">
        <ele>26.60000038147</ele>
        <time>2021-12-09T08:58:48.000Z</time>
      </trkpt>
      <trkpt lat="47.28139" lon="-2.34058">
        <ele>26.200000762939</ele>
        <time>2021-12-09T08:58:49.000Z</time>
      </trkpt>
      <trkpt lat="47.28144" lon="-2.34054">
        <ele>25.799999237061</ele>
        <time>2021-12-09T08:58:50.000Z</time>
      </trkpt>
      <trkpt lat="47.28148" lon="-2.34049">
        <ele>25.39999961853</ele>
        <time>2021-12-09T08:58:51.000Z</time>
      </trkpt>
      <trkpt lat="47.28153" lon="-2.34044">
        <ele>25</ele>
        <time>2021-12-09T08:58:52.000Z</time>
      </trkpt>
      <trkpt lat="47.28163" lon="-2.34037">
        <ele>25</ele>
        <time>2021-12-09T08:58:54.000Z</time>
      </trkpt>
      <trkpt lat="47.28174" lon="-2.3403">
        <ele>25</ele>
        <time>2021-12-09T08:58:56.000Z</time>
      </trkpt>
      <trkpt lat="47.28183" lon="-2.34013">
        <ele>25</ele>
        <time>2021-12-09T08:58:59.000Z</time>
      </trkpt>
      <trkpt lat="47.28186" lon="-2.34008">
        <ele>25</ele>
        <time>2021-12-09T08:59:00.000Z</time>
      </trkpt>
      <trkpt lat="47.28204" lon="-2.33977">
        <ele>25</ele>
        <time>2021-12-09T08:59:05.000Z</time>
      </trkpt>
      <trkpt lat="47.28212" lon="-2.33969">
        <ele>25</ele>
        <time>2021-12-09T08:59:07.000Z</time>
      </trkpt>
      <trkpt lat="47.28221" lon="-2.33963">
        <ele>25</ele>
        <time>2021-12-09T08:59:09.000Z</time>
      </trkpt>
      <trkpt lat="47.28231" lon="-2.33958">
        <ele>24.60000038147</ele>
        <time>2021-12-09T08:59:11.000Z</time>
      </trkpt>
      <trkpt lat="47.28236" lon="-2.33956">
        <ele>24.200000762939</ele>
        <time>2021-12-09T08:59:12.000Z</time>
      </trkpt>
      <trkpt lat="47.28241" lon="-2.33954">
        <ele>23.799999237061</ele>
        <time>2021-12-09T08:59:13.000Z</time>
      </trkpt>
      <trkpt lat="47.28246" lon="-2.33952">
        <ele>23.39999961853</ele>
        <time>2021-12-09T08:59:14.000Z</time>
      </trkpt>
      <trkpt lat="47.28252" lon="-2.33949">
        <ele>23</ele>
        <time>2021-12-09T08:59:15.000Z</time>
      </trkpt>
      <trkpt lat="47.28288" lon="-2.33938">
        <ele>23</ele>
        <time>2021-12-09T08:59:22.000Z</time>
      </trkpt>
      <trkpt lat="47.28297" lon="-2.33935">
        <ele>23</ele>
        <time>2021-12-09T08:59:24.000Z</time>
      </trkpt>
      <trkpt lat="47.28301" lon="-2.33925">
        <ele>23</ele>
        <time>2021-12-09T08:59:26.000Z</time>
      </trkpt>
      <trkpt lat="47.28297" lon="-2.33908">
        <ele>23</ele>
        <time>2021-12-09T08:59:29.000Z</time>
      </trkpt>
      <trkpt lat="47.28294" lon="-2.33902">
        <ele>23</ele>
        <time>2021-12-09T08:59:30.000Z</time>
      </trkpt>
      <trkpt lat="47.28279" lon="-2.33867">
        <ele>23</ele>
        <time>2021-12-09T08:59:35.000Z</time>
      </trkpt>
      <trkpt lat="47.28255" lon="-2.33821">
        <ele>23</ele>
        <time>2021-12-09T08:59:42.000Z</time>
      </trkpt>
      <trkpt lat="47.2825" lon="-2.33816">
        <ele>23</ele>
        <time>2021-12-09T08:59:43.000Z</time>
      </trkpt>
      <trkpt lat="47.28233" lon="-2.33804">
        <ele>22.39999961853</ele>
        <time>2021-12-09T08:59:46.000Z</time>
      </trkpt>
      <trkpt lat="47.28227" lon="-2.33802">
        <ele>21.60000038147</ele>
        <time>2021-12-09T08:59:47.000Z</time>
      </trkpt>
      <trkpt lat="47.28221" lon="-2.338">
        <ele>21.200000762939</ele>
        <time>2021-12-09T08:59:48.000Z</time>
      </trkpt>
      <trkpt lat="47.28215" lon="-2.33798">
        <ele>20.799999237061</ele>
        <time>2021-12-09T08:59:49.000Z</time>
      </trkpt>
      <trkpt lat="47.28205" lon="-2.33793">
        <ele>20.799999237061</ele>
        <time>2021-12-09T08:59:51.000Z</time>
      </trkpt>
      <trkpt lat="47.282" lon="-2.33789">
        <ele>20.799999237061</ele>
        <time>2021-12-09T08:59:52.000Z</time>
      </trkpt>
      <trkpt lat="47.28186" lon="-2.33776">
        <ele>20.799999237061</ele>
        <time>2021-12-09T08:59:55.000Z</time>
      </trkpt>
      <trkpt lat="47.28156" lon="-2.33744">
        <ele>20.799999237061</ele>
        <time>2021-12-09T09:00:02.000Z</time>
      </trkpt>
      <trkpt lat="47.28134" lon="-2.33711">
        <ele>20.799999237061</ele>
        <time>2021-12-09T09:00:08.000Z</time>
      </trkpt>
      <trkpt lat="47.2813" lon="-2.33705">
        <ele>20.799999237061</ele>
        <time>2021-12-09T09:00:09.000Z</time>
      </trkpt>
      <trkpt lat="47.28123" lon="-2.33693">
        <ele>20.799999237061</ele>
        <time>2021-12-09T09:00:11.000Z</time>
      </trkpt>
      <trkpt lat="47.2812" lon="-2.3369">
        <ele>20.39999961853</ele>
        <time>2021-12-09T09:00:12.000Z</time>
      </trkpt>
      <trkpt lat="47.28117" lon="-2.33688">
        <ele>20</ele>
        <time>2021-12-09T09:00:13.000Z</time>
      </trkpt>
      <trkpt lat="47.28114" lon="-2.33687">
        <ele>19.60000038147</ele>
        <time>2021-12-09T09:00:14.000Z</time>
      </trkpt>
      <trkpt lat="47.28111" lon="-2.33684">
        <ele>19.200000762939</ele>
        <time>2021-12-09T09:00:15.000Z</time>
      </trkpt>
      <trkpt lat="47.2811" lon="-2.33681">
        <ele>18.799999237061</ele>
        <time>2021-12-09T09:00:16.000Z</time>
      </trkpt>
      <trkpt lat="47.28107" lon="-2.33676">
        <ele>18.799999237061</ele>
        <time>2021-12-09T09:00:18.000Z</time>
      </trkpt>
      <trkpt lat="47.28095" lon="-2.33654">
        <ele>18.799999237061</ele>
        <time>2021-12-09T09:00:23.000Z</time>
      </trkpt>
      <trkpt lat="47.28091" lon="-2.33633">
        <ele>18.799999237061</ele>
        <time>2021-12-09T09:00:26.000Z</time>
      </trkpt>
      <trkpt lat="47.28091" lon="-2.33624">
        <ele>18.799999237061</ele>
        <time>2021-12-09T09:00:27.000Z</time>
      </trkpt>
      <trkpt lat="47.28089" lon="-2.33616">
        <ele>18.799999237061</ele>
        <time>2021-12-09T09:00:28.000Z</time>
      </trkpt>
      <trkpt lat="47.28083" lon="-2.3358">
        <ele>18.799999237061</ele>
        <time>2021-12-09T09:00:33.000Z</time>
      </trkpt>
      <trkpt lat="47.28077" lon="-2.33538">
        <ele>18.799999237061</ele>
        <time>2021-12-09T09:00:39.000Z</time>
      </trkpt>
      <trkpt lat="47.28083" lon="-2.33512">
        <ele>18.799999237061</ele>
        <time>2021-12-09T09:00:43.000Z</time>
      </trkpt>
      <trkpt lat="47.2809" lon="-2.335">
        <ele>18.799999237061</ele>
        <time>2021-12-09T09:00:45.000Z</time>
      </trkpt>
      <trkpt lat="47.281" lon="-2.33479">
        <ele>18.799999237061</ele>
        <time>2021-12-09T09:00:48.000Z</time>
      </trkpt>
      <trkpt lat="47.28122" lon="-2.33428">
        <ele>18.799999237061</ele>
        <time>2021-12-09T09:00:55.000Z</time>
      </trkpt>
      <trkpt lat="47.28125" lon="-2.33421">
        <ele>18.39999961853</ele>
        <time>2021-12-09T09:00:56.000Z</time>
      </trkpt>
      <trkpt lat="47.28129" lon="-2.33413">
        <ele>18</ele>
        <time>2021-12-09T09:00:57.000Z</time>
      </trkpt>
      <trkpt lat="47.28132" lon="-2.33406">
        <ele>17.60000038147</ele>
        <time>2021-12-09T09:00:58.000Z</time>
      </trkpt>
      <trkpt lat="47.28135" lon="-2.33399">
        <ele>17.200000762939</ele>
        <time>2021-12-09T09:00:59.000Z</time>
      </trkpt>
      <trkpt lat="47.28138" lon="-2.33391">
        <ele>16.799999237061</ele>
        <time>2021-12-09T09:01:00.000Z</time>
      </trkpt>
      <trkpt lat="47.28149" lon="-2.33369">
        <ele>16.799999237061</ele>
        <time>2021-12-09T09:01:03.000Z</time>
      </trkpt>
      <trkpt lat="47.28174" lon="-2.33313">
        <ele>16.799999237061</ele>
        <time>2021-12-09T09:01:10.000Z</time>
      </trkpt>
      <trkpt lat="47.28184" lon="-2.33272">
        <ele>16.799999237061</ele>
        <time>2021-12-09T09:01:14.000Z</time>
      </trkpt>
      <trkpt lat="47.28186" lon="-2.33262">
        <ele>16.39999961853</ele>
        <time>2021-12-09T09:01:15.000Z</time>
      </trkpt>
      <trkpt lat="47.28187" lon="-2.33252">
        <ele>16</ele>
        <time>2021-12-09T09:01:16.000Z</time>
      </trkpt>
      <trkpt lat="47.28189" lon="-2.33242">
        <ele>15.60000038147</ele>
        <time>2021-12-09T09:01:17.000Z</time>
      </trkpt>
      <trkpt lat="47.2819" lon="-2.33231">
        <ele>15</ele>
        <time>2021-12-09T09:01:18.000Z</time>
      </trkpt>
      <trkpt lat="47.28191" lon="-2.3322">
        <ele>14.60000038147</ele>
        <time>2021-12-09T09:01:19.000Z</time>
      </trkpt>
      <trkpt lat="47.28193" lon="-2.33191">
        <ele>14.60000038147</ele>
        <time>2021-12-09T09:01:22.000Z</time>
      </trkpt>
      <trkpt lat="47.28193" lon="-2.33128">
        <ele>14.60000038147</ele>
        <time>2021-12-09T09:01:29.000Z</time>
      </trkpt>
      <trkpt lat="47.28197" lon="-2.33101">
        <ele>14.60000038147</ele>
        <time>2021-12-09T09:01:32.000Z</time>
      </trkpt>
      <trkpt lat="47.28202" lon="-2.33084">
        <ele>14.60000038147</ele>
        <time>2021-12-09T09:01:34.000Z</time>
      </trkpt>
      <trkpt lat="47.28221" lon="-2.33048">
        <ele>14.60000038147</ele>
        <time>2021-12-09T09:01:39.000Z</time>
      </trkpt>
      <trkpt lat="47.28226" lon="-2.33041">
        <ele>14.60000038147</ele>
        <time>2021-12-09T09:01:40.000Z</time>
      </trkpt>
      <trkpt lat="47.28246" lon="-2.33021">
        <ele>14.60000038147</ele>
        <time>2021-12-09T09:01:44.000Z</time>
      </trkpt>
      <trkpt lat="47.28281" lon="-2.32997">
        <ele>14.60000038147</ele>
        <time>2021-12-09T09:01:50.000Z</time>
      </trkpt>
      <trkpt lat="47.2832" lon="-2.32965">
        <ele>14.60000038147</ele>
        <time>2021-12-09T09:01:57.000Z</time>
      </trkpt>
      <trkpt lat="47.2836" lon="-2.32928">
        <ele>14.60000038147</ele>
        <time>2021-12-09T09:02:05.000Z</time>
      </trkpt>
      <trkpt lat="47.28367" lon="-2.32904">
        <ele>14.60000038147</ele>
        <time>2021-12-09T09:02:08.000Z</time>
      </trkpt>
      <trkpt lat="47.28368" lon="-2.32881">
        <ele>14.60000038147</ele>
        <time>2021-12-09T09:02:11.000Z</time>
      </trkpt>
      <trkpt lat="47.28368" lon="-2.32873">
        <ele>14.60000038147</ele>
        <time>2021-12-09T09:02:12.000Z</time>
      </trkpt>
      <trkpt lat="47.28367" lon="-2.32866">
        <ele>14.60000038147</ele>
        <time>2021-12-09T09:02:13.000Z</time>
      </trkpt>
      <trkpt lat="47.28365" lon="-2.32825">
        <ele>14.60000038147</ele>
        <time>2021-12-09T09:02:18.000Z</time>
      </trkpt>
      <trkpt lat="47.28371" lon="-2.32779">
        <ele>14.60000038147</ele>
        <time>2021-12-09T09:02:24.000Z</time>
      </trkpt>
      <trkpt lat="47.28379" lon="-2.32738">
        <ele>14.60000038147</ele>
        <time>2021-12-09T09:02:29.000Z</time>
      </trkpt>
      <trkpt lat="47.2838" lon="-2.3273">
        <ele>14.60000038147</ele>
        <time>2021-12-09T09:02:30.000Z</time>
      </trkpt>
      <trkpt lat="47.28382" lon="-2.32722">
        <ele>14.60000038147</ele>
        <time>2021-12-09T09:02:31.000Z</time>
      </trkpt>
      <trkpt lat="47.28394" lon="-2.32674">
        <ele>14.60000038147</ele>
        <time>2021-12-09T09:02:37.000Z</time>
      </trkpt>
      <trkpt lat="47.28403" lon="-2.3263">
        <ele>14.60000038147</ele>
        <time>2021-12-09T09:02:44.000Z</time>
      </trkpt>
      <trkpt lat="47.28402" lon="-2.32606">
        <ele>14.60000038147</ele>
        <time>2021-12-09T09:02:49.000Z</time>
      </trkpt>
      <trkpt lat="47.28395" lon="-2.32601">
        <ele>14.60000038147</ele>
        <time>2021-12-09T09:02:52.000Z</time>
      </trkpt>
      <trkpt lat="47.28388" lon="-2.32587">
        <ele>14.60000038147</ele>
        <time>2021-12-09T09:02:57.000Z</time>
      </trkpt>
      <trkpt lat="47.28377" lon="-2.32589">
        <ele>14.60000038147</ele>
        <time>2021-12-09T09:03:01.000Z</time>
      </trkpt>
      <trkpt lat="47.28364" lon="-2.32583">
        <ele>14.60000038147</ele>
        <time>2021-12-09T09:03:06.000Z</time>
      </trkpt>
      <trkpt lat="47.28361" lon="-2.32564">
        <ele>14.60000038147</ele>
        <time>2021-12-09T09:03:10.000Z</time>
      </trkpt>
      <trkpt lat="47.28362" lon="-2.32547">
        <ele>14.60000038147</ele>
        <time>2021-12-09T09:03:13.000Z</time>
      </trkpt>
      <trkpt lat="47.28359" lon="-2.32538">
        <ele>14.60000038147</ele>
        <time>2021-12-09T09:03:15.000Z</time>
      </trkpt>
      <trkpt lat="47.28356" lon="-2.32538">
        <ele>14.60000038147</ele>
        <time>2021-12-09T09:03:16.000Z</time>
      </trkpt>
      <trkpt lat="47.2834" lon="-2.32535">
        <ele>14.60000038147</ele>
        <time>2021-12-09T09:03:20.000Z</time>
      </trkpt>
      <trkpt lat="47.2831" lon="-2.32533">
        <ele>14.60000038147</ele>
        <time>2021-12-09T09:03:26.000Z</time>
      </trkpt>
      <trkpt lat="47.28305" lon="-2.32531">
        <ele>14.60000038147</ele>
        <time>2021-12-09T09:03:27.000Z</time>
      </trkpt>
      <trkpt lat="47.28287" lon="-2.32529">
        <ele>14.60000038147</ele>
        <time>2021-12-09T09:03:31.000Z</time>
      </trkpt>
      <trkpt lat="47.28273" lon="-2.32523">
        <ele>14.60000038147</ele>
        <time>2021-12-09T09:03:34.000Z</time>
      </trkpt>
      <trkpt lat="47.28266" lon="-2.32517">
        <ele>14.60000038147</ele>
        <time>2021-12-09T09:03:36.000Z</time>
      </trkpt>
      <trkpt lat="47.28262" lon="-2.32513">
        <ele>14.60000038147</ele>
        <time>2021-12-09T09:03:37.000Z</time>
      </trkpt>
      <trkpt lat="47.28251" lon="-2.32499">
        <ele>14.60000038147</ele>
        <time>2021-12-09T09:03:40.000Z</time>
      </trkpt>
      <trkpt lat="47.28231" lon="-2.32478">
        <ele>14.60000038147</ele>
        <time>2021-12-09T09:03:46.000Z</time>
      </trkpt>
      <trkpt lat="47.28222" lon="-2.32475">
        <ele>14.60000038147</ele>
        <time>2021-12-09T09:03:48.000Z</time>
      </trkpt>
      <trkpt lat="47.28209" lon="-2.3247">
        <ele>14.60000038147</ele>
        <time>2021-12-09T09:03:50.000Z</time>
      </trkpt>
      <trkpt lat="47.28189" lon="-2.32467">
        <ele>14.60000038147</ele>
        <time>2021-12-09T09:03:54.000Z</time>
      </trkpt>
      <trkpt lat="47.28172" lon="-2.32462">
        <ele>14.60000038147</ele>
        <time>2021-12-09T09:03:57.000Z</time>
      </trkpt>
      <trkpt lat="47.28158" lon="-2.32461">
        <ele>14.60000038147</ele>
        <time>2021-12-09T09:04:00.000Z</time>
      </trkpt>
      <trkpt lat="47.28153" lon="-2.32462">
        <ele>14.60000038147</ele>
        <time>2021-12-09T09:04:01.000Z</time>
      </trkpt>
      <trkpt lat="47.28131" lon="-2.3246">
        <ele>14.60000038147</ele>
        <time>2021-12-09T09:04:05.000Z</time>
      </trkpt>
      <trkpt lat="47.28126" lon="-2.32459">
        <ele>14.60000038147</ele>
        <time>2021-12-09T09:04:06.000Z</time>
      </trkpt>
      <trkpt lat="47.28115" lon="-2.32455">
        <ele>14.60000038147</ele>
        <time>2021-12-09T09:04:09.000Z</time>
      </trkpt>
      <trkpt lat="47.28096" lon="-2.32443">
        <ele>14.60000038147</ele>
        <time>2021-12-09T09:04:14.000Z</time>
      </trkpt>
      <trkpt lat="47.28089" lon="-2.32439">
        <ele>15</ele>
        <time>2021-12-09T09:04:16.000Z</time>
      </trkpt>
      <trkpt lat="47.28084" lon="-2.32439">
        <ele>15.39999961853</ele>
        <time>2021-12-09T09:04:17.000Z</time>
      </trkpt>
      <trkpt lat="47.28079" lon="-2.32438">
        <ele>16.200000762939</ele>
        <time>2021-12-09T09:04:18.000Z</time>
      </trkpt>
      <trkpt lat="47.28074" lon="-2.32437">
        <ele>16.60000038147</ele>
        <time>2021-12-09T09:04:19.000Z</time>
      </trkpt>
      <trkpt lat="47.28044" lon="-2.32435">
        <ele>16.60000038147</ele>
        <time>2021-12-09T09:04:25.000Z</time>
      </trkpt>
      <trkpt lat="47.28015" lon="-2.3243">
        <ele>16.60000038147</ele>
        <time>2021-12-09T09:04:30.000Z</time>
      </trkpt>
      <trkpt lat="47.28009" lon="-2.32428">
        <ele>16.60000038147</ele>
        <time>2021-12-09T09:04:31.000Z</time>
      </trkpt>
      <trkpt lat="47.27982" lon="-2.32419">
        <ele>16.60000038147</ele>
        <time>2021-12-09T09:04:36.000Z</time>
      </trkpt>
      <trkpt lat="47.27964" lon="-2.32412">
        <ele>16.60000038147</ele>
        <time>2021-12-09T09:04:41.000Z</time>
      </trkpt>
      <trkpt lat="47.27952" lon="-2.32408">
        <ele>16.60000038147</ele>
        <time>2021-12-09T09:04:45.000Z</time>
      </trkpt>
      <trkpt lat="47.27943" lon="-2.32407">
        <ele>16.60000038147</ele>
        <time>2021-12-09T09:04:51.000Z</time>
      </trkpt>
      <trkpt lat="47.27933" lon="-2.32407">
        <ele>16.60000038147</ele>
        <time>2021-12-09T09:04:58.000Z</time>
      </trkpt>
      <trkpt lat="47.27928" lon="-2.32406">
        <ele>16.60000038147</ele>
        <time>2021-12-09T09:05:01.000Z</time>
      </trkpt>
      <trkpt lat="47.27925" lon="-2.32404">
        <ele>16.60000038147</ele>
        <time>2021-12-09T09:05:03.000Z</time>
      </trkpt>
      <trkpt lat="47.27916" lon="-2.32398">
        <ele>16.60000038147</ele>
        <time>2021-12-09T09:05:07.000Z</time>
      </trkpt>
      <trkpt lat="47.27913" lon="-2.32397">
        <ele>16.60000038147</ele>
        <time>2021-12-09T09:05:08.000Z</time>
      </trkpt>
      <trkpt lat="47.27901" lon="-2.32395">
        <ele>16.60000038147</ele>
        <time>2021-12-09T09:05:12.000Z</time>
      </trkpt>
      <trkpt lat="47.27885" lon="-2.32398">
        <ele>16.60000038147</ele>
        <time>2021-12-09T09:05:18.000Z</time>
      </trkpt>
      <trkpt lat="47.27872" lon="-2.32395">
        <ele>16.60000038147</ele>
        <time>2021-12-09T09:05:23.000Z</time>
      </trkpt>
      <trkpt lat="47.27858" lon="-2.32389">
        <ele>16.60000038147</ele>
        <time>2021-12-09T09:05:29.000Z</time>
      </trkpt>
      <trkpt lat="47.27844" lon="-2.32386">
        <ele>16.60000038147</ele>
        <time>2021-12-09T09:05:35.000Z</time>
      </trkpt>
      <trkpt lat="47.27841" lon="-2.32386">
        <ele>17.200000762939</ele>
        <time>2021-12-09T09:05:36.000Z</time>
      </trkpt>
      <trkpt lat="47.27837" lon="-2.32384">
        <ele>17.60000038147</ele>
        <time>2021-12-09T09:05:37.000Z</time>
      </trkpt>
      <trkpt lat="47.27833" lon="-2.32384">
        <ele>18</ele>
        <time>2021-12-09T09:05:38.000Z</time>
      </trkpt>
      <trkpt lat="47.2783" lon="-2.32383">
        <ele>18.39999961853</ele>
        <time>2021-12-09T09:05:39.000Z</time>
      </trkpt>
      <trkpt lat="47.27827" lon="-2.32383">
        <ele>18.799999237061</ele>
        <time>2021-12-09T09:05:40.000Z</time>
      </trkpt>
      <trkpt lat="47.27824" lon="-2.32382">
        <ele>18.799999237061</ele>
        <time>2021-12-09T09:05:41.000Z</time>
      </trkpt>
      <trkpt lat="47.27813" lon="-2.32383">
        <ele>18.799999237061</ele>
        <time>2021-12-09T09:05:46.000Z</time>
      </trkpt>
      <trkpt lat="47.27809" lon="-2.32383">
        <ele>18.799999237061</ele>
        <time>2021-12-09T09:05:50.000Z</time>
      </trkpt>
      <trkpt lat="47.27805" lon="-2.32382">
        <ele>18.799999237061</ele>
        <time>2021-12-09T09:06:04.000Z</time>
      </trkpt>
      <trkpt lat="47.27802" lon="-2.32383">
        <ele>18.799999237061</ele>
        <time>2021-12-09T09:06:05.000Z</time>
      </trkpt>
      <trkpt lat="47.2779" lon="-2.32384">
        <ele>18.799999237061</ele>
        <time>2021-12-09T09:06:11.000Z</time>
      </trkpt>
      <trkpt lat="47.27778" lon="-2.32386">
        <ele>18.799999237061</ele>
        <time>2021-12-09T09:06:16.000Z</time>
      </trkpt>
      <trkpt lat="47.27775" lon="-2.32384">
        <ele>18.799999237061</ele>
        <time>2021-12-09T09:06:17.000Z</time>
      </trkpt>
      <trkpt lat="47.27768" lon="-2.32375">
        <ele>18.799999237061</ele>
        <time>2021-12-09T09:06:20.000Z</time>
      </trkpt>
      <trkpt lat="47.27762" lon="-2.32371">
        <ele>18.799999237061</ele>
        <time>2021-12-09T09:06:22.000Z</time>
      </trkpt>
      <trkpt lat="47.27744" lon="-2.3236">
        <ele>18.799999237061</ele>
        <time>2021-12-09T09:06:29.000Z</time>
      </trkpt>
      <trkpt lat="47.27729" lon="-2.32352">
        <ele>19.200000762939</ele>
        <time>2021-12-09T09:06:34.000Z</time>
      </trkpt>
      <trkpt lat="47.27726" lon="-2.32349">
        <ele>19.60000038147</ele>
        <time>2021-12-09T09:06:35.000Z</time>
      </trkpt>
      <trkpt lat="47.27724" lon="-2.32347">
        <ele>20</ele>
        <time>2021-12-09T09:06:36.000Z</time>
      </trkpt>
      <trkpt lat="47.27721" lon="-2.32345">
        <ele>20.39999961853</ele>
        <time>2021-12-09T09:06:37.000Z</time>
      </trkpt>
      <trkpt lat="47.27718" lon="-2.32344">
        <ele>20.799999237061</ele>
        <time>2021-12-09T09:06:38.000Z</time>
      </trkpt>
      <trkpt lat="47.27712" lon="-2.32341">
        <ele>20.799999237061</ele>
        <time>2021-12-09T09:06:40.000Z</time>
      </trkpt>
      <trkpt lat="47.27708" lon="-2.3234">
        <ele>20.799999237061</ele>
        <time>2021-12-09T09:06:41.000Z</time>
      </trkpt>
      <trkpt lat="47.27688" lon="-2.32334">
        <ele>20.799999237061</ele>
        <time>2021-12-09T09:06:46.000Z</time>
      </trkpt>
      <trkpt lat="47.27664" lon="-2.32326">
        <ele>20.799999237061</ele>
        <time>2021-12-09T09:06:52.000Z</time>
      </trkpt>
      <trkpt lat="47.27645" lon="-2.32319">
        <ele>20.799999237061</ele>
        <time>2021-12-09T09:06:57.000Z</time>
      </trkpt>
      <trkpt lat="47.27626" lon="-2.32305">
        <ele>20.799999237061</ele>
        <time>2021-12-09T09:07:02.000Z</time>
      </trkpt>
      <trkpt lat="47.27618" lon="-2.32299">
        <ele>20.39999961853</ele>
        <time>2021-12-09T09:07:04.000Z</time>
      </trkpt>
      <trkpt lat="47.27613" lon="-2.32294">
        <ele>20</ele>
        <time>2021-12-09T09:07:05.000Z</time>
      </trkpt>
      <trkpt lat="47.27609" lon="-2.3229">
        <ele>19.60000038147</ele>
        <time>2021-12-09T09:07:06.000Z</time>
      </trkpt>
      <trkpt lat="47.27604" lon="-2.32285">
        <ele>19.200000762939</ele>
        <time>2021-12-09T09:07:07.000Z</time>
      </trkpt>
      <trkpt lat="47.27599" lon="-2.32281">
        <ele>18.799999237061</ele>
        <time>2021-12-09T09:07:08.000Z</time>
      </trkpt>
      <trkpt lat="47.27588" lon="-2.32273">
        <ele>18.799999237061</ele>
        <time>2021-12-09T09:07:11.000Z</time>
      </trkpt>
      <trkpt lat="47.27588" lon="-2.32272">
        <ele>18.39999961853</ele>
        <time>2021-12-09T09:07:13.000Z</time>
      </trkpt>
      <trkpt lat="47.27584" lon="-2.32268">
        <ele>16.60000038147</ele>
        <time>2021-12-09T09:07:29.000Z</time>
      </trkpt>
      <trkpt lat="47.27582" lon="-2.32266">
        <ele>16.60000038147</ele>
        <time>2021-12-09T09:07:30.000Z</time>
      </trkpt>
      <trkpt lat="47.27569" lon="-2.32254">
        <ele>16.60000038147</ele>
        <time>2021-12-09T09:07:34.000Z</time>
      </trkpt>
      <trkpt lat="47.27541" lon="-2.32229">
        <ele>16.60000038147</ele>
        <time>2021-12-09T09:07:39.000Z</time>
      </trkpt>
      <trkpt lat="47.27528" lon="-2.32216">
        <ele>16.60000038147</ele>
        <time>2021-12-09T09:07:41.000Z</time>
      </trkpt>
      <trkpt lat="47.27516" lon="-2.322">
        <ele>16.200000762939</ele>
        <time>2021-12-09T09:07:43.000Z</time>
      </trkpt>
      <trkpt lat="47.2751" lon="-2.32192">
        <ele>15.60000038147</ele>
        <time>2021-12-09T09:07:44.000Z</time>
      </trkpt>
      <trkpt lat="47.27503" lon="-2.32183">
        <ele>15.199999809265</ele>
        <time>2021-12-09T09:07:45.000Z</time>
      </trkpt>
      <trkpt lat="47.27497" lon="-2.32174">
        <ele>14.800000190735</ele>
        <time>2021-12-09T09:07:46.000Z</time>
      </trkpt>
      <trkpt lat="47.2749" lon="-2.32166">
        <ele>14.39999961853</ele>
        <time>2021-12-09T09:07:47.000Z</time>
      </trkpt>
      <trkpt lat="47.27476" lon="-2.32149">
        <ele>13.800000190735</ele>
        <time>2021-12-09T09:07:49.000Z</time>
      </trkpt>
      <trkpt lat="47.2747" lon="-2.3214">
        <ele>13.39999961853</ele>
        <time>2021-12-09T09:07:50.000Z</time>
      </trkpt>
      <trkpt lat="47.27464" lon="-2.32132">
        <ele>13</ele>
        <time>2021-12-09T09:07:51.000Z</time>
      </trkpt>
      <trkpt lat="47.27458" lon="-2.32124">
        <ele>12.60000038147</ele>
        <time>2021-12-09T09:07:52.000Z</time>
      </trkpt>
      <trkpt lat="47.27452" lon="-2.32116">
        <ele>12.199999809265</ele>
        <time>2021-12-09T09:07:53.000Z</time>
      </trkpt>
      <trkpt lat="47.27435" lon="-2.32093">
        <ele>12.199999809265</ele>
        <time>2021-12-09T09:07:56.000Z</time>
      </trkpt>
      <trkpt lat="47.27409" lon="-2.32066">
        <ele>12.199999809265</ele>
        <time>2021-12-09T09:08:00.000Z</time>
      </trkpt>
      <trkpt lat="47.27396" lon="-2.32051">
        <ele>11.800000190735</ele>
        <time>2021-12-09T09:08:02.000Z</time>
      </trkpt>
      <trkpt lat="47.27389" lon="-2.32044">
        <ele>11.199999809265</ele>
        <time>2021-12-09T09:08:03.000Z</time>
      </trkpt>
      <trkpt lat="47.27382" lon="-2.32036">
        <ele>10.800000190735</ele>
        <time>2021-12-09T09:08:04.000Z</time>
      </trkpt>
      <trkpt lat="47.27375" lon="-2.32028">
        <ele>10.39999961853</ele>
        <time>2021-12-09T09:08:05.000Z</time>
      </trkpt>
      <trkpt lat="47.27367" lon="-2.3202">
        <ele>10</ele>
        <time>2021-12-09T09:08:06.000Z</time>
      </trkpt>
      <trkpt lat="47.27359" lon="-2.32013">
        <ele>9.6000003814697</ele>
        <time>2021-12-09T09:08:07.000Z</time>
      </trkpt>
      <trkpt lat="47.27352" lon="-2.32006">
        <ele>9.1999998092651</ele>
        <time>2021-12-09T09:08:08.000Z</time>
      </trkpt>
      <trkpt lat="47.27345" lon="-2.31998">
        <ele>8.8000001907349</ele>
        <time>2021-12-09T09:08:09.000Z</time>
      </trkpt>
      <trkpt lat="47.27338" lon="-2.31991">
        <ele>8.3999996185303</ele>
        <time>2021-12-09T09:08:10.000Z</time>
      </trkpt>
      <trkpt lat="47.27331" lon="-2.31983">
        <ele>7.8000001907349</ele>
        <time>2021-12-09T09:08:11.000Z</time>
      </trkpt>
      <trkpt lat="47.27324" lon="-2.31975">
        <ele>7.8000001907349</ele>
        <time>2021-12-09T09:08:12.000Z</time>
      </trkpt>
      <trkpt lat="47.27291" lon="-2.31944">
        <ele>7.8000001907349</ele>
        <time>2021-12-09T09:08:17.000Z</time>
      </trkpt>
      <trkpt lat="47.27251" lon="-2.31927">
        <ele>7.8000001907349</ele>
        <time>2021-12-09T09:08:23.000Z</time>
      </trkpt>
      <trkpt lat="47.27214" lon="-2.31914">
        <ele>7.8000001907349</ele>
        <time>2021-12-09T09:08:29.000Z</time>
      </trkpt>
      <trkpt lat="47.27209" lon="-2.3191">
        <ele>7.8000001907349</ele>
        <time>2021-12-09T09:08:30.000Z</time>
      </trkpt>
      <trkpt lat="47.27192" lon="-2.31893">
        <ele>7.8000001907349</ele>
        <time>2021-12-09T09:08:33.000Z</time>
      </trkpt>
      <trkpt lat="47.27163" lon="-2.31856">
        <ele>7.8000001907349</ele>
        <time>2021-12-09T09:08:39.000Z</time>
      </trkpt>
      <trkpt lat="47.27144" lon="-2.31829">
        <ele>7.8000001907349</ele>
        <time>2021-12-09T09:08:44.000Z</time>
      </trkpt>
      <trkpt lat="47.27119" lon="-2.31797">
        <ele>8.1999998092651</ele>
        <time>2021-12-09T09:08:50.000Z</time>
      </trkpt>
      <trkpt lat="47.27114" lon="-2.31792">
        <ele>9</ele>
        <time>2021-12-09T09:08:51.000Z</time>
      </trkpt>
      <trkpt lat="47.2711" lon="-2.31788">
        <ele>9.3999996185303</ele>
        <time>2021-12-09T09:08:52.000Z</time>
      </trkpt>
      <trkpt lat="47.27106" lon="-2.31784">
        <ele>10</ele>
        <time>2021-12-09T09:08:53.000Z</time>
      </trkpt>
      <trkpt lat="47.27085" lon="-2.31764">
        <ele>10</ele>
        <time>2021-12-09T09:08:58.000Z</time>
      </trkpt>
      <trkpt lat="47.27076" lon="-2.31757">
        <ele>10.39999961853</ele>
        <time>2021-12-09T09:09:00.000Z</time>
      </trkpt>
      <trkpt lat="47.27072" lon="-2.31754">
        <ele>10.800000190735</ele>
        <time>2021-12-09T09:09:01.000Z</time>
      </trkpt>
      <trkpt lat="47.27068" lon="-2.3175">
        <ele>11.199999809265</ele>
        <time>2021-12-09T09:09:02.000Z</time>
      </trkpt>
      <trkpt lat="47.27064" lon="-2.31746">
        <ele>11.60000038147</ele>
        <time>2021-12-09T09:09:03.000Z</time>
      </trkpt>
      <trkpt lat="47.2706" lon="-2.31742">
        <ele>12</ele>
        <time>2021-12-09T09:09:04.000Z</time>
      </trkpt>
      <trkpt lat="47.27055" lon="-2.31738">
        <ele>12</ele>
        <time>2021-12-09T09:09:05.000Z</time>
      </trkpt>
      <trkpt lat="47.27032" lon="-2.31721">
        <ele>12</ele>
        <time>2021-12-09T09:09:11.000Z</time>
      </trkpt>
      <trkpt lat="47.27025" lon="-2.31711">
        <ele>12</ele>
        <time>2021-12-09T09:09:14.000Z</time>
      </trkpt>
      <trkpt lat="47.27025" lon="-2.31707">
        <ele>12</ele>
        <time>2021-12-09T09:09:15.000Z</time>
      </trkpt>
      <trkpt lat="47.27026" lon="-2.31703">
        <ele>12.39999961853</ele>
        <time>2021-12-09T09:09:16.000Z</time>
      </trkpt>
      <trkpt lat="47.27027" lon="-2.31699">
        <ele>12.800000190735</ele>
        <time>2021-12-09T09:09:17.000Z</time>
      </trkpt>
      <trkpt lat="47.27028" lon="-2.31696">
        <ele>13.199999809265</ele>
        <time>2021-12-09T09:09:18.000Z</time>
      </trkpt>
      <trkpt lat="47.27029" lon="-2.31693">
        <ele>13.60000038147</ele>
        <time>2021-12-09T09:09:19.000Z</time>
      </trkpt>
      <trkpt lat="47.2703" lon="-2.3169">
        <ele>14</ele>
        <time>2021-12-09T09:09:20.000Z</time>
      </trkpt>
      <trkpt lat="47.27032" lon="-2.31686">
        <ele>14</ele>
        <time>2021-12-09T09:09:21.000Z</time>
      </trkpt>
      <trkpt lat="47.27032" lon="-2.31658">
        <ele>14</ele>
        <time>2021-12-09T09:09:26.000Z</time>
      </trkpt>
      <trkpt lat="47.27032" lon="-2.31652">
        <ele>14.39999961853</ele>
        <time>2021-12-09T09:09:27.000Z</time>
      </trkpt>
      <trkpt lat="47.27031" lon="-2.31646">
        <ele>14.800000190735</ele>
        <time>2021-12-09T09:09:28.000Z</time>
      </trkpt>
      <trkpt lat="47.27031" lon="-2.31641">
        <ele>15.199999809265</ele>
        <time>2021-12-09T09:09:29.000Z</time>
      </trkpt>
      <trkpt lat="47.27031" lon="-2.31635">
        <ele>15.60000038147</ele>
        <time>2021-12-09T09:09:30.000Z</time>
      </trkpt>
      <trkpt lat="47.2703" lon="-2.3163">
        <ele>16</ele>
        <time>2021-12-09T09:09:31.000Z</time>
      </trkpt>
      <trkpt lat="47.2703" lon="-2.31625">
        <ele>16</ele>
        <time>2021-12-09T09:09:32.000Z</time>
      </trkpt>
      <trkpt lat="47.27026" lon="-2.31607">
        <ele>16.60000038147</ele>
        <time>2021-12-09T09:09:37.000Z</time>
      </trkpt>
      <trkpt lat="47.27025" lon="-2.31604">
        <ele>17</ele>
        <time>2021-12-09T09:09:38.000Z</time>
      </trkpt>
      <trkpt lat="47.27024" lon="-2.31601">
        <ele>17.39999961853</ele>
        <time>2021-12-09T09:09:39.000Z</time>
      </trkpt>
      <trkpt lat="47.27022" lon="-2.31597">
        <ele>18.39999961853</ele>
        <time>2021-12-09T09:09:40.000Z</time>
      </trkpt>
      <trkpt lat="47.27017" lon="-2.31586">
        <ele>18.39999961853</ele>
        <time>2021-12-09T09:09:43.000Z</time>
      </trkpt>
      <trkpt lat="47.27016" lon="-2.31582">
        <ele>18.39999961853</ele>
        <time>2021-12-09T09:09:44.000Z</time>
      </trkpt>
      <trkpt lat="47.27014" lon="-2.31575">
        <ele>18.799999237061</ele>
        <time>2021-12-09T09:09:46.000Z</time>
      </trkpt>
      <trkpt lat="47.27012" lon="-2.3157">
        <ele>19.200000762939</ele>
        <time>2021-12-09T09:09:47.000Z</time>
      </trkpt>
      <trkpt lat="47.27011" lon="-2.31566">
        <ele>19.60000038147</ele>
        <time>2021-12-09T09:09:48.000Z</time>
      </trkpt>
      <trkpt lat="47.2701" lon="-2.31561">
        <ele>20</ele>
        <time>2021-12-09T09:09:49.000Z</time>
      </trkpt>
      <trkpt lat="47.27009" lon="-2.31556">
        <ele>20.39999961853</ele>
        <time>2021-12-09T09:09:50.000Z</time>
      </trkpt>
      <trkpt lat="47.27005" lon="-2.31538">
        <ele>20.39999961853</ele>
        <time>2021-12-09T09:09:54.000Z</time>
      </trkpt>
      <trkpt lat="47.27" lon="-2.3152">
        <ele>20.799999237061</ele>
        <time>2021-12-09T09:09:59.000Z</time>
      </trkpt>
      <trkpt lat="47.26999" lon="-2.31515">
        <ele>21.200000762939</ele>
        <time>2021-12-09T09:10:00.000Z</time>
      </trkpt>
      <trkpt lat="47.26998" lon="-2.3151">
        <ele>21.799999237061</ele>
        <time>2021-12-09T09:10:01.000Z</time>
      </trkpt>
      <trkpt lat="47.26997" lon="-2.31506">
        <ele>22.200000762939</ele>
        <time>2021-12-09T09:10:02.000Z</time>
      </trkpt>
      <trkpt lat="47.26995" lon="-2.315">
        <ele>22.60000038147</ele>
        <time>2021-12-09T09:10:03.000Z</time>
      </trkpt>
      <trkpt lat="47.26992" lon="-2.31485">
        <ele>22.60000038147</ele>
        <time>2021-12-09T09:10:06.000Z</time>
      </trkpt>
      <trkpt lat="47.2699" lon="-2.31475">
        <ele>23</ele>
        <time>2021-12-09T09:10:08.000Z</time>
      </trkpt>
      <trkpt lat="47.2699" lon="-2.3147">
        <ele>23.39999961853</ele>
        <time>2021-12-09T09:10:09.000Z</time>
      </trkpt>
      <trkpt lat="47.2699" lon="-2.31466">
        <ele>23.799999237061</ele>
        <time>2021-12-09T09:10:10.000Z</time>
      </trkpt>
      <trkpt lat="47.26989" lon="-2.31461">
        <ele>24.200000762939</ele>
        <time>2021-12-09T09:10:11.000Z</time>
      </trkpt>
      <trkpt lat="47.26989" lon="-2.31455">
        <ele>24.60000038147</ele>
        <time>2021-12-09T09:10:12.000Z</time>
      </trkpt>
      <trkpt lat="47.26987" lon="-2.31423">
        <ele>24.60000038147</ele>
        <time>2021-12-09T09:10:19.000Z</time>
      </trkpt>
      <trkpt lat="47.26986" lon="-2.31401">
        <ele>24.60000038147</ele>
        <time>2021-12-09T09:10:24.000Z</time>
      </trkpt>
      <trkpt lat="47.26986" lon="-2.31397">
        <ele>25</ele>
        <time>2021-12-09T09:10:25.000Z</time>
      </trkpt>
      <trkpt lat="47.26985" lon="-2.31392">
        <ele>25.39999961853</ele>
        <time>2021-12-09T09:10:26.000Z</time>
      </trkpt>
      <trkpt lat="47.26985" lon="-2.31388">
        <ele>25.799999237061</ele>
        <time>2021-12-09T09:10:27.000Z</time>
      </trkpt>
      <trkpt lat="47.26985" lon="-2.31384">
        <ele>26.200000762939</ele>
        <time>2021-12-09T09:10:28.000Z</time>
      </trkpt>
      <trkpt lat="47.26985" lon="-2.31379">
        <ele>26.60000038147</ele>
        <time>2021-12-09T09:10:29.000Z</time>
      </trkpt>
      <trkpt lat="47.26985" lon="-2.31375">
        <ele>26.60000038147</ele>
        <time>2021-12-09T09:10:30.000Z</time>
      </trkpt>
      <trkpt lat="47.26982" lon="-2.31342">
        <ele>26.60000038147</ele>
        <time>2021-12-09T09:10:37.000Z</time>
      </trkpt>
      <trkpt lat="47.26981" lon="-2.31333">
        <ele>27</ele>
        <time>2021-12-09T09:10:39.000Z</time>
      </trkpt>
      <trkpt lat="47.2698" lon="-2.31328">
        <ele>27.39999961853</ele>
        <time>2021-12-09T09:10:40.000Z</time>
      </trkpt>
      <trkpt lat="47.2698" lon="-2.31324">
        <ele>27.799999237061</ele>
        <time>2021-12-09T09:10:41.000Z</time>
      </trkpt>
      <trkpt lat="47.26979" lon="-2.31319">
        <ele>28.200000762939</ele>
        <time>2021-12-09T09:10:42.000Z</time>
      </trkpt>
      <trkpt lat="47.26978" lon="-2.31314">
        <ele>28.60000038147</ele>
        <time>2021-12-09T09:10:43.000Z</time>
      </trkpt>
      <trkpt lat="47.26978" lon="-2.31284">
        <ele>28.60000038147</ele>
        <time>2021-12-09T09:10:49.000Z</time>
      </trkpt>
      <trkpt lat="47.26976" lon="-2.3125">
        <ele>28.60000038147</ele>
        <time>2021-12-09T09:10:54.000Z</time>
      </trkpt>
      <trkpt lat="47.26977" lon="-2.31242">
        <ele>28.60000038147</ele>
        <time>2021-12-09T09:10:55.000Z</time>
      </trkpt>
      <trkpt lat="47.2698" lon="-2.31221">
        <ele>28.60000038147</ele>
        <time>2021-12-09T09:10:58.000Z</time>
      </trkpt>
      <trkpt lat="47.26988" lon="-2.31167">
        <ele>28.60000038147</ele>
        <time>2021-12-09T09:11:04.000Z</time>
      </trkpt>
      <trkpt lat="47.26989" lon="-2.31158">
        <ele>28.60000038147</ele>
        <time>2021-12-09T09:11:05.000Z</time>
      </trkpt>
      <trkpt lat="47.2699" lon="-2.31148">
        <ele>28.200000762939</ele>
        <time>2021-12-09T09:11:06.000Z</time>
      </trkpt>
      <trkpt lat="47.26991" lon="-2.31138">
        <ele>27.799999237061</ele>
        <time>2021-12-09T09:11:07.000Z</time>
      </trkpt>
      <trkpt lat="47.26991" lon="-2.31128">
        <ele>27.39999961853</ele>
        <time>2021-12-09T09:11:08.000Z</time>
      </trkpt>
      <trkpt lat="47.26992" lon="-2.31118">
        <ele>27</ele>
        <time>2021-12-09T09:11:09.000Z</time>
      </trkpt>
      <trkpt lat="47.26992" lon="-2.31108">
        <ele>26.39999961853</ele>
        <time>2021-12-09T09:11:10.000Z</time>
      </trkpt>
      <trkpt lat="47.26991" lon="-2.31089">
        <ele>26.39999961853</ele>
        <time>2021-12-09T09:11:12.000Z</time>
      </trkpt>
      <trkpt lat="47.26986" lon="-2.31074">
        <ele>26.39999961853</ele>
        <time>2021-12-09T09:11:14.000Z</time>
      </trkpt>
      <trkpt lat="47.26977" lon="-2.3105">
        <ele>26</ele>
        <time>2021-12-09T09:11:17.000Z</time>
      </trkpt>
      <trkpt lat="47.26975" lon="-2.31042">
        <ele>25.60000038147</ele>
        <time>2021-12-09T09:11:18.000Z</time>
      </trkpt>
      <trkpt lat="47.26974" lon="-2.31034">
        <ele>25.200000762939</ele>
        <time>2021-12-09T09:11:19.000Z</time>
      </trkpt>
      <trkpt lat="47.26972" lon="-2.31027">
        <ele>24.39999961853</ele>
        <time>2021-12-09T09:11:20.000Z</time>
      </trkpt>
      <trkpt lat="47.2697" lon="-2.31021">
        <ele>24.39999961853</ele>
        <time>2021-12-09T09:11:21.000Z</time>
      </trkpt>
      <trkpt lat="47.26963" lon="-2.31003">
        <ele>24.39999961853</ele>
        <time>2021-12-09T09:11:24.000Z</time>
      </trkpt>
      <trkpt lat="47.26962" lon="-2.30987">
        <ele>24.39999961853</ele>
        <time>2021-12-09T09:11:27.000Z</time>
      </trkpt>
      <trkpt lat="47.2697" lon="-2.30972">
        <ele>24.39999961853</ele>
        <time>2021-12-09T09:11:30.000Z</time>
      </trkpt>
      <trkpt lat="47.26973" lon="-2.30967">
        <ele>24.39999961853</ele>
        <time>2021-12-09T09:11:31.000Z</time>
      </trkpt>
      <trkpt lat="47.26988" lon="-2.30949">
        <ele>24.39999961853</ele>
        <time>2021-12-09T09:11:35.000Z</time>
      </trkpt>
      <trkpt lat="47.26995" lon="-2.30941">
        <ele>24.39999961853</ele>
        <time>2021-12-09T09:11:37.000Z</time>
      </trkpt>
      <trkpt lat="47.26998" lon="-2.30936">
        <ele>24.39999961853</ele>
        <time>2021-12-09T09:11:38.000Z</time>
      </trkpt>
      <trkpt lat="47.27014" lon="-2.30917">
        <ele>24.39999961853</ele>
        <time>2021-12-09T09:11:43.000Z</time>
      </trkpt>
      <trkpt lat="47.27017" lon="-2.30913">
        <ele>23.60000038147</ele>
        <time>2021-12-09T09:11:44.000Z</time>
      </trkpt>
      <trkpt lat="47.27021" lon="-2.30909">
        <ele>23.200000762939</ele>
        <time>2021-12-09T09:11:45.000Z</time>
      </trkpt>
      <trkpt lat="47.27025" lon="-2.30905">
        <ele>22.799999237061</ele>
        <time>2021-12-09T09:11:46.000Z</time>
      </trkpt>
      <trkpt lat="47.27029" lon="-2.30902">
        <ele>22.39999961853</ele>
        <time>2021-12-09T09:11:47.000Z</time>
      </trkpt>
      <trkpt lat="47.27032" lon="-2.309">
        <ele>22.39999961853</ele>
        <time>2021-12-09T09:11:48.000Z</time>
      </trkpt>
      <trkpt lat="47.27039" lon="-2.3089">
        <ele>22.39999961853</ele>
        <time>2021-12-09T09:11:52.000Z</time>
      </trkpt>
      <trkpt lat="47.27031" lon="-2.30874">
        <ele>22.39999961853</ele>
        <time>2021-12-09T09:11:56.000Z</time>
      </trkpt>
      <trkpt lat="47.27023" lon="-2.3086">
        <ele>22.39999961853</ele>
        <time>2021-12-09T09:11:59.000Z</time>
      </trkpt>
      <trkpt lat="47.27017" lon="-2.30852">
        <ele>22.39999961853</ele>
        <time>2021-12-09T09:12:01.000Z</time>
      </trkpt>
      <trkpt lat="47.27014" lon="-2.30848">
        <ele>22.39999961853</ele>
        <time>2021-12-09T09:12:02.000Z</time>
      </trkpt>
      <trkpt lat="47.27001" lon="-2.30823">
        <ele>22.39999961853</ele>
        <time>2021-12-09T09:12:07.000Z</time>
      </trkpt>
      <trkpt lat="47.26987" lon="-2.30802">
        <ele>22.799999237061</ele>
        <time>2021-12-09T09:12:12.000Z</time>
      </trkpt>
      <trkpt lat="47.26984" lon="-2.30798">
        <ele>23.200000762939</ele>
        <time>2021-12-09T09:12:13.000Z</time>
      </trkpt>
      <trkpt lat="47.26982" lon="-2.30795">
        <ele>23.60000038147</ele>
        <time>2021-12-09T09:12:14.000Z</time>
      </trkpt>
      <trkpt lat="47.26979" lon="-2.30791">
        <ele>24</ele>
        <time>2021-12-09T09:12:15.000Z</time>
      </trkpt>
      <trkpt lat="47.26977" lon="-2.30787">
        <ele>24.39999961853</ele>
        <time>2021-12-09T09:12:16.000Z</time>
      </trkpt>
      <trkpt lat="47.26971" lon="-2.30779">
        <ele>24.39999961853</ele>
        <time>2021-12-09T09:12:18.000Z</time>
      </trkpt>
      <trkpt lat="47.26955" lon="-2.30753">
        <ele>24.39999961853</ele>
        <time>2021-12-09T09:12:24.000Z</time>
      </trkpt>
      <trkpt lat="47.26948" lon="-2.30743">
        <ele>24.799999237061</ele>
        <time>2021-12-09T09:12:27.000Z</time>
      </trkpt>
      <trkpt lat="47.26945" lon="-2.3074">
        <ele>25.200000762939</ele>
        <time>2021-12-09T09:12:28.000Z</time>
      </trkpt>
      <trkpt lat="47.26943" lon="-2.30736">
        <ele>25.60000038147</ele>
        <time>2021-12-09T09:12:29.000Z</time>
      </trkpt>
      <trkpt lat="47.2694" lon="-2.30732">
        <ele>26</ele>
        <time>2021-12-09T09:12:30.000Z</time>
      </trkpt>
      <trkpt lat="47.26937" lon="-2.30728">
        <ele>26.39999961853</ele>
        <time>2021-12-09T09:12:31.000Z</time>
      </trkpt>
      <trkpt lat="47.26922" lon="-2.30704">
        <ele>26.39999961853</ele>
        <time>2021-12-09T09:12:37.000Z</time>
      </trkpt>
      <trkpt lat="47.26911" lon="-2.30688">
        <ele>26.799999237061</ele>
        <time>2021-12-09T09:12:41.000Z</time>
      </trkpt>
      <trkpt lat="47.26908" lon="-2.30684">
        <ele>27.200000762939</ele>
        <time>2021-12-09T09:12:42.000Z</time>
      </trkpt>
      <trkpt lat="47.26905" lon="-2.3068">
        <ele>27.60000038147</ele>
        <time>2021-12-09T09:12:43.000Z</time>
      </trkpt>
      <trkpt lat="47.26902" lon="-2.30676">
        <ele>28</ele>
        <time>2021-12-09T09:12:44.000Z</time>
      </trkpt>
      <trkpt lat="47.269" lon="-2.30673">
        <ele>28.39999961853</ele>
        <time>2021-12-09T09:12:45.000Z</time>
      </trkpt>
      <trkpt lat="47.26896" lon="-2.30669">
        <ele>28.39999961853</ele>
        <time>2021-12-09T09:12:47.000Z</time>
      </trkpt>
      <trkpt lat="47.2689" lon="-2.30669">
        <ele>28.39999961853</ele>
        <time>2021-12-09T09:12:49.000Z</time>
      </trkpt>
      <trkpt lat="47.26885" lon="-2.30675">
        <ele>28.39999961853</ele>
        <time>2021-12-09T09:12:51.000Z</time>
      </trkpt>
      <trkpt lat="47.26867" lon="-2.307">
        <ele>28.39999961853</ele>
        <time>2021-12-09T09:12:57.000Z</time>
      </trkpt>
      <trkpt lat="47.26865" lon="-2.30706">
        <ele>28.39999961853</ele>
        <time>2021-12-09T09:12:58.000Z</time>
      </trkpt>
      <trkpt lat="47.26845" lon="-2.30752">
        <ele>28.39999961853</ele>
        <time>2021-12-09T09:13:06.000Z</time>
      </trkpt>
      <trkpt lat="47.26828" lon="-2.3079">
        <ele>28.39999961853</ele>
        <time>2021-12-09T09:13:13.000Z</time>
      </trkpt>
      <trkpt lat="47.26812" lon="-2.30802">
        <ele>28.39999961853</ele>
        <time>2021-12-09T09:13:17.000Z</time>
      </trkpt>
      <trkpt lat="47.26808" lon="-2.30806">
        <ele>28.39999961853</ele>
        <time>2021-12-09T09:13:18.000Z</time>
      </trkpt>
      <trkpt lat="47.26789" lon="-2.30826">
        <ele>28.39999961853</ele>
        <time>2021-12-09T09:13:23.000Z</time>
      </trkpt>
      <trkpt lat="47.26773" lon="-2.30843">
        <ele>28.39999961853</ele>
        <time>2021-12-09T09:13:27.000Z</time>
      </trkpt>
      <trkpt lat="47.26765" lon="-2.30851">
        <ele>28.39999961853</ele>
        <time>2021-12-09T09:13:29.000Z</time>
      </trkpt>
      <trkpt lat="47.26749" lon="-2.30867">
        <ele>28.39999961853</ele>
        <time>2021-12-09T09:13:33.000Z</time>
      </trkpt>
      <trkpt lat="47.2674" lon="-2.30869">
        <ele>28.39999961853</ele>
        <time>2021-12-09T09:13:35.000Z</time>
      </trkpt>
      <trkpt lat="47.2673" lon="-2.30858">
        <ele>28.39999961853</ele>
        <time>2021-12-09T09:13:38.000Z</time>
      </trkpt>
      <trkpt lat="47.26721" lon="-2.30842">
        <ele>28.39999961853</ele>
        <time>2021-12-09T09:13:41.000Z</time>
      </trkpt>
      <trkpt lat="47.26716" lon="-2.3083">
        <ele>28.39999961853</ele>
        <time>2021-12-09T09:13:43.000Z</time>
      </trkpt>
      <trkpt lat="47.26694" lon="-2.30777">
        <ele>28.39999961853</ele>
        <time>2021-12-09T09:13:51.000Z</time>
      </trkpt>
      <trkpt lat="47.26678" lon="-2.30739">
        <ele>28</ele>
        <time>2021-12-09T09:13:56.000Z</time>
      </trkpt>
      <trkpt lat="47.26674" lon="-2.30731">
        <ele>27.60000038147</ele>
        <time>2021-12-09T09:13:57.000Z</time>
      </trkpt>
      <trkpt lat="47.26671" lon="-2.30724">
        <ele>27.200000762939</ele>
        <time>2021-12-09T09:13:58.000Z</time>
      </trkpt>
      <trkpt lat="47.26668" lon="-2.30717">
        <ele>26.799999237061</ele>
        <time>2021-12-09T09:13:59.000Z</time>
      </trkpt>
      <trkpt lat="47.26665" lon="-2.30711">
        <ele>26.200000762939</ele>
        <time>2021-12-09T09:14:00.000Z</time>
      </trkpt>
      <trkpt lat="47.26663" lon="-2.30705">
        <ele>26.200000762939</ele>
        <time>2021-12-09T09:14:01.000Z</time>
      </trkpt>
      <trkpt lat="47.26658" lon="-2.30697">
        <ele>25.799999237061</ele>
        <time>2021-12-09T09:14:03.000Z</time>
      </trkpt>
      <trkpt lat="47.26656" lon="-2.30695">
        <ele>25.39999961853</ele>
        <time>2021-12-09T09:14:04.000Z</time>
      </trkpt>
      <trkpt lat="47.26653" lon="-2.30695">
        <ele>25</ele>
        <time>2021-12-09T09:14:05.000Z</time>
      </trkpt>
      <trkpt lat="47.2665" lon="-2.30696">
        <ele>24.60000038147</ele>
        <time>2021-12-09T09:14:06.000Z</time>
      </trkpt>
      <trkpt lat="47.26649" lon="-2.307">
        <ele>24.200000762939</ele>
        <time>2021-12-09T09:14:07.000Z</time>
      </trkpt>
      <trkpt lat="47.26641" lon="-2.30722">
        <ele>24.200000762939</ele>
        <time>2021-12-09T09:14:12.000Z</time>
      </trkpt>
      <trkpt lat="47.26629" lon="-2.30735">
        <ele>24.200000762939</ele>
        <time>2021-12-09T09:14:17.000Z</time>
      </trkpt>
      <trkpt lat="47.26623" lon="-2.30747">
        <ele>23.799999237061</ele>
        <time>2021-12-09T09:14:21.000Z</time>
      </trkpt>
      <trkpt lat="47.26623" lon="-2.3075">
        <ele>23.39999961853</ele>
        <time>2021-12-09T09:14:22.000Z</time>
      </trkpt>
      <trkpt lat="47.26622" lon="-2.30754">
        <ele>23</ele>
        <time>2021-12-09T09:14:23.000Z</time>
      </trkpt>
      <trkpt lat="47.2662" lon="-2.30757">
        <ele>22.60000038147</ele>
        <time>2021-12-09T09:14:24.000Z</time>
      </trkpt>
      <trkpt lat="47.26618" lon="-2.3076">
        <ele>22.200000762939</ele>
        <time>2021-12-09T09:14:25.000Z</time>
      </trkpt>
      <trkpt lat="47.26615" lon="-2.30763">
        <ele>22.200000762939</ele>
        <time>2021-12-09T09:14:26.000Z</time>
      </trkpt>
      <trkpt lat="47.26598" lon="-2.30779">
        <ele>22.200000762939</ele>
        <time>2021-12-09T09:14:32.000Z</time>
      </trkpt>
      <trkpt lat="47.26585" lon="-2.30795">
        <ele>22.200000762939</ele>
        <time>2021-12-09T09:14:37.000Z</time>
      </trkpt>
      <trkpt lat="47.26579" lon="-2.30803">
        <ele>21.799999237061</ele>
        <time>2021-12-09T09:14:39.000Z</time>
      </trkpt>
      <trkpt lat="47.26577" lon="-2.30808">
        <ele>21.200000762939</ele>
        <time>2021-12-09T09:14:40.000Z</time>
      </trkpt>
      <trkpt lat="47.26575" lon="-2.30813">
        <ele>20.799999237061</ele>
        <time>2021-12-09T09:14:41.000Z</time>
      </trkpt>
      <trkpt lat="47.26574" lon="-2.30817">
        <ele>20.39999961853</ele>
        <time>2021-12-09T09:14:42.000Z</time>
      </trkpt>
      <trkpt lat="47.26572" lon="-2.3082">
        <ele>20</ele>
        <time>2021-12-09T09:14:43.000Z</time>
      </trkpt>
      <trkpt lat="47.26564" lon="-2.3083">
        <ele>20</ele>
        <time>2021-12-09T09:14:46.000Z</time>
      </trkpt>
      <trkpt lat="47.26544" lon="-2.30853">
        <ele>20</ele>
        <time>2021-12-09T09:14:53.000Z</time>
      </trkpt>
      <trkpt lat="47.26536" lon="-2.30863">
        <ele>19.39999961853</ele>
        <time>2021-12-09T09:14:56.000Z</time>
      </trkpt>
      <trkpt lat="47.26533" lon="-2.30867">
        <ele>19</ele>
        <time>2021-12-09T09:14:57.000Z</time>
      </trkpt>
      <trkpt lat="47.2653" lon="-2.3087">
        <ele>18.60000038147</ele>
        <time>2021-12-09T09:14:58.000Z</time>
      </trkpt>
      <trkpt lat="47.26526" lon="-2.30873">
        <ele>18.200000762939</ele>
        <time>2021-12-09T09:14:59.000Z</time>
      </trkpt>
      <trkpt lat="47.26523" lon="-2.30876">
        <ele>17.799999237061</ele>
        <time>2021-12-09T09:15:00.000Z</time>
      </trkpt>
      <trkpt lat="47.26507" lon="-2.30882">
        <ele>17.799999237061</ele>
        <time>2021-12-09T09:15:04.000Z</time>
      </trkpt>
      <trkpt lat="47.26499" lon="-2.30875">
        <ele>17.799999237061</ele>
        <time>2021-12-09T09:15:08.000Z</time>
      </trkpt>
      <trkpt lat="47.26498" lon="-2.30874">
        <ele>17.799999237061</ele>
        <time>2021-12-09T09:15:09.000Z</time>
      </trkpt>
      <trkpt lat="47.26488" lon="-2.30858">
        <ele>18.200000762939</ele>
        <time>2021-12-09T09:15:16.000Z</time>
      </trkpt>
      <trkpt lat="47.26487" lon="-2.30857">
        <ele>18.60000038147</ele>
        <time>2021-12-09T09:15:17.000Z</time>
      </trkpt>
      <trkpt lat="47.26485" lon="-2.30854">
        <ele>19</ele>
        <time>2021-12-09T09:15:18.000Z</time>
      </trkpt>
      <trkpt lat="47.26484" lon="-2.30852">
        <ele>19.60000038147</ele>
        <time>2021-12-09T09:15:19.000Z</time>
      </trkpt>
      <trkpt lat="47.26483" lon="-2.3085">
        <ele>20</ele>
        <time>2021-12-09T09:15:20.000Z</time>
      </trkpt>
      <trkpt lat="47.26482" lon="-2.30847">
        <ele>20</ele>
        <time>2021-12-09T09:15:21.000Z</time>
      </trkpt>
      <trkpt lat="47.2648" lon="-2.30842">
        <ele>20</ele>
        <time>2021-12-09T09:15:23.000Z</time>
      </trkpt>
      <trkpt lat="47.26477" lon="-2.30833">
        <ele>20</ele>
        <time>2021-12-09T09:15:26.000Z</time>
      </trkpt>
      <trkpt lat="47.26476" lon="-2.30829">
        <ele>20</ele>
        <time>2021-12-09T09:15:27.000Z</time>
      </trkpt>
      <trkpt lat="47.26475" lon="-2.30825">
        <ele>20.39999961853</ele>
        <time>2021-12-09T09:15:28.000Z</time>
      </trkpt>
      <trkpt lat="47.26473" lon="-2.30821">
        <ele>20.799999237061</ele>
        <time>2021-12-09T09:15:29.000Z</time>
      </trkpt>
      <trkpt lat="47.26472" lon="-2.30818">
        <ele>21.200000762939</ele>
        <time>2021-12-09T09:15:30.000Z</time>
      </trkpt>
      <trkpt lat="47.26471" lon="-2.30814">
        <ele>21.60000038147</ele>
        <time>2021-12-09T09:15:31.000Z</time>
      </trkpt>
      <trkpt lat="47.2647" lon="-2.30811">
        <ele>22</ele>
        <time>2021-12-09T09:15:32.000Z</time>
      </trkpt>
      <trkpt lat="47.26467" lon="-2.30803">
        <ele>22</ele>
        <time>2021-12-09T09:15:34.000Z</time>
      </trkpt>
      <trkpt lat="47.26459" lon="-2.30782">
        <ele>22</ele>
        <time>2021-12-09T09:15:40.000Z</time>
      </trkpt>
      <trkpt lat="47.26454" lon="-2.30768">
        <ele>22.39999961853</ele>
        <time>2021-12-09T09:15:44.000Z</time>
      </trkpt>
      <trkpt lat="47.26452" lon="-2.30765">
        <ele>22.799999237061</ele>
        <time>2021-12-09T09:15:45.000Z</time>
      </trkpt>
      <trkpt lat="47.26451" lon="-2.30761">
        <ele>23.200000762939</ele>
        <time>2021-12-09T09:15:46.000Z</time>
      </trkpt>
      <trkpt lat="47.2645" lon="-2.30757">
        <ele>23.60000038147</ele>
        <time>2021-12-09T09:15:47.000Z</time>
      </trkpt>
      <trkpt lat="47.26448" lon="-2.30754">
        <ele>24</ele>
        <time>2021-12-09T09:15:48.000Z</time>
      </trkpt>
      <trkpt lat="47.26438" lon="-2.30727">
        <ele>24</ele>
        <time>2021-12-09T09:15:55.000Z</time>
      </trkpt>
      <trkpt lat="47.26427" lon="-2.30704">
        <ele>24</ele>
        <time>2021-12-09T09:16:01.000Z</time>
      </trkpt>
      <trkpt lat="47.26418" lon="-2.30686">
        <ele>24</ele>
        <time>2021-12-09T09:16:06.000Z</time>
      </trkpt>
      <trkpt lat="47.26402" lon="-2.30675">
        <ele>24</ele>
        <time>2021-12-09T09:16:11.000Z</time>
      </trkpt>
      <trkpt lat="47.26382" lon="-2.30661">
        <ele>24</ele>
        <time>2021-12-09T09:16:17.000Z</time>
      </trkpt>
      <trkpt lat="47.26375" lon="-2.3065">
        <ele>24.39999961853</ele>
        <time>2021-12-09T09:16:20.000Z</time>
      </trkpt>
      <trkpt lat="47.26373" lon="-2.30647">
        <ele>24.799999237061</ele>
        <time>2021-12-09T09:16:21.000Z</time>
      </trkpt>
      <trkpt lat="47.26371" lon="-2.30642">
        <ele>25.200000762939</ele>
        <time>2021-12-09T09:16:22.000Z</time>
      </trkpt>
      <trkpt lat="47.26369" lon="-2.30639">
        <ele>25.60000038147</ele>
        <time>2021-12-09T09:16:23.000Z</time>
      </trkpt>
      <trkpt lat="47.26367" lon="-2.30634">
        <ele>26</ele>
        <time>2021-12-09T09:16:24.000Z</time>
      </trkpt>
      <trkpt lat="47.26359" lon="-2.30616">
        <ele>26</ele>
        <time>2021-12-09T09:16:28.000Z</time>
      </trkpt>
      <trkpt lat="47.26349" lon="-2.30594">
        <ele>26</ele>
        <time>2021-12-09T09:16:33.000Z</time>
      </trkpt>
      <trkpt lat="47.26347" lon="-2.30574">
        <ele>26</ele>
        <time>2021-12-09T09:16:38.000Z</time>
      </trkpt>
      <trkpt lat="47.26345" lon="-2.30565">
        <ele>26</ele>
        <time>2021-12-09T09:16:40.000Z</time>
      </trkpt>
      <trkpt lat="47.26344" lon="-2.30557">
        <ele>26</ele>
        <time>2021-12-09T09:16:42.000Z</time>
      </trkpt>
      <trkpt lat="47.26337" lon="-2.30527">
        <ele>26</ele>
        <time>2021-12-09T09:16:48.000Z</time>
      </trkpt>
      <trkpt lat="47.26333" lon="-2.30503">
        <ele>26</ele>
        <time>2021-12-09T09:16:52.000Z</time>
      </trkpt>
      <trkpt lat="47.26332" lon="-2.30497">
        <ele>26.39999961853</ele>
        <time>2021-12-09T09:16:53.000Z</time>
      </trkpt>
      <trkpt lat="47.2633" lon="-2.30491">
        <ele>27</ele>
        <time>2021-12-09T09:16:54.000Z</time>
      </trkpt>
      <trkpt lat="47.26329" lon="-2.30484">
        <ele>27.39999961853</ele>
        <time>2021-12-09T09:16:55.000Z</time>
      </trkpt>
      <trkpt lat="47.26328" lon="-2.30477">
        <ele>27.799999237061</ele>
        <time>2021-12-09T09:16:56.000Z</time>
      </trkpt>
      <trkpt lat="47.26326" lon="-2.3047">
        <ele>28.200000762939</ele>
        <time>2021-12-09T09:16:57.000Z</time>
      </trkpt>
      <trkpt lat="47.26325" lon="-2.30464">
        <ele>28.200000762939</ele>
        <time>2021-12-09T09:16:58.000Z</time>
      </trkpt>
      <trkpt lat="47.26319" lon="-2.30439">
        <ele>28.200000762939</ele>
        <time>2021-12-09T09:17:02.000Z</time>
      </trkpt>
      <trkpt lat="47.26316" lon="-2.3042">
        <ele>28.200000762939</ele>
        <time>2021-12-09T09:17:05.000Z</time>
      </trkpt>
      <trkpt lat="47.26307" lon="-2.30377">
        <ele>28.200000762939</ele>
        <time>2021-12-09T09:17:11.000Z</time>
      </trkpt>
      <trkpt lat="47.26301" lon="-2.30332">
        <ele>28.200000762939</ele>
        <time>2021-12-09T09:17:17.000Z</time>
      </trkpt>
      <trkpt lat="47.26299" lon="-2.30325">
        <ele>28.200000762939</ele>
        <time>2021-12-09T09:17:18.000Z</time>
      </trkpt>
      <trkpt lat="47.26289" lon="-2.303">
        <ele>28.200000762939</ele>
        <time>2021-12-09T09:17:22.000Z</time>
      </trkpt>
      <trkpt lat="47.2628" lon="-2.30258">
        <ele>28.200000762939</ele>
        <time>2021-12-09T09:17:28.000Z</time>
      </trkpt>
      <trkpt lat="47.26278" lon="-2.30251">
        <ele>28.200000762939</ele>
        <time>2021-12-09T09:17:29.000Z</time>
      </trkpt>
      <trkpt lat="47.26269" lon="-2.30203">
        <ele>28.200000762939</ele>
        <time>2021-12-09T09:17:36.000Z</time>
      </trkpt>
      <trkpt lat="47.26261" lon="-2.3017">
        <ele>28.200000762939</ele>
        <time>2021-12-09T09:17:42.000Z</time>
      </trkpt>
      <trkpt lat="47.26247" lon="-2.30138">
        <ele>28.60000038147</ele>
        <time>2021-12-09T09:17:49.000Z</time>
      </trkpt>
      <trkpt lat="47.26243" lon="-2.30136">
        <ele>29</ele>
        <time>2021-12-09T09:17:50.000Z</time>
      </trkpt>
      <trkpt lat="47.2624" lon="-2.30136">
        <ele>29.39999961853</ele>
        <time>2021-12-09T09:17:51.000Z</time>
      </trkpt>
      <trkpt lat="47.26236" lon="-2.30138">
        <ele>29.799999237061</ele>
        <time>2021-12-09T09:17:52.000Z</time>
      </trkpt>
      <trkpt lat="47.26232" lon="-2.3014">
        <ele>30.200000762939</ele>
        <time>2021-12-09T09:17:53.000Z</time>
      </trkpt>
      <trkpt lat="47.26214" lon="-2.30146">
        <ele>30.200000762939</ele>
        <time>2021-12-09T09:17:57.000Z</time>
      </trkpt>
      <trkpt lat="47.26195" lon="-2.30153">
        <ele>30.200000762939</ele>
        <time>2021-12-09T09:18:01.000Z</time>
      </trkpt>
      <trkpt lat="47.26186" lon="-2.30156">
        <ele>30.200000762939</ele>
        <time>2021-12-09T09:18:03.000Z</time>
      </trkpt>
      <trkpt lat="47.26181" lon="-2.30159">
        <ele>29.799999237061</ele>
        <time>2021-12-09T09:18:05.000Z</time>
      </trkpt>
      <trkpt lat="47.26178" lon="-2.3016">
        <ele>29.39999961853</ele>
        <time>2021-12-09T09:18:06.000Z</time>
      </trkpt>
      <trkpt lat="47.26177" lon="-2.30158">
        <ele>29</ele>
        <time>2021-12-09T09:18:07.000Z</time>
      </trkpt>
      <trkpt lat="47.26176" lon="-2.30156">
        <ele>28.60000038147</ele>
        <time>2021-12-09T09:18:08.000Z</time>
      </trkpt>
      <trkpt lat="47.26174" lon="-2.30152">
        <ele>28</ele>
        <time>2021-12-09T09:18:09.000Z</time>
      </trkpt>
      <trkpt lat="47.26172" lon="-2.30146">
        <ele>28</ele>
        <time>2021-12-09T09:18:12.000Z</time>
      </trkpt>
      <trkpt lat="47.26171" lon="-2.30146">
        <ele>28</ele>
        <time>2021-12-09T09:18:13.000Z</time>
      </trkpt>
      <trkpt lat="47.26166" lon="-2.30148">
        <ele>28</ele>
        <time>2021-12-09T09:18:15.000Z</time>
      </trkpt>
      <trkpt lat="47.26144" lon="-2.30156">
        <ele>27.200000762939</ele>
        <time>2021-12-09T09:18:20.000Z</time>
      </trkpt>
      <trkpt lat="47.26139" lon="-2.30157">
        <ele>26.799999237061</ele>
        <time>2021-12-09T09:18:21.000Z</time>
      </trkpt>
      <trkpt lat="47.26134" lon="-2.30159">
        <ele>26.39999961853</ele>
        <time>2021-12-09T09:18:22.000Z</time>
      </trkpt>
      <trkpt lat="47.26129" lon="-2.3016">
        <ele>26</ele>
        <time>2021-12-09T09:18:23.000Z</time>
      </trkpt>
      <trkpt lat="47.26118" lon="-2.30163">
        <ele>26</ele>
        <time>2021-12-09T09:18:26.000Z</time>
      </trkpt>
      <trkpt lat="47.26115" lon="-2.30164">
        <ele>25.60000038147</ele>
        <time>2021-12-09T09:18:27.000Z</time>
      </trkpt>
      <trkpt lat="47.26111" lon="-2.30165">
        <ele>25.200000762939</ele>
        <time>2021-12-09T09:18:28.000Z</time>
      </trkpt>
      <trkpt lat="47.26109" lon="-2.30165">
        <ele>24.799999237061</ele>
        <time>2021-12-09T09:18:29.000Z</time>
      </trkpt>
      <trkpt lat="47.26107" lon="-2.30163">
        <ele>24.39999961853</ele>
        <time>2021-12-09T09:18:30.000Z</time>
      </trkpt>
      <trkpt lat="47.26106" lon="-2.30161">
        <ele>24</ele>
        <time>2021-12-09T09:18:31.000Z</time>
      </trkpt>
      <trkpt lat="47.26102" lon="-2.30153">
        <ele>24</ele>
        <time>2021-12-09T09:18:34.000Z</time>
      </trkpt>
      <trkpt lat="47.26089" lon="-2.30149">
        <ele>24</ele>
        <time>2021-12-09T09:18:39.000Z</time>
      </trkpt>
      <trkpt lat="47.26084" lon="-2.30149">
        <ele>23.60000038147</ele>
        <time>2021-12-09T09:18:40.000Z</time>
      </trkpt>
      <trkpt lat="47.2608" lon="-2.30149">
        <ele>23.200000762939</ele>
        <time>2021-12-09T09:18:41.000Z</time>
      </trkpt>
      <trkpt lat="47.26075" lon="-2.30147">
        <ele>22.799999237061</ele>
        <time>2021-12-09T09:18:42.000Z</time>
      </trkpt>
      <trkpt lat="47.26071" lon="-2.30146">
        <ele>22.39999961853</ele>
        <time>2021-12-09T09:18:43.000Z</time>
      </trkpt>
      <trkpt lat="47.26067" lon="-2.30144">
        <ele>22</ele>
        <time>2021-12-09T09:18:44.000Z</time>
      </trkpt>
      <trkpt lat="47.26054" lon="-2.30144">
        <ele>22</ele>
        <time>2021-12-09T09:18:47.000Z</time>
      </trkpt>
      <trkpt lat="47.2605" lon="-2.30144">
        <ele>22</ele>
        <time>2021-12-09T09:18:48.000Z</time>
      </trkpt>
      <trkpt lat="47.26044" lon="-2.30144">
        <ele>22</ele>
        <time>2021-12-09T09:18:49.000Z</time>
      </trkpt>
      <trkpt lat="47.26039" lon="-2.30143">
        <ele>21.60000038147</ele>
        <time>2021-12-09T09:18:50.000Z</time>
      </trkpt>
      <trkpt lat="47.26034" lon="-2.30142">
        <ele>21.200000762939</ele>
        <time>2021-12-09T09:18:51.000Z</time>
      </trkpt>
      <trkpt lat="47.26029" lon="-2.3014">
        <ele>20.60000038147</ele>
        <time>2021-12-09T09:18:52.000Z</time>
      </trkpt>
      <trkpt lat="47.26025" lon="-2.30139">
        <ele>20.200000762939</ele>
        <time>2021-12-09T09:18:53.000Z</time>
      </trkpt>
      <trkpt lat="47.2602" lon="-2.3014">
        <ele>19.799999237061</ele>
        <time>2021-12-09T09:18:54.000Z</time>
      </trkpt>
      <trkpt lat="47.26015" lon="-2.3014">
        <ele>19.799999237061</ele>
        <time>2021-12-09T09:18:55.000Z</time>
      </trkpt>
      <trkpt lat="47.25999" lon="-2.30139">
        <ele>19.799999237061</ele>
        <time>2021-12-09T09:18:59.000Z</time>
      </trkpt>
      <trkpt lat="47.25992" lon="-2.30138">
        <ele>19.39999961853</ele>
        <time>2021-12-09T09:19:01.000Z</time>
      </trkpt>
      <trkpt lat="47.25988" lon="-2.30138">
        <ele>19</ele>
        <time>2021-12-09T09:19:02.000Z</time>
      </trkpt>
      <trkpt lat="47.25985" lon="-2.30138">
        <ele>18.60000038147</ele>
        <time>2021-12-09T09:19:03.000Z</time>
      </trkpt>
      <trkpt lat="47.2598" lon="-2.30138">
        <ele>18.200000762939</ele>
        <time>2021-12-09T09:19:04.000Z</time>
      </trkpt>
      <trkpt lat="47.25975" lon="-2.3014">
        <ele>17.799999237061</ele>
        <time>2021-12-09T09:19:05.000Z</time>
      </trkpt>
      <trkpt lat="47.25965" lon="-2.30153">
        <ele>17.799999237061</ele>
        <time>2021-12-09T09:19:08.000Z</time>
      </trkpt>
      <trkpt lat="47.2596" lon="-2.30157">
        <ele>17.799999237061</ele>
        <time>2021-12-09T09:19:09.000Z</time>
      </trkpt>
      <trkpt lat="47.25946" lon="-2.30165">
        <ele>17.799999237061</ele>
        <time>2021-12-09T09:19:12.000Z</time>
      </trkpt>
      <trkpt lat="47.25941" lon="-2.30167">
        <ele>17.799999237061</ele>
        <time>2021-12-09T09:19:13.000Z</time>
      </trkpt>
      <trkpt lat="47.25936" lon="-2.30169">
        <ele>17.799999237061</ele>
        <time>2021-12-09T09:19:14.000Z</time>
      </trkpt>
      <trkpt lat="47.25921" lon="-2.30172">
        <ele>17.799999237061</ele>
        <time>2021-12-09T09:19:17.000Z</time>
      </trkpt>
      <trkpt lat="47.25903" lon="-2.30177">
        <ele>17.799999237061</ele>
        <time>2021-12-09T09:19:21.000Z</time>
      </trkpt>
      <trkpt lat="47.25896" lon="-2.30183">
        <ele>17.799999237061</ele>
        <time>2021-12-09T09:19:23.000Z</time>
      </trkpt>
      <trkpt lat="47.25891" lon="-2.30206">
        <ele>17.799999237061</ele>
        <time>2021-12-09T09:19:27.000Z</time>
      </trkpt>
      <trkpt lat="47.25892" lon="-2.3022">
        <ele>17.799999237061</ele>
        <time>2021-12-09T09:19:29.000Z</time>
      </trkpt>
      <trkpt lat="47.25895" lon="-2.30246">
        <ele>17.799999237061</ele>
        <time>2021-12-09T09:19:33.000Z</time>
      </trkpt>
      <trkpt lat="47.25895" lon="-2.30253">
        <ele>18.60000038147</ele>
        <time>2021-12-09T09:19:34.000Z</time>
      </trkpt>
      <trkpt lat="47.25896" lon="-2.30259">
        <ele>19</ele>
        <time>2021-12-09T09:19:35.000Z</time>
      </trkpt>
      <trkpt lat="47.25896" lon="-2.30265">
        <ele>19.39999961853</ele>
        <time>2021-12-09T09:19:36.000Z</time>
      </trkpt>
      <trkpt lat="47.25896" lon="-2.30272">
        <ele>19.799999237061</ele>
        <time>2021-12-09T09:19:37.000Z</time>
      </trkpt>
      <trkpt lat="47.25894" lon="-2.30297">
        <ele>19.799999237061</ele>
        <time>2021-12-09T09:19:41.000Z</time>
      </trkpt>
      <trkpt lat="47.25884" lon="-2.30307">
        <ele>19.799999237061</ele>
        <time>2021-12-09T09:19:44.000Z</time>
      </trkpt>
      <trkpt lat="47.25863" lon="-2.30306">
        <ele>19.799999237061</ele>
        <time>2021-12-09T09:19:49.000Z</time>
      </trkpt>
      <trkpt lat="47.25854" lon="-2.30289">
        <ele>19.799999237061</ele>
        <time>2021-12-09T09:19:52.000Z</time>
      </trkpt>
      <trkpt lat="47.2585" lon="-2.30284">
        <ele>19.799999237061</ele>
        <time>2021-12-09T09:19:53.000Z</time>
      </trkpt>
      <trkpt lat="47.2584" lon="-2.30277">
        <ele>19.799999237061</ele>
        <time>2021-12-09T09:19:55.000Z</time>
      </trkpt>
      <trkpt lat="47.25828" lon="-2.30271">
        <ele>19.799999237061</ele>
        <time>2021-12-09T09:19:57.000Z</time>
      </trkpt>
      <trkpt lat="47.25816" lon="-2.30264">
        <ele>19.799999237061</ele>
        <time>2021-12-09T09:19:59.000Z</time>
      </trkpt>
      <trkpt lat="47.2581" lon="-2.30261">
        <ele>19.799999237061</ele>
        <time>2021-12-09T09:20:00.000Z</time>
      </trkpt>
      <trkpt lat="47.25773" lon="-2.30241">
        <ele>19.799999237061</ele>
        <time>2021-12-09T09:20:06.000Z</time>
      </trkpt>
      <trkpt lat="47.25739" lon="-2.30226">
        <ele>19.799999237061</ele>
        <time>2021-12-09T09:20:12.000Z</time>
      </trkpt>
      <trkpt lat="47.25724" lon="-2.30221">
        <ele>19.799999237061</ele>
        <time>2021-12-09T09:20:15.000Z</time>
      </trkpt>
      <trkpt lat="47.2571" lon="-2.30223">
        <ele>19.799999237061</ele>
        <time>2021-12-09T09:20:18.000Z</time>
      </trkpt>
      <trkpt lat="47.25697" lon="-2.30239">
        <ele>19.799999237061</ele>
        <time>2021-12-09T09:20:22.000Z</time>
      </trkpt>
      <trkpt lat="47.25693" lon="-2.3026">
        <ele>19.799999237061</ele>
        <time>2021-12-09T09:20:26.000Z</time>
      </trkpt>
      <trkpt lat="47.25696" lon="-2.30277">
        <ele>20.200000762939</ele>
        <time>2021-12-09T09:20:30.000Z</time>
      </trkpt>
      <trkpt lat="47.25695" lon="-2.30281">
        <ele>20.60000038147</ele>
        <time>2021-12-09T09:20:31.000Z</time>
      </trkpt>
      <trkpt lat="47.25694" lon="-2.30287">
        <ele>21.200000762939</ele>
        <time>2021-12-09T09:20:32.000Z</time>
      </trkpt>
      <trkpt lat="47.25693" lon="-2.30292">
        <ele>21.60000038147</ele>
        <time>2021-12-09T09:20:33.000Z</time>
      </trkpt>
      <trkpt lat="47.25693" lon="-2.30298">
        <ele>22</ele>
        <time>2021-12-09T09:20:34.000Z</time>
      </trkpt>
      <trkpt lat="47.25686" lon="-2.30313">
        <ele>22</ele>
        <time>2021-12-09T09:20:37.000Z</time>
      </trkpt>
      <trkpt lat="47.25682" lon="-2.30316">
        <ele>22</ele>
        <time>2021-12-09T09:20:38.000Z</time>
      </trkpt>
      <trkpt lat="47.25666" lon="-2.30323">
        <ele>22</ele>
        <time>2021-12-09T09:20:42.000Z</time>
      </trkpt>
      <trkpt lat="47.25661" lon="-2.30326">
        <ele>22</ele>
        <time>2021-12-09T09:20:43.000Z</time>
      </trkpt>
      <trkpt lat="47.25646" lon="-2.30341">
        <ele>22</ele>
        <time>2021-12-09T09:20:47.000Z</time>
      </trkpt>
      <trkpt lat="47.25632" lon="-2.30342">
        <ele>22</ele>
        <time>2021-12-09T09:20:51.000Z</time>
      </trkpt>
      <trkpt lat="47.25629" lon="-2.30326">
        <ele>22</ele>
        <time>2021-12-09T09:20:54.000Z</time>
      </trkpt>
      <trkpt lat="47.25629" lon="-2.3032">
        <ele>22</ele>
        <time>2021-12-09T09:20:55.000Z</time>
      </trkpt>
      <trkpt lat="47.25626" lon="-2.30282">
        <ele>22</ele>
        <time>2021-12-09T09:21:01.000Z</time>
      </trkpt>
      <trkpt lat="47.25617" lon="-2.30239">
        <ele>22</ele>
        <time>2021-12-09T09:21:07.000Z</time>
      </trkpt>
      <trkpt lat="47.25609" lon="-2.30221">
        <ele>22</ele>
        <time>2021-12-09T09:21:10.000Z</time>
      </trkpt>
      <trkpt lat="47.25601" lon="-2.3021">
        <ele>22</ele>
        <time>2021-12-09T09:21:12.000Z</time>
      </trkpt>
      <trkpt lat="47.25578" lon="-2.3019">
        <ele>22</ele>
        <time>2021-12-09T09:21:18.000Z</time>
      </trkpt>
      <trkpt lat="47.25556" lon="-2.30189">
        <ele>22</ele>
        <time>2021-12-09T09:21:23.000Z</time>
      </trkpt>
      <trkpt lat="47.25538" lon="-2.30197">
        <ele>22</ele>
        <time>2021-12-09T09:21:28.000Z</time>
      </trkpt>
      <trkpt lat="47.25525" lon="-2.30202">
        <ele>22</ele>
        <time>2021-12-09T09:21:33.000Z</time>
      </trkpt>
      <trkpt lat="47.25511" lon="-2.30203">
        <ele>22</ele>
        <time>2021-12-09T09:21:38.000Z</time>
      </trkpt>
      <trkpt lat="47.25495" lon="-2.30222">
        <ele>22</ele>
        <time>2021-12-09T09:21:44.000Z</time>
      </trkpt>
      <trkpt lat="47.25486" lon="-2.30245">
        <ele>22</ele>
        <time>2021-12-09T09:21:49.000Z</time>
      </trkpt>
      <trkpt lat="47.25481" lon="-2.30246">
        <ele>22.39999961853</ele>
        <time>2021-12-09T09:21:51.000Z</time>
      </trkpt>
      <trkpt lat="47.25478" lon="-2.30246">
        <ele>22.799999237061</ele>
        <time>2021-12-09T09:21:52.000Z</time>
      </trkpt>
      <trkpt lat="47.25476" lon="-2.30246">
        <ele>23.200000762939</ele>
        <time>2021-12-09T09:21:53.000Z</time>
      </trkpt>
      <trkpt lat="47.25473" lon="-2.30245">
        <ele>23.60000038147</ele>
        <time>2021-12-09T09:21:54.000Z</time>
      </trkpt>
      <trkpt lat="47.25471" lon="-2.30243">
        <ele>24</ele>
        <time>2021-12-09T09:21:55.000Z</time>
      </trkpt>
      <trkpt lat="47.25464" lon="-2.30244">
        <ele>24</ele>
        <time>2021-12-09T09:21:57.000Z</time>
      </trkpt>
      <trkpt lat="47.25457" lon="-2.30243">
        <ele>24</ele>
        <time>2021-12-09T09:22:00.000Z</time>
      </trkpt>
      <trkpt lat="47.25451" lon="-2.3024">
        <ele>24</ele>
        <time>2021-12-09T09:22:02.000Z</time>
      </trkpt>
      <trkpt lat="47.25429" lon="-2.30234">
        <ele>24</ele>
        <time>2021-12-09T09:22:08.000Z</time>
      </trkpt>
      <trkpt lat="47.25407" lon="-2.30228">
        <ele>24</ele>
        <time>2021-12-09T09:22:13.000Z</time>
      </trkpt>
      <trkpt lat="47.25388" lon="-2.30219">
        <ele>24</ele>
        <time>2021-12-09T09:22:19.000Z</time>
      </trkpt>
      <trkpt lat="47.25384" lon="-2.30218">
        <ele>24.39999961853</ele>
        <time>2021-12-09T09:22:21.000Z</time>
      </trkpt>
      <trkpt lat="47.25382" lon="-2.30218">
        <ele>24.799999237061</ele>
        <time>2021-12-09T09:22:22.000Z</time>
      </trkpt>
      <trkpt lat="47.25379" lon="-2.30218">
        <ele>25.200000762939</ele>
        <time>2021-12-09T09:22:23.000Z</time>
      </trkpt>
      <trkpt lat="47.25377" lon="-2.30217">
        <ele>25.60000038147</ele>
        <time>2021-12-09T09:22:24.000Z</time>
      </trkpt>
      <trkpt lat="47.25376" lon="-2.30217">
        <ele>26.200000762939</ele>
        <time>2021-12-09T09:22:25.000Z</time>
      </trkpt>
      <trkpt lat="47.25363" lon="-2.30214">
        <ele>26.200000762939</ele>
        <time>2021-12-09T09:22:28.000Z</time>
      </trkpt>
      <trkpt lat="47.25338" lon="-2.30212">
        <ele>26.200000762939</ele>
        <time>2021-12-09T09:22:35.000Z</time>
      </trkpt>
      <trkpt lat="47.25316" lon="-2.30208">
        <ele>26.200000762939</ele>
        <time>2021-12-09T09:22:41.000Z</time>
      </trkpt>
      <trkpt lat="47.25315" lon="-2.3021">
        <ele>26.60000038147</ele>
        <time>2021-12-09T09:22:42.000Z</time>
      </trkpt>
      <trkpt lat="47.25313" lon="-2.30212">
        <ele>27</ele>
        <time>2021-12-09T09:22:43.000Z</time>
      </trkpt>
      <trkpt lat="47.25312" lon="-2.30214">
        <ele>27.39999961853</ele>
        <time>2021-12-09T09:22:44.000Z</time>
      </trkpt>
      <trkpt lat="47.25309" lon="-2.30215">
        <ele>27.799999237061</ele>
        <time>2021-12-09T09:22:45.000Z</time>
      </trkpt>
      <trkpt lat="47.25306" lon="-2.30214">
        <ele>28.200000762939</ele>
        <time>2021-12-09T09:22:46.000Z</time>
      </trkpt>
      <trkpt lat="47.25299" lon="-2.30211">
        <ele>28.200000762939</ele>
        <time>2021-12-09T09:22:48.000Z</time>
      </trkpt>
      <trkpt lat="47.25296" lon="-2.30209">
        <ele>28.200000762939</ele>
        <time>2021-12-09T09:22:49.000Z</time>
      </trkpt>
      <trkpt lat="47.25276" lon="-2.30201">
        <ele>28.200000762939</ele>
        <time>2021-12-09T09:22:54.000Z</time>
      </trkpt>
      <trkpt lat="47.25272" lon="-2.30199">
        <ele>28.200000762939</ele>
        <time>2021-12-09T09:22:55.000Z</time>
      </trkpt>
      <trkpt lat="47.25246" lon="-2.30186">
        <ele>28.200000762939</ele>
        <time>2021-12-09T09:23:02.000Z</time>
      </trkpt>
      <trkpt lat="47.25229" lon="-2.30179">
        <ele>28.60000038147</ele>
        <time>2021-12-09T09:23:07.000Z</time>
      </trkpt>
      <trkpt lat="47.25225" lon="-2.30178">
        <ele>29</ele>
        <time>2021-12-09T09:23:08.000Z</time>
      </trkpt>
      <trkpt lat="47.25222" lon="-2.30176">
        <ele>29.39999961853</ele>
        <time>2021-12-09T09:23:09.000Z</time>
      </trkpt>
      <trkpt lat="47.25219" lon="-2.30173">
        <ele>29.799999237061</ele>
        <time>2021-12-09T09:23:10.000Z</time>
      </trkpt>
      <trkpt lat="47.25215" lon="-2.30169">
        <ele>30.200000762939</ele>
        <time>2021-12-09T09:23:11.000Z</time>
      </trkpt>
      <trkpt lat="47.25208" lon="-2.30161">
        <ele>30.200000762939</ele>
        <time>2021-12-09T09:23:13.000Z</time>
      </trkpt>
      <trkpt lat="47.25192" lon="-2.30139">
        <ele>30.200000762939</ele>
        <time>2021-12-09T09:23:19.000Z</time>
      </trkpt>
      <trkpt lat="47.25188" lon="-2.30129">
        <ele>30.60000038147</ele>
        <time>2021-12-09T09:23:21.000Z</time>
      </trkpt>
      <trkpt lat="47.25185" lon="-2.30126">
        <ele>31</ele>
        <time>2021-12-09T09:23:22.000Z</time>
      </trkpt>
      <trkpt lat="47.25181" lon="-2.30123">
        <ele>31.60000038147</ele>
        <time>2021-12-09T09:23:23.000Z</time>
      </trkpt>
      <trkpt lat="47.25178" lon="-2.30122">
        <ele>32</ele>
        <time>2021-12-09T09:23:24.000Z</time>
      </trkpt>
      <trkpt lat="47.25175" lon="-2.30122">
        <ele>32.400001525879</ele>
        <time>2021-12-09T09:23:25.000Z</time>
      </trkpt>
      <trkpt lat="47.25168" lon="-2.30124">
        <ele>32.400001525879</ele>
        <time>2021-12-09T09:23:27.000Z</time>
      </trkpt>
      <trkpt lat="47.25157" lon="-2.30126">
        <ele>32.400001525879</ele>
        <time>2021-12-09T09:23:30.000Z</time>
      </trkpt>
      <trkpt lat="47.25145" lon="-2.30128">
        <ele>32.400001525879</ele>
        <time>2021-12-09T09:23:33.000Z</time>
      </trkpt>
      <trkpt lat="47.25132" lon="-2.3013">
        <ele>32.400001525879</ele>
        <time>2021-12-09T09:23:36.000Z</time>
      </trkpt>
      <trkpt lat="47.2512" lon="-2.30131">
        <ele>32.400001525879</ele>
        <time>2021-12-09T09:23:39.000Z</time>
      </trkpt>
      <trkpt lat="47.25117" lon="-2.30132">
        <ele>32.799999237061</ele>
        <time>2021-12-09T09:23:40.000Z</time>
      </trkpt>
      <trkpt lat="47.25114" lon="-2.30133">
        <ele>33.599998474121</ele>
        <time>2021-12-09T09:23:41.000Z</time>
      </trkpt>
      <trkpt lat="47.2511" lon="-2.30133">
        <ele>34</ele>
        <time>2021-12-09T09:23:42.000Z</time>
      </trkpt>
      <trkpt lat="47.25106" lon="-2.30133">
        <ele>34.400001525879</ele>
        <time>2021-12-09T09:23:43.000Z</time>
      </trkpt>
      <trkpt lat="47.25099" lon="-2.30135">
        <ele>34.400001525879</ele>
        <time>2021-12-09T09:23:45.000Z</time>
      </trkpt>
      <trkpt lat="47.25076" lon="-2.30136">
        <ele>34.400001525879</ele>
        <time>2021-12-09T09:23:51.000Z</time>
      </trkpt>
      <trkpt lat="47.25067" lon="-2.30125">
        <ele>34.400001525879</ele>
        <time>2021-12-09T09:23:54.000Z</time>
      </trkpt>
      <trkpt lat="47.25067" lon="-2.3012">
        <ele>34.400001525879</ele>
        <time>2021-12-09T09:23:55.000Z</time>
      </trkpt>
      <trkpt lat="47.25068" lon="-2.30102">
        <ele>34.400001525879</ele>
        <time>2021-12-09T09:23:58.000Z</time>
      </trkpt>
      <trkpt lat="47.25068" lon="-2.30096">
        <ele>34.400001525879</ele>
        <time>2021-12-09T09:23:59.000Z</time>
      </trkpt>
      <trkpt lat="47.25073" lon="-2.30064">
        <ele>34.400001525879</ele>
        <time>2021-12-09T09:24:05.000Z</time>
      </trkpt>
      <trkpt lat="47.25072" lon="-2.30059">
        <ele>34.400001525879</ele>
        <time>2021-12-09T09:24:06.000Z</time>
      </trkpt>
      <trkpt lat="47.25067" lon="-2.30056">
        <ele>34.400001525879</ele>
        <time>2021-12-09T09:24:08.000Z</time>
      </trkpt>
      <trkpt lat="47.2506" lon="-2.30055">
        <ele>34.400001525879</ele>
        <time>2021-12-09T09:24:10.000Z</time>
      </trkpt>
      <trkpt lat="47.2504" lon="-2.30054">
        <ele>34.799999237061</ele>
        <time>2021-12-09T09:24:16.000Z</time>
      </trkpt>
      <trkpt lat="47.25036" lon="-2.30053">
        <ele>35.400001525879</ele>
        <time>2021-12-09T09:24:17.000Z</time>
      </trkpt>
      <trkpt lat="47.25032" lon="-2.30053">
        <ele>35.799999237061</ele>
        <time>2021-12-09T09:24:18.000Z</time>
      </trkpt>
      <trkpt lat="47.25028" lon="-2.30053">
        <ele>36.200000762939</ele>
        <time>2021-12-09T09:24:19.000Z</time>
      </trkpt>
      <trkpt lat="47.25024" lon="-2.30052">
        <ele>36.599998474121</ele>
        <time>2021-12-09T09:24:20.000Z</time>
      </trkpt>
      <trkpt lat="47.25016" lon="-2.30052">
        <ele>36.599998474121</ele>
        <time>2021-12-09T09:24:22.000Z</time>
      </trkpt>
      <trkpt lat="47.24992" lon="-2.30053">
        <ele>36.599998474121</ele>
        <time>2021-12-09T09:24:29.000Z</time>
      </trkpt>
      <trkpt lat="47.24967" lon="-2.30055">
        <ele>36.599998474121</ele>
        <time>2021-12-09T09:24:36.000Z</time>
      </trkpt>
      <trkpt lat="47.24944" lon="-2.30055">
        <ele>36.599998474121</ele>
        <time>2021-12-09T09:24:42.000Z</time>
      </trkpt>
      <trkpt lat="47.24915" lon="-2.30056">
        <ele>36.599998474121</ele>
        <time>2021-12-09T09:24:50.000Z</time>
      </trkpt>
      <trkpt lat="47.24906" lon="-2.30051">
        <ele>36.599998474121</ele>
        <time>2021-12-09T09:24:53.000Z</time>
      </trkpt>
      <trkpt lat="47.24904" lon="-2.30047">
        <ele>36.599998474121</ele>
        <time>2021-12-09T09:24:54.000Z</time>
      </trkpt>
      <trkpt lat="47.24904" lon="-2.30028">
        <ele>36.599998474121</ele>
        <time>2021-12-09T09:24:57.000Z</time>
      </trkpt>
      <trkpt lat="47.24903" lon="-2.3002">
        <ele>36.599998474121</ele>
        <time>2021-12-09T09:24:58.000Z</time>
      </trkpt>
      <trkpt lat="47.24902" lon="-2.30013">
        <ele>36.599998474121</ele>
        <time>2021-12-09T09:24:59.000Z</time>
      </trkpt>
      <trkpt lat="47.24896" lon="-2.29992">
        <ele>36.599998474121</ele>
        <time>2021-12-09T09:25:02.000Z</time>
      </trkpt>
      <trkpt lat="47.2488" lon="-2.29932">
        <ele>36.599998474121</ele>
        <time>2021-12-09T09:25:10.000Z</time>
      </trkpt>
      <trkpt lat="47.24877" lon="-2.29908">
        <ele>36.599998474121</ele>
        <time>2021-12-09T09:25:13.000Z</time>
      </trkpt>
      <trkpt lat="47.24876" lon="-2.29885">
        <ele>37</ele>
        <time>2021-12-09T09:25:16.000Z</time>
      </trkpt>
      <trkpt lat="47.24874" lon="-2.29877">
        <ele>37.400001525879</ele>
        <time>2021-12-09T09:25:17.000Z</time>
      </trkpt>
      <trkpt lat="47.24873" lon="-2.2987">
        <ele>38.200000762939</ele>
        <time>2021-12-09T09:25:18.000Z</time>
      </trkpt>
      <trkpt lat="47.24872" lon="-2.29863">
        <ele>38.599998474121</ele>
        <time>2021-12-09T09:25:19.000Z</time>
      </trkpt>
      <trkpt lat="47.24871" lon="-2.29856">
        <ele>38.599998474121</ele>
        <time>2021-12-09T09:25:20.000Z</time>
      </trkpt>
      <trkpt lat="47.24863" lon="-2.29831">
        <ele>38.599998474121</ele>
        <time>2021-12-09T09:25:25.000Z</time>
      </trkpt>
      <trkpt lat="47.24852" lon="-2.29835">
        <ele>38.599998474121</ele>
        <time>2021-12-09T09:25:28.000Z</time>
      </trkpt>
      <trkpt lat="47.24848" lon="-2.29839">
        <ele>38.599998474121</ele>
        <time>2021-12-09T09:25:29.000Z</time>
      </trkpt>
      <trkpt lat="47.24844" lon="-2.29842">
        <ele>38.599998474121</ele>
        <time>2021-12-09T09:25:30.000Z</time>
      </trkpt>
      <trkpt lat="47.2483" lon="-2.29848">
        <ele>38.599998474121</ele>
        <time>2021-12-09T09:25:33.000Z</time>
      </trkpt>
      <trkpt lat="47.24825" lon="-2.29849">
        <ele>38.599998474121</ele>
        <time>2021-12-09T09:25:34.000Z</time>
      </trkpt>
      <trkpt lat="47.24797" lon="-2.29858">
        <ele>38.599998474121</ele>
        <time>2021-12-09T09:25:39.000Z</time>
      </trkpt>
      <trkpt lat="47.2476" lon="-2.29884">
        <ele>38.599998474121</ele>
        <time>2021-12-09T09:25:46.000Z</time>
      </trkpt>
      <trkpt lat="47.24744" lon="-2.29895">
        <ele>38.599998474121</ele>
        <time>2021-12-09T09:25:49.000Z</time>
      </trkpt>
      <trkpt lat="47.24732" lon="-2.29899">
        <ele>38.599998474121</ele>
        <time>2021-12-09T09:25:51.000Z</time>
      </trkpt>
      <trkpt lat="47.24691" lon="-2.29914">
        <ele>38.599998474121</ele>
        <time>2021-12-09T09:25:58.000Z</time>
      </trkpt>
      <trkpt lat="47.24656" lon="-2.29924">
        <ele>38.599998474121</ele>
        <time>2021-12-09T09:26:04.000Z</time>
      </trkpt>
      <trkpt lat="47.24636" lon="-2.29932">
        <ele>37.799999237061</ele>
        <time>2021-12-09T09:26:08.000Z</time>
      </trkpt>
      <trkpt lat="47.24631" lon="-2.29933">
        <ele>37.400001525879</ele>
        <time>2021-12-09T09:26:09.000Z</time>
      </trkpt>
      <trkpt lat="47.24626" lon="-2.29935">
        <ele>36.799999237061</ele>
        <time>2021-12-09T09:26:10.000Z</time>
      </trkpt>
      <trkpt lat="47.24621" lon="-2.29936">
        <ele>36.400001525879</ele>
        <time>2021-12-09T09:26:11.000Z</time>
      </trkpt>
      <trkpt lat="47.24602" lon="-2.29943">
        <ele>36.400001525879</ele>
        <time>2021-12-09T09:26:16.000Z</time>
      </trkpt>
      <trkpt lat="47.24597" lon="-2.2994">
        <ele>36.400001525879</ele>
        <time>2021-12-09T09:26:18.000Z</time>
      </trkpt>
      <trkpt lat="47.24591" lon="-2.29933">
        <ele>36.400001525879</ele>
        <time>2021-12-09T09:26:20.000Z</time>
      </trkpt>
      <trkpt lat="47.24578" lon="-2.29916">
        <ele>36.400001525879</ele>
        <time>2021-12-09T09:26:24.000Z</time>
      </trkpt>
      <trkpt lat="47.24573" lon="-2.29905">
        <ele>36.400001525879</ele>
        <time>2021-12-09T09:26:26.000Z</time>
      </trkpt>
      <trkpt lat="47.24558" lon="-2.29877">
        <ele>36.400001525879</ele>
        <time>2021-12-09T09:26:32.000Z</time>
      </trkpt>
      <trkpt lat="47.24555" lon="-2.29873">
        <ele>36.400001525879</ele>
        <time>2021-12-09T09:26:33.000Z</time>
      </trkpt>
      <trkpt lat="47.24541" lon="-2.29868">
        <ele>36.400001525879</ele>
        <time>2021-12-09T09:26:36.000Z</time>
      </trkpt>
      <trkpt lat="47.24522" lon="-2.29862">
        <ele>36.400001525879</ele>
        <time>2021-12-09T09:26:40.000Z</time>
      </trkpt>
      <trkpt lat="47.24512" lon="-2.29856">
        <ele>36.400001525879</ele>
        <time>2021-12-09T09:26:42.000Z</time>
      </trkpt>
      <trkpt lat="47.24503" lon="-2.2985">
        <ele>36.400001525879</ele>
        <time>2021-12-09T09:26:44.000Z</time>
      </trkpt>
      <trkpt lat="47.24493" lon="-2.29843">
        <ele>36</ele>
        <time>2021-12-09T09:26:46.000Z</time>
      </trkpt>
      <trkpt lat="47.24488" lon="-2.29839">
        <ele>35.599998474121</ele>
        <time>2021-12-09T09:26:47.000Z</time>
      </trkpt>
      <trkpt lat="47.24485" lon="-2.29834">
        <ele>35.200000762939</ele>
        <time>2021-12-09T09:26:48.000Z</time>
      </trkpt>
      <trkpt lat="47.24481" lon="-2.2983">
        <ele>34.799999237061</ele>
        <time>2021-12-09T09:26:49.000Z</time>
      </trkpt>
      <trkpt lat="47.24478" lon="-2.29824">
        <ele>34.400001525879</ele>
        <time>2021-12-09T09:26:50.000Z</time>
      </trkpt>
      <trkpt lat="47.24473" lon="-2.29814">
        <ele>34.400001525879</ele>
        <time>2021-12-09T09:26:52.000Z</time>
      </trkpt>
      <trkpt lat="47.2447" lon="-2.29808">
        <ele>34.400001525879</ele>
        <time>2021-12-09T09:26:53.000Z</time>
      </trkpt>
      <trkpt lat="47.24465" lon="-2.29796">
        <ele>34.400001525879</ele>
        <time>2021-12-09T09:26:55.000Z</time>
      </trkpt>
      <trkpt lat="47.2446" lon="-2.29774">
        <ele>34.400001525879</ele>
        <time>2021-12-09T09:26:58.000Z</time>
      </trkpt>
      <trkpt lat="47.24458" lon="-2.2976">
        <ele>34.400001525879</ele>
        <time>2021-12-09T09:27:00.000Z</time>
      </trkpt>
      <trkpt lat="47.2445" lon="-2.2974">
        <ele>34.400001525879</ele>
        <time>2021-12-09T09:27:03.000Z</time>
      </trkpt>
      <trkpt lat="47.24443" lon="-2.29717">
        <ele>34.400001525879</ele>
        <time>2021-12-09T09:27:07.000Z</time>
      </trkpt>
      <trkpt lat="47.24442" lon="-2.29711">
        <ele>34.400001525879</ele>
        <time>2021-12-09T09:27:08.000Z</time>
      </trkpt>
      <trkpt lat="47.2444" lon="-2.29705">
        <ele>34.400001525879</ele>
        <time>2021-12-09T09:27:09.000Z</time>
      </trkpt>
      <trkpt lat="47.24432" lon="-2.29697">
        <ele>34.400001525879</ele>
        <time>2021-12-09T09:27:11.000Z</time>
      </trkpt>
      <trkpt lat="47.24419" lon="-2.297">
        <ele>34.400001525879</ele>
        <time>2021-12-09T09:27:14.000Z</time>
      </trkpt>
      <trkpt lat="47.24416" lon="-2.29701">
        <ele>34.400001525879</ele>
        <time>2021-12-09T09:27:15.000Z</time>
      </trkpt>
      <trkpt lat="47.244" lon="-2.29711">
        <ele>34.400001525879</ele>
        <time>2021-12-09T09:27:19.000Z</time>
      </trkpt>
      <trkpt lat="47.24398" lon="-2.29716">
        <ele>34.400001525879</ele>
        <time>2021-12-09T09:27:20.000Z</time>
      </trkpt>
      <trkpt lat="47.24389" lon="-2.29739">
        <ele>34.400001525879</ele>
        <time>2021-12-09T09:27:24.000Z</time>
      </trkpt>
      <trkpt lat="47.24388" lon="-2.29745">
        <ele>34.400001525879</ele>
        <time>2021-12-09T09:27:25.000Z</time>
      </trkpt>
      <trkpt lat="47.24385" lon="-2.2975">
        <ele>34.400001525879</ele>
        <time>2021-12-09T09:27:26.000Z</time>
      </trkpt>
      <trkpt lat="47.24377" lon="-2.29767">
        <ele>34.400001525879</ele>
        <time>2021-12-09T09:27:29.000Z</time>
      </trkpt>
      <trkpt lat="47.24375" lon="-2.29773">
        <ele>34.400001525879</ele>
        <time>2021-12-09T09:27:30.000Z</time>
      </trkpt>
      <trkpt lat="47.2437" lon="-2.29783">
        <ele>34.400001525879</ele>
        <time>2021-12-09T09:27:32.000Z</time>
      </trkpt>
      <trkpt lat="47.2436" lon="-2.29798">
        <ele>34.400001525879</ele>
        <time>2021-12-09T09:27:35.000Z</time>
      </trkpt>
      <trkpt lat="47.24356" lon="-2.29802">
        <ele>34.400001525879</ele>
        <time>2021-12-09T09:27:36.000Z</time>
      </trkpt>
      <trkpt lat="47.24342" lon="-2.29808">
        <ele>34.400001525879</ele>
        <time>2021-12-09T09:27:39.000Z</time>
      </trkpt>
      <trkpt lat="47.24332" lon="-2.29814">
        <ele>34</ele>
        <time>2021-12-09T09:27:41.000Z</time>
      </trkpt>
      <trkpt lat="47.24328" lon="-2.29817">
        <ele>33.599998474121</ele>
        <time>2021-12-09T09:27:42.000Z</time>
      </trkpt>
      <trkpt lat="47.24324" lon="-2.29823">
        <ele>33.200000762939</ele>
        <time>2021-12-09T09:27:43.000Z</time>
      </trkpt>
      <trkpt lat="47.24322" lon="-2.29829">
        <ele>32.799999237061</ele>
        <time>2021-12-09T09:27:44.000Z</time>
      </trkpt>
      <trkpt lat="47.24322" lon="-2.29837">
        <ele>32.400001525879</ele>
        <time>2021-12-09T09:27:45.000Z</time>
      </trkpt>
      <trkpt lat="47.24322" lon="-2.29845">
        <ele>32.400001525879</ele>
        <time>2021-12-09T09:27:46.000Z</time>
      </trkpt>
      <trkpt lat="47.2432" lon="-2.2988">
        <ele>32.400001525879</ele>
        <time>2021-12-09T09:27:51.000Z</time>
      </trkpt>
      <trkpt lat="47.24308" lon="-2.29891">
        <ele>32.400001525879</ele>
        <time>2021-12-09T09:27:54.000Z</time>
      </trkpt>
      <trkpt lat="47.24303" lon="-2.29894">
        <ele>32</ele>
        <time>2021-12-09T09:27:55.000Z</time>
      </trkpt>
      <trkpt lat="47.24299" lon="-2.29897">
        <ele>31.39999961853</ele>
        <time>2021-12-09T09:27:56.000Z</time>
      </trkpt>
      <trkpt lat="47.24294" lon="-2.299">
        <ele>31</ele>
        <time>2021-12-09T09:27:57.000Z</time>
      </trkpt>
      <trkpt lat="47.24289" lon="-2.29904">
        <ele>30.60000038147</ele>
        <time>2021-12-09T09:27:58.000Z</time>
      </trkpt>
      <trkpt lat="47.24284" lon="-2.29908">
        <ele>30.200000762939</ele>
        <time>2021-12-09T09:27:59.000Z</time>
      </trkpt>
      <trkpt lat="47.24267" lon="-2.29922">
        <ele>30.200000762939</ele>
        <time>2021-12-09T09:28:03.000Z</time>
      </trkpt>
      <trkpt lat="47.24264" lon="-2.29926">
        <ele>30.200000762939</ele>
        <time>2021-12-09T09:28:04.000Z</time>
      </trkpt>
      <trkpt lat="47.24242" lon="-2.29945">
        <ele>30.200000762939</ele>
        <time>2021-12-09T09:28:10.000Z</time>
      </trkpt>
      <trkpt lat="47.24222" lon="-2.29955">
        <ele>30.200000762939</ele>
        <time>2021-12-09T09:28:16.000Z</time>
      </trkpt>
      <trkpt lat="47.24206" lon="-2.29962">
        <ele>30.200000762939</ele>
        <time>2021-12-09T09:28:22.000Z</time>
      </trkpt>
      <trkpt lat="47.24187" lon="-2.29965">
        <ele>30.200000762939</ele>
        <time>2021-12-09T09:28:29.000Z</time>
      </trkpt>
      <trkpt lat="47.24184" lon="-2.29965">
        <ele>30.60000038147</ele>
        <time>2021-12-09T09:28:30.000Z</time>
      </trkpt>
      <trkpt lat="47.24181" lon="-2.29967">
        <ele>31.200000762939</ele>
        <time>2021-12-09T09:28:31.000Z</time>
      </trkpt>
      <trkpt lat="47.24178" lon="-2.2997">
        <ele>31.60000038147</ele>
        <time>2021-12-09T09:28:32.000Z</time>
      </trkpt>
      <trkpt lat="47.24177" lon="-2.29973">
        <ele>32</ele>
        <time>2021-12-09T09:28:33.000Z</time>
      </trkpt>
      <trkpt lat="47.24177" lon="-2.29976">
        <ele>32.400001525879</ele>
        <time>2021-12-09T09:28:34.000Z</time>
      </trkpt>
      <trkpt lat="47.24182" lon="-2.29988">
        <ele>32.400001525879</ele>
        <time>2021-12-09T09:28:37.000Z</time>
      </trkpt>
      <trkpt lat="47.24188" lon="-2.30006">
        <ele>32</ele>
        <time>2021-12-09T09:28:41.000Z</time>
      </trkpt>
      <trkpt lat="47.24188" lon="-2.30011">
        <ele>31.60000038147</ele>
        <time>2021-12-09T09:28:42.000Z</time>
      </trkpt>
      <trkpt lat="47.24188" lon="-2.30015">
        <ele>31.200000762939</ele>
        <time>2021-12-09T09:28:43.000Z</time>
      </trkpt>
      <trkpt lat="47.24187" lon="-2.30018">
        <ele>30.799999237061</ele>
        <time>2021-12-09T09:28:44.000Z</time>
      </trkpt>
      <trkpt lat="47.24186" lon="-2.30021">
        <ele>30.39999961853</ele>
        <time>2021-12-09T09:28:45.000Z</time>
      </trkpt>
      <trkpt lat="47.24183" lon="-2.30024">
        <ele>30.39999961853</ele>
        <time>2021-12-09T09:28:47.000Z</time>
      </trkpt>
      <trkpt lat="47.24177" lon="-2.30025">
        <ele>30.39999961853</ele>
        <time>2021-12-09T09:28:51.000Z</time>
      </trkpt>
      <trkpt lat="47.24174" lon="-2.30025">
        <ele>30.39999961853</ele>
        <time>2021-12-09T09:28:52.000Z</time>
      </trkpt>
      <trkpt lat="47.24162" lon="-2.30022">
        <ele>30.39999961853</ele>
        <time>2021-12-09T09:28:56.000Z</time>
      </trkpt>
      <trkpt lat="47.2416" lon="-2.30023">
        <ele>30.39999961853</ele>
        <time>2021-12-09T09:28:57.000Z</time>
      </trkpt>
      <trkpt lat="47.24157" lon="-2.30023">
        <ele>30.39999961853</ele>
        <time>2021-12-09T09:29:00.000Z</time>
      </trkpt>
      <trkpt lat="47.24155" lon="-2.30024">
        <ele>30.39999961853</ele>
        <time>2021-12-09T09:29:02.000Z</time>
      </trkpt>
      <trkpt lat="47.24154" lon="-2.30033">
        <ele>30.39999961853</ele>
        <time>2021-12-09T09:29:23.000Z</time>
      </trkpt>
      <trkpt lat="47.24154" lon="-2.30038">
        <ele>30.39999961853</ele>
        <time>2021-12-09T09:29:25.000Z</time>
      </trkpt>
      <trkpt lat="47.24153" lon="-2.30045">
        <ele>30.39999961853</ele>
        <time>2021-12-09T09:29:27.000Z</time>
      </trkpt>
      <trkpt lat="47.24147" lon="-2.30053">
        <ele>30.39999961853</ele>
        <time>2021-12-09T09:29:31.000Z</time>
      </trkpt>
      <trkpt lat="47.24146" lon="-2.30056">
        <ele>30.39999961853</ele>
        <time>2021-12-09T09:29:32.000Z</time>
      </trkpt>
      <trkpt lat="47.24144" lon="-2.30062">
        <ele>30.39999961853</ele>
        <time>2021-12-09T09:29:34.000Z</time>
      </trkpt>
      <trkpt lat="47.24145" lon="-2.30068">
        <ele>30.39999961853</ele>
        <time>2021-12-09T09:29:36.000Z</time>
      </trkpt>
      <trkpt lat="47.24149" lon="-2.30083">
        <ele>29.799999237061</ele>
        <time>2021-12-09T09:29:40.000Z</time>
      </trkpt>
      <trkpt lat="47.2415" lon="-2.30086">
        <ele>29.39999961853</ele>
        <time>2021-12-09T09:29:41.000Z</time>
      </trkpt>
      <trkpt lat="47.2415" lon="-2.30091">
        <ele>29</ele>
        <time>2021-12-09T09:29:42.000Z</time>
      </trkpt>
      <trkpt lat="47.2415" lon="-2.30095">
        <ele>28.60000038147</ele>
        <time>2021-12-09T09:29:43.000Z</time>
      </trkpt>
      <trkpt lat="47.2415" lon="-2.301">
        <ele>28.200000762939</ele>
        <time>2021-12-09T09:29:44.000Z</time>
      </trkpt>
      <trkpt lat="47.24149" lon="-2.30109">
        <ele>28.200000762939</ele>
        <time>2021-12-09T09:29:46.000Z</time>
      </trkpt>
      <trkpt lat="47.24142" lon="-2.30126">
        <ele>27.39999961853</ele>
        <time>2021-12-09T09:29:49.000Z</time>
      </trkpt>
      <trkpt lat="47.24139" lon="-2.3013">
        <ele>27</ele>
        <time>2021-12-09T09:29:50.000Z</time>
      </trkpt>
      <trkpt lat="47.24137" lon="-2.30134">
        <ele>26.60000038147</ele>
        <time>2021-12-09T09:29:51.000Z</time>
      </trkpt>
      <trkpt lat="47.24134" lon="-2.30138">
        <ele>26</ele>
        <time>2021-12-09T09:29:52.000Z</time>
      </trkpt>
      <trkpt lat="47.24126" lon="-2.30148">
        <ele>26.60000038147</ele>
        <time>2021-12-09T09:29:56.000Z</time>
      </trkpt>
      <trkpt lat="47.24125" lon="-2.30151">
        <ele>27</ele>
        <time>2021-12-09T09:29:57.000Z</time>
      </trkpt>
      <trkpt lat="47.24123" lon="-2.30154">
        <ele>27.39999961853</ele>
        <time>2021-12-09T09:29:58.000Z</time>
      </trkpt>
      <trkpt lat="47.24121" lon="-2.30157">
        <ele>27.799999237061</ele>
        <time>2021-12-09T09:29:59.000Z</time>
      </trkpt>
      <trkpt lat="47.24119" lon="-2.30159">
        <ele>28.200000762939</ele>
        <time>2021-12-09T09:30:00.000Z</time>
      </trkpt>
      <trkpt lat="47.24115" lon="-2.30162">
        <ele>28.200000762939</ele>
        <time>2021-12-09T09:30:02.000Z</time>
      </trkpt>
      <trkpt lat="47.24102" lon="-2.30159">
        <ele>28.200000762939</ele>
        <time>2021-12-09T09:30:07.000Z</time>
      </trkpt>
      <trkpt lat="47.24086" lon="-2.30164">
        <ele>28.200000762939</ele>
        <time>2021-12-09T09:30:11.000Z</time>
      </trkpt>
      <trkpt lat="47.24083" lon="-2.30166">
        <ele>28.200000762939</ele>
        <time>2021-12-09T09:30:12.000Z</time>
      </trkpt>
      <trkpt lat="47.2408" lon="-2.3017">
        <ele>28.60000038147</ele>
        <time>2021-12-09T09:30:13.000Z</time>
      </trkpt>
      <trkpt lat="47.24078" lon="-2.30172">
        <ele>29.39999961853</ele>
        <time>2021-12-09T09:30:14.000Z</time>
      </trkpt>
      <trkpt lat="47.24075" lon="-2.30173">
        <ele>29.799999237061</ele>
        <time>2021-12-09T09:30:15.000Z</time>
      </trkpt>
      <trkpt lat="47.24072" lon="-2.30172">
        <ele>30.200000762939</ele>
        <time>2021-12-09T09:30:16.000Z</time>
      </trkpt>
      <trkpt lat="47.24071" lon="-2.30169">
        <ele>30.200000762939</ele>
        <time>2021-12-09T09:30:17.000Z</time>
      </trkpt>
      <trkpt lat="47.24071" lon="-2.30163">
        <ele>30.200000762939</ele>
        <time>2021-12-09T09:30:20.000Z</time>
      </trkpt>
      <trkpt lat="47.24072" lon="-2.30162">
        <ele>30.200000762939</ele>
        <time>2021-12-09T09:30:21.000Z</time>
      </trkpt>
      <trkpt lat="47.24074" lon="-2.30161">
        <ele>30.200000762939</ele>
        <time>2021-12-09T09:30:22.000Z</time>
      </trkpt>
      <trkpt lat="47.24084" lon="-2.30154">
        <ele>30.200000762939</ele>
        <time>2021-12-09T09:30:27.000Z</time>
      </trkpt>
      <trkpt lat="47.24097" lon="-2.30153">
        <ele>30.200000762939</ele>
        <time>2021-12-09T09:30:32.000Z</time>
      </trkpt>
      <trkpt lat="47.24109" lon="-2.3015">
        <ele>30.200000762939</ele>
        <time>2021-12-09T09:30:38.000Z</time>
      </trkpt>
      <trkpt lat="47.24112" lon="-2.30147">
        <ele>29.799999237061</ele>
        <time>2021-12-09T09:30:40.000Z</time>
      </trkpt>
      <trkpt lat="47.24115" lon="-2.30144">
        <ele>29.39999961853</ele>
        <time>2021-12-09T09:30:41.000Z</time>
      </trkpt>
      <trkpt lat="47.24118" lon="-2.30141">
        <ele>29</ele>
        <time>2021-12-09T09:30:42.000Z</time>
      </trkpt>
      <trkpt lat="47.24121" lon="-2.30136">
        <ele>28.60000038147</ele>
        <time>2021-12-09T09:30:43.000Z</time>
      </trkpt>
      <trkpt lat="47.24124" lon="-2.3013">
        <ele>28.200000762939</ele>
        <time>2021-12-09T09:30:44.000Z</time>
      </trkpt>
      <trkpt lat="47.24132" lon="-2.30113">
        <ele>28.200000762939</ele>
        <time>2021-12-09T09:30:47.000Z</time>
      </trkpt>
      <trkpt lat="47.24138" lon="-2.30093">
        <ele>28.200000762939</ele>
        <time>2021-12-09T09:30:52.000Z</time>
      </trkpt>
      <trkpt lat="47.24133" lon="-2.30089">
        <ele>28.200000762939</ele>
        <time>2021-12-09T09:30:56.000Z</time>
      </trkpt>
      <trkpt lat="47.24121" lon="-2.30093">
        <ele>28.200000762939</ele>
        <time>2021-12-09T09:31:03.000Z</time>
      </trkpt>
      <trkpt lat="47.24113" lon="-2.30095">
        <ele>28.200000762939</ele>
        <time>2021-12-09T09:31:07.000Z</time>
      </trkpt>
      <trkpt lat="47.24112" lon="-2.30098">
        <ele>28.200000762939</ele>
        <time>2021-12-09T09:31:08.000Z</time>
      </trkpt>
      <trkpt lat="47.24105" lon="-2.3011">
        <ele>28.200000762939</ele>
        <time>2021-12-09T09:31:12.000Z</time>
      </trkpt>
      <trkpt lat="47.24103" lon="-2.30113">
        <ele>28.200000762939</ele>
        <time>2021-12-09T09:31:13.000Z</time>
      </trkpt>
      <trkpt lat="47.2409" lon="-2.3013">
        <ele>28.60000038147</ele>
        <time>2021-12-09T09:31:19.000Z</time>
      </trkpt>
      <trkpt lat="47.2409" lon="-2.30133">
        <ele>29</ele>
        <time>2021-12-09T09:31:20.000Z</time>
      </trkpt>
      <trkpt lat="47.24089" lon="-2.30136">
        <ele>29.39999961853</ele>
        <time>2021-12-09T09:31:21.000Z</time>
      </trkpt>
      <trkpt lat="47.24089" lon="-2.30139">
        <ele>29.799999237061</ele>
        <time>2021-12-09T09:31:22.000Z</time>
      </trkpt>
      <trkpt lat="47.24089" lon="-2.30142">
        <ele>30.200000762939</ele>
        <time>2021-12-09T09:31:23.000Z</time>
      </trkpt>
      <trkpt lat="47.24088" lon="-2.30148">
        <ele>30.200000762939</ele>
        <time>2021-12-09T09:31:25.000Z</time>
      </trkpt>
      <trkpt lat="47.24084" lon="-2.30153">
        <ele>30.200000762939</ele>
        <time>2021-12-09T09:31:28.000Z</time>
      </trkpt>
      <trkpt lat="47.24078" lon="-2.30156">
        <ele>30.200000762939</ele>
        <time>2021-12-09T09:31:30.000Z</time>
      </trkpt>
      <trkpt lat="47.24067" lon="-2.30155">
        <ele>30.200000762939</ele>
        <time>2021-12-09T09:31:35.000Z</time>
      </trkpt>
      <trkpt lat="47.24063" lon="-2.30146">
        <ele>30.200000762939</ele>
        <time>2021-12-09T09:31:39.000Z</time>
      </trkpt>
      <trkpt lat="47.24062" lon="-2.30144">
        <ele>30.200000762939</ele>
        <time>2021-12-09T09:31:40.000Z</time>
      </trkpt>
      <trkpt lat="47.24051" lon="-2.30141">
        <ele>30.200000762939</ele>
        <time>2021-12-09T09:31:45.000Z</time>
      </trkpt>
      <trkpt lat="47.24046" lon="-2.30131">
        <ele>30.200000762939</ele>
        <time>2021-12-09T09:31:50.000Z</time>
      </trkpt>
      <trkpt lat="47.24049" lon="-2.30115">
        <ele>30.200000762939</ele>
        <time>2021-12-09T09:31:56.000Z</time>
      </trkpt>
      <trkpt lat="47.24051" lon="-2.30101">
        <ele>30.200000762939</ele>
        <time>2021-12-09T09:32:02.000Z</time>
      </trkpt>
      <trkpt lat="47.24053" lon="-2.30082">
        <ele>30.200000762939</ele>
        <time>2021-12-09T09:32:09.000Z</time>
      </trkpt>
      <trkpt lat="47.24052" lon="-2.30081">
        <ele>30.200000762939</ele>
        <time>2021-12-09T09:32:10.000Z</time>
      </trkpt>
      <trkpt lat="47.24049" lon="-2.30078">
        <ele>30.200000762939</ele>
        <time>2021-12-09T09:32:13.000Z</time>
      </trkpt>
      <trkpt lat="47.24045" lon="-2.30069">
        <ele>30.200000762939</ele>
        <time>2021-12-09T09:32:18.000Z</time>
      </trkpt>
      <trkpt lat="47.24045" lon="-2.30069">
        <ele>30.200000762939</ele>
        <time>2021-12-09T09:32:19.000Z</time>
      </trkpt>
      <trkpt lat="47.24025" lon="-2.3007">
        <ele>30.200000762939</ele>
        <time>2021-12-09T09:32:40.000Z</time>
      </trkpt>
      <trkpt lat="47.24021" lon="-2.30073">
        <ele>30.200000762939</ele>
        <time>2021-12-09T09:32:43.000Z</time>
      </trkpt>
      <trkpt lat="47.24014" lon="-2.30077">
        <ele>30.200000762939</ele>
        <time>2021-12-09T09:32:46.000Z</time>
      </trkpt>
      <trkpt lat="47.24006" lon="-2.3008">
        <ele>30.200000762939</ele>
        <time>2021-12-09T09:32:49.000Z</time>
      </trkpt>
      <trkpt lat="47.23991" lon="-2.30085">
        <ele>30.200000762939</ele>
        <time>2021-12-09T09:32:55.000Z</time>
      </trkpt>
      <trkpt lat="47.23977" lon="-2.3009">
        <ele>30.200000762939</ele>
        <time>2021-12-09T09:33:00.000Z</time>
      </trkpt>
      <trkpt lat="47.23973" lon="-2.30088">
        <ele>30.200000762939</ele>
        <time>2021-12-09T09:33:02.000Z</time>
      </trkpt>
      <trkpt lat="47.23968" lon="-2.30081">
        <ele>30.200000762939</ele>
        <time>2021-12-09T09:33:06.000Z</time>
      </trkpt>
      <trkpt lat="47.23961" lon="-2.30085">
        <ele>30.200000762939</ele>
        <time>2021-12-09T09:33:10.000Z</time>
      </trkpt>
      <trkpt lat="47.23953" lon="-2.30092">
        <ele>30.200000762939</ele>
        <time>2021-12-09T09:33:14.000Z</time>
      </trkpt>
      <trkpt lat="47.23949" lon="-2.30094">
        <ele>30.200000762939</ele>
        <time>2021-12-09T09:33:15.000Z</time>
      </trkpt>
      <trkpt lat="47.23936" lon="-2.30096">
        <ele>30.200000762939</ele>
        <time>2021-12-09T09:33:18.000Z</time>
      </trkpt>
      <trkpt lat="47.23927" lon="-2.30097">
        <ele>29.799999237061</ele>
        <time>2021-12-09T09:33:20.000Z</time>
      </trkpt>
      <trkpt lat="47.23922" lon="-2.30097">
        <ele>29.39999961853</ele>
        <time>2021-12-09T09:33:21.000Z</time>
      </trkpt>
      <trkpt lat="47.23918" lon="-2.30097">
        <ele>29</ele>
        <time>2021-12-09T09:33:22.000Z</time>
      </trkpt>
      <trkpt lat="47.23915" lon="-2.30095">
        <ele>28.60000038147</ele>
        <time>2021-12-09T09:33:23.000Z</time>
      </trkpt>
      <trkpt lat="47.23911" lon="-2.30094">
        <ele>28.200000762939</ele>
        <time>2021-12-09T09:33:24.000Z</time>
      </trkpt>
      <trkpt lat="47.23899" lon="-2.30088">
        <ele>28.200000762939</ele>
        <time>2021-12-09T09:33:29.000Z</time>
      </trkpt>
      <trkpt lat="47.23874" lon="-2.30072">
        <ele>28.200000762939</ele>
        <time>2021-12-09T09:33:36.000Z</time>
      </trkpt>
      <trkpt lat="47.23866" lon="-2.30067">
        <ele>28.200000762939</ele>
        <time>2021-12-09T09:33:38.000Z</time>
      </trkpt>
      <trkpt lat="47.23859" lon="-2.30062">
        <ele>28.200000762939</ele>
        <time>2021-12-09T09:33:40.000Z</time>
      </trkpt>
      <trkpt lat="47.23846" lon="-2.30046">
        <ele>28.200000762939</ele>
        <time>2021-12-09T09:33:46.000Z</time>
      </trkpt>
      <trkpt lat="47.23844" lon="-2.3003">
        <ele>28.200000762939</ele>
        <time>2021-12-09T09:33:50.000Z</time>
      </trkpt>
      <trkpt lat="47.23839" lon="-2.29997">
        <ele>28.200000762939</ele>
        <time>2021-12-09T09:33:57.000Z</time>
      </trkpt>
      <trkpt lat="47.23837" lon="-2.29986">
        <ele>28.60000038147</ele>
        <time>2021-12-09T09:33:59.000Z</time>
      </trkpt>
      <trkpt lat="47.23836" lon="-2.29981">
        <ele>29</ele>
        <time>2021-12-09T09:34:00.000Z</time>
      </trkpt>
      <trkpt lat="47.23835" lon="-2.29976">
        <ele>29.39999961853</ele>
        <time>2021-12-09T09:34:01.000Z</time>
      </trkpt>
      <trkpt lat="47.23834" lon="-2.2997">
        <ele>29.799999237061</ele>
        <time>2021-12-09T09:34:02.000Z</time>
      </trkpt>
      <trkpt lat="47.23832" lon="-2.29965">
        <ele>30.200000762939</ele>
        <time>2021-12-09T09:34:03.000Z</time>
      </trkpt>
      <trkpt lat="47.23827" lon="-2.29936">
        <ele>30.200000762939</ele>
        <time>2021-12-09T09:34:08.000Z</time>
      </trkpt>
      <trkpt lat="47.23825" lon="-2.29924">
        <ele>30.200000762939</ele>
        <time>2021-12-09T09:34:10.000Z</time>
      </trkpt>
      <trkpt lat="47.23821" lon="-2.29901">
        <ele>30.200000762939</ele>
        <time>2021-12-09T09:34:14.000Z</time>
      </trkpt>
      <trkpt lat="47.2382" lon="-2.29895">
        <ele>30.60000038147</ele>
        <time>2021-12-09T09:34:15.000Z</time>
      </trkpt>
      <trkpt lat="47.23819" lon="-2.29889">
        <ele>31</ele>
        <time>2021-12-09T09:34:16.000Z</time>
      </trkpt>
      <trkpt lat="47.23818" lon="-2.29883">
        <ele>31.39999961853</ele>
        <time>2021-12-09T09:34:17.000Z</time>
      </trkpt>
      <trkpt lat="47.23817" lon="-2.29877">
        <ele>31.799999237061</ele>
        <time>2021-12-09T09:34:18.000Z</time>
      </trkpt>
      <trkpt lat="47.23816" lon="-2.29871">
        <ele>32.200000762939</ele>
        <time>2021-12-09T09:34:19.000Z</time>
      </trkpt>
      <trkpt lat="47.23814" lon="-2.29865">
        <ele>32.200000762939</ele>
        <time>2021-12-09T09:34:20.000Z</time>
      </trkpt>
      <trkpt lat="47.23813" lon="-2.29859">
        <ele>32.200000762939</ele>
        <time>2021-12-09T09:34:21.000Z</time>
      </trkpt>
      <trkpt lat="47.2381" lon="-2.29831">
        <ele>32.200000762939</ele>
        <time>2021-12-09T09:34:25.000Z</time>
      </trkpt>
      <trkpt lat="47.2381" lon="-2.29818">
        <ele>32.200000762939</ele>
        <time>2021-12-09T09:34:27.000Z</time>
      </trkpt>
      <trkpt lat="47.2381" lon="-2.29797">
        <ele>32.200000762939</ele>
        <time>2021-12-09T09:34:30.000Z</time>
      </trkpt>
      <trkpt lat="47.23811" lon="-2.29776">
        <ele>32.200000762939</ele>
        <time>2021-12-09T09:34:33.000Z</time>
      </trkpt>
      <trkpt lat="47.23812" lon="-2.29724">
        <ele>32.200000762939</ele>
        <time>2021-12-09T09:34:41.000Z</time>
      </trkpt>
      <trkpt lat="47.23805" lon="-2.29699">
        <ele>32.200000762939</ele>
        <time>2021-12-09T09:34:46.000Z</time>
      </trkpt>
      <trkpt lat="47.23802" lon="-2.29698">
        <ele>32.200000762939</ele>
        <time>2021-12-09T09:34:47.000Z</time>
      </trkpt>
      <trkpt lat="47.23795" lon="-2.29699">
        <ele>32.200000762939</ele>
        <time>2021-12-09T09:34:49.000Z</time>
      </trkpt>
      <trkpt lat="47.23782" lon="-2.29701">
        <ele>32.200000762939</ele>
        <time>2021-12-09T09:34:52.000Z</time>
      </trkpt>
      <trkpt lat="47.23768" lon="-2.29702">
        <ele>32.200000762939</ele>
        <time>2021-12-09T09:34:55.000Z</time>
      </trkpt>
      <trkpt lat="47.23763" lon="-2.29702">
        <ele>32.200000762939</ele>
        <time>2021-12-09T09:34:56.000Z</time>
      </trkpt>
      <trkpt lat="47.23734" lon="-2.29707">
        <ele>31.799999237061</ele>
        <time>2021-12-09T09:35:01.000Z</time>
      </trkpt>
      <trkpt lat="47.23728" lon="-2.29708">
        <ele>31.39999961853</ele>
        <time>2021-12-09T09:35:02.000Z</time>
      </trkpt>
      <trkpt lat="47.23723" lon="-2.29709">
        <ele>31</ele>
        <time>2021-12-09T09:35:03.000Z</time>
      </trkpt>
      <trkpt lat="47.23717" lon="-2.2971">
        <ele>30.60000038147</ele>
        <time>2021-12-09T09:35:04.000Z</time>
      </trkpt>
      <trkpt lat="47.2371" lon="-2.29711">
        <ele>30.200000762939</ele>
        <time>2021-12-09T09:35:05.000Z</time>
      </trkpt>
      <trkpt lat="47.23677" lon="-2.29717">
        <ele>29.39999961853</ele>
        <time>2021-12-09T09:35:10.000Z</time>
      </trkpt>
      <trkpt lat="47.2367" lon="-2.29718">
        <ele>29</ele>
        <time>2021-12-09T09:35:11.000Z</time>
      </trkpt>
      <trkpt lat="47.23663" lon="-2.29718">
        <ele>28.60000038147</ele>
        <time>2021-12-09T09:35:12.000Z</time>
      </trkpt>
      <trkpt lat="47.23657" lon="-2.2972">
        <ele>28.200000762939</ele>
        <time>2021-12-09T09:35:13.000Z</time>
      </trkpt>
      <trkpt lat="47.23651" lon="-2.29725">
        <ele>28.200000762939</ele>
        <time>2021-12-09T09:35:14.000Z</time>
      </trkpt>
      <trkpt lat="47.23643" lon="-2.29746">
        <ele>28.200000762939</ele>
        <time>2021-12-09T09:35:17.000Z</time>
      </trkpt>
      <trkpt lat="47.23649" lon="-2.29778">
        <ele>28.200000762939</ele>
        <time>2021-12-09T09:35:21.000Z</time>
      </trkpt>
      <trkpt lat="47.23651" lon="-2.29785">
        <ele>28.200000762939</ele>
        <time>2021-12-09T09:35:22.000Z</time>
      </trkpt>
      <trkpt lat="47.23662" lon="-2.29819">
        <ele>28.200000762939</ele>
        <time>2021-12-09T09:35:27.000Z</time>
      </trkpt>
      <trkpt lat="47.23669" lon="-2.29835">
        <ele>28.200000762939</ele>
        <time>2021-12-09T09:35:30.000Z</time>
      </trkpt>
      <trkpt lat="47.23678" lon="-2.29852">
        <ele>28.200000762939</ele>
        <time>2021-12-09T09:35:33.000Z</time>
      </trkpt>
      <trkpt lat="47.23691" lon="-2.2988">
        <ele>28.200000762939</ele>
        <time>2021-12-09T09:35:38.000Z</time>
      </trkpt>
      <trkpt lat="47.23697" lon="-2.29889">
        <ele>28.200000762939</ele>
        <time>2021-12-09T09:35:40.000Z</time>
      </trkpt>
      <trkpt lat="47.237" lon="-2.29894">
        <ele>28.200000762939</ele>
        <time>2021-12-09T09:35:41.000Z</time>
      </trkpt>
      <trkpt lat="47.23707" lon="-2.29918">
        <ele>28.200000762939</ele>
        <time>2021-12-09T09:35:45.000Z</time>
      </trkpt>
      <trkpt lat="47.23705" lon="-2.29951">
        <ele>28.200000762939</ele>
        <time>2021-12-09T09:35:50.000Z</time>
      </trkpt>
      <trkpt lat="47.23693" lon="-2.29979">
        <ele>28.200000762939</ele>
        <time>2021-12-09T09:35:54.000Z</time>
      </trkpt>
      <trkpt lat="47.23684" lon="-2.29988">
        <ele>28.200000762939</ele>
        <time>2021-12-09T09:35:56.000Z</time>
      </trkpt>
      <trkpt lat="47.23677" lon="-2.29992">
        <ele>28.200000762939</ele>
        <time>2021-12-09T09:35:58.000Z</time>
      </trkpt>
      <trkpt lat="47.23673" lon="-2.29993">
        <ele>27.200000762939</ele>
        <time>2021-12-09T09:35:59.000Z</time>
      </trkpt>
      <trkpt lat="47.2367" lon="-2.2999">
        <ele>26.799999237061</ele>
        <time>2021-12-09T09:36:00.000Z</time>
      </trkpt>
      <trkpt lat="47.23667" lon="-2.29986">
        <ele>26.200000762939</ele>
        <time>2021-12-09T09:36:01.000Z</time>
      </trkpt>
      <trkpt lat="47.23665" lon="-2.29981">
        <ele>25.799999237061</ele>
        <time>2021-12-09T09:36:02.000Z</time>
      </trkpt>
      <trkpt lat="47.23661" lon="-2.29969">
        <ele>25.799999237061</ele>
        <time>2021-12-09T09:36:04.000Z</time>
      </trkpt>
      <trkpt lat="47.23659" lon="-2.29964">
        <ele>25.799999237061</ele>
        <time>2021-12-09T09:36:05.000Z</time>
      </trkpt>
      <trkpt lat="47.23644" lon="-2.29926">
        <ele>25.799999237061</ele>
        <time>2021-12-09T09:36:12.000Z</time>
      </trkpt>
      <trkpt lat="47.23639" lon="-2.29915">
        <ele>26.200000762939</ele>
        <time>2021-12-09T09:36:14.000Z</time>
      </trkpt>
      <trkpt lat="47.23637" lon="-2.29909">
        <ele>26.60000038147</ele>
        <time>2021-12-09T09:36:15.000Z</time>
      </trkpt>
      <trkpt lat="47.23635" lon="-2.29904">
        <ele>27</ele>
        <time>2021-12-09T09:36:16.000Z</time>
      </trkpt>
      <trkpt lat="47.23632" lon="-2.29898">
        <ele>27.60000038147</ele>
        <time>2021-12-09T09:36:17.000Z</time>
      </trkpt>
      <trkpt lat="47.2363" lon="-2.29892">
        <ele>28</ele>
        <time>2021-12-09T09:36:18.000Z</time>
      </trkpt>
      <trkpt lat="47.23628" lon="-2.29886">
        <ele>28</ele>
        <time>2021-12-09T09:36:19.000Z</time>
      </trkpt>
      <trkpt lat="47.2361" lon="-2.29837">
        <ele>28</ele>
        <time>2021-12-09T09:36:27.000Z</time>
      </trkpt>
      <trkpt lat="47.23597" lon="-2.29801">
        <ele>28</ele>
        <time>2021-12-09T09:36:32.000Z</time>
      </trkpt>
      <trkpt lat="47.23582" lon="-2.29798">
        <ele>28</ele>
        <time>2021-12-09T09:36:35.000Z</time>
      </trkpt>
      <trkpt lat="47.23568" lon="-2.29804">
        <ele>28</ele>
        <time>2021-12-09T09:36:38.000Z</time>
      </trkpt>
      <trkpt lat="47.23564" lon="-2.29806">
        <ele>27.60000038147</ele>
        <time>2021-12-09T09:36:39.000Z</time>
      </trkpt>
      <trkpt lat="47.2356" lon="-2.29808">
        <ele>27.200000762939</ele>
        <time>2021-12-09T09:36:40.000Z</time>
      </trkpt>
      <trkpt lat="47.23555" lon="-2.2981">
        <ele>26.799999237061</ele>
        <time>2021-12-09T09:36:41.000Z</time>
      </trkpt>
      <trkpt lat="47.23551" lon="-2.29812">
        <ele>26.200000762939</ele>
        <time>2021-12-09T09:36:42.000Z</time>
      </trkpt>
      <trkpt lat="47.23546" lon="-2.29813">
        <ele>25.799999237061</ele>
        <time>2021-12-09T09:36:43.000Z</time>
      </trkpt>
      <trkpt lat="47.23532" lon="-2.29818">
        <ele>25.799999237061</ele>
        <time>2021-12-09T09:36:46.000Z</time>
      </trkpt>
      <trkpt lat="47.23503" lon="-2.29826">
        <ele>25.799999237061</ele>
        <time>2021-12-09T09:36:52.000Z</time>
      </trkpt>
      <trkpt lat="47.23494" lon="-2.29831">
        <ele>25.39999961853</ele>
        <time>2021-12-09T09:36:54.000Z</time>
      </trkpt>
      <trkpt lat="47.23489" lon="-2.29834">
        <ele>25</ele>
        <time>2021-12-09T09:36:55.000Z</time>
      </trkpt>
      <trkpt lat="47.23485" lon="-2.29837">
        <ele>24.60000038147</ele>
        <time>2021-12-09T09:36:56.000Z</time>
      </trkpt>
      <trkpt lat="47.23481" lon="-2.29839">
        <ele>24.200000762939</ele>
        <time>2021-12-09T09:36:57.000Z</time>
      </trkpt>
      <trkpt lat="47.23478" lon="-2.2984">
        <ele>23.799999237061</ele>
        <time>2021-12-09T09:36:58.000Z</time>
      </trkpt>
      <trkpt lat="47.23472" lon="-2.2984">
        <ele>23.799999237061</ele>
        <time>2021-12-09T09:37:01.000Z</time>
      </trkpt>
      <trkpt lat="47.23471" lon="-2.29838">
        <ele>23.799999237061</ele>
        <time>2021-12-09T09:37:02.000Z</time>
      </trkpt>
      <trkpt lat="47.23467" lon="-2.29827">
        <ele>23.799999237061</ele>
        <time>2021-12-09T09:37:05.000Z</time>
      </trkpt>
      <trkpt lat="47.23469" lon="-2.29818">
        <ele>23.39999961853</ele>
        <time>2021-12-09T09:37:06.000Z</time>
      </trkpt>
      <trkpt lat="47.23469" lon="-2.29811">
        <ele>23</ele>
        <time>2021-12-09T09:37:07.000Z</time>
      </trkpt>
      <trkpt lat="47.2347" lon="-2.29804">
        <ele>22.60000038147</ele>
        <time>2021-12-09T09:37:08.000Z</time>
      </trkpt>
      <trkpt lat="47.23472" lon="-2.29799">
        <ele>22.200000762939</ele>
        <time>2021-12-09T09:37:09.000Z</time>
      </trkpt>
      <trkpt lat="47.23474" lon="-2.29794">
        <ele>21.799999237061</ele>
        <time>2021-12-09T09:37:10.000Z</time>
      </trkpt>
      <trkpt lat="47.2348" lon="-2.29785">
        <ele>21.799999237061</ele>
        <time>2021-12-09T09:37:12.000Z</time>
      </trkpt>
      <trkpt lat="47.23486" lon="-2.2977">
        <ele>21.799999237061</ele>
        <time>2021-12-09T09:37:15.000Z</time>
      </trkpt>
      <trkpt lat="47.23488" lon="-2.29756">
        <ele>21.799999237061</ele>
        <time>2021-12-09T09:37:17.000Z</time>
      </trkpt>
      <trkpt lat="47.23492" lon="-2.29741">
        <ele>21.799999237061</ele>
        <time>2021-12-09T09:37:19.000Z</time>
      </trkpt>
      <trkpt lat="47.235" lon="-2.29729">
        <ele>21.39999961853</ele>
        <time>2021-12-09T09:37:21.000Z</time>
      </trkpt>
      <trkpt lat="47.23503" lon="-2.29723">
        <ele>21</ele>
        <time>2021-12-09T09:37:22.000Z</time>
      </trkpt>
      <trkpt lat="47.23506" lon="-2.29716">
        <ele>20.60000038147</ele>
        <time>2021-12-09T09:37:23.000Z</time>
      </trkpt>
      <trkpt lat="47.23509" lon="-2.2971">
        <ele>20.200000762939</ele>
        <time>2021-12-09T09:37:24.000Z</time>
      </trkpt>
      <trkpt lat="47.23511" lon="-2.29702">
        <ele>19.799999237061</ele>
        <time>2021-12-09T09:37:25.000Z</time>
      </trkpt>
      <trkpt lat="47.23512" lon="-2.2968">
        <ele>19.799999237061</ele>
        <time>2021-12-09T09:37:28.000Z</time>
      </trkpt>
      <trkpt lat="47.23508" lon="-2.29656">
        <ele>19.799999237061</ele>
        <time>2021-12-09T09:37:32.000Z</time>
      </trkpt>
      <trkpt lat="47.23506" lon="-2.2964">
        <ele>19.200000762939</ele>
        <time>2021-12-09T09:37:35.000Z</time>
      </trkpt>
      <trkpt lat="47.23505" lon="-2.29633">
        <ele>18.799999237061</ele>
        <time>2021-12-09T09:37:36.000Z</time>
      </trkpt>
      <trkpt lat="47.23503" lon="-2.29627">
        <ele>18.39999961853</ele>
        <time>2021-12-09T09:37:37.000Z</time>
      </trkpt>
      <trkpt lat="47.23504" lon="-2.29619">
        <ele>17.60000038147</ele>
        <time>2021-12-09T09:37:38.000Z</time>
      </trkpt>
      <trkpt lat="47.23506" lon="-2.29613">
        <ele>17.200000762939</ele>
        <time>2021-12-09T09:37:39.000Z</time>
      </trkpt>
      <trkpt lat="47.23508" lon="-2.29605">
        <ele>16.799999237061</ele>
        <time>2021-12-09T09:37:40.000Z</time>
      </trkpt>
      <trkpt lat="47.23512" lon="-2.296">
        <ele>16.39999961853</ele>
        <time>2021-12-09T09:37:41.000Z</time>
      </trkpt>
      <trkpt lat="47.23516" lon="-2.29596">
        <ele>16</ele>
        <time>2021-12-09T09:37:42.000Z</time>
      </trkpt>
      <trkpt lat="47.23519" lon="-2.29593">
        <ele>15.60000038147</ele>
        <time>2021-12-09T09:37:43.000Z</time>
      </trkpt>
      <trkpt lat="47.23523" lon="-2.29591">
        <ele>15.60000038147</ele>
        <time>2021-12-09T09:37:44.000Z</time>
      </trkpt>
      <trkpt lat="47.23538" lon="-2.29583">
        <ele>15.60000038147</ele>
        <time>2021-12-09T09:37:48.000Z</time>
      </trkpt>
      <trkpt lat="47.23542" lon="-2.29585">
        <ele>15.60000038147</ele>
        <time>2021-12-09T09:37:49.000Z</time>
      </trkpt>
      <trkpt lat="47.23548" lon="-2.29588">
        <ele>15.60000038147</ele>
        <time>2021-12-09T09:37:51.000Z</time>
      </trkpt>
      <trkpt lat="47.23573" lon="-2.29599">
        <ele>15.60000038147</ele>
        <time>2021-12-09T09:37:58.000Z</time>
      </trkpt>
      <trkpt lat="47.23576" lon="-2.29598">
        <ele>16</ele>
        <time>2021-12-09T09:37:59.000Z</time>
      </trkpt>
      <trkpt lat="47.23579" lon="-2.29597">
        <ele>16.39999961853</ele>
        <time>2021-12-09T09:38:00.000Z</time>
      </trkpt>
      <trkpt lat="47.23581" lon="-2.29596">
        <ele>16.799999237061</ele>
        <time>2021-12-09T09:38:01.000Z</time>
      </trkpt>
      <trkpt lat="47.23583" lon="-2.29595">
        <ele>17.200000762939</ele>
        <time>2021-12-09T09:38:02.000Z</time>
      </trkpt>
      <trkpt lat="47.23584" lon="-2.29593">
        <ele>17.60000038147</ele>
        <time>2021-12-09T09:38:03.000Z</time>
      </trkpt>
      <trkpt lat="47.23584" lon="-2.2959">
        <ele>18</ele>
        <time>2021-12-09T09:38:04.000Z</time>
      </trkpt>
      <trkpt lat="47.23584" lon="-2.29587">
        <ele>18.39999961853</ele>
        <time>2021-12-09T09:38:05.000Z</time>
      </trkpt>
      <trkpt lat="47.23585" lon="-2.29582">
        <ele>18.799999237061</ele>
        <time>2021-12-09T09:38:06.000Z</time>
      </trkpt>
      <trkpt lat="47.23585" lon="-2.29577">
        <ele>19.200000762939</ele>
        <time>2021-12-09T09:38:07.000Z</time>
      </trkpt>
      <trkpt lat="47.23586" lon="-2.29571">
        <ele>19.60000038147</ele>
        <time>2021-12-09T09:38:08.000Z</time>
      </trkpt>
      <trkpt lat="47.23586" lon="-2.29565">
        <ele>19.60000038147</ele>
        <time>2021-12-09T09:38:09.000Z</time>
      </trkpt>
      <trkpt lat="47.23587" lon="-2.29541">
        <ele>19.60000038147</ele>
        <time>2021-12-09T09:38:13.000Z</time>
      </trkpt>
      <trkpt lat="47.23588" lon="-2.29517">
        <ele>19.60000038147</ele>
        <time>2021-12-09T09:38:17.000Z</time>
      </trkpt>
      <trkpt lat="47.23588" lon="-2.29505">
        <ele>19.60000038147</ele>
        <time>2021-12-09T09:38:19.000Z</time>
      </trkpt>
      <trkpt lat="47.23588" lon="-2.29479">
        <ele>19.60000038147</ele>
        <time>2021-12-09T09:38:23.000Z</time>
      </trkpt>
      <trkpt lat="47.23588" lon="-2.29461">
        <ele>19.60000038147</ele>
        <time>2021-12-09T09:38:26.000Z</time>
      </trkpt>
      <trkpt lat="47.23587" lon="-2.2943">
        <ele>20</ele>
        <time>2021-12-09T09:38:31.000Z</time>
      </trkpt>
      <trkpt lat="47.23587" lon="-2.29424">
        <ele>20.60000038147</ele>
        <time>2021-12-09T09:38:32.000Z</time>
      </trkpt>
      <trkpt lat="47.23587" lon="-2.29417">
        <ele>21</ele>
        <time>2021-12-09T09:38:33.000Z</time>
      </trkpt>
      <trkpt lat="47.23587" lon="-2.2941">
        <ele>21.39999961853</ele>
        <time>2021-12-09T09:38:34.000Z</time>
      </trkpt>
      <trkpt lat="47.23587" lon="-2.29404">
        <ele>21.799999237061</ele>
        <time>2021-12-09T09:38:35.000Z</time>
      </trkpt>
      <trkpt lat="47.23587" lon="-2.29383">
        <ele>21.799999237061</ele>
        <time>2021-12-09T09:38:38.000Z</time>
      </trkpt>
      <trkpt lat="47.23586" lon="-2.29377">
        <ele>21.799999237061</ele>
        <time>2021-12-09T09:38:39.000Z</time>
      </trkpt>
      <trkpt lat="47.23586" lon="-2.29362">
        <ele>21.799999237061</ele>
        <time>2021-12-09T09:38:43.000Z</time>
      </trkpt>
      <trkpt lat="47.23586" lon="-2.29361">
        <ele>21.799999237061</ele>
        <time>2021-12-09T09:38:45.000Z</time>
      </trkpt>
      <trkpt lat="47.23586" lon="-2.29356">
        <ele>19.799999237061</ele>
        <time>2021-12-09T09:39:05.000Z</time>
      </trkpt>
      <trkpt lat="47.23587" lon="-2.29347">
        <ele>19.799999237061</ele>
        <time>2021-12-09T09:39:07.000Z</time>
      </trkpt>
      <trkpt lat="47.23588" lon="-2.29318">
        <ele>19.799999237061</ele>
        <time>2021-12-09T09:39:11.000Z</time>
      </trkpt>
      <trkpt lat="47.23587" lon="-2.29267">
        <ele>19.799999237061</ele>
        <time>2021-12-09T09:39:17.000Z</time>
      </trkpt>
      <trkpt lat="47.23586" lon="-2.2926">
        <ele>19.799999237061</ele>
        <time>2021-12-09T09:39:18.000Z</time>
      </trkpt>
      <trkpt lat="47.23587" lon="-2.29236">
        <ele>19.799999237061</ele>
        <time>2021-12-09T09:39:22.000Z</time>
      </trkpt>
      <trkpt lat="47.23596" lon="-2.29213">
        <ele>19.799999237061</ele>
        <time>2021-12-09T09:39:27.000Z</time>
      </trkpt>
      <trkpt lat="47.236" lon="-2.29211">
        <ele>20.200000762939</ele>
        <time>2021-12-09T09:39:28.000Z</time>
      </trkpt>
      <trkpt lat="47.23604" lon="-2.29209">
        <ele>20.60000038147</ele>
        <time>2021-12-09T09:39:29.000Z</time>
      </trkpt>
      <trkpt lat="47.23609" lon="-2.29207">
        <ele>21</ele>
        <time>2021-12-09T09:39:30.000Z</time>
      </trkpt>
      <trkpt lat="47.23615" lon="-2.29205">
        <ele>21.39999961853</ele>
        <time>2021-12-09T09:39:31.000Z</time>
      </trkpt>
      <trkpt lat="47.23621" lon="-2.29203">
        <ele>21.799999237061</ele>
        <time>2021-12-09T09:39:32.000Z</time>
      </trkpt>
      <trkpt lat="47.23642" lon="-2.29199">
        <ele>21.799999237061</ele>
        <time>2021-12-09T09:39:36.000Z</time>
      </trkpt>
      <trkpt lat="47.23646" lon="-2.29198">
        <ele>21.799999237061</ele>
        <time>2021-12-09T09:39:37.000Z</time>
      </trkpt>
      <trkpt lat="47.23656" lon="-2.29195">
        <ele>22.200000762939</ele>
        <time>2021-12-09T09:39:39.000Z</time>
      </trkpt>
      <trkpt lat="47.23661" lon="-2.29193">
        <ele>22.60000038147</ele>
        <time>2021-12-09T09:39:40.000Z</time>
      </trkpt>
      <trkpt lat="47.23666" lon="-2.29191">
        <ele>23.39999961853</ele>
        <time>2021-12-09T09:39:41.000Z</time>
      </trkpt>
      <trkpt lat="47.23671" lon="-2.2919">
        <ele>23.799999237061</ele>
        <time>2021-12-09T09:39:42.000Z</time>
      </trkpt>
      <trkpt lat="47.23676" lon="-2.29189">
        <ele>23.799999237061</ele>
        <time>2021-12-09T09:39:43.000Z</time>
      </trkpt>
      <trkpt lat="47.23702" lon="-2.29182">
        <ele>23.799999237061</ele>
        <time>2021-12-09T09:39:48.000Z</time>
      </trkpt>
      <trkpt lat="47.23706" lon="-2.2918">
        <ele>23.799999237061</ele>
        <time>2021-12-09T09:39:49.000Z</time>
      </trkpt>
      <trkpt lat="47.23715" lon="-2.29176">
        <ele>24.200000762939</ele>
        <time>2021-12-09T09:39:51.000Z</time>
      </trkpt>
      <trkpt lat="47.23719" lon="-2.29174">
        <ele>24.60000038147</ele>
        <time>2021-12-09T09:39:52.000Z</time>
      </trkpt>
      <trkpt lat="47.23724" lon="-2.29173">
        <ele>25</ele>
        <time>2021-12-09T09:39:53.000Z</time>
      </trkpt>
      <trkpt lat="47.23728" lon="-2.29171">
        <ele>25.60000038147</ele>
        <time>2021-12-09T09:39:54.000Z</time>
      </trkpt>
      <trkpt lat="47.23733" lon="-2.29169">
        <ele>26</ele>
        <time>2021-12-09T09:39:55.000Z</time>
      </trkpt>
      <trkpt lat="47.23741" lon="-2.29165">
        <ele>26</ele>
        <time>2021-12-09T09:39:57.000Z</time>
      </trkpt>
      <trkpt lat="47.23757" lon="-2.29155">
        <ele>26</ele>
        <time>2021-12-09T09:40:01.000Z</time>
      </trkpt>
      <trkpt lat="47.23776" lon="-2.29136">
        <ele>26</ele>
        <time>2021-12-09T09:40:07.000Z</time>
      </trkpt>
      <trkpt lat="47.23786" lon="-2.2911">
        <ele>26</ele>
        <time>2021-12-09T09:40:12.000Z</time>
      </trkpt>
      <trkpt lat="47.23794" lon="-2.29055">
        <ele>26</ele>
        <time>2021-12-09T09:40:20.000Z</time>
      </trkpt>
      <trkpt lat="47.23802" lon="-2.28996">
        <ele>26</ele>
        <time>2021-12-09T09:40:27.000Z</time>
      </trkpt>
      <trkpt lat="47.23814" lon="-2.28929">
        <ele>26</ele>
        <time>2021-12-09T09:40:35.000Z</time>
      </trkpt>
      <trkpt lat="47.23815" lon="-2.28918">
        <ele>26</ele>
        <time>2021-12-09T09:40:37.000Z</time>
      </trkpt>
      <trkpt lat="47.23813" lon="-2.28914">
        <ele>25.39999961853</ele>
        <time>2021-12-09T09:40:38.000Z</time>
      </trkpt>
      <trkpt lat="47.2381" lon="-2.28913">
        <ele>25</ele>
        <time>2021-12-09T09:40:39.000Z</time>
      </trkpt>
      <trkpt lat="47.23806" lon="-2.28912">
        <ele>24.60000038147</ele>
        <time>2021-12-09T09:40:40.000Z</time>
      </trkpt>
      <trkpt lat="47.23802" lon="-2.28912">
        <ele>24.200000762939</ele>
        <time>2021-12-09T09:40:41.000Z</time>
      </trkpt>
      <trkpt lat="47.23797" lon="-2.28912">
        <ele>23.799999237061</ele>
        <time>2021-12-09T09:40:42.000Z</time>
      </trkpt>
      <trkpt lat="47.23783" lon="-2.28911">
        <ele>23.39999961853</ele>
        <time>2021-12-09T09:40:45.000Z</time>
      </trkpt>
      <trkpt lat="47.2378" lon="-2.2891">
        <ele>23</ele>
        <time>2021-12-09T09:40:46.000Z</time>
      </trkpt>
      <trkpt lat="47.23778" lon="-2.28908">
        <ele>22.60000038147</ele>
        <time>2021-12-09T09:40:47.000Z</time>
      </trkpt>
      <trkpt lat="47.23776" lon="-2.28904">
        <ele>22.200000762939</ele>
        <time>2021-12-09T09:40:48.000Z</time>
      </trkpt>
      <trkpt lat="47.23776" lon="-2.28899">
        <ele>21.60000038147</ele>
        <time>2021-12-09T09:40:49.000Z</time>
      </trkpt>
      <trkpt lat="47.23775" lon="-2.28887">
        <ele>21.60000038147</ele>
        <time>2021-12-09T09:40:51.000Z</time>
      </trkpt>
      <trkpt lat="47.23774" lon="-2.28867">
        <ele>21.60000038147</ele>
        <time>2021-12-09T09:40:54.000Z</time>
      </trkpt>
      <trkpt lat="47.2377" lon="-2.28837">
        <ele>21.200000762939</ele>
        <time>2021-12-09T09:40:58.000Z</time>
      </trkpt>
      <trkpt lat="47.2377" lon="-2.28829">
        <ele>20.799999237061</ele>
        <time>2021-12-09T09:40:59.000Z</time>
      </trkpt>
      <trkpt lat="47.23769" lon="-2.28821">
        <ele>20.39999961853</ele>
        <time>2021-12-09T09:41:00.000Z</time>
      </trkpt>
      <trkpt lat="47.23769" lon="-2.28813">
        <ele>20</ele>
        <time>2021-12-09T09:41:01.000Z</time>
      </trkpt>
      <trkpt lat="47.23769" lon="-2.28806">
        <ele>19.60000038147</ele>
        <time>2021-12-09T09:41:02.000Z</time>
      </trkpt>
      <trkpt lat="47.23767" lon="-2.28767">
        <ele>19.60000038147</ele>
        <time>2021-12-09T09:41:08.000Z</time>
      </trkpt>
      <trkpt lat="47.23767" lon="-2.28761">
        <ele>19.60000038147</ele>
        <time>2021-12-09T09:41:09.000Z</time>
      </trkpt>
      <trkpt lat="47.23763" lon="-2.28742">
        <ele>19.60000038147</ele>
        <time>2021-12-09T09:41:12.000Z</time>
      </trkpt>
      <trkpt lat="47.23762" lon="-2.28735">
        <ele>19.60000038147</ele>
        <time>2021-12-09T09:41:13.000Z</time>
      </trkpt>
      <trkpt lat="47.23761" lon="-2.28728">
        <ele>19.60000038147</ele>
        <time>2021-12-09T09:41:14.000Z</time>
      </trkpt>
      <trkpt lat="47.2376" lon="-2.28712">
        <ele>19.60000038147</ele>
        <time>2021-12-09T09:41:17.000Z</time>
      </trkpt>
      <trkpt lat="47.23765" lon="-2.2869">
        <ele>19.60000038147</ele>
        <time>2021-12-09T09:41:22.000Z</time>
      </trkpt>
      <trkpt lat="47.23777" lon="-2.28656">
        <ele>19.60000038147</ele>
        <time>2021-12-09T09:41:29.000Z</time>
      </trkpt>
      <trkpt lat="47.23782" lon="-2.28641">
        <ele>19.60000038147</ele>
        <time>2021-12-09T09:41:33.000Z</time>
      </trkpt>
      <trkpt lat="47.2379" lon="-2.28623">
        <ele>19.60000038147</ele>
        <time>2021-12-09T09:41:38.000Z</time>
      </trkpt>
      <trkpt lat="47.23788" lon="-2.28606">
        <ele>19.60000038147</ele>
        <time>2021-12-09T09:41:43.000Z</time>
      </trkpt>
      <trkpt lat="47.23782" lon="-2.28589">
        <ele>19.60000038147</ele>
        <time>2021-12-09T09:41:48.000Z</time>
      </trkpt>
      <trkpt lat="47.23781" lon="-2.28562">
        <ele>19.60000038147</ele>
        <time>2021-12-09T09:41:53.000Z</time>
      </trkpt>
      <trkpt lat="47.23783" lon="-2.28534">
        <ele>19.60000038147</ele>
        <time>2021-12-09T09:41:58.000Z</time>
      </trkpt>
      <trkpt lat="47.23781" lon="-2.28525">
        <ele>19.60000038147</ele>
        <time>2021-12-09T09:42:01.000Z</time>
      </trkpt>
      <trkpt lat="47.23777" lon="-2.2852">
        <ele>19.60000038147</ele>
        <time>2021-12-09T09:42:03.000Z</time>
      </trkpt>
      <trkpt lat="47.23775" lon="-2.28516">
        <ele>19.60000038147</ele>
        <time>2021-12-09T09:42:04.000Z</time>
      </trkpt>
      <trkpt lat="47.23772" lon="-2.28506">
        <ele>19.60000038147</ele>
        <time>2021-12-09T09:42:06.000Z</time>
      </trkpt>
      <trkpt lat="47.23768" lon="-2.28496">
        <ele>19.200000762939</ele>
        <time>2021-12-09T09:42:08.000Z</time>
      </trkpt>
      <trkpt lat="47.23765" lon="-2.28493">
        <ele>18.799999237061</ele>
        <time>2021-12-09T09:42:09.000Z</time>
      </trkpt>
      <trkpt lat="47.23762" lon="-2.28489">
        <ele>18</ele>
        <time>2021-12-09T09:42:10.000Z</time>
      </trkpt>
      <trkpt lat="47.23759" lon="-2.28485">
        <ele>17.60000038147</ele>
        <time>2021-12-09T09:42:11.000Z</time>
      </trkpt>
      <trkpt lat="47.23756" lon="-2.28476">
        <ele>17.60000038147</ele>
        <time>2021-12-09T09:42:13.000Z</time>
      </trkpt>
      <trkpt lat="47.23756" lon="-2.28473">
        <ele>17.60000038147</ele>
        <time>2021-12-09T09:42:14.000Z</time>
      </trkpt>
      <trkpt lat="47.23757" lon="-2.28459">
        <ele>17.60000038147</ele>
        <time>2021-12-09T09:42:18.000Z</time>
      </trkpt>
      <trkpt lat="47.23759" lon="-2.28457">
        <ele>17.60000038147</ele>
        <time>2021-12-09T09:42:19.000Z</time>
      </trkpt>
      <trkpt lat="47.23765" lon="-2.28443">
        <ele>17.60000038147</ele>
        <time>2021-12-09T09:42:23.000Z</time>
      </trkpt>
      <trkpt lat="47.23765" lon="-2.28412">
        <ele>17.60000038147</ele>
        <time>2021-12-09T09:42:28.000Z</time>
      </trkpt>
      <trkpt lat="47.23764" lon="-2.28396">
        <ele>17.60000038147</ele>
        <time>2021-12-09T09:42:30.000Z</time>
      </trkpt>
      <trkpt lat="47.23767" lon="-2.28382">
        <ele>17.60000038147</ele>
        <time>2021-12-09T09:42:32.000Z</time>
      </trkpt>
      <trkpt lat="47.23782" lon="-2.28362">
        <ele>17.60000038147</ele>
        <time>2021-12-09T09:42:36.000Z</time>
      </trkpt>
      <trkpt lat="47.23785" lon="-2.28357">
        <ele>17.60000038147</ele>
        <time>2021-12-09T09:42:37.000Z</time>
      </trkpt>
      <trkpt lat="47.23799" lon="-2.28331">
        <ele>17.60000038147</ele>
        <time>2021-12-09T09:42:42.000Z</time>
      </trkpt>
      <trkpt lat="47.23801" lon="-2.28325">
        <ele>17.60000038147</ele>
        <time>2021-12-09T09:42:43.000Z</time>
      </trkpt>
      <trkpt lat="47.23804" lon="-2.28306">
        <ele>17.60000038147</ele>
        <time>2021-12-09T09:42:46.000Z</time>
      </trkpt>
      <trkpt lat="47.23805" lon="-2.283">
        <ele>17.60000038147</ele>
        <time>2021-12-09T09:42:47.000Z</time>
      </trkpt>
      <trkpt lat="47.2381" lon="-2.2829">
        <ele>17.60000038147</ele>
        <time>2021-12-09T09:42:49.000Z</time>
      </trkpt>
      <trkpt lat="47.23814" lon="-2.28287">
        <ele>17</ele>
        <time>2021-12-09T09:42:50.000Z</time>
      </trkpt>
      <trkpt lat="47.23817" lon="-2.28283">
        <ele>16.60000038147</ele>
        <time>2021-12-09T09:42:51.000Z</time>
      </trkpt>
      <trkpt lat="47.2382" lon="-2.28278">
        <ele>16.200000762939</ele>
        <time>2021-12-09T09:42:52.000Z</time>
      </trkpt>
      <trkpt lat="47.23822" lon="-2.28273">
        <ele>15.800000190735</ele>
        <time>2021-12-09T09:42:53.000Z</time>
      </trkpt>
      <trkpt lat="47.23823" lon="-2.28267">
        <ele>15.39999961853</ele>
        <time>2021-12-09T09:42:54.000Z</time>
      </trkpt>
      <trkpt lat="47.23824" lon="-2.28249">
        <ele>15.39999961853</ele>
        <time>2021-12-09T09:42:57.000Z</time>
      </trkpt>
      <trkpt lat="47.23822" lon="-2.28238">
        <ele>15.39999961853</ele>
        <time>2021-12-09T09:42:59.000Z</time>
      </trkpt>
      <trkpt lat="47.23819" lon="-2.28224">
        <ele>15.39999961853</ele>
        <time>2021-12-09T09:43:02.000Z</time>
      </trkpt>
      <trkpt lat="47.23819" lon="-2.28194">
        <ele>15.39999961853</ele>
        <time>2021-12-09T09:43:08.000Z</time>
      </trkpt>
      <trkpt lat="47.2382" lon="-2.28167">
        <ele>15</ele>
        <time>2021-12-09T09:43:13.000Z</time>
      </trkpt>
      <trkpt lat="47.2382" lon="-2.28161">
        <ele>14.60000038147</ele>
        <time>2021-12-09T09:43:14.000Z</time>
      </trkpt>
      <trkpt lat="47.2382" lon="-2.28155">
        <ele>14.199999809265</ele>
        <time>2021-12-09T09:43:15.000Z</time>
      </trkpt>
      <trkpt lat="47.23821" lon="-2.28149">
        <ele>13.800000190735</ele>
        <time>2021-12-09T09:43:16.000Z</time>
      </trkpt>
      <trkpt lat="47.23821" lon="-2.28143">
        <ele>13.39999961853</ele>
        <time>2021-12-09T09:43:17.000Z</time>
      </trkpt>
      <trkpt lat="47.23823" lon="-2.28132">
        <ele>13.39999961853</ele>
        <time>2021-12-09T09:43:20.000Z</time>
      </trkpt>
      <trkpt lat="47.23823" lon="-2.2812">
        <ele>13.39999961853</ele>
        <time>2021-12-09T09:43:25.000Z</time>
      </trkpt>
      <trkpt lat="47.23823" lon="-2.28118">
        <ele>13.39999961853</ele>
        <time>2021-12-09T09:43:26.000Z</time>
      </trkpt>
      <trkpt lat="47.23832" lon="-2.28109">
        <ele>13.39999961853</ele>
        <time>2021-12-09T09:43:30.000Z</time>
      </trkpt>
      <trkpt lat="47.23845" lon="-2.28112">
        <ele>13.39999961853</ele>
        <time>2021-12-09T09:43:34.000Z</time>
      </trkpt>
      <trkpt lat="47.23864" lon="-2.28119">
        <ele>13</ele>
        <time>2021-12-09T09:43:39.000Z</time>
      </trkpt>
      <trkpt lat="47.23869" lon="-2.2812">
        <ele>12.39999961853</ele>
        <time>2021-12-09T09:43:40.000Z</time>
      </trkpt>
      <trkpt lat="47.23874" lon="-2.2812">
        <ele>12</ele>
        <time>2021-12-09T09:43:41.000Z</time>
      </trkpt>
      <trkpt lat="47.2388" lon="-2.2812">
        <ele>11.60000038147</ele>
        <time>2021-12-09T09:43:42.000Z</time>
      </trkpt>
      <trkpt lat="47.23887" lon="-2.28121">
        <ele>11.199999809265</ele>
        <time>2021-12-09T09:43:43.000Z</time>
      </trkpt>
      <trkpt lat="47.23894" lon="-2.28123">
        <ele>11.199999809265</ele>
        <time>2021-12-09T09:43:44.000Z</time>
      </trkpt>
      <trkpt lat="47.239" lon="-2.28125">
        <ele>11.199999809265</ele>
        <time>2021-12-09T09:43:45.000Z</time>
      </trkpt>
      <trkpt lat="47.23912" lon="-2.28132">
        <ele>10.800000190735</ele>
        <time>2021-12-09T09:43:47.000Z</time>
      </trkpt>
      <trkpt lat="47.23918" lon="-2.28136">
        <ele>10.199999809265</ele>
        <time>2021-12-09T09:43:48.000Z</time>
      </trkpt>
      <trkpt lat="47.23923" lon="-2.28141">
        <ele>9.3999996185303</ele>
        <time>2021-12-09T09:43:49.000Z</time>
      </trkpt>
      <trkpt lat="47.23928" lon="-2.28146">
        <ele>9</ele>
        <time>2021-12-09T09:43:50.000Z</time>
      </trkpt>
      <trkpt lat="47.23931" lon="-2.28153">
        <ele>9</ele>
        <time>2021-12-09T09:43:51.000Z</time>
      </trkpt>
      <trkpt lat="47.2394" lon="-2.28172">
        <ele>9</ele>
        <time>2021-12-09T09:43:54.000Z</time>
      </trkpt>
      <trkpt lat="47.2395" lon="-2.28187">
        <ele>8.6000003814697</ele>
        <time>2021-12-09T09:43:57.000Z</time>
      </trkpt>
      <trkpt lat="47.23952" lon="-2.28193">
        <ele>8.1999998092651</ele>
        <time>2021-12-09T09:43:58.000Z</time>
      </trkpt>
      <trkpt lat="47.23954" lon="-2.28198">
        <ele>7.8000001907349</ele>
        <time>2021-12-09T09:43:59.000Z</time>
      </trkpt>
      <trkpt lat="47.23957" lon="-2.28204">
        <ele>7.4000000953674</ele>
        <time>2021-12-09T09:44:00.000Z</time>
      </trkpt>
      <trkpt lat="47.2396" lon="-2.2821">
        <ele>7</ele>
        <time>2021-12-09T09:44:01.000Z</time>
      </trkpt>
      <trkpt lat="47.23967" lon="-2.28232">
        <ele>7</ele>
        <time>2021-12-09T09:44:04.000Z</time>
      </trkpt>
      <trkpt lat="47.23986" lon="-2.2829">
        <ele>7</ele>
        <time>2021-12-09T09:44:11.000Z</time>
      </trkpt>
      <trkpt lat="47.24008" lon="-2.28354">
        <ele>7</ele>
        <time>2021-12-09T09:44:19.000Z</time>
      </trkpt>
      <trkpt lat="47.24015" lon="-2.28367">
        <ele>7</ele>
        <time>2021-12-09T09:44:21.000Z</time>
      </trkpt>
      <trkpt lat="47.24027" lon="-2.2838">
        <ele>7</ele>
        <time>2021-12-09T09:44:24.000Z</time>
      </trkpt>
      <trkpt lat="47.24031" lon="-2.28383">
        <ele>7.4000000953674</ele>
        <time>2021-12-09T09:44:25.000Z</time>
      </trkpt>
      <trkpt lat="47.24035" lon="-2.28387">
        <ele>7.8000001907349</ele>
        <time>2021-12-09T09:44:26.000Z</time>
      </trkpt>
      <trkpt lat="47.2404" lon="-2.2839">
        <ele>8.1999998092651</ele>
        <time>2021-12-09T09:44:27.000Z</time>
      </trkpt>
      <trkpt lat="47.24044" lon="-2.28394">
        <ele>8.8000001907349</ele>
        <time>2021-12-09T09:44:28.000Z</time>
      </trkpt>
      <trkpt lat="47.24049" lon="-2.28396">
        <ele>9.1999998092651</ele>
        <time>2021-12-09T09:44:29.000Z</time>
      </trkpt>
      <trkpt lat="47.24064" lon="-2.28398">
        <ele>9.1999998092651</ele>
        <time>2021-12-09T09:44:32.000Z</time>
      </trkpt>
      <trkpt lat="47.24068" lon="-2.28398">
        <ele>9.1999998092651</ele>
        <time>2021-12-09T09:44:33.000Z</time>
      </trkpt>
      <trkpt lat="47.24073" lon="-2.28399">
        <ele>9.1999998092651</ele>
        <time>2021-12-09T09:44:34.000Z</time>
      </trkpt>
      <trkpt lat="47.24082" lon="-2.28412">
        <ele>9.1999998092651</ele>
        <time>2021-12-09T09:44:37.000Z</time>
      </trkpt>
      <trkpt lat="47.24083" lon="-2.28418">
        <ele>10</ele>
        <time>2021-12-09T09:44:38.000Z</time>
      </trkpt>
      <trkpt lat="47.24085" lon="-2.28425">
        <ele>10.39999961853</ele>
        <time>2021-12-09T09:44:39.000Z</time>
      </trkpt>
      <trkpt lat="47.24086" lon="-2.28431">
        <ele>10.800000190735</ele>
        <time>2021-12-09T09:44:40.000Z</time>
      </trkpt>
      <trkpt lat="47.24087" lon="-2.28438">
        <ele>11.199999809265</ele>
        <time>2021-12-09T09:44:41.000Z</time>
      </trkpt>
      <trkpt lat="47.24088" lon="-2.28444">
        <ele>11.199999809265</ele>
        <time>2021-12-09T09:44:42.000Z</time>
      </trkpt>
      <trkpt lat="47.24089" lon="-2.28464">
        <ele>11.199999809265</ele>
        <time>2021-12-09T09:44:45.000Z</time>
      </trkpt>
      <trkpt lat="47.2409" lon="-2.28478">
        <ele>11.60000038147</ele>
        <time>2021-12-09T09:44:47.000Z</time>
      </trkpt>
      <trkpt lat="47.2409" lon="-2.28484">
        <ele>12</ele>
        <time>2021-12-09T09:44:48.000Z</time>
      </trkpt>
      <trkpt lat="47.2409" lon="-2.28491">
        <ele>12.60000038147</ele>
        <time>2021-12-09T09:44:49.000Z</time>
      </trkpt>
      <trkpt lat="47.2409" lon="-2.28498">
        <ele>13</ele>
        <time>2021-12-09T09:44:50.000Z</time>
      </trkpt>
      <trkpt lat="47.2409" lon="-2.28505">
        <ele>13.39999961853</ele>
        <time>2021-12-09T09:44:51.000Z</time>
      </trkpt>
      <trkpt lat="47.24094" lon="-2.28531">
        <ele>13.800000190735</ele>
        <time>2021-12-09T09:44:55.000Z</time>
      </trkpt>
      <trkpt lat="47.24095" lon="-2.28537">
        <ele>14.199999809265</ele>
        <time>2021-12-09T09:44:56.000Z</time>
      </trkpt>
      <trkpt lat="47.24097" lon="-2.28542">
        <ele>14.60000038147</ele>
        <time>2021-12-09T09:44:57.000Z</time>
      </trkpt>
      <trkpt lat="47.24099" lon="-2.28547">
        <ele>15</ele>
        <time>2021-12-09T09:44:58.000Z</time>
      </trkpt>
      <trkpt lat="47.24103" lon="-2.28551">
        <ele>15.39999961853</ele>
        <time>2021-12-09T09:44:59.000Z</time>
      </trkpt>
      <trkpt lat="47.24109" lon="-2.28558">
        <ele>15.39999961853</ele>
        <time>2021-12-09T09:45:01.000Z</time>
      </trkpt>
      <trkpt lat="47.24116" lon="-2.28565">
        <ele>15.800000190735</ele>
        <time>2021-12-09T09:45:03.000Z</time>
      </trkpt>
      <trkpt lat="47.2412" lon="-2.28567">
        <ele>16.39999961853</ele>
        <time>2021-12-09T09:45:04.000Z</time>
      </trkpt>
      <trkpt lat="47.24124" lon="-2.28569">
        <ele>16.799999237061</ele>
        <time>2021-12-09T09:45:05.000Z</time>
      </trkpt>
      <trkpt lat="47.24128" lon="-2.2857">
        <ele>17.200000762939</ele>
        <time>2021-12-09T09:45:06.000Z</time>
      </trkpt>
      <trkpt lat="47.24133" lon="-2.28571">
        <ele>17.60000038147</ele>
        <time>2021-12-09T09:45:07.000Z</time>
      </trkpt>
      <trkpt lat="47.2415" lon="-2.28576">
        <ele>17.60000038147</ele>
        <time>2021-12-09T09:45:11.000Z</time>
      </trkpt>
      <trkpt lat="47.24164" lon="-2.28581">
        <ele>17.60000038147</ele>
        <time>2021-12-09T09:45:14.000Z</time>
      </trkpt>
      <trkpt lat="47.24173" lon="-2.28588">
        <ele>17.60000038147</ele>
        <time>2021-12-09T09:45:16.000Z</time>
      </trkpt>
      <trkpt lat="47.24183" lon="-2.28603">
        <ele>17.60000038147</ele>
        <time>2021-12-09T09:45:19.000Z</time>
      </trkpt>
      <trkpt lat="47.24186" lon="-2.2861">
        <ele>17.60000038147</ele>
        <time>2021-12-09T09:45:20.000Z</time>
      </trkpt>
      <trkpt lat="47.24192" lon="-2.28623">
        <ele>17.60000038147</ele>
        <time>2021-12-09T09:45:22.000Z</time>
      </trkpt>
      <trkpt lat="47.24198" lon="-2.28644">
        <ele>17.60000038147</ele>
        <time>2021-12-09T09:45:25.000Z</time>
      </trkpt>
      <trkpt lat="47.24207" lon="-2.2869">
        <ele>17.60000038147</ele>
        <time>2021-12-09T09:45:32.000Z</time>
      </trkpt>
      <trkpt lat="47.24211" lon="-2.28702">
        <ele>17.60000038147</ele>
        <time>2021-12-09T09:45:37.000Z</time>
      </trkpt>
      <trkpt lat="47.24215" lon="-2.28729">
        <ele>17.60000038147</ele>
        <time>2021-12-09T09:45:42.000Z</time>
      </trkpt>
      <trkpt lat="47.24222" lon="-2.28775">
        <ele>17.60000038147</ele>
        <time>2021-12-09T09:45:48.000Z</time>
      </trkpt>
      <trkpt lat="47.24231" lon="-2.28829">
        <ele>17.60000038147</ele>
        <time>2021-12-09T09:45:55.000Z</time>
      </trkpt>
      <trkpt lat="47.24234" lon="-2.28853">
        <ele>18</ele>
        <time>2021-12-09T09:45:58.000Z</time>
      </trkpt>
      <trkpt lat="47.24236" lon="-2.28861">
        <ele>18.39999961853</ele>
        <time>2021-12-09T09:45:59.000Z</time>
      </trkpt>
      <trkpt lat="47.24237" lon="-2.28869">
        <ele>18.799999237061</ele>
        <time>2021-12-09T09:46:00.000Z</time>
      </trkpt>
      <trkpt lat="47.24239" lon="-2.28876">
        <ele>19.200000762939</ele>
        <time>2021-12-09T09:46:01.000Z</time>
      </trkpt>
      <trkpt lat="47.2424" lon="-2.28884">
        <ele>19.60000038147</ele>
        <time>2021-12-09T09:46:02.000Z</time>
      </trkpt>
      <trkpt lat="47.24247" lon="-2.28929">
        <ele>19.60000038147</ele>
        <time>2021-12-09T09:46:08.000Z</time>
      </trkpt>
      <trkpt lat="47.24248" lon="-2.28937">
        <ele>20</ele>
        <time>2021-12-09T09:46:09.000Z</time>
      </trkpt>
      <trkpt lat="47.24249" lon="-2.28944">
        <ele>20.39999961853</ele>
        <time>2021-12-09T09:46:10.000Z</time>
      </trkpt>
      <trkpt lat="47.2425" lon="-2.28952">
        <ele>20.799999237061</ele>
        <time>2021-12-09T09:46:11.000Z</time>
      </trkpt>
      <trkpt lat="47.24251" lon="-2.28959">
        <ele>21.200000762939</ele>
        <time>2021-12-09T09:46:12.000Z</time>
      </trkpt>
      <trkpt lat="47.24251" lon="-2.28966">
        <ele>21.60000038147</ele>
        <time>2021-12-09T09:46:13.000Z</time>
      </trkpt>
      <trkpt lat="47.24253" lon="-2.28981">
        <ele>21.60000038147</ele>
        <time>2021-12-09T09:46:15.000Z</time>
      </trkpt>
      <trkpt lat="47.24256" lon="-2.28994">
        <ele>22.200000762939</ele>
        <time>2021-12-09T09:46:17.000Z</time>
      </trkpt>
      <trkpt lat="47.24258" lon="-2.29001">
        <ele>22.60000038147</ele>
        <time>2021-12-09T09:46:18.000Z</time>
      </trkpt>
      <trkpt lat="47.24259" lon="-2.29007">
        <ele>23</ele>
        <time>2021-12-09T09:46:19.000Z</time>
      </trkpt>
      <trkpt lat="47.24261" lon="-2.29014">
        <ele>23.39999961853</ele>
        <time>2021-12-09T09:46:20.000Z</time>
      </trkpt>
      <trkpt lat="47.24262" lon="-2.29021">
        <ele>23.799999237061</ele>
        <time>2021-12-09T09:46:21.000Z</time>
      </trkpt>
      <trkpt lat="47.24269" lon="-2.29064">
        <ele>24.200000762939</ele>
        <time>2021-12-09T09:46:27.000Z</time>
      </trkpt>
      <trkpt lat="47.2427" lon="-2.29071">
        <ele>24.60000038147</ele>
        <time>2021-12-09T09:46:28.000Z</time>
      </trkpt>
      <trkpt lat="47.24271" lon="-2.29078">
        <ele>25</ele>
        <time>2021-12-09T09:46:29.000Z</time>
      </trkpt>
      <trkpt lat="47.24272" lon="-2.29086">
        <ele>25.39999961853</ele>
        <time>2021-12-09T09:46:30.000Z</time>
      </trkpt>
      <trkpt lat="47.24273" lon="-2.29093">
        <ele>26</ele>
        <time>2021-12-09T09:46:31.000Z</time>
      </trkpt>
      <trkpt lat="47.24276" lon="-2.29114">
        <ele>26</ele>
        <time>2021-12-09T09:46:34.000Z</time>
      </trkpt>
      <trkpt lat="47.24284" lon="-2.29158">
        <ele>26.39999961853</ele>
        <time>2021-12-09T09:46:40.000Z</time>
      </trkpt>
      <trkpt lat="47.24286" lon="-2.29165">
        <ele>26.799999237061</ele>
        <time>2021-12-09T09:46:41.000Z</time>
      </trkpt>
      <trkpt lat="47.24287" lon="-2.29172">
        <ele>27.60000038147</ele>
        <time>2021-12-09T09:46:42.000Z</time>
      </trkpt>
      <trkpt lat="47.24289" lon="-2.29179">
        <ele>28</ele>
        <time>2021-12-09T09:46:43.000Z</time>
      </trkpt>
      <trkpt lat="47.2429" lon="-2.29186">
        <ele>28</ele>
        <time>2021-12-09T09:46:44.000Z</time>
      </trkpt>
      <trkpt lat="47.24299" lon="-2.29202">
        <ele>28</ele>
        <time>2021-12-09T09:46:47.000Z</time>
      </trkpt>
      <trkpt lat="47.24308" lon="-2.29209">
        <ele>28</ele>
        <time>2021-12-09T09:46:49.000Z</time>
      </trkpt>
      <trkpt lat="47.24318" lon="-2.29216">
        <ele>28</ele>
        <time>2021-12-09T09:46:51.000Z</time>
      </trkpt>
      <trkpt lat="47.24327" lon="-2.29224">
        <ele>28</ele>
        <time>2021-12-09T09:46:53.000Z</time>
      </trkpt>
      <trkpt lat="47.24339" lon="-2.29236">
        <ele>28.39999961853</ele>
        <time>2021-12-09T09:46:56.000Z</time>
      </trkpt>
      <trkpt lat="47.24343" lon="-2.2924">
        <ele>28.799999237061</ele>
        <time>2021-12-09T09:46:57.000Z</time>
      </trkpt>
      <trkpt lat="47.24346" lon="-2.29245">
        <ele>29.200000762939</ele>
        <time>2021-12-09T09:46:58.000Z</time>
      </trkpt>
      <trkpt lat="47.2435" lon="-2.2925">
        <ele>29.60000038147</ele>
        <time>2021-12-09T09:46:59.000Z</time>
      </trkpt>
      <trkpt lat="47.24354" lon="-2.29255">
        <ele>30</ele>
        <time>2021-12-09T09:47:00.000Z</time>
      </trkpt>
      <trkpt lat="47.2437" lon="-2.29274">
        <ele>30</ele>
        <time>2021-12-09T09:47:04.000Z</time>
      </trkpt>
      <trkpt lat="47.24383" lon="-2.29286">
        <ele>30</ele>
        <time>2021-12-09T09:47:07.000Z</time>
      </trkpt>
      <trkpt lat="47.24388" lon="-2.29289">
        <ele>30</ele>
        <time>2021-12-09T09:47:08.000Z</time>
      </trkpt>
      <trkpt lat="47.24397" lon="-2.29294">
        <ele>30</ele>
        <time>2021-12-09T09:47:10.000Z</time>
      </trkpt>
      <trkpt lat="47.24407" lon="-2.29298">
        <ele>30.39999961853</ele>
        <time>2021-12-09T09:47:12.000Z</time>
      </trkpt>
      <trkpt lat="47.24412" lon="-2.293">
        <ele>30.799999237061</ele>
        <time>2021-12-09T09:47:13.000Z</time>
      </trkpt>
      <trkpt lat="47.24416" lon="-2.29302">
        <ele>31.200000762939</ele>
        <time>2021-12-09T09:47:14.000Z</time>
      </trkpt>
      <trkpt lat="47.24421" lon="-2.29304">
        <ele>31.60000038147</ele>
        <time>2021-12-09T09:47:15.000Z</time>
      </trkpt>
      <trkpt lat="47.24426" lon="-2.29305">
        <ele>32</ele>
        <time>2021-12-09T09:47:16.000Z</time>
      </trkpt>
      <trkpt lat="47.24441" lon="-2.29311">
        <ele>32</ele>
        <time>2021-12-09T09:47:19.000Z</time>
      </trkpt>
      <trkpt lat="47.2447" lon="-2.29322">
        <ele>32</ele>
        <time>2021-12-09T09:47:25.000Z</time>
      </trkpt>
      <trkpt lat="47.24497" lon="-2.29334">
        <ele>32.799999237061</ele>
        <time>2021-12-09T09:47:31.000Z</time>
      </trkpt>
      <trkpt lat="47.24501" lon="-2.29335">
        <ele>33.200000762939</ele>
        <time>2021-12-09T09:47:32.000Z</time>
      </trkpt>
      <trkpt lat="47.24505" lon="-2.29336">
        <ele>33.799999237061</ele>
        <time>2021-12-09T09:47:33.000Z</time>
      </trkpt>
      <trkpt lat="47.24509" lon="-2.29335">
        <ele>34.200000762939</ele>
        <time>2021-12-09T09:47:34.000Z</time>
      </trkpt>
      <trkpt lat="47.24514" lon="-2.29326">
        <ele>34.200000762939</ele>
        <time>2021-12-09T09:47:36.000Z</time>
      </trkpt>
      <trkpt lat="47.24514" lon="-2.29305">
        <ele>34.200000762939</ele>
        <time>2021-12-09T09:47:39.000Z</time>
      </trkpt>
      <trkpt lat="47.24512" lon="-2.29256">
        <ele>34.200000762939</ele>
        <time>2021-12-09T09:47:45.000Z</time>
      </trkpt>
      <trkpt lat="47.24513" lon="-2.29222">
        <ele>34.200000762939</ele>
        <time>2021-12-09T09:47:49.000Z</time>
      </trkpt>
      <trkpt lat="47.24515" lon="-2.29214">
        <ele>34.200000762939</ele>
        <time>2021-12-09T09:47:50.000Z</time>
      </trkpt>
      <trkpt lat="47.24521" lon="-2.29173">
        <ele>34.200000762939</ele>
        <time>2021-12-09T09:47:55.000Z</time>
      </trkpt>
      <trkpt lat="47.24526" lon="-2.29158">
        <ele>34.200000762939</ele>
        <time>2021-12-09T09:47:57.000Z</time>
      </trkpt>
      <trkpt lat="47.24543" lon="-2.29099">
        <ele>34.200000762939</ele>
        <time>2021-12-09T09:48:05.000Z</time>
      </trkpt>
      <trkpt lat="47.24546" lon="-2.29083">
        <ele>34.200000762939</ele>
        <time>2021-12-09T09:48:07.000Z</time>
      </trkpt>
      <trkpt lat="47.24549" lon="-2.29061">
        <ele>34.200000762939</ele>
        <time>2021-12-09T09:48:10.000Z</time>
      </trkpt>
      <trkpt lat="47.24553" lon="-2.29009">
        <ele>34.200000762939</ele>
        <time>2021-12-09T09:48:16.000Z</time>
      </trkpt>
      <trkpt lat="47.24553" lon="-2.29">
        <ele>33.799999237061</ele>
        <time>2021-12-09T09:48:17.000Z</time>
      </trkpt>
      <trkpt lat="47.24552" lon="-2.28992">
        <ele>33.400001525879</ele>
        <time>2021-12-09T09:48:18.000Z</time>
      </trkpt>
      <trkpt lat="47.2455" lon="-2.28984">
        <ele>33</ele>
        <time>2021-12-09T09:48:19.000Z</time>
      </trkpt>
      <trkpt lat="47.24548" lon="-2.28976">
        <ele>32.400001525879</ele>
        <time>2021-12-09T09:48:20.000Z</time>
      </trkpt>
      <trkpt lat="47.24546" lon="-2.28968">
        <ele>32</ele>
        <time>2021-12-09T09:48:21.000Z</time>
      </trkpt>
      <trkpt lat="47.24533" lon="-2.28921">
        <ele>32</ele>
        <time>2021-12-09T09:48:27.000Z</time>
      </trkpt>
      <trkpt lat="47.24522" lon="-2.2889">
        <ele>32</ele>
        <time>2021-12-09T09:48:31.000Z</time>
      </trkpt>
      <trkpt lat="47.24522" lon="-2.28881">
        <ele>32</ele>
        <time>2021-12-09T09:48:32.000Z</time>
      </trkpt>
      <trkpt lat="47.24528" lon="-2.28858">
        <ele>32</ele>
        <time>2021-12-09T09:48:35.000Z</time>
      </trkpt>
      <trkpt lat="47.24537" lon="-2.28847">
        <ele>31.60000038147</ele>
        <time>2021-12-09T09:48:37.000Z</time>
      </trkpt>
      <trkpt lat="47.24542" lon="-2.28843">
        <ele>31.200000762939</ele>
        <time>2021-12-09T09:48:38.000Z</time>
      </trkpt>
      <trkpt lat="47.24547" lon="-2.28838">
        <ele>30.799999237061</ele>
        <time>2021-12-09T09:48:39.000Z</time>
      </trkpt>
      <trkpt lat="47.24552" lon="-2.28834">
        <ele>30.39999961853</ele>
        <time>2021-12-09T09:48:40.000Z</time>
      </trkpt>
      <trkpt lat="47.24556" lon="-2.28829">
        <ele>30</ele>
        <time>2021-12-09T09:48:41.000Z</time>
      </trkpt>
      <trkpt lat="47.2456" lon="-2.28824">
        <ele>30</ele>
        <time>2021-12-09T09:48:42.000Z</time>
      </trkpt>
      <trkpt lat="47.24565" lon="-2.28819">
        <ele>30</ele>
        <time>2021-12-09T09:48:43.000Z</time>
      </trkpt>
      <trkpt lat="47.24573" lon="-2.28809">
        <ele>30</ele>
        <time>2021-12-09T09:48:45.000Z</time>
      </trkpt>
      <trkpt lat="47.24592" lon="-2.28795">
        <ele>30</ele>
        <time>2021-12-09T09:48:49.000Z</time>
      </trkpt>
      <trkpt lat="47.24601" lon="-2.28788">
        <ele>30</ele>
        <time>2021-12-09T09:48:51.000Z</time>
      </trkpt>
      <trkpt lat="47.24614" lon="-2.28776">
        <ele>30</ele>
        <time>2021-12-09T09:48:54.000Z</time>
      </trkpt>
      <trkpt lat="47.24622" lon="-2.28765">
        <ele>30</ele>
        <time>2021-12-09T09:48:56.000Z</time>
      </trkpt>
      <trkpt lat="47.24636" lon="-2.28742">
        <ele>30</ele>
        <time>2021-12-09T09:49:00.000Z</time>
      </trkpt>
      <trkpt lat="47.2466" lon="-2.2871">
        <ele>30</ele>
        <time>2021-12-09T09:49:06.000Z</time>
      </trkpt>
      <trkpt lat="47.24686" lon="-2.28679">
        <ele>30</ele>
        <time>2021-12-09T09:49:12.000Z</time>
      </trkpt>
      <trkpt lat="47.2469" lon="-2.28673">
        <ele>30</ele>
        <time>2021-12-09T09:49:13.000Z</time>
      </trkpt>
      <trkpt lat="47.24696" lon="-2.28661">
        <ele>30</ele>
        <time>2021-12-09T09:49:15.000Z</time>
      </trkpt>
      <trkpt lat="47.247" lon="-2.28656">
        <ele>30</ele>
        <time>2021-12-09T09:49:16.000Z</time>
      </trkpt>
      <trkpt lat="47.24709" lon="-2.28646">
        <ele>30</ele>
        <time>2021-12-09T09:49:18.000Z</time>
      </trkpt>
      <trkpt lat="47.24723" lon="-2.2863">
        <ele>30</ele>
        <time>2021-12-09T09:49:21.000Z</time>
      </trkpt>
      <trkpt lat="47.24732" lon="-2.28619">
        <ele>30</ele>
        <time>2021-12-09T09:49:23.000Z</time>
      </trkpt>
      <trkpt lat="47.2474" lon="-2.28595">
        <ele>30.39999961853</ele>
        <time>2021-12-09T09:49:26.000Z</time>
      </trkpt>
      <trkpt lat="47.24742" lon="-2.28587">
        <ele>31</ele>
        <time>2021-12-09T09:49:27.000Z</time>
      </trkpt>
      <trkpt lat="47.24743" lon="-2.28578">
        <ele>31.39999961853</ele>
        <time>2021-12-09T09:49:28.000Z</time>
      </trkpt>
      <trkpt lat="47.24746" lon="-2.28571">
        <ele>31.799999237061</ele>
        <time>2021-12-09T09:49:29.000Z</time>
      </trkpt>
      <trkpt lat="47.24749" lon="-2.28564">
        <ele>32.200000762939</ele>
        <time>2021-12-09T09:49:30.000Z</time>
      </trkpt>
      <trkpt lat="47.24769" lon="-2.2854">
        <ele>32.200000762939</ele>
        <time>2021-12-09T09:49:34.000Z</time>
      </trkpt>
      <trkpt lat="47.24802" lon="-2.28509">
        <ele>32.200000762939</ele>
        <time>2021-12-09T09:49:40.000Z</time>
      </trkpt>
      <trkpt lat="47.24808" lon="-2.28505">
        <ele>32.200000762939</ele>
        <time>2021-12-09T09:49:41.000Z</time>
      </trkpt>
      <trkpt lat="47.24833" lon="-2.28487">
        <ele>32.200000762939</ele>
        <time>2021-12-09T09:49:45.000Z</time>
      </trkpt>
      <trkpt lat="47.24858" lon="-2.28465">
        <ele>32.200000762939</ele>
        <time>2021-12-09T09:49:49.000Z</time>
      </trkpt>
      <trkpt lat="47.24863" lon="-2.28459">
        <ele>32.200000762939</ele>
        <time>2021-12-09T09:49:50.000Z</time>
      </trkpt>
      <trkpt lat="47.24895" lon="-2.28428">
        <ele>31.799999237061</ele>
        <time>2021-12-09T09:49:55.000Z</time>
      </trkpt>
      <trkpt lat="47.24903" lon="-2.28424">
        <ele>31.39999961853</ele>
        <time>2021-12-09T09:49:56.000Z</time>
      </trkpt>
      <trkpt lat="47.24911" lon="-2.28421">
        <ele>31</ele>
        <time>2021-12-09T09:49:57.000Z</time>
      </trkpt>
      <trkpt lat="47.24919" lon="-2.28417">
        <ele>30.60000038147</ele>
        <time>2021-12-09T09:49:58.000Z</time>
      </trkpt>
      <trkpt lat="47.24928" lon="-2.28414">
        <ele>30.200000762939</ele>
        <time>2021-12-09T09:49:59.000Z</time>
      </trkpt>
      <trkpt lat="47.24944" lon="-2.2841">
        <ele>29.60000038147</ele>
        <time>2021-12-09T09:50:01.000Z</time>
      </trkpt>
      <trkpt lat="47.24952" lon="-2.28408">
        <ele>29.200000762939</ele>
        <time>2021-12-09T09:50:02.000Z</time>
      </trkpt>
      <trkpt lat="47.24959" lon="-2.28405">
        <ele>28.799999237061</ele>
        <time>2021-12-09T09:50:03.000Z</time>
      </trkpt>
      <trkpt lat="47.24967" lon="-2.28401">
        <ele>28.200000762939</ele>
        <time>2021-12-09T09:50:04.000Z</time>
      </trkpt>
      <trkpt lat="47.24975" lon="-2.28398">
        <ele>27.799999237061</ele>
        <time>2021-12-09T09:50:05.000Z</time>
      </trkpt>
      <trkpt lat="47.24982" lon="-2.28393">
        <ele>27.200000762939</ele>
        <time>2021-12-09T09:50:06.000Z</time>
      </trkpt>
      <trkpt lat="47.24988" lon="-2.28385">
        <ele>26.799999237061</ele>
        <time>2021-12-09T09:50:07.000Z</time>
      </trkpt>
      <trkpt lat="47.24992" lon="-2.28376">
        <ele>26.39999961853</ele>
        <time>2021-12-09T09:50:08.000Z</time>
      </trkpt>
      <trkpt lat="47.24996" lon="-2.28367">
        <ele>25.799999237061</ele>
        <time>2021-12-09T09:50:09.000Z</time>
      </trkpt>
      <trkpt lat="47.24998" lon="-2.28359">
        <ele>25.39999961853</ele>
        <time>2021-12-09T09:50:10.000Z</time>
      </trkpt>
      <trkpt lat="47.25005" lon="-2.28344">
        <ele>25.39999961853</ele>
        <time>2021-12-09T09:50:12.000Z</time>
      </trkpt>
      <trkpt lat="47.25024" lon="-2.28324">
        <ele>25.39999961853</ele>
        <time>2021-12-09T09:50:16.000Z</time>
      </trkpt>
      <trkpt lat="47.25028" lon="-2.28319">
        <ele>25.39999961853</ele>
        <time>2021-12-09T09:50:17.000Z</time>
      </trkpt>
      <trkpt lat="47.2503" lon="-2.28309">
        <ele>25.39999961853</ele>
        <time>2021-12-09T09:50:19.000Z</time>
      </trkpt>
      <trkpt lat="47.25032" lon="-2.28298">
        <ele>25.39999961853</ele>
        <time>2021-12-09T09:50:21.000Z</time>
      </trkpt>
      <trkpt lat="47.25032" lon="-2.2829">
        <ele>25.39999961853</ele>
        <time>2021-12-09T09:50:22.000Z</time>
      </trkpt>
      <trkpt lat="47.25033" lon="-2.28275">
        <ele>26.200000762939</ele>
        <time>2021-12-09T09:50:24.000Z</time>
      </trkpt>
      <trkpt lat="47.25034" lon="-2.28266">
        <ele>26.60000038147</ele>
        <time>2021-12-09T09:50:25.000Z</time>
      </trkpt>
      <trkpt lat="47.25035" lon="-2.28258">
        <ele>27</ele>
        <time>2021-12-09T09:50:26.000Z</time>
      </trkpt>
      <trkpt lat="47.25036" lon="-2.2825">
        <ele>27.39999961853</ele>
        <time>2021-12-09T09:50:27.000Z</time>
      </trkpt>
      <trkpt lat="47.25039" lon="-2.28235">
        <ele>27.39999961853</ele>
        <time>2021-12-09T09:50:29.000Z</time>
      </trkpt>
      <trkpt lat="47.25047" lon="-2.28195">
        <ele>27.39999961853</ele>
        <time>2021-12-09T09:50:34.000Z</time>
      </trkpt>
      <trkpt lat="47.2505" lon="-2.28188">
        <ele>27.39999961853</ele>
        <time>2021-12-09T09:50:35.000Z</time>
      </trkpt>
      <trkpt lat="47.25052" lon="-2.2818">
        <ele>27.39999961853</ele>
        <time>2021-12-09T09:50:36.000Z</time>
      </trkpt>
      <trkpt lat="47.25055" lon="-2.28166">
        <ele>27.39999961853</ele>
        <time>2021-12-09T09:50:38.000Z</time>
      </trkpt>
      <trkpt lat="47.2506" lon="-2.28153">
        <ele>27.39999961853</ele>
        <time>2021-12-09T09:50:40.000Z</time>
      </trkpt>
      <trkpt lat="47.25073" lon="-2.28103">
        <ele>27.39999961853</ele>
        <time>2021-12-09T09:50:47.000Z</time>
      </trkpt>
      <trkpt lat="47.25077" lon="-2.28089">
        <ele>27.39999961853</ele>
        <time>2021-12-09T09:50:49.000Z</time>
      </trkpt>
      <trkpt lat="47.25084" lon="-2.28073">
        <ele>27.39999961853</ele>
        <time>2021-12-09T09:50:51.000Z</time>
      </trkpt>
      <trkpt lat="47.25094" lon="-2.28043">
        <ele>27.39999961853</ele>
        <time>2021-12-09T09:50:55.000Z</time>
      </trkpt>
      <trkpt lat="47.25108" lon="-2.28006">
        <ele>27.39999961853</ele>
        <time>2021-12-09T09:51:00.000Z</time>
      </trkpt>
      <trkpt lat="47.25111" lon="-2.28">
        <ele>27.799999237061</ele>
        <time>2021-12-09T09:51:01.000Z</time>
      </trkpt>
      <trkpt lat="47.25114" lon="-2.27993">
        <ele>28.200000762939</ele>
        <time>2021-12-09T09:51:02.000Z</time>
      </trkpt>
      <trkpt lat="47.25117" lon="-2.27987">
        <ele>28.60000038147</ele>
        <time>2021-12-09T09:51:03.000Z</time>
      </trkpt>
      <trkpt lat="47.25121" lon="-2.2798">
        <ele>29</ele>
        <time>2021-12-09T09:51:04.000Z</time>
      </trkpt>
      <trkpt lat="47.25125" lon="-2.27973">
        <ele>29.39999961853</ele>
        <time>2021-12-09T09:51:05.000Z</time>
      </trkpt>
      <trkpt lat="47.25141" lon="-2.27956">
        <ele>29.39999961853</ele>
        <time>2021-12-09T09:51:08.000Z</time>
      </trkpt>
      <trkpt lat="47.25151" lon="-2.27947">
        <ele>29.39999961853</ele>
        <time>2021-12-09T09:51:10.000Z</time>
      </trkpt>
      <trkpt lat="47.25174" lon="-2.27931">
        <ele>29.799999237061</ele>
        <time>2021-12-09T09:51:14.000Z</time>
      </trkpt>
      <trkpt lat="47.25179" lon="-2.27927">
        <ele>30.39999961853</ele>
        <time>2021-12-09T09:51:15.000Z</time>
      </trkpt>
      <trkpt lat="47.25184" lon="-2.27923">
        <ele>30.799999237061</ele>
        <time>2021-12-09T09:51:16.000Z</time>
      </trkpt>
      <trkpt lat="47.25189" lon="-2.2792">
        <ele>31.200000762939</ele>
        <time>2021-12-09T09:51:17.000Z</time>
      </trkpt>
      <trkpt lat="47.25195" lon="-2.27916">
        <ele>31.60000038147</ele>
        <time>2021-12-09T09:51:18.000Z</time>
      </trkpt>
      <trkpt lat="47.252" lon="-2.27913">
        <ele>31.60000038147</ele>
        <time>2021-12-09T09:51:19.000Z</time>
      </trkpt>
      <trkpt lat="47.25216" lon="-2.27905">
        <ele>31.60000038147</ele>
        <time>2021-12-09T09:51:22.000Z</time>
      </trkpt>
      <trkpt lat="47.25247" lon="-2.27887">
        <ele>31.60000038147</ele>
        <time>2021-12-09T09:51:28.000Z</time>
      </trkpt>
      <trkpt lat="47.25279" lon="-2.27876">
        <ele>31.60000038147</ele>
        <time>2021-12-09T09:51:34.000Z</time>
      </trkpt>
      <trkpt lat="47.25302" lon="-2.27872">
        <ele>32.400001525879</ele>
        <time>2021-12-09T09:51:38.000Z</time>
      </trkpt>
      <trkpt lat="47.25307" lon="-2.27871">
        <ele>32.799999237061</ele>
        <time>2021-12-09T09:51:39.000Z</time>
      </trkpt>
      <trkpt lat="47.25313" lon="-2.27869">
        <ele>33.200000762939</ele>
        <time>2021-12-09T09:51:40.000Z</time>
      </trkpt>
      <trkpt lat="47.25319" lon="-2.27869">
        <ele>33.599998474121</ele>
        <time>2021-12-09T09:51:41.000Z</time>
      </trkpt>
      <trkpt lat="47.25337" lon="-2.27868">
        <ele>33.599998474121</ele>
        <time>2021-12-09T09:51:44.000Z</time>
      </trkpt>
      <trkpt lat="47.25365" lon="-2.27859">
        <ele>33.599998474121</ele>
        <time>2021-12-09T09:51:49.000Z</time>
      </trkpt>
      <trkpt lat="47.25399" lon="-2.27845">
        <ele>34</ele>
        <time>2021-12-09T09:51:55.000Z</time>
      </trkpt>
      <trkpt lat="47.25405" lon="-2.27842">
        <ele>34.400001525879</ele>
        <time>2021-12-09T09:51:56.000Z</time>
      </trkpt>
      <trkpt lat="47.25411" lon="-2.27839">
        <ele>34.799999237061</ele>
        <time>2021-12-09T09:51:57.000Z</time>
      </trkpt>
      <trkpt lat="47.25417" lon="-2.27836">
        <ele>35.200000762939</ele>
        <time>2021-12-09T09:51:58.000Z</time>
      </trkpt>
      <trkpt lat="47.25422" lon="-2.27832">
        <ele>35.599998474121</ele>
        <time>2021-12-09T09:51:59.000Z</time>
      </trkpt>
      <trkpt lat="47.25433" lon="-2.27824">
        <ele>35.599998474121</ele>
        <time>2021-12-09T09:52:01.000Z</time>
      </trkpt>
      <trkpt lat="47.2546" lon="-2.27793">
        <ele>35.599998474121</ele>
        <time>2021-12-09T09:52:07.000Z</time>
      </trkpt>
      <trkpt lat="47.25485" lon="-2.27763">
        <ele>35.599998474121</ele>
        <time>2021-12-09T09:52:13.000Z</time>
      </trkpt>
      <trkpt lat="47.25497" lon="-2.27752">
        <ele>35.599998474121</ele>
        <time>2021-12-09T09:52:16.000Z</time>
      </trkpt>
      <trkpt lat="47.25502" lon="-2.27751">
        <ele>36</ele>
        <time>2021-12-09T09:52:17.000Z</time>
      </trkpt>
      <trkpt lat="47.25506" lon="-2.27753">
        <ele>36.400001525879</ele>
        <time>2021-12-09T09:52:18.000Z</time>
      </trkpt>
      <trkpt lat="47.2551" lon="-2.27757">
        <ele>36.799999237061</ele>
        <time>2021-12-09T09:52:19.000Z</time>
      </trkpt>
      <trkpt lat="47.25514" lon="-2.27762">
        <ele>37.200000762939</ele>
        <time>2021-12-09T09:52:20.000Z</time>
      </trkpt>
      <trkpt lat="47.25517" lon="-2.27767">
        <ele>37.799999237061</ele>
        <time>2021-12-09T09:52:21.000Z</time>
      </trkpt>
      <trkpt lat="47.2552" lon="-2.27772">
        <ele>37.799999237061</ele>
        <time>2021-12-09T09:52:22.000Z</time>
      </trkpt>
      <trkpt lat="47.25523" lon="-2.27778">
        <ele>37.799999237061</ele>
        <time>2021-12-09T09:52:23.000Z</time>
      </trkpt>
      <trkpt lat="47.2554" lon="-2.27805">
        <ele>37.799999237061</ele>
        <time>2021-12-09T09:52:28.000Z</time>
      </trkpt>
      <trkpt lat="47.25554" lon="-2.27826">
        <ele>38.200000762939</ele>
        <time>2021-12-09T09:52:32.000Z</time>
      </trkpt>
      <trkpt lat="47.25558" lon="-2.27831">
        <ele>38.599998474121</ele>
        <time>2021-12-09T09:52:33.000Z</time>
      </trkpt>
      <trkpt lat="47.25562" lon="-2.27836">
        <ele>39</ele>
        <time>2021-12-09T09:52:34.000Z</time>
      </trkpt>
      <trkpt lat="47.25566" lon="-2.27841">
        <ele>39.400001525879</ele>
        <time>2021-12-09T09:52:35.000Z</time>
      </trkpt>
      <trkpt lat="47.25569" lon="-2.27846">
        <ele>39.799999237061</ele>
        <time>2021-12-09T09:52:36.000Z</time>
      </trkpt>
      <trkpt lat="47.25592" lon="-2.27872">
        <ele>39.799999237061</ele>
        <time>2021-12-09T09:52:42.000Z</time>
      </trkpt>
      <trkpt lat="47.25616" lon="-2.27897">
        <ele>39.799999237061</ele>
        <time>2021-12-09T09:52:49.000Z</time>
      </trkpt>
      <trkpt lat="47.25628" lon="-2.27906">
        <ele>39.799999237061</ele>
        <time>2021-12-09T09:52:52.000Z</time>
      </trkpt>
      <trkpt lat="47.25638" lon="-2.27915">
        <ele>39.799999237061</ele>
        <time>2021-12-09T09:52:55.000Z</time>
      </trkpt>
      <trkpt lat="47.25652" lon="-2.27933">
        <ele>39.799999237061</ele>
        <time>2021-12-09T09:53:00.000Z</time>
      </trkpt>
      <trkpt lat="47.25667" lon="-2.2796">
        <ele>39.799999237061</ele>
        <time>2021-12-09T09:53:07.000Z</time>
      </trkpt>
      <trkpt lat="47.25675" lon="-2.2798">
        <ele>39.799999237061</ele>
        <time>2021-12-09T09:53:13.000Z</time>
      </trkpt>
      <trkpt lat="47.25679" lon="-2.27988">
        <ele>40.200000762939</ele>
        <time>2021-12-09T09:53:17.000Z</time>
      </trkpt>
      <trkpt lat="47.2568" lon="-2.27989">
        <ele>40.599998474121</ele>
        <time>2021-12-09T09:53:18.000Z</time>
      </trkpt>
      <trkpt lat="47.25681" lon="-2.27989">
        <ele>41</ele>
        <time>2021-12-09T09:53:19.000Z</time>
      </trkpt>
      <trkpt lat="47.25683" lon="-2.27988">
        <ele>41.400001525879</ele>
        <time>2021-12-09T09:53:20.000Z</time>
      </trkpt>
      <trkpt lat="47.25684" lon="-2.27987">
        <ele>41.799999237061</ele>
        <time>2021-12-09T09:53:21.000Z</time>
      </trkpt>
      <trkpt lat="47.25688" lon="-2.27983">
        <ele>41.799999237061</ele>
        <time>2021-12-09T09:53:23.000Z</time>
      </trkpt>
      <trkpt lat="47.25689" lon="-2.27981">
        <ele>41.799999237061</ele>
        <time>2021-12-09T09:53:24.000Z</time>
      </trkpt>
      <trkpt lat="47.25706" lon="-2.2796">
        <ele>41.799999237061</ele>
        <time>2021-12-09T09:53:31.000Z</time>
      </trkpt>
      <trkpt lat="47.25719" lon="-2.2794">
        <ele>41.799999237061</ele>
        <time>2021-12-09T09:53:37.000Z</time>
      </trkpt>
      <trkpt lat="47.25735" lon="-2.2792">
        <ele>41.799999237061</ele>
        <time>2021-12-09T09:53:43.000Z</time>
      </trkpt>
      <trkpt lat="47.2575" lon="-2.27903">
        <ele>41.799999237061</ele>
        <time>2021-12-09T09:53:48.000Z</time>
      </trkpt>
      <trkpt lat="47.25772" lon="-2.27876">
        <ele>41.799999237061</ele>
        <time>2021-12-09T09:53:55.000Z</time>
      </trkpt>
      <trkpt lat="47.25809" lon="-2.27833">
        <ele>41.799999237061</ele>
        <time>2021-12-09T09:54:06.000Z</time>
      </trkpt>
      <trkpt lat="47.25835" lon="-2.27799">
        <ele>41.799999237061</ele>
        <time>2021-12-09T09:54:14.000Z</time>
      </trkpt>
      <trkpt lat="47.25857" lon="-2.27762">
        <ele>41.799999237061</ele>
        <time>2021-12-09T09:54:21.000Z</time>
      </trkpt>
      <trkpt lat="47.25859" lon="-2.27736">
        <ele>41.799999237061</ele>
        <time>2021-12-09T09:54:25.000Z</time>
      </trkpt>
      <trkpt lat="47.25865" lon="-2.27711">
        <ele>41.799999237061</ele>
        <time>2021-12-09T09:54:30.000Z</time>
      </trkpt>
      <trkpt lat="47.25868" lon="-2.27709">
        <ele>41.799999237061</ele>
        <time>2021-12-09T09:54:31.000Z</time>
      </trkpt>
      <trkpt lat="47.25872" lon="-2.27713">
        <ele>41.799999237061</ele>
        <time>2021-12-09T09:54:33.000Z</time>
      </trkpt>
      <trkpt lat="47.25874" lon="-2.27725">
        <ele>41.799999237061</ele>
        <time>2021-12-09T09:54:36.000Z</time>
      </trkpt>
      <trkpt lat="47.25876" lon="-2.27751">
        <ele>41.799999237061</ele>
        <time>2021-12-09T09:54:44.000Z</time>
      </trkpt>
      <trkpt lat="47.25876" lon="-2.27761">
        <ele>41.799999237061</ele>
        <time>2021-12-09T09:54:49.000Z</time>
      </trkpt>
      <trkpt lat="47.25878" lon="-2.27762">
        <ele>41.799999237061</ele>
        <time>2021-12-09T09:54:51.000Z</time>
      </trkpt>
      <trkpt lat="47.25883" lon="-2.27761">
        <ele>41.799999237061</ele>
        <time>2021-12-09T09:54:54.000Z</time>
      </trkpt>
      <trkpt lat="47.25888" lon="-2.27762">
        <ele>41.799999237061</ele>
        <time>2021-12-09T09:54:57.000Z</time>
      </trkpt>
      <trkpt lat="47.25893" lon="-2.2776">
        <ele>41.799999237061</ele>
        <time>2021-12-09T09:54:59.000Z</time>
      </trkpt>
      <trkpt lat="47.25905" lon="-2.27748">
        <ele>41.799999237061</ele>
        <time>2021-12-09T09:55:03.000Z</time>
      </trkpt>
      <trkpt lat="47.25913" lon="-2.27742">
        <ele>41.400001525879</ele>
        <time>2021-12-09T09:55:05.000Z</time>
      </trkpt>
      <trkpt lat="47.25917" lon="-2.27738">
        <ele>41</ele>
        <time>2021-12-09T09:55:06.000Z</time>
      </trkpt>
      <trkpt lat="47.25921" lon="-2.27735">
        <ele>40.599998474121</ele>
        <time>2021-12-09T09:55:07.000Z</time>
      </trkpt>
      <trkpt lat="47.25925" lon="-2.27732">
        <ele>40.200000762939</ele>
        <time>2021-12-09T09:55:08.000Z</time>
      </trkpt>
      <trkpt lat="47.25929" lon="-2.27728">
        <ele>39.799999237061</ele>
        <time>2021-12-09T09:55:09.000Z</time>
      </trkpt>
      <trkpt lat="47.25932" lon="-2.27724">
        <ele>39.799999237061</ele>
        <time>2021-12-09T09:55:10.000Z</time>
      </trkpt>
      <trkpt lat="47.25944" lon="-2.27712">
        <ele>39.799999237061</ele>
        <time>2021-12-09T09:55:13.000Z</time>
      </trkpt>
      <trkpt lat="47.25959" lon="-2.27697">
        <ele>39.799999237061</ele>
        <time>2021-12-09T09:55:17.000Z</time>
      </trkpt>
      <trkpt lat="47.25991" lon="-2.27665">
        <ele>39.799999237061</ele>
        <time>2021-12-09T09:55:26.000Z</time>
      </trkpt>
      <trkpt lat="47.25995" lon="-2.27662">
        <ele>39.799999237061</ele>
        <time>2021-12-09T09:55:27.000Z</time>
      </trkpt>
      <trkpt lat="47.26011" lon="-2.2765">
        <ele>39.799999237061</ele>
        <time>2021-12-09T09:55:31.000Z</time>
      </trkpt>
      <trkpt lat="47.26036" lon="-2.27629">
        <ele>39.799999237061</ele>
        <time>2021-12-09T09:55:37.000Z</time>
      </trkpt>
      <trkpt lat="47.26068" lon="-2.27611">
        <ele>39.799999237061</ele>
        <time>2021-12-09T09:55:44.000Z</time>
      </trkpt>
      <trkpt lat="47.26081" lon="-2.27604">
        <ele>39.400001525879</ele>
        <time>2021-12-09T09:55:47.000Z</time>
      </trkpt>
      <trkpt lat="47.26086" lon="-2.276">
        <ele>39</ele>
        <time>2021-12-09T09:55:48.000Z</time>
      </trkpt>
      <trkpt lat="47.26091" lon="-2.27597">
        <ele>38.599998474121</ele>
        <time>2021-12-09T09:55:49.000Z</time>
      </trkpt>
      <trkpt lat="47.26096" lon="-2.27595">
        <ele>38.200000762939</ele>
        <time>2021-12-09T09:55:50.000Z</time>
      </trkpt>
      <trkpt lat="47.26101" lon="-2.27592">
        <ele>37.799999237061</ele>
        <time>2021-12-09T09:55:51.000Z</time>
      </trkpt>
      <trkpt lat="47.26107" lon="-2.27589">
        <ele>37.799999237061</ele>
        <time>2021-12-09T09:55:52.000Z</time>
      </trkpt>
      <trkpt lat="47.26123" lon="-2.27582">
        <ele>37.799999237061</ele>
        <time>2021-12-09T09:55:55.000Z</time>
      </trkpt>
      <trkpt lat="47.26129" lon="-2.27582">
        <ele>37.799999237061</ele>
        <time>2021-12-09T09:55:56.000Z</time>
      </trkpt>
      <trkpt lat="47.26144" lon="-2.27596">
        <ele>37.799999237061</ele>
        <time>2021-12-09T09:55:59.000Z</time>
      </trkpt>
      <trkpt lat="47.26148" lon="-2.27622">
        <ele>37.799999237061</ele>
        <time>2021-12-09T09:56:03.000Z</time>
      </trkpt>
      <trkpt lat="47.2615" lon="-2.27642">
        <ele>37.799999237061</ele>
        <time>2021-12-09T09:56:06.000Z</time>
      </trkpt>
      <trkpt lat="47.26156" lon="-2.27669">
        <ele>37.799999237061</ele>
        <time>2021-12-09T09:56:10.000Z</time>
      </trkpt>
      <trkpt lat="47.26173" lon="-2.27727">
        <ele>37.799999237061</ele>
        <time>2021-12-09T09:56:18.000Z</time>
      </trkpt>
      <trkpt lat="47.26191" lon="-2.27783">
        <ele>37.799999237061</ele>
        <time>2021-12-09T09:56:26.000Z</time>
      </trkpt>
      <trkpt lat="47.26215" lon="-2.27838">
        <ele>37.799999237061</ele>
        <time>2021-12-09T09:56:35.000Z</time>
      </trkpt>
      <trkpt lat="47.26239" lon="-2.27881">
        <ele>37.799999237061</ele>
        <time>2021-12-09T09:56:42.000Z</time>
      </trkpt>
      <trkpt lat="47.2626" lon="-2.27925">
        <ele>37.400001525879</ele>
        <time>2021-12-09T09:56:49.000Z</time>
      </trkpt>
      <trkpt lat="47.26262" lon="-2.27931">
        <ele>36.799999237061</ele>
        <time>2021-12-09T09:56:50.000Z</time>
      </trkpt>
      <trkpt lat="47.26265" lon="-2.27936">
        <ele>36.400001525879</ele>
        <time>2021-12-09T09:56:51.000Z</time>
      </trkpt>
      <trkpt lat="47.26268" lon="-2.27942">
        <ele>36</ele>
        <time>2021-12-09T09:56:52.000Z</time>
      </trkpt>
      <trkpt lat="47.26271" lon="-2.27948">
        <ele>35.599998474121</ele>
        <time>2021-12-09T09:56:53.000Z</time>
      </trkpt>
      <trkpt lat="47.26282" lon="-2.27969">
        <ele>35.599998474121</ele>
        <time>2021-12-09T09:56:57.000Z</time>
      </trkpt>
      <trkpt lat="47.26286" lon="-2.27972">
        <ele>35.599998474121</ele>
        <time>2021-12-09T09:56:58.000Z</time>
      </trkpt>
      <trkpt lat="47.263" lon="-2.27967">
        <ele>35.599998474121</ele>
        <time>2021-12-09T09:57:01.000Z</time>
      </trkpt>
      <trkpt lat="47.26315" lon="-2.27955">
        <ele>35.599998474121</ele>
        <time>2021-12-09T09:57:04.000Z</time>
      </trkpt>
      <trkpt lat="47.26326" lon="-2.27947">
        <ele>35.599998474121</ele>
        <time>2021-12-09T09:57:06.000Z</time>
      </trkpt>
      <trkpt lat="47.26369" lon="-2.27918">
        <ele>35.599998474121</ele>
        <time>2021-12-09T09:57:14.000Z</time>
      </trkpt>
      <trkpt lat="47.26418" lon="-2.27897">
        <ele>35.599998474121</ele>
        <time>2021-12-09T09:57:22.000Z</time>
      </trkpt>
      <trkpt lat="47.26425" lon="-2.27896">
        <ele>35.200000762939</ele>
        <time>2021-12-09T09:57:23.000Z</time>
      </trkpt>
      <trkpt lat="47.26431" lon="-2.27894">
        <ele>34.400001525879</ele>
        <time>2021-12-09T09:57:24.000Z</time>
      </trkpt>
      <trkpt lat="47.26438" lon="-2.27893">
        <ele>34</ele>
        <time>2021-12-09T09:57:25.000Z</time>
      </trkpt>
      <trkpt lat="47.26444" lon="-2.27891">
        <ele>33.599998474121</ele>
        <time>2021-12-09T09:57:26.000Z</time>
      </trkpt>
      <trkpt lat="47.26472" lon="-2.27884">
        <ele>33.599998474121</ele>
        <time>2021-12-09T09:57:30.000Z</time>
      </trkpt>
      <trkpt lat="47.26522" lon="-2.27876">
        <ele>33.599998474121</ele>
        <time>2021-12-09T09:57:37.000Z</time>
      </trkpt>
      <trkpt lat="47.26554" lon="-2.27877">
        <ele>33.599998474121</ele>
        <time>2021-12-09T09:57:42.000Z</time>
      </trkpt>
      <trkpt lat="47.26594" lon="-2.27876">
        <ele>33.599998474121</ele>
        <time>2021-12-09T09:57:48.000Z</time>
      </trkpt>
      <trkpt lat="47.26621" lon="-2.27866">
        <ele>33.200000762939</ele>
        <time>2021-12-09T09:57:52.000Z</time>
      </trkpt>
      <trkpt lat="47.26627" lon="-2.27863">
        <ele>32.799999237061</ele>
        <time>2021-12-09T09:57:53.000Z</time>
      </trkpt>
      <trkpt lat="47.26634" lon="-2.27859">
        <ele>32.400001525879</ele>
        <time>2021-12-09T09:57:54.000Z</time>
      </trkpt>
      <trkpt lat="47.26641" lon="-2.27855">
        <ele>32</ele>
        <time>2021-12-09T09:57:55.000Z</time>
      </trkpt>
      <trkpt lat="47.26647" lon="-2.27851">
        <ele>31.60000038147</ele>
        <time>2021-12-09T09:57:56.000Z</time>
      </trkpt>
      <trkpt lat="47.26694" lon="-2.27826">
        <ele>31.60000038147</ele>
        <time>2021-12-09T09:58:03.000Z</time>
      </trkpt>
      <trkpt lat="47.26707" lon="-2.2782">
        <ele>31.200000762939</ele>
        <time>2021-12-09T09:58:05.000Z</time>
      </trkpt>
      <trkpt lat="47.26714" lon="-2.27818">
        <ele>30.799999237061</ele>
        <time>2021-12-09T09:58:06.000Z</time>
      </trkpt>
      <trkpt lat="47.26721" lon="-2.27815">
        <ele>30.39999961853</ele>
        <time>2021-12-09T09:58:07.000Z</time>
      </trkpt>
      <trkpt lat="47.26728" lon="-2.27814">
        <ele>30</ele>
        <time>2021-12-09T09:58:08.000Z</time>
      </trkpt>
      <trkpt lat="47.26735" lon="-2.27812">
        <ele>29.60000038147</ele>
        <time>2021-12-09T09:58:09.000Z</time>
      </trkpt>
      <trkpt lat="47.26742" lon="-2.27812">
        <ele>29.60000038147</ele>
        <time>2021-12-09T09:58:10.000Z</time>
      </trkpt>
      <trkpt lat="47.26774" lon="-2.27813">
        <ele>29.60000038147</ele>
        <time>2021-12-09T09:58:15.000Z</time>
      </trkpt>
      <trkpt lat="47.26797" lon="-2.27806">
        <ele>29.60000038147</ele>
        <time>2021-12-09T09:58:19.000Z</time>
      </trkpt>
      <trkpt lat="47.26832" lon="-2.27792">
        <ele>29.60000038147</ele>
        <time>2021-12-09T09:58:25.000Z</time>
      </trkpt>
      <trkpt lat="47.26843" lon="-2.27785">
        <ele>29.60000038147</ele>
        <time>2021-12-09T09:58:27.000Z</time>
      </trkpt>
      <trkpt lat="47.26888" lon="-2.2776">
        <ele>29.60000038147</ele>
        <time>2021-12-09T09:58:35.000Z</time>
      </trkpt>
      <trkpt lat="47.26938" lon="-2.27741">
        <ele>29.60000038147</ele>
        <time>2021-12-09T09:58:43.000Z</time>
      </trkpt>
      <trkpt lat="47.26979" lon="-2.27728">
        <ele>29.60000038147</ele>
        <time>2021-12-09T09:58:50.000Z</time>
      </trkpt>
      <trkpt lat="47.27006" lon="-2.2772">
        <ele>29.60000038147</ele>
        <time>2021-12-09T09:58:55.000Z</time>
      </trkpt>
      <trkpt lat="47.27012" lon="-2.2772">
        <ele>29.60000038147</ele>
        <time>2021-12-09T09:58:56.000Z</time>
      </trkpt>
      <trkpt lat="47.27023" lon="-2.27721">
        <ele>29.60000038147</ele>
        <time>2021-12-09T09:58:58.000Z</time>
      </trkpt>
      <trkpt lat="47.27043" lon="-2.27729">
        <ele>29.60000038147</ele>
        <time>2021-12-09T09:59:02.000Z</time>
      </trkpt>
      <trkpt lat="47.27082" lon="-2.27745">
        <ele>29.60000038147</ele>
        <time>2021-12-09T09:59:10.000Z</time>
      </trkpt>
      <trkpt lat="47.271" lon="-2.27759">
        <ele>29.60000038147</ele>
        <time>2021-12-09T09:59:15.000Z</time>
      </trkpt>
      <trkpt lat="47.27103" lon="-2.27777">
        <ele>29.60000038147</ele>
        <time>2021-12-09T09:59:19.000Z</time>
      </trkpt>
      <trkpt lat="47.27108" lon="-2.27796">
        <ele>29.60000038147</ele>
        <time>2021-12-09T09:59:24.000Z</time>
      </trkpt>
      <trkpt lat="47.27114" lon="-2.27807">
        <ele>29.60000038147</ele>
        <time>2021-12-09T09:59:29.000Z</time>
      </trkpt>
      <trkpt lat="47.27113" lon="-2.27809">
        <ele>29.60000038147</ele>
        <time>2021-12-09T09:59:31.000Z</time>
      </trkpt>
      <trkpt lat="47.2711" lon="-2.27811">
        <ele>29.60000038147</ele>
        <time>2021-12-09T09:59:34.000Z</time>
      </trkpt>
      <trkpt lat="47.27109" lon="-2.2781">
        <ele>29.60000038147</ele>
        <time>2021-12-09T09:59:35.000Z</time>
      </trkpt>
      <trkpt lat="47.27107" lon="-2.27808">
        <ele>29.60000038147</ele>
        <time>2021-12-09T09:59:39.000Z</time>
      </trkpt>
      <trkpt lat="47.27106" lon="-2.2781">
        <ele>29.60000038147</ele>
        <time>2021-12-09T10:10:58.000Z</time>
      </trkpt>
      <trkpt lat="47.27112" lon="-2.2782">
        <ele>29.60000038147</ele>
        <time>2021-12-09T10:11:04.000Z</time>
      </trkpt>
      <trkpt lat="47.27109" lon="-2.2783">
        <ele>29.60000038147</ele>
        <time>2021-12-09T10:11:09.000Z</time>
      </trkpt>
      <trkpt lat="47.27103" lon="-2.27853">
        <ele>29.60000038147</ele>
        <time>2021-12-09T10:11:16.000Z</time>
      </trkpt>
      <trkpt lat="47.27099" lon="-2.2787">
        <ele>29.60000038147</ele>
        <time>2021-12-09T10:11:22.000Z</time>
      </trkpt>
      <trkpt lat="47.27099" lon="-2.27873">
        <ele>30</ele>
        <time>2021-12-09T10:11:23.000Z</time>
      </trkpt>
      <trkpt lat="47.27098" lon="-2.27876">
        <ele>30.39999961853</ele>
        <time>2021-12-09T10:11:24.000Z</time>
      </trkpt>
      <trkpt lat="47.27097" lon="-2.27879">
        <ele>30.799999237061</ele>
        <time>2021-12-09T10:11:25.000Z</time>
      </trkpt>
      <trkpt lat="47.27095" lon="-2.27882">
        <ele>31.200000762939</ele>
        <time>2021-12-09T10:11:26.000Z</time>
      </trkpt>
      <trkpt lat="47.27092" lon="-2.27885">
        <ele>31.60000038147</ele>
        <time>2021-12-09T10:11:27.000Z</time>
      </trkpt>
      <trkpt lat="47.27089" lon="-2.27887">
        <ele>31.60000038147</ele>
        <time>2021-12-09T10:11:28.000Z</time>
      </trkpt>
      <trkpt lat="47.27078" lon="-2.27901">
        <ele>31.60000038147</ele>
        <time>2021-12-09T10:11:33.000Z</time>
      </trkpt>
      <trkpt lat="47.27069" lon="-2.27923">
        <ele>32</ele>
        <time>2021-12-09T10:11:39.000Z</time>
      </trkpt>
      <trkpt lat="47.27068" lon="-2.27926">
        <ele>32.400001525879</ele>
        <time>2021-12-09T10:11:40.000Z</time>
      </trkpt>
      <trkpt lat="47.27068" lon="-2.2793">
        <ele>32.799999237061</ele>
        <time>2021-12-09T10:11:41.000Z</time>
      </trkpt>
      <trkpt lat="47.27067" lon="-2.27934">
        <ele>33.599998474121</ele>
        <time>2021-12-09T10:11:42.000Z</time>
      </trkpt>
      <trkpt lat="47.27068" lon="-2.27948">
        <ele>33.599998474121</ele>
        <time>2021-12-09T10:11:46.000Z</time>
      </trkpt>
      <trkpt lat="47.27075" lon="-2.2797">
        <ele>33.599998474121</ele>
        <time>2021-12-09T10:11:52.000Z</time>
      </trkpt>
      <trkpt lat="47.2709" lon="-2.27985">
        <ele>33.599998474121</ele>
        <time>2021-12-09T10:11:58.000Z</time>
      </trkpt>
      <trkpt lat="47.27109" lon="-2.27991">
        <ele>33.599998474121</ele>
        <time>2021-12-09T10:12:04.000Z</time>
      </trkpt>
      <trkpt lat="47.27117" lon="-2.2801">
        <ele>33.599998474121</ele>
        <time>2021-12-09T10:12:08.000Z</time>
      </trkpt>
      <trkpt lat="47.27123" lon="-2.28045">
        <ele>33.599998474121</ele>
        <time>2021-12-09T10:12:15.000Z</time>
      </trkpt>
      <trkpt lat="47.27128" lon="-2.28053">
        <ele>33.599998474121</ele>
        <time>2021-12-09T10:12:17.000Z</time>
      </trkpt>
      <trkpt lat="47.27131" lon="-2.28054">
        <ele>33.599998474121</ele>
        <time>2021-12-09T10:12:18.000Z</time>
      </trkpt>
      <trkpt lat="47.27146" lon="-2.28058">
        <ele>33.599998474121</ele>
        <time>2021-12-09T10:12:22.000Z</time>
      </trkpt>
      <trkpt lat="47.2715" lon="-2.28075">
        <ele>33.599998474121</ele>
        <time>2021-12-09T10:12:25.000Z</time>
      </trkpt>
      <trkpt lat="47.27151" lon="-2.28082">
        <ele>33.599998474121</ele>
        <time>2021-12-09T10:12:26.000Z</time>
      </trkpt>
      <trkpt lat="47.27154" lon="-2.28103">
        <ele>33.200000762939</ele>
        <time>2021-12-09T10:12:29.000Z</time>
      </trkpt>
      <trkpt lat="47.27155" lon="-2.2811">
        <ele>32.799999237061</ele>
        <time>2021-12-09T10:12:30.000Z</time>
      </trkpt>
      <trkpt lat="47.27156" lon="-2.28117">
        <ele>32.400001525879</ele>
        <time>2021-12-09T10:12:31.000Z</time>
      </trkpt>
      <trkpt lat="47.27157" lon="-2.28124">
        <ele>32</ele>
        <time>2021-12-09T10:12:32.000Z</time>
      </trkpt>
      <trkpt lat="47.27158" lon="-2.2813">
        <ele>31.60000038147</ele>
        <time>2021-12-09T10:12:33.000Z</time>
      </trkpt>
      <trkpt lat="47.27162" lon="-2.28146">
        <ele>31.200000762939</ele>
        <time>2021-12-09T10:12:37.000Z</time>
      </trkpt>
      <trkpt lat="47.27165" lon="-2.28147">
        <ele>30.799999237061</ele>
        <time>2021-12-09T10:12:38.000Z</time>
      </trkpt>
      <trkpt lat="47.27168" lon="-2.28145">
        <ele>30.39999961853</ele>
        <time>2021-12-09T10:12:39.000Z</time>
      </trkpt>
      <trkpt lat="47.27171" lon="-2.28142">
        <ele>30</ele>
        <time>2021-12-09T10:12:40.000Z</time>
      </trkpt>
      <trkpt lat="47.27173" lon="-2.28139">
        <ele>29.60000038147</ele>
        <time>2021-12-09T10:12:41.000Z</time>
      </trkpt>
      <trkpt lat="47.27176" lon="-2.28135">
        <ele>29.60000038147</ele>
        <time>2021-12-09T10:12:42.000Z</time>
      </trkpt>
      <trkpt lat="47.27184" lon="-2.28123">
        <ele>29.60000038147</ele>
        <time>2021-12-09T10:12:45.000Z</time>
      </trkpt>
      <trkpt lat="47.27188" lon="-2.28119">
        <ele>29.60000038147</ele>
        <time>2021-12-09T10:12:46.000Z</time>
      </trkpt>
      <trkpt lat="47.27205" lon="-2.28106">
        <ele>29.60000038147</ele>
        <time>2021-12-09T10:12:50.000Z</time>
      </trkpt>
      <trkpt lat="47.27239" lon="-2.28085">
        <ele>29.60000038147</ele>
        <time>2021-12-09T10:12:58.000Z</time>
      </trkpt>
      <trkpt lat="47.27243" lon="-2.28083">
        <ele>29.200000762939</ele>
        <time>2021-12-09T10:12:59.000Z</time>
      </trkpt>
      <trkpt lat="47.27247" lon="-2.2808">
        <ele>28.799999237061</ele>
        <time>2021-12-09T10:13:00.000Z</time>
      </trkpt>
      <trkpt lat="47.2725" lon="-2.28077">
        <ele>28.200000762939</ele>
        <time>2021-12-09T10:13:01.000Z</time>
      </trkpt>
      <trkpt lat="47.27254" lon="-2.28074">
        <ele>27.799999237061</ele>
        <time>2021-12-09T10:13:02.000Z</time>
      </trkpt>
      <trkpt lat="47.27258" lon="-2.28071">
        <ele>27.39999961853</ele>
        <time>2021-12-09T10:13:03.000Z</time>
      </trkpt>
      <trkpt lat="47.27261" lon="-2.28068">
        <ele>27.39999961853</ele>
        <time>2021-12-09T10:13:04.000Z</time>
      </trkpt>
      <trkpt lat="47.27276" lon="-2.28058">
        <ele>27.39999961853</ele>
        <time>2021-12-09T10:13:08.000Z</time>
      </trkpt>
      <trkpt lat="47.27288" lon="-2.28053">
        <ele>27.39999961853</ele>
        <time>2021-12-09T10:13:11.000Z</time>
      </trkpt>
      <trkpt lat="47.27319" lon="-2.28047">
        <ele>27.39999961853</ele>
        <time>2021-12-09T10:13:18.000Z</time>
      </trkpt>
      <trkpt lat="47.27346" lon="-2.28049">
        <ele>27.39999961853</ele>
        <time>2021-12-09T10:13:25.000Z</time>
      </trkpt>
      <trkpt lat="47.27349" lon="-2.28051">
        <ele>27.39999961853</ele>
        <time>2021-12-09T10:13:28.000Z</time>
      </trkpt>
      <trkpt lat="47.27351" lon="-2.28052">
        <ele>27.39999961853</ele>
        <time>2021-12-09T10:13:32.000Z</time>
      </trkpt>
      <trkpt lat="47.27353" lon="-2.28053">
        <ele>27.39999961853</ele>
        <time>2021-12-09T10:13:34.000Z</time>
      </trkpt>
      <trkpt lat="47.27355" lon="-2.28054">
        <ele>27.39999961853</ele>
        <time>2021-12-09T10:13:42.000Z</time>
      </trkpt>
      <trkpt lat="47.27357" lon="-2.28056">
        <ele>27.39999961853</ele>
        <time>2021-12-09T10:13:43.000Z</time>
      </trkpt>
      <trkpt lat="47.27366" lon="-2.28076">
        <ele>26.60000038147</ele>
        <time>2021-12-09T10:13:47.000Z</time>
      </trkpt>
      <trkpt lat="47.27369" lon="-2.28082">
        <ele>26.200000762939</ele>
        <time>2021-12-09T10:13:48.000Z</time>
      </trkpt>
      <trkpt lat="47.27373" lon="-2.28087">
        <ele>25.799999237061</ele>
        <time>2021-12-09T10:13:49.000Z</time>
      </trkpt>
      <trkpt lat="47.27378" lon="-2.28094">
        <ele>25.39999961853</ele>
        <time>2021-12-09T10:13:50.000Z</time>
      </trkpt>
      <trkpt lat="47.27387" lon="-2.28105">
        <ele>25.39999961853</ele>
        <time>2021-12-09T10:13:52.000Z</time>
      </trkpt>
      <trkpt lat="47.27423" lon="-2.28147">
        <ele>25.39999961853</ele>
        <time>2021-12-09T10:13:59.000Z</time>
      </trkpt>
      <trkpt lat="47.27435" lon="-2.28158">
        <ele>25.39999961853</ele>
        <time>2021-12-09T10:14:01.000Z</time>
      </trkpt>
      <trkpt lat="47.27448" lon="-2.28162">
        <ele>25.39999961853</ele>
        <time>2021-12-09T10:14:03.000Z</time>
      </trkpt>
      <trkpt lat="47.27467" lon="-2.28157">
        <ele>25.39999961853</ele>
        <time>2021-12-09T10:14:06.000Z</time>
      </trkpt>
      <trkpt lat="47.27473" lon="-2.28154">
        <ele>25.39999961853</ele>
        <time>2021-12-09T10:14:07.000Z</time>
      </trkpt>
      <trkpt lat="47.27509" lon="-2.28142">
        <ele>25.39999961853</ele>
        <time>2021-12-09T10:14:13.000Z</time>
      </trkpt>
      <trkpt lat="47.2754" lon="-2.28129">
        <ele>25.39999961853</ele>
        <time>2021-12-09T10:14:18.000Z</time>
      </trkpt>
      <trkpt lat="47.27586" lon="-2.28114">
        <ele>25.39999961853</ele>
        <time>2021-12-09T10:14:25.000Z</time>
      </trkpt>
      <trkpt lat="47.27616" lon="-2.28096">
        <ele>25.39999961853</ele>
        <time>2021-12-09T10:14:30.000Z</time>
      </trkpt>
      <trkpt lat="47.27637" lon="-2.28075">
        <ele>25.39999961853</ele>
        <time>2021-12-09T10:14:34.000Z</time>
      </trkpt>
      <trkpt lat="47.27641" lon="-2.28068">
        <ele>25.39999961853</ele>
        <time>2021-12-09T10:14:35.000Z</time>
      </trkpt>
      <trkpt lat="47.27668" lon="-2.28027">
        <ele>25.39999961853</ele>
        <time>2021-12-09T10:14:41.000Z</time>
      </trkpt>
      <trkpt lat="47.27677" lon="-2.28013">
        <ele>25</ele>
        <time>2021-12-09T10:14:43.000Z</time>
      </trkpt>
      <trkpt lat="47.27682" lon="-2.28006">
        <ele>24.60000038147</ele>
        <time>2021-12-09T10:14:44.000Z</time>
      </trkpt>
      <trkpt lat="47.27687" lon="-2.28">
        <ele>24.200000762939</ele>
        <time>2021-12-09T10:14:45.000Z</time>
      </trkpt>
      <trkpt lat="47.27691" lon="-2.27993">
        <ele>23.799999237061</ele>
        <time>2021-12-09T10:14:46.000Z</time>
      </trkpt>
      <trkpt lat="47.27696" lon="-2.27986">
        <ele>23.39999961853</ele>
        <time>2021-12-09T10:14:47.000Z</time>
      </trkpt>
      <trkpt lat="47.27705" lon="-2.27975">
        <ele>23.39999961853</ele>
        <time>2021-12-09T10:14:49.000Z</time>
      </trkpt>
      <trkpt lat="47.27719" lon="-2.2796">
        <ele>23.39999961853</ele>
        <time>2021-12-09T10:14:52.000Z</time>
      </trkpt>
      <trkpt lat="47.27729" lon="-2.27952">
        <ele>23.39999961853</ele>
        <time>2021-12-09T10:14:54.000Z</time>
      </trkpt>
      <trkpt lat="47.2776" lon="-2.27927">
        <ele>23.39999961853</ele>
        <time>2021-12-09T10:15:00.000Z</time>
      </trkpt>
      <trkpt lat="47.27776" lon="-2.27904">
        <ele>23.39999961853</ele>
        <time>2021-12-09T10:15:04.000Z</time>
      </trkpt>
      <trkpt lat="47.27779" lon="-2.27898">
        <ele>23.39999961853</ele>
        <time>2021-12-09T10:15:05.000Z</time>
      </trkpt>
      <trkpt lat="47.27785" lon="-2.27884">
        <ele>23.39999961853</ele>
        <time>2021-12-09T10:15:07.000Z</time>
      </trkpt>
      <trkpt lat="47.27799" lon="-2.27856">
        <ele>23.39999961853</ele>
        <time>2021-12-09T10:15:11.000Z</time>
      </trkpt>
      <trkpt lat="47.27821" lon="-2.27811">
        <ele>23.39999961853</ele>
        <time>2021-12-09T10:15:17.000Z</time>
      </trkpt>
      <trkpt lat="47.27851" lon="-2.27749">
        <ele>23.39999961853</ele>
        <time>2021-12-09T10:15:25.000Z</time>
      </trkpt>
      <trkpt lat="47.27883" lon="-2.27683">
        <ele>23.39999961853</ele>
        <time>2021-12-09T10:15:33.000Z</time>
      </trkpt>
      <trkpt lat="47.27886" lon="-2.27674">
        <ele>23.39999961853</ele>
        <time>2021-12-09T10:15:34.000Z</time>
      </trkpt>
      <trkpt lat="47.27905" lon="-2.27609">
        <ele>23.39999961853</ele>
        <time>2021-12-09T10:15:41.000Z</time>
      </trkpt>
      <trkpt lat="47.27914" lon="-2.27583">
        <ele>23.39999961853</ele>
        <time>2021-12-09T10:15:44.000Z</time>
      </trkpt>
      <trkpt lat="47.27923" lon="-2.2757">
        <ele>23.39999961853</ele>
        <time>2021-12-09T10:15:46.000Z</time>
      </trkpt>
      <trkpt lat="47.27939" lon="-2.2756">
        <ele>23.39999961853</ele>
        <time>2021-12-09T10:15:49.000Z</time>
      </trkpt>
      <trkpt lat="47.27943" lon="-2.27558">
        <ele>23.39999961853</ele>
        <time>2021-12-09T10:15:50.000Z</time>
      </trkpt>
      <trkpt lat="47.27948" lon="-2.27556">
        <ele>23.39999961853</ele>
        <time>2021-12-09T10:15:51.000Z</time>
      </trkpt>
      <trkpt lat="47.27959" lon="-2.27553">
        <ele>23.39999961853</ele>
        <time>2021-12-09T10:15:54.000Z</time>
      </trkpt>
      <trkpt lat="47.27967" lon="-2.27552">
        <ele>23.39999961853</ele>
        <time>2021-12-09T10:15:56.000Z</time>
      </trkpt>
      <trkpt lat="47.27982" lon="-2.27553">
        <ele>23.39999961853</ele>
        <time>2021-12-09T10:15:59.000Z</time>
      </trkpt>
      <trkpt lat="47.2802" lon="-2.27554">
        <ele>23.39999961853</ele>
        <time>2021-12-09T10:16:07.000Z</time>
      </trkpt>
      <trkpt lat="47.28029" lon="-2.27554">
        <ele>23.799999237061</ele>
        <time>2021-12-09T10:16:09.000Z</time>
      </trkpt>
      <trkpt lat="47.28034" lon="-2.27554">
        <ele>24.200000762939</ele>
        <time>2021-12-09T10:16:10.000Z</time>
      </trkpt>
      <trkpt lat="47.28038" lon="-2.27553">
        <ele>24.60000038147</ele>
        <time>2021-12-09T10:16:11.000Z</time>
      </trkpt>
      <trkpt lat="47.28043" lon="-2.27551">
        <ele>25</ele>
        <time>2021-12-09T10:16:12.000Z</time>
      </trkpt>
      <trkpt lat="47.28047" lon="-2.27549">
        <ele>25.39999961853</ele>
        <time>2021-12-09T10:16:13.000Z</time>
      </trkpt>
      <trkpt lat="47.28059" lon="-2.27541">
        <ele>25.39999961853</ele>
        <time>2021-12-09T10:16:16.000Z</time>
      </trkpt>
      <trkpt lat="47.28065" lon="-2.27532">
        <ele>25.39999961853</ele>
        <time>2021-12-09T10:16:18.000Z</time>
      </trkpt>
      <trkpt lat="47.28067" lon="-2.27528">
        <ele>25.799999237061</ele>
        <time>2021-12-09T10:16:19.000Z</time>
      </trkpt>
      <trkpt lat="47.2807" lon="-2.27523">
        <ele>26.200000762939</ele>
        <time>2021-12-09T10:16:20.000Z</time>
      </trkpt>
      <trkpt lat="47.28072" lon="-2.27518">
        <ele>26.60000038147</ele>
        <time>2021-12-09T10:16:21.000Z</time>
      </trkpt>
      <trkpt lat="47.28075" lon="-2.27513">
        <ele>27</ele>
        <time>2021-12-09T10:16:22.000Z</time>
      </trkpt>
      <trkpt lat="47.28077" lon="-2.27508">
        <ele>27.60000038147</ele>
        <time>2021-12-09T10:16:23.000Z</time>
      </trkpt>
      <trkpt lat="47.2808" lon="-2.27499">
        <ele>27.60000038147</ele>
        <time>2021-12-09T10:16:25.000Z</time>
      </trkpt>
      <trkpt lat="47.28084" lon="-2.2749">
        <ele>28</ele>
        <time>2021-12-09T10:16:27.000Z</time>
      </trkpt>
      <trkpt lat="47.28086" lon="-2.27485">
        <ele>28.39999961853</ele>
        <time>2021-12-09T10:16:28.000Z</time>
      </trkpt>
      <trkpt lat="47.28088" lon="-2.27481">
        <ele>28.799999237061</ele>
        <time>2021-12-09T10:16:29.000Z</time>
      </trkpt>
      <trkpt lat="47.28089" lon="-2.27476">
        <ele>29.200000762939</ele>
        <time>2021-12-09T10:16:30.000Z</time>
      </trkpt>
      <trkpt lat="47.2809" lon="-2.27471">
        <ele>29.60000038147</ele>
        <time>2021-12-09T10:16:31.000Z</time>
      </trkpt>
      <trkpt lat="47.281" lon="-2.27447">
        <ele>29.60000038147</ele>
        <time>2021-12-09T10:16:36.000Z</time>
      </trkpt>
      <trkpt lat="47.28101" lon="-2.27443">
        <ele>30</ele>
        <time>2021-12-09T10:16:37.000Z</time>
      </trkpt>
      <trkpt lat="47.28103" lon="-2.27439">
        <ele>30.39999961853</ele>
        <time>2021-12-09T10:16:38.000Z</time>
      </trkpt>
      <trkpt lat="47.28105" lon="-2.27435">
        <ele>30.799999237061</ele>
        <time>2021-12-09T10:16:39.000Z</time>
      </trkpt>
      <trkpt lat="47.28106" lon="-2.2743">
        <ele>31.799999237061</ele>
        <time>2021-12-09T10:16:40.000Z</time>
      </trkpt>
      <trkpt lat="47.28109" lon="-2.27422">
        <ele>31.799999237061</ele>
        <time>2021-12-09T10:16:42.000Z</time>
      </trkpt>
      <trkpt lat="47.28123" lon="-2.2739">
        <ele>31.799999237061</ele>
        <time>2021-12-09T10:16:49.000Z</time>
      </trkpt>
      <trkpt lat="47.28132" lon="-2.27377">
        <ele>32.200000762939</ele>
        <time>2021-12-09T10:16:52.000Z</time>
      </trkpt>
      <trkpt lat="47.28135" lon="-2.27375">
        <ele>32.599998474121</ele>
        <time>2021-12-09T10:16:53.000Z</time>
      </trkpt>
      <trkpt lat="47.28137" lon="-2.27373">
        <ele>33</ele>
        <time>2021-12-09T10:16:54.000Z</time>
      </trkpt>
      <trkpt lat="47.28141" lon="-2.27371">
        <ele>33.400001525879</ele>
        <time>2021-12-09T10:16:55.000Z</time>
      </trkpt>
      <trkpt lat="47.28144" lon="-2.2737">
        <ele>33.799999237061</ele>
        <time>2021-12-09T10:16:56.000Z</time>
      </trkpt>
      <trkpt lat="47.28161" lon="-2.27368">
        <ele>33.799999237061</ele>
        <time>2021-12-09T10:17:00.000Z</time>
      </trkpt>
      <trkpt lat="47.28189" lon="-2.27363">
        <ele>33.799999237061</ele>
        <time>2021-12-09T10:17:06.000Z</time>
      </trkpt>
      <trkpt lat="47.28235" lon="-2.27354">
        <ele>33.799999237061</ele>
        <time>2021-12-09T10:17:15.000Z</time>
      </trkpt>
      <trkpt lat="47.28271" lon="-2.27349">
        <ele>33.799999237061</ele>
        <time>2021-12-09T10:17:21.000Z</time>
      </trkpt>
      <trkpt lat="47.28278" lon="-2.27349">
        <ele>33.400001525879</ele>
        <time>2021-12-09T10:17:22.000Z</time>
      </trkpt>
      <trkpt lat="47.28285" lon="-2.27349">
        <ele>33</ele>
        <time>2021-12-09T10:17:23.000Z</time>
      </trkpt>
      <trkpt lat="47.28293" lon="-2.27349">
        <ele>32.599998474121</ele>
        <time>2021-12-09T10:17:24.000Z</time>
      </trkpt>
      <trkpt lat="47.283" lon="-2.27349">
        <ele>32.200000762939</ele>
        <time>2021-12-09T10:17:25.000Z</time>
      </trkpt>
      <trkpt lat="47.28308" lon="-2.27349">
        <ele>31.799999237061</ele>
        <time>2021-12-09T10:17:26.000Z</time>
      </trkpt>
      <trkpt lat="47.28315" lon="-2.27349">
        <ele>31.799999237061</ele>
        <time>2021-12-09T10:17:27.000Z</time>
      </trkpt>
      <trkpt lat="47.28323" lon="-2.27349">
        <ele>31.200000762939</ele>
        <time>2021-12-09T10:17:28.000Z</time>
      </trkpt>
      <trkpt lat="47.28331" lon="-2.27348">
        <ele>30.39999961853</ele>
        <time>2021-12-09T10:17:29.000Z</time>
      </trkpt>
      <trkpt lat="47.28339" lon="-2.27347">
        <ele>30</ele>
        <time>2021-12-09T10:17:30.000Z</time>
      </trkpt>
      <trkpt lat="47.28347" lon="-2.27347">
        <ele>29.39999961853</ele>
        <time>2021-12-09T10:17:31.000Z</time>
      </trkpt>
      <trkpt lat="47.28354" lon="-2.27347">
        <ele>29</ele>
        <time>2021-12-09T10:17:32.000Z</time>
      </trkpt>
      <trkpt lat="47.28361" lon="-2.27347">
        <ele>28.39999961853</ele>
        <time>2021-12-09T10:17:33.000Z</time>
      </trkpt>
      <trkpt lat="47.28367" lon="-2.27348">
        <ele>27.60000038147</ele>
        <time>2021-12-09T10:17:34.000Z</time>
      </trkpt>
      <trkpt lat="47.28372" lon="-2.27349">
        <ele>27</ele>
        <time>2021-12-09T10:17:35.000Z</time>
      </trkpt>
      <trkpt lat="47.28377" lon="-2.27349">
        <ele>26.200000762939</ele>
        <time>2021-12-09T10:17:36.000Z</time>
      </trkpt>
      <trkpt lat="47.2838" lon="-2.27351">
        <ele>25.39999961853</ele>
        <time>2021-12-09T10:17:37.000Z</time>
      </trkpt>
      <trkpt lat="47.28383" lon="-2.27354">
        <ele>24.799999237061</ele>
        <time>2021-12-09T10:17:38.000Z</time>
      </trkpt>
      <trkpt lat="47.28385" lon="-2.27358">
        <ele>24.200000762939</ele>
        <time>2021-12-09T10:17:39.000Z</time>
      </trkpt>
      <trkpt lat="47.28386" lon="-2.27362">
        <ele>23.60000038147</ele>
        <time>2021-12-09T10:17:40.000Z</time>
      </trkpt>
      <trkpt lat="47.28386" lon="-2.27366">
        <ele>23</ele>
        <time>2021-12-09T10:17:41.000Z</time>
      </trkpt>
      <trkpt lat="47.28385" lon="-2.27368">
        <ele>22.39999961853</ele>
        <time>2021-12-09T10:17:42.000Z</time>
      </trkpt>
      <trkpt lat="47.28384" lon="-2.2737">
        <ele>22.39999961853</ele>
        <time>2021-12-09T10:17:43.000Z</time>
      </trkpt>
      <trkpt lat="47.28381" lon="-2.27387">
        <ele>22.39999961853</ele>
        <time>2021-12-09T10:17:47.000Z</time>
      </trkpt>
      <trkpt lat="47.2838" lon="-2.27392">
        <ele>22.39999961853</ele>
        <time>2021-12-09T10:17:48.000Z</time>
      </trkpt>
      <trkpt lat="47.28376" lon="-2.27414">
        <ele>22.799999237061</ele>
        <time>2021-12-09T10:17:53.000Z</time>
      </trkpt>
      <trkpt lat="47.28375" lon="-2.2742">
        <ele>23.799999237061</ele>
        <time>2021-12-09T10:17:54.000Z</time>
      </trkpt>
      <trkpt lat="47.28374" lon="-2.27425">
        <ele>24.200000762939</ele>
        <time>2021-12-09T10:17:55.000Z</time>
      </trkpt>
      <trkpt lat="47.28373" lon="-2.2743">
        <ele>24.60000038147</ele>
        <time>2021-12-09T10:17:56.000Z</time>
      </trkpt>
      <trkpt lat="47.28368" lon="-2.27461">
        <ele>24.60000038147</ele>
        <time>2021-12-09T10:18:01.000Z</time>
      </trkpt>
      <trkpt lat="47.28365" lon="-2.27479">
        <ele>25</ele>
        <time>2021-12-09T10:18:04.000Z</time>
      </trkpt>
      <trkpt lat="47.28365" lon="-2.27485">
        <ele>25.39999961853</ele>
        <time>2021-12-09T10:18:05.000Z</time>
      </trkpt>
      <trkpt lat="47.28363" lon="-2.27491">
        <ele>26</ele>
        <time>2021-12-09T10:18:06.000Z</time>
      </trkpt>
      <trkpt lat="47.28362" lon="-2.27497">
        <ele>26.39999961853</ele>
        <time>2021-12-09T10:18:07.000Z</time>
      </trkpt>
      <trkpt lat="47.28362" lon="-2.27503">
        <ele>26.799999237061</ele>
        <time>2021-12-09T10:18:08.000Z</time>
      </trkpt>
      <trkpt lat="47.28358" lon="-2.2754">
        <ele>26.799999237061</ele>
        <time>2021-12-09T10:18:14.000Z</time>
      </trkpt>
      <trkpt lat="47.28355" lon="-2.27559">
        <ele>26.799999237061</ele>
        <time>2021-12-09T10:18:17.000Z</time>
      </trkpt>
      <trkpt lat="47.28351" lon="-2.27582">
        <ele>26.799999237061</ele>
        <time>2021-12-09T10:18:21.000Z</time>
      </trkpt>
      <trkpt lat="47.28351" lon="-2.27608">
        <ele>26.799999237061</ele>
        <time>2021-12-09T10:18:26.000Z</time>
      </trkpt>
      <trkpt lat="47.28348" lon="-2.27653">
        <ele>26.799999237061</ele>
        <time>2021-12-09T10:18:34.000Z</time>
      </trkpt>
      <trkpt lat="47.28345" lon="-2.27671">
        <ele>26.799999237061</ele>
        <time>2021-12-09T10:18:37.000Z</time>
      </trkpt>
      <trkpt lat="47.28341" lon="-2.27696">
        <ele>26.799999237061</ele>
        <time>2021-12-09T10:18:41.000Z</time>
      </trkpt>
      <trkpt lat="47.28341" lon="-2.27708">
        <ele>25.799999237061</ele>
        <time>2021-12-09T10:18:43.000Z</time>
      </trkpt>
      <trkpt lat="47.28341" lon="-2.27715">
        <ele>25.39999961853</ele>
        <time>2021-12-09T10:18:44.000Z</time>
      </trkpt>
      <trkpt lat="47.2834" lon="-2.27722">
        <ele>25</ele>
        <time>2021-12-09T10:18:45.000Z</time>
      </trkpt>
      <trkpt lat="47.2834" lon="-2.27728">
        <ele>24.60000038147</ele>
        <time>2021-12-09T10:18:46.000Z</time>
      </trkpt>
      <trkpt lat="47.28339" lon="-2.27735">
        <ele>24.60000038147</ele>
        <time>2021-12-09T10:18:47.000Z</time>
      </trkpt>
      <trkpt lat="47.28338" lon="-2.27753">
        <ele>24.60000038147</ele>
        <time>2021-12-09T10:18:50.000Z</time>
      </trkpt>
      <trkpt lat="47.28337" lon="-2.27765">
        <ele>24.60000038147</ele>
        <time>2021-12-09T10:18:52.000Z</time>
      </trkpt>
      <trkpt lat="47.28334" lon="-2.27801">
        <ele>24.60000038147</ele>
        <time>2021-12-09T10:18:58.000Z</time>
      </trkpt>
      <trkpt lat="47.2833" lon="-2.27843">
        <ele>24.60000038147</ele>
        <time>2021-12-09T10:19:05.000Z</time>
      </trkpt>
      <trkpt lat="47.28327" lon="-2.27879">
        <ele>24.60000038147</ele>
        <time>2021-12-09T10:19:12.000Z</time>
      </trkpt>
      <trkpt lat="47.28324" lon="-2.2792">
        <ele>24.60000038147</ele>
        <time>2021-12-09T10:19:19.000Z</time>
      </trkpt>
      <trkpt lat="47.28324" lon="-2.27963">
        <ele>24.60000038147</ele>
        <time>2021-12-09T10:19:26.000Z</time>
      </trkpt>
      <trkpt lat="47.28321" lon="-2.27972">
        <ele>24.60000038147</ele>
        <time>2021-12-09T10:19:28.000Z</time>
      </trkpt>
      <trkpt lat="47.28317" lon="-2.27981">
        <ele>24.60000038147</ele>
        <time>2021-12-09T10:19:30.000Z</time>
      </trkpt>
      <trkpt lat="47.28319" lon="-2.28006">
        <ele>24.60000038147</ele>
        <time>2021-12-09T10:19:34.000Z</time>
      </trkpt>
      <trkpt lat="47.28321" lon="-2.28022">
        <ele>24</ele>
        <time>2021-12-09T10:19:36.000Z</time>
      </trkpt>
      <trkpt lat="47.28322" lon="-2.28031">
        <ele>23.60000038147</ele>
        <time>2021-12-09T10:19:37.000Z</time>
      </trkpt>
      <trkpt lat="47.28323" lon="-2.28041">
        <ele>23</ele>
        <time>2021-12-09T10:19:38.000Z</time>
      </trkpt>
      <trkpt lat="47.28323" lon="-2.2805">
        <ele>22.60000038147</ele>
        <time>2021-12-09T10:19:39.000Z</time>
      </trkpt>
      <trkpt lat="47.28324" lon="-2.28059">
        <ele>22</ele>
        <time>2021-12-09T10:19:40.000Z</time>
      </trkpt>
      <trkpt lat="47.28324" lon="-2.28066">
        <ele>21.39999961853</ele>
        <time>2021-12-09T10:19:41.000Z</time>
      </trkpt>
      <trkpt lat="47.28324" lon="-2.28072">
        <ele>21</ele>
        <time>2021-12-09T10:19:42.000Z</time>
      </trkpt>
      <trkpt lat="47.28325" lon="-2.28077">
        <ele>20.39999961853</ele>
        <time>2021-12-09T10:19:43.000Z</time>
      </trkpt>
      <trkpt lat="47.28325" lon="-2.28081">
        <ele>19.799999237061</ele>
        <time>2021-12-09T10:19:45.000Z</time>
      </trkpt>
      <trkpt lat="47.28326" lon="-2.28084">
        <ele>19.39999961853</ele>
        <time>2021-12-09T10:19:46.000Z</time>
      </trkpt>
      <trkpt lat="47.28328" lon="-2.28087">
        <ele>19</ele>
        <time>2021-12-09T10:19:47.000Z</time>
      </trkpt>
      <trkpt lat="47.28329" lon="-2.28088">
        <ele>18.60000038147</ele>
        <time>2021-12-09T10:19:48.000Z</time>
      </trkpt>
      <trkpt lat="47.28331" lon="-2.28089">
        <ele>18.200000762939</ele>
        <time>2021-12-09T10:19:49.000Z</time>
      </trkpt>
      <trkpt lat="47.28332" lon="-2.28089">
        <ele>17.799999237061</ele>
        <time>2021-12-09T10:19:50.000Z</time>
      </trkpt>
      <trkpt lat="47.28346" lon="-2.28086">
        <ele>17.799999237061</ele>
        <time>2021-12-09T10:19:58.000Z</time>
      </trkpt>
      <trkpt lat="47.28355" lon="-2.2808">
        <ele>17.799999237061</ele>
        <time>2021-12-09T10:20:02.000Z</time>
      </trkpt>
      <trkpt lat="47.28356" lon="-2.28078">
        <ele>17.799999237061</ele>
        <time>2021-12-09T10:20:03.000Z</time>
      </trkpt>
      <trkpt lat="47.28361" lon="-2.28074">
        <ele>17.799999237061</ele>
        <time>2021-12-09T10:20:06.000Z</time>
      </trkpt>
      <trkpt lat="47.28362" lon="-2.28074">
        <ele>17.799999237061</ele>
        <time>2021-12-09T10:20:07.000Z</time>
      </trkpt>
      <trkpt lat="47.28372" lon="-2.28075">
        <ele>17.799999237061</ele>
        <time>2021-12-09T10:20:13.000Z</time>
      </trkpt>
      <trkpt lat="47.28385" lon="-2.28076">
        <ele>17.799999237061</ele>
        <time>2021-12-09T10:20:18.000Z</time>
      </trkpt>
      <trkpt lat="47.284" lon="-2.28081">
        <ele>17.799999237061</ele>
        <time>2021-12-09T10:20:24.000Z</time>
      </trkpt>
      <trkpt lat="47.2841" lon="-2.28084">
        <ele>17.799999237061</ele>
        <time>2021-12-09T10:20:28.000Z</time>
      </trkpt>
      <trkpt lat="47.28412" lon="-2.28082">
        <ele>17.799999237061</ele>
        <time>2021-12-09T10:20:29.000Z</time>
      </trkpt>
      <trkpt lat="47.28417" lon="-2.28082">
        <ele>17.799999237061</ele>
        <time>2021-12-09T10:20:32.000Z</time>
      </trkpt>
      <trkpt lat="47.2842" lon="-2.28083">
        <ele>17.799999237061</ele>
        <time>2021-12-09T10:20:33.000Z</time>
      </trkpt>
      <trkpt lat="47.28422" lon="-2.28083">
        <ele>17.799999237061</ele>
        <time>2021-12-09T10:20:34.000Z</time>
      </trkpt>
      <trkpt lat="47.28428" lon="-2.2808">
        <ele>18.200000762939</ele>
        <time>2021-12-09T10:20:37.000Z</time>
      </trkpt>
      <trkpt lat="47.2843" lon="-2.2808">
        <ele>18.60000038147</ele>
        <time>2021-12-09T10:20:38.000Z</time>
      </trkpt>
      <trkpt lat="47.28432" lon="-2.28081">
        <ele>19</ele>
        <time>2021-12-09T10:20:39.000Z</time>
      </trkpt>
      <trkpt lat="47.28434" lon="-2.28082">
        <ele>19.39999961853</ele>
        <time>2021-12-09T10:20:40.000Z</time>
      </trkpt>
      <trkpt lat="47.28437" lon="-2.28083">
        <ele>19.799999237061</ele>
        <time>2021-12-09T10:20:41.000Z</time>
      </trkpt>
      <trkpt lat="47.2846" lon="-2.28094">
        <ele>19.799999237061</ele>
        <time>2021-12-09T10:20:47.000Z</time>
      </trkpt>
      <trkpt lat="47.28469" lon="-2.28094">
        <ele>19.799999237061</ele>
        <time>2021-12-09T10:20:50.000Z</time>
      </trkpt>
      <trkpt lat="47.28471" lon="-2.28092">
        <ele>19.799999237061</ele>
        <time>2021-12-09T10:20:51.000Z</time>
      </trkpt>
      <trkpt lat="47.28484" lon="-2.28082">
        <ele>19.799999237061</ele>
        <time>2021-12-09T10:20:56.000Z</time>
      </trkpt>
      <trkpt lat="47.28485" lon="-2.28072">
        <ele>19.799999237061</ele>
        <time>2021-12-09T10:21:00.000Z</time>
      </trkpt>
      <trkpt lat="47.28482" lon="-2.28063">
        <ele>20.200000762939</ele>
        <time>2021-12-09T10:21:04.000Z</time>
      </trkpt>
      <trkpt lat="47.28481" lon="-2.2806">
        <ele>20.799999237061</ele>
        <time>2021-12-09T10:21:05.000Z</time>
      </trkpt>
      <trkpt lat="47.2848" lon="-2.28057">
        <ele>21.200000762939</ele>
        <time>2021-12-09T10:21:06.000Z</time>
      </trkpt>
      <trkpt lat="47.28481" lon="-2.28053">
        <ele>21.60000038147</ele>
        <time>2021-12-09T10:21:07.000Z</time>
      </trkpt>
      <trkpt lat="47.28482" lon="-2.28049">
        <ele>22</ele>
        <time>2021-12-09T10:21:08.000Z</time>
      </trkpt>
      <trkpt lat="47.28483" lon="-2.28046">
        <ele>22</ele>
        <time>2021-12-09T10:21:09.000Z</time>
      </trkpt>
      <trkpt lat="47.28488" lon="-2.28041">
        <ele>22</ele>
        <time>2021-12-09T10:21:11.000Z</time>
      </trkpt>
      <trkpt lat="47.28495" lon="-2.28037">
        <ele>22</ele>
        <time>2021-12-09T10:21:14.000Z</time>
      </trkpt>
      <trkpt lat="47.28509" lon="-2.28046">
        <ele>22</ele>
        <time>2021-12-09T10:21:19.000Z</time>
      </trkpt>
      <trkpt lat="47.28521" lon="-2.28049">
        <ele>21.60000038147</ele>
        <time>2021-12-09T10:21:22.000Z</time>
      </trkpt>
      <trkpt lat="47.28525" lon="-2.28049">
        <ele>21.200000762939</ele>
        <time>2021-12-09T10:21:23.000Z</time>
      </trkpt>
      <trkpt lat="47.28529" lon="-2.2805">
        <ele>20.799999237061</ele>
        <time>2021-12-09T10:21:24.000Z</time>
      </trkpt>
      <trkpt lat="47.28532" lon="-2.2805">
        <ele>20.39999961853</ele>
        <time>2021-12-09T10:21:25.000Z</time>
      </trkpt>
      <trkpt lat="47.28534" lon="-2.2805">
        <ele>20</ele>
        <time>2021-12-09T10:21:26.000Z</time>
      </trkpt>
      <trkpt lat="47.28537" lon="-2.28049">
        <ele>19.39999961853</ele>
        <time>2021-12-09T10:21:27.000Z</time>
      </trkpt>
      <trkpt lat="47.28539" lon="-2.28048">
        <ele>19</ele>
        <time>2021-12-09T10:21:28.000Z</time>
      </trkpt>
      <trkpt lat="47.28542" lon="-2.2805">
        <ele>18.60000038147</ele>
        <time>2021-12-09T10:21:29.000Z</time>
      </trkpt>
      <trkpt lat="47.28545" lon="-2.28051">
        <ele>18</ele>
        <time>2021-12-09T10:21:30.000Z</time>
      </trkpt>
      <trkpt lat="47.28549" lon="-2.28053">
        <ele>17.60000038147</ele>
        <time>2021-12-09T10:21:31.000Z</time>
      </trkpt>
      <trkpt lat="47.28559" lon="-2.2805">
        <ele>17.200000762939</ele>
        <time>2021-12-09T10:21:34.000Z</time>
      </trkpt>
      <trkpt lat="47.28562" lon="-2.28049">
        <ele>16.799999237061</ele>
        <time>2021-12-09T10:21:35.000Z</time>
      </trkpt>
      <trkpt lat="47.28566" lon="-2.28048">
        <ele>16.39999961853</ele>
        <time>2021-12-09T10:21:36.000Z</time>
      </trkpt>
      <trkpt lat="47.28568" lon="-2.28047">
        <ele>15.60000038147</ele>
        <time>2021-12-09T10:21:37.000Z</time>
      </trkpt>
      <trkpt lat="47.28572" lon="-2.28043">
        <ele>15.60000038147</ele>
        <time>2021-12-09T10:21:39.000Z</time>
      </trkpt>
      <trkpt lat="47.2858" lon="-2.28033">
        <ele>15.60000038147</ele>
        <time>2021-12-09T10:21:42.000Z</time>
      </trkpt>
      <trkpt lat="47.28588" lon="-2.28023">
        <ele>15.60000038147</ele>
        <time>2021-12-09T10:21:45.000Z</time>
      </trkpt>
      <trkpt lat="47.28596" lon="-2.28013">
        <ele>15.60000038147</ele>
        <time>2021-12-09T10:21:47.000Z</time>
      </trkpt>
      <trkpt lat="47.28601" lon="-2.28003">
        <ele>15.60000038147</ele>
        <time>2021-12-09T10:21:49.000Z</time>
      </trkpt>
      <trkpt lat="47.28606" lon="-2.27984">
        <ele>15.60000038147</ele>
        <time>2021-12-09T10:21:52.000Z</time>
      </trkpt>
      <trkpt lat="47.2861" lon="-2.27964">
        <ele>15.60000038147</ele>
        <time>2021-12-09T10:21:55.000Z</time>
      </trkpt>
      <trkpt lat="47.28623" lon="-2.27938">
        <ele>15.60000038147</ele>
        <time>2021-12-09T10:22:00.000Z</time>
      </trkpt>
      <trkpt lat="47.28626" lon="-2.27916">
        <ele>15.60000038147</ele>
        <time>2021-12-09T10:22:03.000Z</time>
      </trkpt>
      <trkpt lat="47.28625" lon="-2.27909">
        <ele>15.60000038147</ele>
        <time>2021-12-09T10:22:04.000Z</time>
      </trkpt>
      <trkpt lat="47.28626" lon="-2.27902">
        <ele>15.60000038147</ele>
        <time>2021-12-09T10:22:05.000Z</time>
      </trkpt>
      <trkpt lat="47.28629" lon="-2.27886">
        <ele>15.60000038147</ele>
        <time>2021-12-09T10:22:07.000Z</time>
      </trkpt>
      <trkpt lat="47.28639" lon="-2.27832">
        <ele>15.60000038147</ele>
        <time>2021-12-09T10:22:13.000Z</time>
      </trkpt>
      <trkpt lat="47.28653" lon="-2.27777">
        <ele>15.60000038147</ele>
        <time>2021-12-09T10:22:19.000Z</time>
      </trkpt>
      <trkpt lat="47.28656" lon="-2.27768">
        <ele>15.199999809265</ele>
        <time>2021-12-09T10:22:20.000Z</time>
      </trkpt>
      <trkpt lat="47.28659" lon="-2.2776">
        <ele>14.800000190735</ele>
        <time>2021-12-09T10:22:21.000Z</time>
      </trkpt>
      <trkpt lat="47.28663" lon="-2.27751">
        <ele>14.39999961853</ele>
        <time>2021-12-09T10:22:22.000Z</time>
      </trkpt>
      <trkpt lat="47.28668" lon="-2.27742">
        <ele>14</ele>
        <time>2021-12-09T10:22:23.000Z</time>
      </trkpt>
      <trkpt lat="47.28671" lon="-2.27733">
        <ele>13.60000038147</ele>
        <time>2021-12-09T10:22:24.000Z</time>
      </trkpt>
      <trkpt lat="47.28692" lon="-2.27698">
        <ele>13.60000038147</ele>
        <time>2021-12-09T10:22:29.000Z</time>
      </trkpt>
      <trkpt lat="47.2872" lon="-2.27652">
        <ele>13.60000038147</ele>
        <time>2021-12-09T10:22:36.000Z</time>
      </trkpt>
      <trkpt lat="47.28749" lon="-2.27609">
        <ele>13.60000038147</ele>
        <time>2021-12-09T10:22:43.000Z</time>
      </trkpt>
      <trkpt lat="47.28775" lon="-2.27575">
        <ele>13.60000038147</ele>
        <time>2021-12-09T10:22:49.000Z</time>
      </trkpt>
      <trkpt lat="47.28787" lon="-2.27557">
        <ele>13.60000038147</ele>
        <time>2021-12-09T10:22:52.000Z</time>
      </trkpt>
      <trkpt lat="47.28796" lon="-2.27545">
        <ele>13.60000038147</ele>
        <time>2021-12-09T10:22:54.000Z</time>
      </trkpt>
      <trkpt lat="47.28818" lon="-2.27535">
        <ele>13.60000038147</ele>
        <time>2021-12-09T10:22:58.000Z</time>
      </trkpt>
      <trkpt lat="47.28825" lon="-2.27534">
        <ele>13.60000038147</ele>
        <time>2021-12-09T10:22:59.000Z</time>
      </trkpt>
      <trkpt lat="47.28865" lon="-2.27528">
        <ele>13.199999809265</ele>
        <time>2021-12-09T10:23:05.000Z</time>
      </trkpt>
      <trkpt lat="47.28871" lon="-2.27526">
        <ele>12.800000190735</ele>
        <time>2021-12-09T10:23:06.000Z</time>
      </trkpt>
      <trkpt lat="47.28877" lon="-2.27525">
        <ele>12.199999809265</ele>
        <time>2021-12-09T10:23:07.000Z</time>
      </trkpt>
      <trkpt lat="47.28884" lon="-2.27523">
        <ele>11.800000190735</ele>
        <time>2021-12-09T10:23:08.000Z</time>
      </trkpt>
      <trkpt lat="47.2889" lon="-2.27522">
        <ele>11.39999961853</ele>
        <time>2021-12-09T10:23:09.000Z</time>
      </trkpt>
      <trkpt lat="47.28896" lon="-2.27521">
        <ele>11.39999961853</ele>
        <time>2021-12-09T10:23:10.000Z</time>
      </trkpt>
      <trkpt lat="47.28936" lon="-2.27517">
        <ele>11.39999961853</ele>
        <time>2021-12-09T10:23:16.000Z</time>
      </trkpt>
      <trkpt lat="47.28981" lon="-2.27517">
        <ele>11.39999961853</ele>
        <time>2021-12-09T10:23:22.000Z</time>
      </trkpt>
      <trkpt lat="47.29033" lon="-2.27518">
        <ele>11.39999961853</ele>
        <time>2021-12-09T10:23:29.000Z</time>
      </trkpt>
      <trkpt lat="47.29088" lon="-2.27524">
        <ele>11.39999961853</ele>
        <time>2021-12-09T10:23:36.000Z</time>
      </trkpt>
      <trkpt lat="47.29141" lon="-2.27526">
        <ele>11.39999961853</ele>
        <time>2021-12-09T10:23:43.000Z</time>
      </trkpt>
      <trkpt lat="47.29191" lon="-2.27527">
        <ele>11.39999961853</ele>
        <time>2021-12-09T10:23:50.000Z</time>
      </trkpt>
      <trkpt lat="47.29241" lon="-2.27526">
        <ele>11.39999961853</ele>
        <time>2021-12-09T10:23:58.000Z</time>
      </trkpt>
      <trkpt lat="47.29273" lon="-2.27517">
        <ele>11.39999961853</ele>
        <time>2021-12-09T10:24:04.000Z</time>
      </trkpt>
      <trkpt lat="47.2929" lon="-2.27523">
        <ele>11.39999961853</ele>
        <time>2021-12-09T10:24:07.000Z</time>
      </trkpt>
      <trkpt lat="47.29295" lon="-2.27527">
        <ele>11.39999961853</ele>
        <time>2021-12-09T10:24:08.000Z</time>
      </trkpt>
      <trkpt lat="47.29307" lon="-2.27531">
        <ele>11.39999961853</ele>
        <time>2021-12-09T10:24:10.000Z</time>
      </trkpt>
      <trkpt lat="47.2932" lon="-2.27533">
        <ele>11.39999961853</ele>
        <time>2021-12-09T10:24:12.000Z</time>
      </trkpt>
      <trkpt lat="47.2934" lon="-2.27532">
        <ele>11.39999961853</ele>
        <time>2021-12-09T10:24:15.000Z</time>
      </trkpt>
      <trkpt lat="47.29352" lon="-2.27529">
        <ele>11.39999961853</ele>
        <time>2021-12-09T10:24:17.000Z</time>
      </trkpt>
      <trkpt lat="47.29395" lon="-2.27517">
        <ele>11.39999961853</ele>
        <time>2021-12-09T10:24:24.000Z</time>
      </trkpt>
      <trkpt lat="47.29401" lon="-2.27516">
        <ele>11.800000190735</ele>
        <time>2021-12-09T10:24:25.000Z</time>
      </trkpt>
      <trkpt lat="47.29408" lon="-2.27515">
        <ele>12.199999809265</ele>
        <time>2021-12-09T10:24:26.000Z</time>
      </trkpt>
      <trkpt lat="47.29414" lon="-2.27514">
        <ele>12.800000190735</ele>
        <time>2021-12-09T10:24:27.000Z</time>
      </trkpt>
      <trkpt lat="47.29421" lon="-2.27512">
        <ele>13.199999809265</ele>
        <time>2021-12-09T10:24:28.000Z</time>
      </trkpt>
      <trkpt lat="47.29427" lon="-2.27512">
        <ele>13.60000038147</ele>
        <time>2021-12-09T10:24:29.000Z</time>
      </trkpt>
      <trkpt lat="47.29433" lon="-2.27511">
        <ele>13.60000038147</ele>
        <time>2021-12-09T10:24:30.000Z</time>
      </trkpt>
      <trkpt lat="47.29452" lon="-2.27513">
        <ele>13.60000038147</ele>
        <time>2021-12-09T10:24:33.000Z</time>
      </trkpt>
      <trkpt lat="47.29465" lon="-2.27516">
        <ele>13.60000038147</ele>
        <time>2021-12-09T10:24:35.000Z</time>
      </trkpt>
      <trkpt lat="47.29498" lon="-2.27525">
        <ele>13.60000038147</ele>
        <time>2021-12-09T10:24:40.000Z</time>
      </trkpt>
      <trkpt lat="47.29546" lon="-2.27542">
        <ele>13.60000038147</ele>
        <time>2021-12-09T10:24:47.000Z</time>
      </trkpt>
      <trkpt lat="47.29567" lon="-2.27549">
        <ele>13.199999809265</ele>
        <time>2021-12-09T10:24:50.000Z</time>
      </trkpt>
      <trkpt lat="47.29574" lon="-2.27553">
        <ele>12.60000038147</ele>
        <time>2021-12-09T10:24:51.000Z</time>
      </trkpt>
      <trkpt lat="47.2958" lon="-2.27556">
        <ele>12.199999809265</ele>
        <time>2021-12-09T10:24:52.000Z</time>
      </trkpt>
      <trkpt lat="47.29587" lon="-2.2756">
        <ele>11.800000190735</ele>
        <time>2021-12-09T10:24:53.000Z</time>
      </trkpt>
      <trkpt lat="47.29594" lon="-2.27564">
        <ele>11.39999961853</ele>
        <time>2021-12-09T10:24:54.000Z</time>
      </trkpt>
      <trkpt lat="47.29633" lon="-2.27588">
        <ele>11.39999961853</ele>
        <time>2021-12-09T10:25:00.000Z</time>
      </trkpt>
      <trkpt lat="47.29641" lon="-2.27592">
        <ele>11</ele>
        <time>2021-12-09T10:25:01.000Z</time>
      </trkpt>
      <trkpt lat="47.29647" lon="-2.27596">
        <ele>10.60000038147</ele>
        <time>2021-12-09T10:25:02.000Z</time>
      </trkpt>
      <trkpt lat="47.29654" lon="-2.276">
        <ele>10</ele>
        <time>2021-12-09T10:25:03.000Z</time>
      </trkpt>
      <trkpt lat="47.29662" lon="-2.27604">
        <ele>9.6000003814697</ele>
        <time>2021-12-09T10:25:04.000Z</time>
      </trkpt>
      <trkpt lat="47.29669" lon="-2.27607">
        <ele>9.1999998092651</ele>
        <time>2021-12-09T10:25:05.000Z</time>
      </trkpt>
      <trkpt lat="47.29684" lon="-2.27611">
        <ele>9.1999998092651</ele>
        <time>2021-12-09T10:25:07.000Z</time>
      </trkpt>
      <trkpt lat="47.29715" lon="-2.27612">
        <ele>9.1999998092651</ele>
        <time>2021-12-09T10:25:11.000Z</time>
      </trkpt>
      <trkpt lat="47.29723" lon="-2.2761">
        <ele>9.1999998092651</ele>
        <time>2021-12-09T10:25:12.000Z</time>
      </trkpt>
      <trkpt lat="47.29774" lon="-2.27591">
        <ele>9.1999998092651</ele>
        <time>2021-12-09T10:25:18.000Z</time>
      </trkpt>
      <trkpt lat="47.29783" lon="-2.2759">
        <ele>9.1999998092651</ele>
        <time>2021-12-09T10:25:19.000Z</time>
      </trkpt>
      <trkpt lat="47.29808" lon="-2.27595">
        <ele>9.1999998092651</ele>
        <time>2021-12-09T10:25:22.000Z</time>
      </trkpt>
      <trkpt lat="47.29831" lon="-2.2761">
        <ele>9.1999998092651</ele>
        <time>2021-12-09T10:25:25.000Z</time>
      </trkpt>
      <trkpt lat="47.29839" lon="-2.27615">
        <ele>9.1999998092651</ele>
        <time>2021-12-09T10:25:26.000Z</time>
      </trkpt>
      <trkpt lat="47.29862" lon="-2.27625">
        <ele>9.1999998092651</ele>
        <time>2021-12-09T10:25:29.000Z</time>
      </trkpt>
      <trkpt lat="47.29871" lon="-2.27624">
        <ele>9.1999998092651</ele>
        <time>2021-12-09T10:25:30.000Z</time>
      </trkpt>
      <trkpt lat="47.29896" lon="-2.2761">
        <ele>9.1999998092651</ele>
        <time>2021-12-09T10:25:33.000Z</time>
      </trkpt>
      <trkpt lat="47.29917" lon="-2.27601">
        <ele>8.8000001907349</ele>
        <time>2021-12-09T10:25:36.000Z</time>
      </trkpt>
      <trkpt lat="47.29924" lon="-2.27599">
        <ele>8.1999998092651</ele>
        <time>2021-12-09T10:25:37.000Z</time>
      </trkpt>
      <trkpt lat="47.29931" lon="-2.27598">
        <ele>7.8000001907349</ele>
        <time>2021-12-09T10:25:38.000Z</time>
      </trkpt>
      <trkpt lat="47.29938" lon="-2.27597">
        <ele>7.4000000953674</ele>
        <time>2021-12-09T10:25:39.000Z</time>
      </trkpt>
      <trkpt lat="47.29944" lon="-2.27597">
        <ele>7</ele>
        <time>2021-12-09T10:25:40.000Z</time>
      </trkpt>
      <trkpt lat="47.29951" lon="-2.276">
        <ele>7</ele>
        <time>2021-12-09T10:25:41.000Z</time>
      </trkpt>
      <trkpt lat="47.29956" lon="-2.27605">
        <ele>7</ele>
        <time>2021-12-09T10:25:42.000Z</time>
      </trkpt>
      <trkpt lat="47.29964" lon="-2.27629">
        <ele>7</ele>
        <time>2021-12-09T10:25:45.000Z</time>
      </trkpt>
      <trkpt lat="47.29962" lon="-2.27656">
        <ele>7</ele>
        <time>2021-12-09T10:25:48.000Z</time>
      </trkpt>
      <trkpt lat="47.29961" lon="-2.27665">
        <ele>7</ele>
        <time>2021-12-09T10:25:49.000Z</time>
      </trkpt>
      <trkpt lat="47.29955" lon="-2.27731">
        <ele>7</ele>
        <time>2021-12-09T10:25:56.000Z</time>
      </trkpt>
      <trkpt lat="47.2995" lon="-2.27788">
        <ele>7</ele>
        <time>2021-12-09T10:26:02.000Z</time>
      </trkpt>
      <trkpt lat="47.29943" lon="-2.27851">
        <ele>7</ele>
        <time>2021-12-09T10:26:09.000Z</time>
      </trkpt>
      <trkpt lat="47.29941" lon="-2.27869">
        <ele>7</ele>
        <time>2021-12-09T10:26:11.000Z</time>
      </trkpt>
      <trkpt lat="47.29938" lon="-2.27906">
        <ele>7</ele>
        <time>2021-12-09T10:26:15.000Z</time>
      </trkpt>
      <trkpt lat="47.29933" lon="-2.27975">
        <ele>7</ele>
        <time>2021-12-09T10:26:23.000Z</time>
      </trkpt>
      <trkpt lat="47.29935" lon="-2.27998">
        <ele>7</ele>
        <time>2021-12-09T10:26:26.000Z</time>
      </trkpt>
      <trkpt lat="47.29938" lon="-2.28013">
        <ele>7</ele>
        <time>2021-12-09T10:26:28.000Z</time>
      </trkpt>
      <trkpt lat="47.29946" lon="-2.2804">
        <ele>7</ele>
        <time>2021-12-09T10:26:32.000Z</time>
      </trkpt>
      <trkpt lat="47.2995" lon="-2.28045">
        <ele>7</ele>
        <time>2021-12-09T10:26:33.000Z</time>
      </trkpt>
      <trkpt lat="47.29962" lon="-2.28047">
        <ele>7</ele>
        <time>2021-12-09T10:26:36.000Z</time>
      </trkpt>
      <trkpt lat="47.29971" lon="-2.28044">
        <ele>7</ele>
        <time>2021-12-09T10:26:38.000Z</time>
      </trkpt>
      <trkpt lat="47.29985" lon="-2.28037">
        <ele>7</ele>
        <time>2021-12-09T10:26:42.000Z</time>
      </trkpt>
      <trkpt lat="47.2999" lon="-2.28035">
        <ele>7</ele>
        <time>2021-12-09T10:26:44.000Z</time>
      </trkpt>
      <trkpt lat="47.29992" lon="-2.28039">
        <ele>7</ele>
        <time>2021-12-09T10:26:46.000Z</time>
      </trkpt>
      <trkpt lat="47.29988" lon="-2.28051">
        <ele>7</ele>
        <time>2021-12-09T10:26:50.000Z</time>
      </trkpt>
      <trkpt lat="47.29986" lon="-2.28061">
        <ele>7</ele>
        <time>2021-12-09T10:26:52.000Z</time>
      </trkpt>
      <trkpt lat="47.29983" lon="-2.28073">
        <ele>7</ele>
        <time>2021-12-09T10:26:54.000Z</time>
      </trkpt>
      <trkpt lat="47.29974" lon="-2.28105">
        <ele>7</ele>
        <time>2021-12-09T10:27:00.000Z</time>
      </trkpt>
      <trkpt lat="47.29965" lon="-2.28141">
        <ele>7</ele>
        <time>2021-12-09T10:27:07.000Z</time>
      </trkpt>
      <trkpt lat="47.29955" lon="-2.28179">
        <ele>7</ele>
        <time>2021-12-09T10:27:14.000Z</time>
      </trkpt>
      <trkpt lat="47.29953" lon="-2.28204">
        <ele>7</ele>
        <time>2021-12-09T10:27:18.000Z</time>
      </trkpt>
      <trkpt lat="47.29954" lon="-2.28211">
        <ele>7</ele>
        <time>2021-12-09T10:27:19.000Z</time>
      </trkpt>
      <trkpt lat="47.29954" lon="-2.28226">
        <ele>7</ele>
        <time>2021-12-09T10:27:21.000Z</time>
      </trkpt>
      <trkpt lat="47.29954" lon="-2.28268">
        <ele>7</ele>
        <time>2021-12-09T10:27:26.000Z</time>
      </trkpt>
      <trkpt lat="47.29955" lon="-2.28293">
        <ele>7</ele>
        <time>2021-12-09T10:27:29.000Z</time>
      </trkpt>
      <trkpt lat="47.29953" lon="-2.28312">
        <ele>7</ele>
        <time>2021-12-09T10:27:31.000Z</time>
      </trkpt>
      <trkpt lat="47.29953" lon="-2.28328">
        <ele>7</ele>
        <time>2021-12-09T10:27:33.000Z</time>
      </trkpt>
      <trkpt lat="47.29952" lon="-2.28335">
        <ele>7</ele>
        <time>2021-12-09T10:27:34.000Z</time>
      </trkpt>
      <trkpt lat="47.29951" lon="-2.28352">
        <ele>7</ele>
        <time>2021-12-09T10:27:36.000Z</time>
      </trkpt>
      <trkpt lat="47.2995" lon="-2.28386">
        <ele>7</ele>
        <time>2021-12-09T10:27:40.000Z</time>
      </trkpt>
      <trkpt lat="47.2995" lon="-2.28395">
        <ele>7</ele>
        <time>2021-12-09T10:27:41.000Z</time>
      </trkpt>
      <trkpt lat="47.29952" lon="-2.2842">
        <ele>7</ele>
        <time>2021-12-09T10:27:44.000Z</time>
      </trkpt>
      <trkpt lat="47.29948" lon="-2.28427">
        <ele>7</ele>
        <time>2021-12-09T10:27:45.000Z</time>
      </trkpt>
      <trkpt lat="47.29938" lon="-2.28454">
        <ele>7</ele>
        <time>2021-12-09T10:27:49.000Z</time>
      </trkpt>
      <trkpt lat="47.29938" lon="-2.28462">
        <ele>7</ele>
        <time>2021-12-09T10:27:50.000Z</time>
      </trkpt>
      <trkpt lat="47.29937" lon="-2.2847">
        <ele>7</ele>
        <time>2021-12-09T10:27:51.000Z</time>
      </trkpt>
      <trkpt lat="47.29939" lon="-2.28495">
        <ele>7</ele>
        <time>2021-12-09T10:27:54.000Z</time>
      </trkpt>
      <trkpt lat="47.29932" lon="-2.28519">
        <ele>7</ele>
        <time>2021-12-09T10:27:57.000Z</time>
      </trkpt>
      <trkpt lat="47.2993" lon="-2.28527">
        <ele>7</ele>
        <time>2021-12-09T10:27:58.000Z</time>
      </trkpt>
      <trkpt lat="47.29927" lon="-2.28545">
        <ele>7</ele>
        <time>2021-12-09T10:28:00.000Z</time>
      </trkpt>
      <trkpt lat="47.29928" lon="-2.28554">
        <ele>7</ele>
        <time>2021-12-09T10:28:01.000Z</time>
      </trkpt>
      <trkpt lat="47.29939" lon="-2.2857">
        <ele>7</ele>
        <time>2021-12-09T10:28:04.000Z</time>
      </trkpt>
      <trkpt lat="47.29942" lon="-2.2859">
        <ele>7</ele>
        <time>2021-12-09T10:28:07.000Z</time>
      </trkpt>
      <trkpt lat="47.29937" lon="-2.28623">
        <ele>7</ele>
        <time>2021-12-09T10:28:12.000Z</time>
      </trkpt>
      <trkpt lat="47.29932" lon="-2.28647">
        <ele>7</ele>
        <time>2021-12-09T10:28:15.000Z</time>
      </trkpt>
      <trkpt lat="47.29928" lon="-2.28662">
        <ele>7</ele>
        <time>2021-12-09T10:28:17.000Z</time>
      </trkpt>
      <trkpt lat="47.29916" lon="-2.28707">
        <ele>7</ele>
        <time>2021-12-09T10:28:23.000Z</time>
      </trkpt>
      <trkpt lat="47.29914" lon="-2.28716">
        <ele>6.5999999046326</ele>
        <time>2021-12-09T10:28:24.000Z</time>
      </trkpt>
      <trkpt lat="47.29913" lon="-2.28724">
        <ele>6.1999998092651</ele>
        <time>2021-12-09T10:28:25.000Z</time>
      </trkpt>
      <trkpt lat="47.29912" lon="-2.28732">
        <ele>5.8000001907349</ele>
        <time>2021-12-09T10:28:26.000Z</time>
      </trkpt>
      <trkpt lat="47.2991" lon="-2.2874">
        <ele>5.4000000953674</ele>
        <time>2021-12-09T10:28:27.000Z</time>
      </trkpt>
      <trkpt lat="47.29907" lon="-2.28748">
        <ele>5</ele>
        <time>2021-12-09T10:28:28.000Z</time>
      </trkpt>
      <trkpt lat="47.29906" lon="-2.28756">
        <ele>5</ele>
        <time>2021-12-09T10:28:29.000Z</time>
      </trkpt>
      <trkpt lat="47.29903" lon="-2.2877">
        <ele>5</ele>
        <time>2021-12-09T10:28:31.000Z</time>
      </trkpt>
      <trkpt lat="47.299" lon="-2.28793">
        <ele>5</ele>
        <time>2021-12-09T10:28:34.000Z</time>
      </trkpt>
      <trkpt lat="47.29899" lon="-2.288">
        <ele>5</ele>
        <time>2021-12-09T10:28:35.000Z</time>
      </trkpt>
      <trkpt lat="47.29897" lon="-2.28814">
        <ele>5</ele>
        <time>2021-12-09T10:28:37.000Z</time>
      </trkpt>
      <trkpt lat="47.29892" lon="-2.28844">
        <ele>5</ele>
        <time>2021-12-09T10:28:41.000Z</time>
      </trkpt>
      <trkpt lat="47.29882" lon="-2.28891">
        <ele>5</ele>
        <time>2021-12-09T10:28:47.000Z</time>
      </trkpt>
      <trkpt lat="47.29875" lon="-2.28911">
        <ele>5</ele>
        <time>2021-12-09T10:28:50.000Z</time>
      </trkpt>
      <trkpt lat="47.29875" lon="-2.28932">
        <ele>5</ele>
        <time>2021-12-09T10:28:53.000Z</time>
      </trkpt>
      <trkpt lat="47.29877" lon="-2.28939">
        <ele>5</ele>
        <time>2021-12-09T10:28:54.000Z</time>
      </trkpt>
      <trkpt lat="47.29879" lon="-2.28944">
        <ele>5</ele>
        <time>2021-12-09T10:28:55.000Z</time>
      </trkpt>
      <trkpt lat="47.29893" lon="-2.28947">
        <ele>5</ele>
        <time>2021-12-09T10:28:58.000Z</time>
      </trkpt>
      <trkpt lat="47.29918" lon="-2.2895">
        <ele>5</ele>
        <time>2021-12-09T10:29:03.000Z</time>
      </trkpt>
      <trkpt lat="47.29923" lon="-2.28953">
        <ele>5</ele>
        <time>2021-12-09T10:29:04.000Z</time>
      </trkpt>
      <trkpt lat="47.29929" lon="-2.28964">
        <ele>4.5999999046326</ele>
        <time>2021-12-09T10:29:06.000Z</time>
      </trkpt>
      <trkpt lat="47.29931" lon="-2.2897">
        <ele>4.1999998092651</ele>
        <time>2021-12-09T10:29:07.000Z</time>
      </trkpt>
      <trkpt lat="47.29935" lon="-2.28975">
        <ele>3.7999999523163</ele>
        <time>2021-12-09T10:29:08.000Z</time>
      </trkpt>
      <trkpt lat="47.29938" lon="-2.28981">
        <ele>3.4000000953674</ele>
        <time>2021-12-09T10:29:09.000Z</time>
      </trkpt>
      <trkpt lat="47.29942" lon="-2.28987">
        <ele>3</ele>
        <time>2021-12-09T10:29:10.000Z</time>
      </trkpt>
      <trkpt lat="47.29946" lon="-2.28994">
        <ele>3</ele>
        <time>2021-12-09T10:29:11.000Z</time>
      </trkpt>
      <trkpt lat="47.29973" lon="-2.29041">
        <ele>3</ele>
        <time>2021-12-09T10:29:18.000Z</time>
      </trkpt>
      <trkpt lat="47.29996" lon="-2.29083">
        <ele>3</ele>
        <time>2021-12-09T10:29:24.000Z</time>
      </trkpt>
      <trkpt lat="47.3" lon="-2.2909">
        <ele>3</ele>
        <time>2021-12-09T10:29:25.000Z</time>
      </trkpt>
      <trkpt lat="47.30016" lon="-2.29106">
        <ele>3</ele>
        <time>2021-12-09T10:29:28.000Z</time>
      </trkpt>
      <trkpt lat="47.30027" lon="-2.29115">
        <ele>3</ele>
        <time>2021-12-09T10:29:30.000Z</time>
      </trkpt>
      <trkpt lat="47.30061" lon="-2.29138">
        <ele>3</ele>
        <time>2021-12-09T10:29:36.000Z</time>
      </trkpt>
      <trkpt lat="47.30075" lon="-2.29161">
        <ele>3</ele>
        <time>2021-12-09T10:29:39.000Z</time>
      </trkpt>
      <trkpt lat="47.30105" lon="-2.29208">
        <ele>3</ele>
        <time>2021-12-09T10:29:45.000Z</time>
      </trkpt>
      <trkpt lat="47.30121" lon="-2.29233">
        <ele>2.5999999046326</ele>
        <time>2021-12-09T10:29:48.000Z</time>
      </trkpt>
      <trkpt lat="47.30127" lon="-2.29241">
        <ele>2.2000000476837</ele>
        <time>2021-12-09T10:29:49.000Z</time>
      </trkpt>
      <trkpt lat="47.30132" lon="-2.29249">
        <ele>1.6000000238419</ele>
        <time>2021-12-09T10:29:50.000Z</time>
      </trkpt>
      <trkpt lat="47.30137" lon="-2.29257">
        <ele>1.2000000476837</ele>
        <time>2021-12-09T10:29:51.000Z</time>
      </trkpt>
      <trkpt lat="47.30143" lon="-2.29265">
        <ele>0.80000001192093</ele>
        <time>2021-12-09T10:29:52.000Z</time>
      </trkpt>
      <trkpt lat="47.30148" lon="-2.29274">
        <ele>0.80000001192093</ele>
        <time>2021-12-09T10:29:53.000Z</time>
      </trkpt>
      <trkpt lat="47.30186" lon="-2.2933">
        <ele>0.80000001192093</ele>
        <time>2021-12-09T10:30:00.000Z</time>
      </trkpt>
      <trkpt lat="47.30207" lon="-2.29361">
        <ele>0.80000001192093</ele>
        <time>2021-12-09T10:30:04.000Z</time>
      </trkpt>
      <trkpt lat="47.30213" lon="-2.29366">
        <ele>0.80000001192093</ele>
        <time>2021-12-09T10:30:05.000Z</time>
      </trkpt>
      <trkpt lat="47.30236" lon="-2.29372">
        <ele>0.80000001192093</ele>
        <time>2021-12-09T10:30:08.000Z</time>
      </trkpt>
      <trkpt lat="47.30258" lon="-2.29359">
        <ele>0.80000001192093</ele>
        <time>2021-12-09T10:30:11.000Z</time>
      </trkpt>
      <trkpt lat="47.30274" lon="-2.29343">
        <ele>0.40000000596046</ele>
        <time>2021-12-09T10:30:14.000Z</time>
      </trkpt>
      <trkpt lat="47.30278" lon="-2.29338">
        <ele>2</ele>
        <time>2021-12-09T10:30:15.000Z</time>
      </trkpt>
      <trkpt lat="47.30283" lon="-2.29333">
        <ele>-0.80000001192093</ele>
        <time>2021-12-09T10:30:16.000Z</time>
      </trkpt>
      <trkpt lat="47.30287" lon="-2.29328">
        <ele>-1.2000000476837</ele>
        <time>2021-12-09T10:30:17.000Z</time>
      </trkpt>
      <trkpt lat="47.30303" lon="-2.29308">
        <ele>-1.2000000476837</ele>
        <time>2021-12-09T10:30:21.000Z</time>
      </trkpt>
      <trkpt lat="47.30323" lon="-2.29294">
        <ele>-1.2000000476837</ele>
        <time>2021-12-09T10:30:25.000Z</time>
      </trkpt>
      <trkpt lat="47.30329" lon="-2.29291">
        <ele>-1.2000000476837</ele>
        <time>2021-12-09T10:30:26.000Z</time>
      </trkpt>
      <trkpt lat="47.30335" lon="-2.29289">
        <ele>-1.2000000476837</ele>
        <time>2021-12-09T10:30:27.000Z</time>
      </trkpt>
      <trkpt lat="47.30353" lon="-2.29288">
        <ele>-1.2000000476837</ele>
        <time>2021-12-09T10:30:30.000Z</time>
      </trkpt>
      <trkpt lat="47.3036" lon="-2.29287">
        <ele>-1.2000000476837</ele>
        <time>2021-12-09T10:30:31.000Z</time>
      </trkpt>
      <trkpt lat="47.30389" lon="-2.29278">
        <ele>-1.2000000476837</ele>
        <time>2021-12-09T10:30:36.000Z</time>
      </trkpt>
      <trkpt lat="47.304" lon="-2.29269">
        <ele>-1.2000000476837</ele>
        <time>2021-12-09T10:30:38.000Z</time>
      </trkpt>
      <trkpt lat="47.30415" lon="-2.29251">
        <ele>-1.2000000476837</ele>
        <time>2021-12-09T10:30:41.000Z</time>
      </trkpt>
      <trkpt lat="47.30442" lon="-2.29214">
        <ele>-1.2000000476837</ele>
        <time>2021-12-09T10:30:47.000Z</time>
      </trkpt>
      <trkpt lat="47.30447" lon="-2.29208">
        <ele>-1.2000000476837</ele>
        <time>2021-12-09T10:30:48.000Z</time>
      </trkpt>
      <trkpt lat="47.30477" lon="-2.29165">
        <ele>-1.2000000476837</ele>
        <time>2021-12-09T10:30:55.000Z</time>
      </trkpt>
      <trkpt lat="47.30495" lon="-2.29124">
        <ele>-1.2000000476837</ele>
        <time>2021-12-09T10:31:01.000Z</time>
      </trkpt>
      <trkpt lat="47.30497" lon="-2.29117">
        <ele>-1.2000000476837</ele>
        <time>2021-12-09T10:31:02.000Z</time>
      </trkpt>
      <trkpt lat="47.30503" lon="-2.29086">
        <ele>-1.2000000476837</ele>
        <time>2021-12-09T10:31:06.000Z</time>
      </trkpt>
      <trkpt lat="47.30503" lon="-2.29071">
        <ele>-1.2000000476837</ele>
        <time>2021-12-09T10:31:08.000Z</time>
      </trkpt>
      <trkpt lat="47.30502" lon="-2.29055">
        <ele>-1.2000000476837</ele>
        <time>2021-12-09T10:31:10.000Z</time>
      </trkpt>
      <trkpt lat="47.30493" lon="-2.29013">
        <ele>-1.2000000476837</ele>
        <time>2021-12-09T10:31:16.000Z</time>
      </trkpt>
      <trkpt lat="47.30492" lon="-2.29006">
        <ele>-1.2000000476837</ele>
        <time>2021-12-09T10:31:17.000Z</time>
      </trkpt>
      <trkpt lat="47.30496" lon="-2.28992">
        <ele>-1.2000000476837</ele>
        <time>2021-12-09T10:31:19.000Z</time>
      </trkpt>
      <trkpt lat="47.30508" lon="-2.28976">
        <ele>-1.2000000476837</ele>
        <time>2021-12-09T10:31:22.000Z</time>
      </trkpt>
      <trkpt lat="47.30512" lon="-2.28972">
        <ele>-1.2000000476837</ele>
        <time>2021-12-09T10:31:23.000Z</time>
      </trkpt>
      <trkpt lat="47.30532" lon="-2.28959">
        <ele>-1.2000000476837</ele>
        <time>2021-12-09T10:31:27.000Z</time>
      </trkpt>
      <trkpt lat="47.3056" lon="-2.2894">
        <ele>-1.2000000476837</ele>
        <time>2021-12-09T10:31:32.000Z</time>
      </trkpt>
      <trkpt lat="47.30585" lon="-2.28915">
        <ele>-1.2000000476837</ele>
        <time>2021-12-09T10:31:37.000Z</time>
      </trkpt>
      <trkpt lat="47.30596" lon="-2.28907">
        <ele>-0.80000001192093</ele>
        <time>2021-12-09T10:31:39.000Z</time>
      </trkpt>
      <trkpt lat="47.30602" lon="-2.28903">
        <ele>-0.40000000596046</ele>
        <time>2021-12-09T10:31:40.000Z</time>
      </trkpt>
      <trkpt lat="47.30608" lon="-2.28899">
        <ele>6</ele>
        <time>2021-12-09T10:31:41.000Z</time>
      </trkpt>
      <trkpt lat="47.30614" lon="-2.28895">
        <ele>0.40000000596046</ele>
        <time>2021-12-09T10:31:42.000Z</time>
      </trkpt>
      <trkpt lat="47.30619" lon="-2.28892">
        <ele>0.80000001192093</ele>
        <time>2021-12-09T10:31:43.000Z</time>
      </trkpt>
      <trkpt lat="47.30625" lon="-2.28888">
        <ele>0.80000001192093</ele>
        <time>2021-12-09T10:31:44.000Z</time>
      </trkpt>
      <trkpt lat="47.30666" lon="-2.28862">
        <ele>1.2000000476837</ele>
        <time>2021-12-09T10:31:51.000Z</time>
      </trkpt>
      <trkpt lat="47.30672" lon="-2.28858">
        <ele>1.6000000238419</ele>
        <time>2021-12-09T10:31:52.000Z</time>
      </trkpt>
      <trkpt lat="47.30678" lon="-2.28854">
        <ele>2.2000000476837</ele>
        <time>2021-12-09T10:31:53.000Z</time>
      </trkpt>
      <trkpt lat="47.30683" lon="-2.2885">
        <ele>2.5999999046326</ele>
        <time>2021-12-09T10:31:54.000Z</time>
      </trkpt>
      <trkpt lat="47.30689" lon="-2.28845">
        <ele>3</ele>
        <time>2021-12-09T10:31:55.000Z</time>
      </trkpt>
      <trkpt lat="47.30706" lon="-2.28833">
        <ele>3</ele>
        <time>2021-12-09T10:31:58.000Z</time>
      </trkpt>
      <trkpt lat="47.30712" lon="-2.28831">
        <ele>3</ele>
        <time>2021-12-09T10:31:59.000Z</time>
      </trkpt>
      <trkpt lat="47.30738" lon="-2.28824">
        <ele>3</ele>
        <time>2021-12-09T10:32:03.000Z</time>
      </trkpt>
      <trkpt lat="47.3079" lon="-2.28814">
        <ele>3</ele>
        <time>2021-12-09T10:32:10.000Z</time>
      </trkpt>
      <trkpt lat="47.30829" lon="-2.28815">
        <ele>3</ele>
        <time>2021-12-09T10:32:15.000Z</time>
      </trkpt>
      <trkpt lat="47.30844" lon="-2.28818">
        <ele>2.4000000953674</ele>
        <time>2021-12-09T10:32:17.000Z</time>
      </trkpt>
      <trkpt lat="47.30852" lon="-2.28818">
        <ele>2</ele>
        <time>2021-12-09T10:32:18.000Z</time>
      </trkpt>
      <trkpt lat="47.30861" lon="-2.28818">
        <ele>1.6000000238419</ele>
        <time>2021-12-09T10:32:19.000Z</time>
      </trkpt>
      <trkpt lat="47.3087" lon="-2.28818">
        <ele>0.60000002384186</ele>
        <time>2021-12-09T10:32:20.000Z</time>
      </trkpt>
      <trkpt lat="47.30878" lon="-2.28818">
        <ele>0.60000002384186</ele>
        <time>2021-12-09T10:32:21.000Z</time>
      </trkpt>
      <trkpt lat="47.30932" lon="-2.28817">
        <ele>0.60000002384186</ele>
        <time>2021-12-09T10:32:28.000Z</time>
      </trkpt>
      <trkpt lat="47.30954" lon="-2.28817">
        <ele>0.60000002384186</ele>
        <time>2021-12-09T10:32:32.000Z</time>
      </trkpt>
      <trkpt lat="47.30964" lon="-2.28815">
        <ele>0.60000002384186</ele>
        <time>2021-12-09T10:32:34.000Z</time>
      </trkpt>
      <trkpt lat="47.30977" lon="-2.2881">
        <ele>1</ele>
        <time>2021-12-09T10:32:37.000Z</time>
      </trkpt>
      <trkpt lat="47.30982" lon="-2.28808">
        <ele>1.6000000238419</ele>
        <time>2021-12-09T10:32:38.000Z</time>
      </trkpt>
      <trkpt lat="47.30986" lon="-2.28807">
        <ele>2</ele>
        <time>2021-12-09T10:32:39.000Z</time>
      </trkpt>
      <trkpt lat="47.30991" lon="-2.28805">
        <ele>2.4000000953674</ele>
        <time>2021-12-09T10:32:40.000Z</time>
      </trkpt>
      <trkpt lat="47.30996" lon="-2.28805">
        <ele>2.7999999523163</ele>
        <time>2021-12-09T10:32:41.000Z</time>
      </trkpt>
      <trkpt lat="47.31006" lon="-2.28806">
        <ele>2.7999999523163</ele>
        <time>2021-12-09T10:32:43.000Z</time>
      </trkpt>
      <trkpt lat="47.3101" lon="-2.28808">
        <ele>3.2000000476837</ele>
        <time>2021-12-09T10:32:44.000Z</time>
      </trkpt>
      <trkpt lat="47.31015" lon="-2.28812">
        <ele>3.7999999523163</ele>
        <time>2021-12-09T10:32:45.000Z</time>
      </trkpt>
      <trkpt lat="47.31019" lon="-2.28816">
        <ele>4.1999998092651</ele>
        <time>2021-12-09T10:32:46.000Z</time>
      </trkpt>
      <trkpt lat="47.31024" lon="-2.2882">
        <ele>4.5999999046326</ele>
        <time>2021-12-09T10:32:47.000Z</time>
      </trkpt>
      <trkpt lat="47.31028" lon="-2.28824">
        <ele>5</ele>
        <time>2021-12-09T10:32:48.000Z</time>
      </trkpt>
      <trkpt lat="47.3106" lon="-2.28851">
        <ele>5</ele>
        <time>2021-12-09T10:32:54.000Z</time>
      </trkpt>
      <trkpt lat="47.31096" lon="-2.28877">
        <ele>4.5999999046326</ele>
        <time>2021-12-09T10:33:00.000Z</time>
      </trkpt>
      <trkpt lat="47.31102" lon="-2.28883">
        <ele>4</ele>
        <time>2021-12-09T10:33:01.000Z</time>
      </trkpt>
      <trkpt lat="47.31108" lon="-2.28889">
        <ele>3.5999999046326</ele>
        <time>2021-12-09T10:33:02.000Z</time>
      </trkpt>
      <trkpt lat="47.31114" lon="-2.28898">
        <ele>3.2000000476837</ele>
        <time>2021-12-09T10:33:03.000Z</time>
      </trkpt>
      <trkpt lat="47.3112" lon="-2.28905">
        <ele>2.7999999523163</ele>
        <time>2021-12-09T10:33:04.000Z</time>
      </trkpt>
      <trkpt lat="47.31126" lon="-2.2891">
        <ele>2.7999999523163</ele>
        <time>2021-12-09T10:33:05.000Z</time>
      </trkpt>
      <trkpt lat="47.31132" lon="-2.28912">
        <ele>2.4000000953674</ele>
        <time>2021-12-09T10:33:06.000Z</time>
      </trkpt>
      <trkpt lat="47.31139" lon="-2.28909">
        <ele>2</ele>
        <time>2021-12-09T10:33:07.000Z</time>
      </trkpt>
      <trkpt lat="47.31146" lon="-2.28906">
        <ele>1.2000000476837</ele>
        <time>2021-12-09T10:33:08.000Z</time>
      </trkpt>
      <trkpt lat="47.31152" lon="-2.28901">
        <ele>0.80000001192093</ele>
        <time>2021-12-09T10:33:09.000Z</time>
      </trkpt>
      <trkpt lat="47.31158" lon="-2.28898">
        <ele>0.80000001192093</ele>
        <time>2021-12-09T10:33:10.000Z</time>
      </trkpt>
      <trkpt lat="47.31163" lon="-2.28896">
        <ele>0.80000001192093</ele>
        <time>2021-12-09T10:33:11.000Z</time>
      </trkpt>
      <trkpt lat="47.31169" lon="-2.28896">
        <ele>0.80000001192093</ele>
        <time>2021-12-09T10:33:12.000Z</time>
      </trkpt>
      <trkpt lat="47.31178" lon="-2.28907">
        <ele>0.80000001192093</ele>
        <time>2021-12-09T10:33:14.000Z</time>
      </trkpt>
      <trkpt lat="47.31185" lon="-2.28931">
        <ele>0.80000001192093</ele>
        <time>2021-12-09T10:33:17.000Z</time>
      </trkpt>
      <trkpt lat="47.31187" lon="-2.2894">
        <ele>0.80000001192093</ele>
        <time>2021-12-09T10:33:18.000Z</time>
      </trkpt>
      <trkpt lat="47.3119" lon="-2.28957">
        <ele>0.80000001192093</ele>
        <time>2021-12-09T10:33:20.000Z</time>
      </trkpt>
      <trkpt lat="47.31195" lon="-2.28981">
        <ele>0.80000001192093</ele>
        <time>2021-12-09T10:33:23.000Z</time>
      </trkpt>
      <trkpt lat="47.31202" lon="-2.29049">
        <ele>0.80000001192093</ele>
        <time>2021-12-09T10:33:31.000Z</time>
      </trkpt>
      <trkpt lat="47.31203" lon="-2.29065">
        <ele>1.2000000476837</ele>
        <time>2021-12-09T10:33:33.000Z</time>
      </trkpt>
      <trkpt lat="47.31205" lon="-2.29073">
        <ele>1.6000000238419</ele>
        <time>2021-12-09T10:33:34.000Z</time>
      </trkpt>
      <trkpt lat="47.31206" lon="-2.29082">
        <ele>2</ele>
        <time>2021-12-09T10:33:35.000Z</time>
      </trkpt>
      <trkpt lat="47.31207" lon="-2.2909">
        <ele>2.5999999046326</ele>
        <time>2021-12-09T10:33:36.000Z</time>
      </trkpt>
      <trkpt lat="47.31208" lon="-2.29098">
        <ele>3</ele>
        <time>2021-12-09T10:33:37.000Z</time>
      </trkpt>
      <trkpt lat="47.31209" lon="-2.29107">
        <ele>3</ele>
        <time>2021-12-09T10:33:38.000Z</time>
      </trkpt>
      <trkpt lat="47.3122" lon="-2.29168">
        <ele>3</ele>
        <time>2021-12-09T10:33:45.000Z</time>
      </trkpt>
      <trkpt lat="47.31233" lon="-2.29217">
        <ele>3</ele>
        <time>2021-12-09T10:33:51.000Z</time>
      </trkpt>
      <trkpt lat="47.31244" lon="-2.29264">
        <ele>3</ele>
        <time>2021-12-09T10:33:57.000Z</time>
      </trkpt>
      <trkpt lat="47.31257" lon="-2.29313">
        <ele>3</ele>
        <time>2021-12-09T10:34:04.000Z</time>
      </trkpt>
      <trkpt lat="47.31264" lon="-2.2934">
        <ele>3</ele>
        <time>2021-12-09T10:34:08.000Z</time>
      </trkpt>
      <trkpt lat="47.31268" lon="-2.29341">
        <ele>3</ele>
        <time>2021-12-09T10:34:09.000Z</time>
      </trkpt>
      <trkpt lat="47.31272" lon="-2.29334">
        <ele>3</ele>
        <time>2021-12-09T10:34:11.000Z</time>
      </trkpt>
      <trkpt lat="47.31276" lon="-2.29325">
        <ele>3</ele>
        <time>2021-12-09T10:34:13.000Z</time>
      </trkpt>
      <trkpt lat="47.31283" lon="-2.29309">
        <ele>3</ele>
        <time>2021-12-09T10:34:17.000Z</time>
      </trkpt>
      <trkpt lat="47.31299" lon="-2.29297">
        <ele>3</ele>
        <time>2021-12-09T10:34:22.000Z</time>
      </trkpt>
      <trkpt lat="47.31315" lon="-2.29294">
        <ele>3</ele>
        <time>2021-12-09T10:34:26.000Z</time>
      </trkpt>
      <trkpt lat="47.31319" lon="-2.29295">
        <ele>3</ele>
        <time>2021-12-09T10:34:27.000Z</time>
      </trkpt>
      <trkpt lat="47.31349" lon="-2.29306">
        <ele>3</ele>
        <time>2021-12-09T10:34:34.000Z</time>
      </trkpt>
      <trkpt lat="47.31375" lon="-2.29318">
        <ele>3</ele>
        <time>2021-12-09T10:34:40.000Z</time>
      </trkpt>
      <trkpt lat="47.31399" lon="-2.29329">
        <ele>3</ele>
        <time>2021-12-09T10:34:46.000Z</time>
      </trkpt>
      <trkpt lat="47.31402" lon="-2.29331">
        <ele>3.4000000953674</ele>
        <time>2021-12-09T10:34:47.000Z</time>
      </trkpt>
      <trkpt lat="47.31406" lon="-2.29335">
        <ele>3.7999999523163</ele>
        <time>2021-12-09T10:34:48.000Z</time>
      </trkpt>
      <trkpt lat="47.31409" lon="-2.29338">
        <ele>4.1999998092651</ele>
        <time>2021-12-09T10:34:49.000Z</time>
      </trkpt>
      <trkpt lat="47.31412" lon="-2.2934">
        <ele>4.5999999046326</ele>
        <time>2021-12-09T10:34:50.000Z</time>
      </trkpt>
      <trkpt lat="47.31415" lon="-2.29344">
        <ele>5</ele>
        <time>2021-12-09T10:34:51.000Z</time>
      </trkpt>
      <trkpt lat="47.31421" lon="-2.29351">
        <ele>5</ele>
        <time>2021-12-09T10:34:53.000Z</time>
      </trkpt>
      <trkpt lat="47.31442" lon="-2.29384">
        <ele>5</ele>
        <time>2021-12-09T10:35:01.000Z</time>
      </trkpt>
      <trkpt lat="47.3146" lon="-2.29396">
        <ele>5</ele>
        <time>2021-12-09T10:35:06.000Z</time>
      </trkpt>
      <trkpt lat="47.31469" lon="-2.29395">
        <ele>5</ele>
        <time>2021-12-09T10:35:08.000Z</time>
      </trkpt>
      <trkpt lat="47.31473" lon="-2.29394">
        <ele>5.4000000953674</ele>
        <time>2021-12-09T10:35:09.000Z</time>
      </trkpt>
      <trkpt lat="47.31476" lon="-2.29394">
        <ele>5.8000001907349</ele>
        <time>2021-12-09T10:35:10.000Z</time>
      </trkpt>
      <trkpt lat="47.31481" lon="-2.29392">
        <ele>6.1999998092651</ele>
        <time>2021-12-09T10:35:11.000Z</time>
      </trkpt>
      <trkpt lat="47.31485" lon="-2.29391">
        <ele>7</ele>
        <time>2021-12-09T10:35:12.000Z</time>
      </trkpt>
      <trkpt lat="47.3149" lon="-2.29391">
        <ele>7</ele>
        <time>2021-12-09T10:35:13.000Z</time>
      </trkpt>
      <trkpt lat="47.31502" lon="-2.29396">
        <ele>7</ele>
        <time>2021-12-09T10:35:16.000Z</time>
      </trkpt>
      <trkpt lat="47.31515" lon="-2.29414">
        <ele>7</ele>
        <time>2021-12-09T10:35:20.000Z</time>
      </trkpt>
      <trkpt lat="47.31518" lon="-2.2942">
        <ele>7</ele>
        <time>2021-12-09T10:35:21.000Z</time>
      </trkpt>
      <trkpt lat="47.31528" lon="-2.29446">
        <ele>7.4000000953674</ele>
        <time>2021-12-09T10:35:26.000Z</time>
      </trkpt>
      <trkpt lat="47.3153" lon="-2.29452">
        <ele>7.8000001907349</ele>
        <time>2021-12-09T10:35:27.000Z</time>
      </trkpt>
      <trkpt lat="47.31532" lon="-2.29457">
        <ele>8.1999998092651</ele>
        <time>2021-12-09T10:35:28.000Z</time>
      </trkpt>
      <trkpt lat="47.31534" lon="-2.29463">
        <ele>8.6000003814697</ele>
        <time>2021-12-09T10:35:29.000Z</time>
      </trkpt>
      <trkpt lat="47.31536" lon="-2.29468">
        <ele>9.1999998092651</ele>
        <time>2021-12-09T10:35:30.000Z</time>
      </trkpt>
      <trkpt lat="47.31539" lon="-2.29479">
        <ele>9.1999998092651</ele>
        <time>2021-12-09T10:35:32.000Z</time>
      </trkpt>
      <trkpt lat="47.31543" lon="-2.29512">
        <ele>9.1999998092651</ele>
        <time>2021-12-09T10:35:38.000Z</time>
      </trkpt>
      <trkpt lat="47.31548" lon="-2.29528">
        <ele>9.1999998092651</ele>
        <time>2021-12-09T10:35:41.000Z</time>
      </trkpt>
      <trkpt lat="47.31552" lon="-2.29539">
        <ele>9.1999998092651</ele>
        <time>2021-12-09T10:35:43.000Z</time>
      </trkpt>
      <trkpt lat="47.31566" lon="-2.29562">
        <ele>9.1999998092651</ele>
        <time>2021-12-09T10:35:48.000Z</time>
      </trkpt>
      <trkpt lat="47.31583" lon="-2.29583">
        <ele>9.1999998092651</ele>
        <time>2021-12-09T10:35:53.000Z</time>
      </trkpt>
      <trkpt lat="47.3159" lon="-2.2959">
        <ele>9.1999998092651</ele>
        <time>2021-12-09T10:35:55.000Z</time>
      </trkpt>
      <trkpt lat="47.31606" lon="-2.29606">
        <ele>9.6000003814697</ele>
        <time>2021-12-09T10:36:00.000Z</time>
      </trkpt>
      <trkpt lat="47.31609" lon="-2.29609">
        <ele>10.39999961853</ele>
        <time>2021-12-09T10:36:01.000Z</time>
      </trkpt>
      <trkpt lat="47.31612" lon="-2.29613">
        <ele>10.800000190735</ele>
        <time>2021-12-09T10:36:02.000Z</time>
      </trkpt>
      <trkpt lat="47.31615" lon="-2.29617">
        <ele>11.199999809265</ele>
        <time>2021-12-09T10:36:03.000Z</time>
      </trkpt>
      <trkpt lat="47.3162" lon="-2.29627">
        <ele>11.199999809265</ele>
        <time>2021-12-09T10:36:05.000Z</time>
      </trkpt>
      <trkpt lat="47.31623" lon="-2.29632">
        <ele>11.199999809265</ele>
        <time>2021-12-09T10:36:06.000Z</time>
      </trkpt>
      <trkpt lat="47.3164" lon="-2.29675">
        <ele>11.199999809265</ele>
        <time>2021-12-09T10:36:14.000Z</time>
      </trkpt>
      <trkpt lat="47.31649" lon="-2.29706">
        <ele>11.199999809265</ele>
        <time>2021-12-09T10:36:20.000Z</time>
      </trkpt>
      <trkpt lat="47.3166" lon="-2.29727">
        <ele>11.199999809265</ele>
        <time>2021-12-09T10:36:24.000Z</time>
      </trkpt>
      <trkpt lat="47.31664" lon="-2.29731">
        <ele>11.199999809265</ele>
        <time>2021-12-09T10:36:25.000Z</time>
      </trkpt>
      <trkpt lat="47.31678" lon="-2.29733">
        <ele>11.199999809265</ele>
        <time>2021-12-09T10:36:28.000Z</time>
      </trkpt>
      <trkpt lat="47.31683" lon="-2.29733">
        <ele>11.199999809265</ele>
        <time>2021-12-09T10:36:29.000Z</time>
      </trkpt>
      <trkpt lat="47.31708" lon="-2.29723">
        <ele>11.199999809265</ele>
        <time>2021-12-09T10:36:35.000Z</time>
      </trkpt>
      <trkpt lat="47.31712" lon="-2.29721">
        <ele>11.199999809265</ele>
        <time>2021-12-09T10:36:36.000Z</time>
      </trkpt>
      <trkpt lat="47.31719" lon="-2.29713">
        <ele>11.199999809265</ele>
        <time>2021-12-09T10:36:38.000Z</time>
      </trkpt>
      <trkpt lat="47.31727" lon="-2.29708">
        <ele>11.199999809265</ele>
        <time>2021-12-09T10:36:40.000Z</time>
      </trkpt>
      <trkpt lat="47.31742" lon="-2.29697">
        <ele>11.199999809265</ele>
        <time>2021-12-09T10:36:43.000Z</time>
      </trkpt>
      <trkpt lat="47.31751" lon="-2.2969">
        <ele>11.199999809265</ele>
        <time>2021-12-09T10:36:45.000Z</time>
      </trkpt>
      <trkpt lat="47.31787" lon="-2.29663">
        <ele>11.199999809265</ele>
        <time>2021-12-09T10:36:53.000Z</time>
      </trkpt>
      <trkpt lat="47.31817" lon="-2.29642">
        <ele>11.199999809265</ele>
        <time>2021-12-09T10:37:00.000Z</time>
      </trkpt>
      <trkpt lat="47.3183" lon="-2.29634">
        <ele>11.199999809265</ele>
        <time>2021-12-09T10:37:03.000Z</time>
      </trkpt>
      <trkpt lat="47.31847" lon="-2.29625">
        <ele>11.199999809265</ele>
        <time>2021-12-09T10:37:07.000Z</time>
      </trkpt>
      <trkpt lat="47.31858" lon="-2.29616">
        <ele>11.199999809265</ele>
        <time>2021-12-09T10:37:10.000Z</time>
      </trkpt>
      <trkpt lat="47.31867" lon="-2.29604">
        <ele>11.199999809265</ele>
        <time>2021-12-09T10:37:13.000Z</time>
      </trkpt>
      <trkpt lat="47.31881" lon="-2.29587">
        <ele>11.199999809265</ele>
        <time>2021-12-09T10:37:17.000Z</time>
      </trkpt>
      <trkpt lat="47.3189" lon="-2.29579">
        <ele>11.199999809265</ele>
        <time>2021-12-09T10:37:19.000Z</time>
      </trkpt>
      <trkpt lat="47.31909" lon="-2.29562">
        <ele>10.800000190735</ele>
        <time>2021-12-09T10:37:23.000Z</time>
      </trkpt>
      <trkpt lat="47.31914" lon="-2.29557">
        <ele>10.39999961853</ele>
        <time>2021-12-09T10:37:24.000Z</time>
      </trkpt>
      <trkpt lat="47.31919" lon="-2.29553">
        <ele>10</ele>
        <time>2021-12-09T10:37:25.000Z</time>
      </trkpt>
      <trkpt lat="47.31924" lon="-2.29548">
        <ele>9.3999996185303</ele>
        <time>2021-12-09T10:37:26.000Z</time>
      </trkpt>
      <trkpt lat="47.3193" lon="-2.29544">
        <ele>9</ele>
        <time>2021-12-09T10:37:27.000Z</time>
      </trkpt>
      <trkpt lat="47.31955" lon="-2.2952">
        <ele>9</ele>
        <time>2021-12-09T10:37:32.000Z</time>
      </trkpt>
      <trkpt lat="47.31979" lon="-2.29497">
        <ele>8.6000003814697</ele>
        <time>2021-12-09T10:37:37.000Z</time>
      </trkpt>
      <trkpt lat="47.31984" lon="-2.29492">
        <ele>8.1999998092651</ele>
        <time>2021-12-09T10:37:38.000Z</time>
      </trkpt>
      <trkpt lat="47.31988" lon="-2.29487">
        <ele>7.8000001907349</ele>
        <time>2021-12-09T10:37:39.000Z</time>
      </trkpt>
      <trkpt lat="47.31994" lon="-2.29481">
        <ele>7.4000000953674</ele>
        <time>2021-12-09T10:37:40.000Z</time>
      </trkpt>
      <trkpt lat="47.31999" lon="-2.29475">
        <ele>7</ele>
        <time>2021-12-09T10:37:41.000Z</time>
      </trkpt>
      <trkpt lat="47.32036" lon="-2.29432">
        <ele>7</ele>
        <time>2021-12-09T10:37:48.000Z</time>
      </trkpt>
      <trkpt lat="47.32064" lon="-2.29403">
        <ele>7</ele>
        <time>2021-12-09T10:37:53.000Z</time>
      </trkpt>
      <trkpt lat="47.32093" lon="-2.29372">
        <ele>6.5999999046326</ele>
        <time>2021-12-09T10:37:58.000Z</time>
      </trkpt>
      <trkpt lat="47.32099" lon="-2.29366">
        <ele>6</ele>
        <time>2021-12-09T10:37:59.000Z</time>
      </trkpt>
      <trkpt lat="47.32105" lon="-2.2936">
        <ele>5.5999999046326</ele>
        <time>2021-12-09T10:38:00.000Z</time>
      </trkpt>
      <trkpt lat="47.32111" lon="-2.29353">
        <ele>5.1999998092651</ele>
        <time>2021-12-09T10:38:01.000Z</time>
      </trkpt>
      <trkpt lat="47.32117" lon="-2.29347">
        <ele>4.8000001907349</ele>
        <time>2021-12-09T10:38:02.000Z</time>
      </trkpt>
      <trkpt lat="47.32164" lon="-2.29294">
        <ele>4.8000001907349</ele>
        <time>2021-12-09T10:38:10.000Z</time>
      </trkpt>
      <trkpt lat="47.32177" lon="-2.2928">
        <ele>4.4000000953674</ele>
        <time>2021-12-09T10:38:12.000Z</time>
      </trkpt>
      <trkpt lat="47.32183" lon="-2.29274">
        <ele>4</ele>
        <time>2021-12-09T10:38:13.000Z</time>
      </trkpt>
      <trkpt lat="47.32189" lon="-2.29267">
        <ele>3.5999999046326</ele>
        <time>2021-12-09T10:38:14.000Z</time>
      </trkpt>
      <trkpt lat="47.32195" lon="-2.2926">
        <ele>3.2000000476837</ele>
        <time>2021-12-09T10:38:15.000Z</time>
      </trkpt>
      <trkpt lat="47.32201" lon="-2.29254">
        <ele>2.7999999523163</ele>
        <time>2021-12-09T10:38:16.000Z</time>
      </trkpt>
      <trkpt lat="47.32215" lon="-2.29242">
        <ele>2.7999999523163</ele>
        <time>2021-12-09T10:38:18.000Z</time>
      </trkpt>
      <trkpt lat="47.32242" lon="-2.29226">
        <ele>2.7999999523163</ele>
        <time>2021-12-09T10:38:22.000Z</time>
      </trkpt>
      <trkpt lat="47.3225" lon="-2.29224">
        <ele>2.7999999523163</ele>
        <time>2021-12-09T10:38:23.000Z</time>
      </trkpt>
      <trkpt lat="47.32286" lon="-2.29214">
        <ele>2.4000000953674</ele>
        <time>2021-12-09T10:38:28.000Z</time>
      </trkpt>
      <trkpt lat="47.32293" lon="-2.29213">
        <ele>2</ele>
        <time>2021-12-09T10:38:29.000Z</time>
      </trkpt>
      <trkpt lat="47.323" lon="-2.29211">
        <ele>1.2000000476837</ele>
        <time>2021-12-09T10:38:30.000Z</time>
      </trkpt>
      <trkpt lat="47.32308" lon="-2.29211">
        <ele>0.80000001192093</ele>
        <time>2021-12-09T10:38:31.000Z</time>
      </trkpt>
      <trkpt lat="47.32322" lon="-2.29217">
        <ele>0.80000001192093</ele>
        <time>2021-12-09T10:38:33.000Z</time>
      </trkpt>
      <trkpt lat="47.32352" lon="-2.29235">
        <ele>0.80000001192093</ele>
        <time>2021-12-09T10:38:38.000Z</time>
      </trkpt>
      <trkpt lat="47.3239" lon="-2.29256">
        <ele>0.80000001192093</ele>
        <time>2021-12-09T10:38:45.000Z</time>
      </trkpt>
      <trkpt lat="47.32399" lon="-2.29262">
        <ele>0.80000001192093</ele>
        <time>2021-12-09T10:38:47.000Z</time>
      </trkpt>
      <trkpt lat="47.32411" lon="-2.29278">
        <ele>0.80000001192093</ele>
        <time>2021-12-09T10:38:50.000Z</time>
      </trkpt>
      <trkpt lat="47.32418" lon="-2.29307">
        <ele>0.80000001192093</ele>
        <time>2021-12-09T10:38:54.000Z</time>
      </trkpt>
      <trkpt lat="47.32419" lon="-2.29314">
        <ele>0.80000001192093</ele>
        <time>2021-12-09T10:38:55.000Z</time>
      </trkpt>
      <trkpt lat="47.32422" lon="-2.29334">
        <ele>0.80000001192093</ele>
        <time>2021-12-09T10:38:58.000Z</time>
      </trkpt>
      <trkpt lat="47.32422" lon="-2.29342">
        <ele>0.80000001192093</ele>
        <time>2021-12-09T10:38:59.000Z</time>
      </trkpt>
      <trkpt lat="47.32428" lon="-2.29389">
        <ele>0.80000001192093</ele>
        <time>2021-12-09T10:39:05.000Z</time>
      </trkpt>
      <trkpt lat="47.32435" lon="-2.29429">
        <ele>0.80000001192093</ele>
        <time>2021-12-09T10:39:11.000Z</time>
      </trkpt>
      <trkpt lat="47.32436" lon="-2.29447">
        <ele>0.80000001192093</ele>
        <time>2021-12-09T10:39:14.000Z</time>
      </trkpt>
      <trkpt lat="47.32438" lon="-2.29459">
        <ele>0.80000001192093</ele>
        <time>2021-12-09T10:39:16.000Z</time>
      </trkpt>
      <trkpt lat="47.32442" lon="-2.29477">
        <ele>1.6000000238419</ele>
        <time>2021-12-09T10:39:19.000Z</time>
      </trkpt>
      <trkpt lat="47.32444" lon="-2.29483">
        <ele>2</ele>
        <time>2021-12-09T10:39:20.000Z</time>
      </trkpt>
      <trkpt lat="47.32445" lon="-2.29488">
        <ele>2.4000000953674</ele>
        <time>2021-12-09T10:39:21.000Z</time>
      </trkpt>
      <trkpt lat="47.32447" lon="-2.29493">
        <ele>2.7999999523163</ele>
        <time>2021-12-09T10:39:22.000Z</time>
      </trkpt>
      <trkpt lat="47.32455" lon="-2.29522">
        <ele>2.7999999523163</ele>
        <time>2021-12-09T10:39:28.000Z</time>
      </trkpt>
      <trkpt lat="47.32459" lon="-2.2953">
        <ele>3.4000000953674</ele>
        <time>2021-12-09T10:39:30.000Z</time>
      </trkpt>
      <trkpt lat="47.3246" lon="-2.29535">
        <ele>3.7999999523163</ele>
        <time>2021-12-09T10:39:31.000Z</time>
      </trkpt>
      <trkpt lat="47.32462" lon="-2.29539">
        <ele>4.1999998092651</ele>
        <time>2021-12-09T10:39:32.000Z</time>
      </trkpt>
      <trkpt lat="47.32464" lon="-2.29544">
        <ele>4.5999999046326</ele>
        <time>2021-12-09T10:39:33.000Z</time>
      </trkpt>
      <trkpt lat="47.32465" lon="-2.29549">
        <ele>5</ele>
        <time>2021-12-09T10:39:34.000Z</time>
      </trkpt>
      <trkpt lat="47.32474" lon="-2.29579">
        <ele>5.5999999046326</ele>
        <time>2021-12-09T10:39:41.000Z</time>
      </trkpt>
      <trkpt lat="47.32475" lon="-2.29584">
        <ele>6</ele>
        <time>2021-12-09T10:39:42.000Z</time>
      </trkpt>
      <trkpt lat="47.32476" lon="-2.29589">
        <ele>6.4000000953674</ele>
        <time>2021-12-09T10:39:43.000Z</time>
      </trkpt>
      <trkpt lat="47.32477" lon="-2.29594">
        <ele>7.1999998092651</ele>
        <time>2021-12-09T10:39:44.000Z</time>
      </trkpt>
      <trkpt lat="47.32484" lon="-2.29619">
        <ele>7.1999998092651</ele>
        <time>2021-12-09T10:39:49.000Z</time>
      </trkpt>
      <trkpt lat="47.32485" lon="-2.29624">
        <ele>7.5999999046326</ele>
        <time>2021-12-09T10:39:50.000Z</time>
      </trkpt>
      <trkpt lat="47.32486" lon="-2.2963">
        <ele>8</ele>
        <time>2021-12-09T10:39:51.000Z</time>
      </trkpt>
      <trkpt lat="47.32487" lon="-2.29635">
        <ele>8.3999996185303</ele>
        <time>2021-12-09T10:39:52.000Z</time>
      </trkpt>
      <trkpt lat="47.32488" lon="-2.29641">
        <ele>9</ele>
        <time>2021-12-09T10:39:53.000Z</time>
      </trkpt>
      <trkpt lat="47.32489" lon="-2.29647">
        <ele>9.3999996185303</ele>
        <time>2021-12-09T10:39:54.000Z</time>
      </trkpt>
      <trkpt lat="47.32491" lon="-2.29652">
        <ele>9.3999996185303</ele>
        <time>2021-12-09T10:39:55.000Z</time>
      </trkpt>
      <trkpt lat="47.325" lon="-2.29681">
        <ele>9.8000001907349</ele>
        <time>2021-12-09T10:40:01.000Z</time>
      </trkpt>
      <trkpt lat="47.32501" lon="-2.29686">
        <ele>10.199999809265</ele>
        <time>2021-12-09T10:40:02.000Z</time>
      </trkpt>
      <trkpt lat="47.32502" lon="-2.29692">
        <ele>10.60000038147</ele>
        <time>2021-12-09T10:40:03.000Z</time>
      </trkpt>
      <trkpt lat="47.32504" lon="-2.29697">
        <ele>11</ele>
        <time>2021-12-09T10:40:04.000Z</time>
      </trkpt>
      <trkpt lat="47.32505" lon="-2.29703">
        <ele>11.39999961853</ele>
        <time>2021-12-09T10:40:05.000Z</time>
      </trkpt>
      <trkpt lat="47.32511" lon="-2.2973">
        <ele>11.39999961853</ele>
        <time>2021-12-09T10:40:10.000Z</time>
      </trkpt>
      <trkpt lat="47.32519" lon="-2.29759">
        <ele>11.39999961853</ele>
        <time>2021-12-09T10:40:16.000Z</time>
      </trkpt>
      <trkpt lat="47.32525" lon="-2.2978">
        <ele>11.39999961853</ele>
        <time>2021-12-09T10:40:21.000Z</time>
      </trkpt>
      <trkpt lat="47.32525" lon="-2.29784">
        <ele>11.39999961853</ele>
        <time>2021-12-09T10:40:22.000Z</time>
      </trkpt>
      <trkpt lat="47.32514" lon="-2.29798">
        <ele>11.39999961853</ele>
        <time>2021-12-09T10:40:26.000Z</time>
      </trkpt>
      <trkpt lat="47.32511" lon="-2.29801">
        <ele>11.39999961853</ele>
        <time>2021-12-09T10:40:27.000Z</time>
      </trkpt>
      <trkpt lat="47.32505" lon="-2.29807">
        <ele>11.800000190735</ele>
        <time>2021-12-09T10:40:29.000Z</time>
      </trkpt>
      <trkpt lat="47.32502" lon="-2.2981">
        <ele>12.199999809265</ele>
        <time>2021-12-09T10:40:30.000Z</time>
      </trkpt>
      <trkpt lat="47.32499" lon="-2.29813">
        <ele>12.800000190735</ele>
        <time>2021-12-09T10:40:31.000Z</time>
      </trkpt>
      <trkpt lat="47.32496" lon="-2.29817">
        <ele>13.199999809265</ele>
        <time>2021-12-09T10:40:32.000Z</time>
      </trkpt>
      <trkpt lat="47.32493" lon="-2.29821">
        <ele>13.60000038147</ele>
        <time>2021-12-09T10:40:33.000Z</time>
      </trkpt>
      <trkpt lat="47.32475" lon="-2.29837">
        <ele>13.60000038147</ele>
        <time>2021-12-09T10:40:37.000Z</time>
      </trkpt>
      <trkpt lat="47.32451" lon="-2.2986">
        <ele>13.60000038147</ele>
        <time>2021-12-09T10:40:43.000Z</time>
      </trkpt>
      <trkpt lat="47.32447" lon="-2.29865">
        <ele>13.60000038147</ele>
        <time>2021-12-09T10:40:44.000Z</time>
      </trkpt>
      <trkpt lat="47.32443" lon="-2.29884">
        <ele>13.60000038147</ele>
        <time>2021-12-09T10:40:47.000Z</time>
      </trkpt>
      <trkpt lat="47.32445" lon="-2.29897">
        <ele>13.60000038147</ele>
        <time>2021-12-09T10:40:49.000Z</time>
      </trkpt>
      <trkpt lat="47.3245" lon="-2.2992">
        <ele>13.60000038147</ele>
        <time>2021-12-09T10:40:53.000Z</time>
      </trkpt>
      <trkpt lat="47.32449" lon="-2.29937">
        <ele>13.60000038147</ele>
        <time>2021-12-09T10:40:57.000Z</time>
      </trkpt>
      <trkpt lat="47.32446" lon="-2.29948">
        <ele>13.60000038147</ele>
        <time>2021-12-09T10:41:00.000Z</time>
      </trkpt>
      <trkpt lat="47.32446" lon="-2.29952">
        <ele>13.60000038147</ele>
        <time>2021-12-09T10:41:01.000Z</time>
      </trkpt>
      <trkpt lat="47.32451" lon="-2.29961">
        <ele>13.60000038147</ele>
        <time>2021-12-09T10:41:04.000Z</time>
      </trkpt>
      <trkpt lat="47.32453" lon="-2.29964">
        <ele>13.60000038147</ele>
        <time>2021-12-09T10:41:05.000Z</time>
      </trkpt>
      <trkpt lat="47.32468" lon="-2.29989">
        <ele>13.60000038147</ele>
        <time>2021-12-09T10:41:11.000Z</time>
      </trkpt>
      <trkpt lat="47.32476" lon="-2.30003">
        <ele>13.60000038147</ele>
        <time>2021-12-09T10:41:14.000Z</time>
      </trkpt>
      <trkpt lat="47.32482" lon="-2.3002">
        <ele>13.60000038147</ele>
        <time>2021-12-09T10:41:17.000Z</time>
      </trkpt>
      <trkpt lat="47.32484" lon="-2.30026">
        <ele>13.60000038147</ele>
        <time>2021-12-09T10:41:18.000Z</time>
      </trkpt>
      <trkpt lat="47.32492" lon="-2.30054">
        <ele>13.60000038147</ele>
        <time>2021-12-09T10:41:23.000Z</time>
      </trkpt>
      <trkpt lat="47.32497" lon="-2.30073">
        <ele>13.60000038147</ele>
        <time>2021-12-09T10:41:26.000Z</time>
      </trkpt>
      <trkpt lat="47.32497" lon="-2.30085">
        <ele>13.60000038147</ele>
        <time>2021-12-09T10:41:28.000Z</time>
      </trkpt>
      <trkpt lat="47.32498" lon="-2.30111">
        <ele>13.60000038147</ele>
        <time>2021-12-09T10:41:32.000Z</time>
      </trkpt>
      <trkpt lat="47.32499" lon="-2.30117">
        <ele>13.60000038147</ele>
        <time>2021-12-09T10:41:33.000Z</time>
      </trkpt>
      <trkpt lat="47.32503" lon="-2.30147">
        <ele>13.60000038147</ele>
        <time>2021-12-09T10:41:37.000Z</time>
      </trkpt>
      <trkpt lat="47.32504" lon="-2.30161">
        <ele>13.60000038147</ele>
        <time>2021-12-09T10:41:39.000Z</time>
      </trkpt>
      <trkpt lat="47.32511" lon="-2.30202">
        <ele>13.60000038147</ele>
        <time>2021-12-09T10:41:45.000Z</time>
      </trkpt>
      <trkpt lat="47.32519" lon="-2.30265">
        <ele>13.60000038147</ele>
        <time>2021-12-09T10:41:53.000Z</time>
      </trkpt>
      <trkpt lat="47.32526" lon="-2.30305">
        <ele>13.60000038147</ele>
        <time>2021-12-09T10:41:58.000Z</time>
      </trkpt>
      <trkpt lat="47.32532" lon="-2.30329">
        <ele>13.60000038147</ele>
        <time>2021-12-09T10:42:01.000Z</time>
      </trkpt>
      <trkpt lat="47.32535" lon="-2.30345">
        <ele>13</ele>
        <time>2021-12-09T10:42:03.000Z</time>
      </trkpt>
      <trkpt lat="47.32536" lon="-2.30353">
        <ele>12.60000038147</ele>
        <time>2021-12-09T10:42:04.000Z</time>
      </trkpt>
      <trkpt lat="47.32538" lon="-2.3036">
        <ele>12.199999809265</ele>
        <time>2021-12-09T10:42:05.000Z</time>
      </trkpt>
      <trkpt lat="47.32539" lon="-2.30368">
        <ele>11.800000190735</ele>
        <time>2021-12-09T10:42:06.000Z</time>
      </trkpt>
      <trkpt lat="47.32541" lon="-2.30375">
        <ele>11.39999961853</ele>
        <time>2021-12-09T10:42:07.000Z</time>
      </trkpt>
      <trkpt lat="47.32543" lon="-2.30388">
        <ele>11.39999961853</ele>
        <time>2021-12-09T10:42:09.000Z</time>
      </trkpt>
      <trkpt lat="47.32537" lon="-2.304">
        <ele>11.39999961853</ele>
        <time>2021-12-09T10:42:11.000Z</time>
      </trkpt>
      <trkpt lat="47.32524" lon="-2.30406">
        <ele>11.39999961853</ele>
        <time>2021-12-09T10:42:14.000Z</time>
      </trkpt>
      <trkpt lat="47.32519" lon="-2.30408">
        <ele>11.39999961853</ele>
        <time>2021-12-09T10:42:15.000Z</time>
      </trkpt>
      <trkpt lat="47.32505" lon="-2.30415">
        <ele>11.39999961853</ele>
        <time>2021-12-09T10:42:18.000Z</time>
      </trkpt>
      <trkpt lat="47.32501" lon="-2.3042">
        <ele>11.39999961853</ele>
        <time>2021-12-09T10:42:19.000Z</time>
      </trkpt>
      <trkpt lat="47.32502" lon="-2.30439">
        <ele>11.39999961853</ele>
        <time>2021-12-09T10:42:22.000Z</time>
      </trkpt>
      <trkpt lat="47.32505" lon="-2.30452">
        <ele>11.39999961853</ele>
        <time>2021-12-09T10:42:24.000Z</time>
      </trkpt>
      <trkpt lat="47.32511" lon="-2.30483">
        <ele>11.39999961853</ele>
        <time>2021-12-09T10:42:28.000Z</time>
      </trkpt>
      <trkpt lat="47.32521" lon="-2.30541">
        <ele>11.39999961853</ele>
        <time>2021-12-09T10:42:35.000Z</time>
      </trkpt>
      <trkpt lat="47.32529" lon="-2.30589">
        <ele>11.39999961853</ele>
        <time>2021-12-09T10:42:41.000Z</time>
      </trkpt>
      <trkpt lat="47.32532" lon="-2.30612">
        <ele>11</ele>
        <time>2021-12-09T10:42:44.000Z</time>
      </trkpt>
      <trkpt lat="47.32534" lon="-2.3062">
        <ele>10.39999961853</ele>
        <time>2021-12-09T10:42:45.000Z</time>
      </trkpt>
      <trkpt lat="47.32536" lon="-2.30628">
        <ele>10</ele>
        <time>2021-12-09T10:42:46.000Z</time>
      </trkpt>
      <trkpt lat="47.32537" lon="-2.30637">
        <ele>9.6000003814697</ele>
        <time>2021-12-09T10:42:47.000Z</time>
      </trkpt>
      <trkpt lat="47.32539" lon="-2.30645">
        <ele>9.1999998092651</ele>
        <time>2021-12-09T10:42:48.000Z</time>
      </trkpt>
      <trkpt lat="47.32546" lon="-2.30682">
        <ele>9.1999998092651</ele>
        <time>2021-12-09T10:42:53.000Z</time>
      </trkpt>
      <trkpt lat="47.32548" lon="-2.30707">
        <ele>9.1999998092651</ele>
        <time>2021-12-09T10:42:56.000Z</time>
      </trkpt>
      <trkpt lat="47.32552" lon="-2.30731">
        <ele>9.1999998092651</ele>
        <time>2021-12-09T10:42:59.000Z</time>
      </trkpt>
      <trkpt lat="47.3256" lon="-2.30776">
        <ele>9.1999998092651</ele>
        <time>2021-12-09T10:43:05.000Z</time>
      </trkpt>
      <trkpt lat="47.32565" lon="-2.30825">
        <ele>9.1999998092651</ele>
        <time>2021-12-09T10:43:11.000Z</time>
      </trkpt>
      <trkpt lat="47.32566" lon="-2.30848">
        <ele>9.1999998092651</ele>
        <time>2021-12-09T10:43:14.000Z</time>
      </trkpt>
      <trkpt lat="47.32567" lon="-2.30872">
        <ele>9.1999998092651</ele>
        <time>2021-12-09T10:43:17.000Z</time>
      </trkpt>
      <trkpt lat="47.32567" lon="-2.30881">
        <ele>9.1999998092651</ele>
        <time>2021-12-09T10:43:18.000Z</time>
      </trkpt>
      <trkpt lat="47.32568" lon="-2.30896">
        <ele>9.1999998092651</ele>
        <time>2021-12-09T10:43:20.000Z</time>
      </trkpt>
      <trkpt lat="47.32567" lon="-2.30919">
        <ele>9.1999998092651</ele>
        <time>2021-12-09T10:43:23.000Z</time>
      </trkpt>
      <trkpt lat="47.32567" lon="-2.30926">
        <ele>9.1999998092651</ele>
        <time>2021-12-09T10:43:24.000Z</time>
      </trkpt>
      <trkpt lat="47.32566" lon="-2.3094">
        <ele>9.1999998092651</ele>
        <time>2021-12-09T10:43:26.000Z</time>
      </trkpt>
      <trkpt lat="47.32566" lon="-2.30955">
        <ele>9.1999998092651</ele>
        <time>2021-12-09T10:43:28.000Z</time>
      </trkpt>
      <trkpt lat="47.32566" lon="-2.30998">
        <ele>9.1999998092651</ele>
        <time>2021-12-09T10:43:34.000Z</time>
      </trkpt>
      <trkpt lat="47.32567" lon="-2.31013">
        <ele>9.1999998092651</ele>
        <time>2021-12-09T10:43:36.000Z</time>
      </trkpt>
      <trkpt lat="47.32572" lon="-2.31035">
        <ele>9.1999998092651</ele>
        <time>2021-12-09T10:43:39.000Z</time>
      </trkpt>
      <trkpt lat="47.32576" lon="-2.3106">
        <ele>9.1999998092651</ele>
        <time>2021-12-09T10:43:42.000Z</time>
      </trkpt>
      <trkpt lat="47.32576" lon="-2.31075">
        <ele>9.1999998092651</ele>
        <time>2021-12-09T10:43:44.000Z</time>
      </trkpt>
      <trkpt lat="47.32574" lon="-2.31126">
        <ele>9.1999998092651</ele>
        <time>2021-12-09T10:43:50.000Z</time>
      </trkpt>
      <trkpt lat="47.32572" lon="-2.31134">
        <ele>9.1999998092651</ele>
        <time>2021-12-09T10:43:51.000Z</time>
      </trkpt>
      <trkpt lat="47.32571" lon="-2.31142">
        <ele>8.3999996185303</ele>
        <time>2021-12-09T10:43:52.000Z</time>
      </trkpt>
      <trkpt lat="47.32569" lon="-2.3115">
        <ele>8</ele>
        <time>2021-12-09T10:43:53.000Z</time>
      </trkpt>
      <trkpt lat="47.32568" lon="-2.31159">
        <ele>7.5999999046326</ele>
        <time>2021-12-09T10:43:54.000Z</time>
      </trkpt>
      <trkpt lat="47.32567" lon="-2.31168">
        <ele>7</ele>
        <time>2021-12-09T10:43:55.000Z</time>
      </trkpt>
      <trkpt lat="47.32566" lon="-2.31185">
        <ele>7</ele>
        <time>2021-12-09T10:43:57.000Z</time>
      </trkpt>
      <trkpt lat="47.32571" lon="-2.312">
        <ele>7</ele>
        <time>2021-12-09T10:43:59.000Z</time>
      </trkpt>
      <trkpt lat="47.32575" lon="-2.31227">
        <ele>7</ele>
        <time>2021-12-09T10:44:02.000Z</time>
      </trkpt>
      <trkpt lat="47.32573" lon="-2.31244">
        <ele>7</ele>
        <time>2021-12-09T10:44:04.000Z</time>
      </trkpt>
      <trkpt lat="47.32571" lon="-2.31278">
        <ele>7</ele>
        <time>2021-12-09T10:44:08.000Z</time>
      </trkpt>
      <trkpt lat="47.3257" lon="-2.31303">
        <ele>7</ele>
        <time>2021-12-09T10:44:11.000Z</time>
      </trkpt>
      <trkpt lat="47.32564" lon="-2.31323">
        <ele>7</ele>
        <time>2021-12-09T10:44:14.000Z</time>
      </trkpt>
      <trkpt lat="47.32556" lon="-2.31351">
        <ele>7</ele>
        <time>2021-12-09T10:44:18.000Z</time>
      </trkpt>
      <trkpt lat="47.32555" lon="-2.31358">
        <ele>7</ele>
        <time>2021-12-09T10:44:19.000Z</time>
      </trkpt>
      <trkpt lat="47.32553" lon="-2.31391">
        <ele>7</ele>
        <time>2021-12-09T10:44:24.000Z</time>
      </trkpt>
      <trkpt lat="47.3255" lon="-2.31402">
        <ele>7</ele>
        <time>2021-12-09T10:44:27.000Z</time>
      </trkpt>
      <trkpt lat="47.3255" lon="-2.31406">
        <ele>7</ele>
        <time>2021-12-09T10:44:28.000Z</time>
      </trkpt>
      <trkpt lat="47.32554" lon="-2.31428">
        <ele>7</ele>
        <time>2021-12-09T10:44:32.000Z</time>
      </trkpt>
      <trkpt lat="47.32559" lon="-2.31467">
        <ele>7</ele>
        <time>2021-12-09T10:44:38.000Z</time>
      </trkpt>
      <trkpt lat="47.3256" lon="-2.3149">
        <ele>7</ele>
        <time>2021-12-09T10:44:41.000Z</time>
      </trkpt>
      <trkpt lat="47.32559" lon="-2.31504">
        <ele>7</ele>
        <time>2021-12-09T10:44:43.000Z</time>
      </trkpt>
      <trkpt lat="47.32557" lon="-2.31561">
        <ele>7</ele>
        <time>2021-12-09T10:44:50.000Z</time>
      </trkpt>
      <trkpt lat="47.32558" lon="-2.31569">
        <ele>7</ele>
        <time>2021-12-09T10:44:51.000Z</time>
      </trkpt>
      <trkpt lat="47.32553" lon="-2.31592">
        <ele>7</ele>
        <time>2021-12-09T10:44:54.000Z</time>
      </trkpt>
      <trkpt lat="47.32545" lon="-2.31603">
        <ele>7</ele>
        <time>2021-12-09T10:44:56.000Z</time>
      </trkpt>
      <trkpt lat="47.32533" lon="-2.31618">
        <ele>7</ele>
        <time>2021-12-09T10:44:59.000Z</time>
      </trkpt>
      <trkpt lat="47.32522" lon="-2.31635">
        <ele>7</ele>
        <time>2021-12-09T10:45:02.000Z</time>
      </trkpt>
      <trkpt lat="47.32512" lon="-2.31649">
        <ele>7</ele>
        <time>2021-12-09T10:45:05.000Z</time>
      </trkpt>
      <trkpt lat="47.32507" lon="-2.31672">
        <ele>7</ele>
        <time>2021-12-09T10:45:08.000Z</time>
      </trkpt>
      <trkpt lat="47.32509" lon="-2.31703">
        <ele>7</ele>
        <time>2021-12-09T10:45:12.000Z</time>
      </trkpt>
      <trkpt lat="47.32509" lon="-2.31711">
        <ele>7</ele>
        <time>2021-12-09T10:45:13.000Z</time>
      </trkpt>
      <trkpt lat="47.32514" lon="-2.31761">
        <ele>7</ele>
        <time>2021-12-09T10:45:19.000Z</time>
      </trkpt>
      <trkpt lat="47.32518" lon="-2.31827">
        <ele>7</ele>
        <time>2021-12-09T10:45:27.000Z</time>
      </trkpt>
      <trkpt lat="47.32518" lon="-2.31845">
        <ele>7</ele>
        <time>2021-12-09T10:45:29.000Z</time>
      </trkpt>
      <trkpt lat="47.32516" lon="-2.3188">
        <ele>7</ele>
        <time>2021-12-09T10:45:33.000Z</time>
      </trkpt>
      <trkpt lat="47.32511" lon="-2.31936">
        <ele>7</ele>
        <time>2021-12-09T10:45:40.000Z</time>
      </trkpt>
      <trkpt lat="47.32504" lon="-2.3199">
        <ele>7</ele>
        <time>2021-12-09T10:45:47.000Z</time>
      </trkpt>
      <trkpt lat="47.32502" lon="-2.32027">
        <ele>7</ele>
        <time>2021-12-09T10:45:52.000Z</time>
      </trkpt>
      <trkpt lat="47.325" lon="-2.32065">
        <ele>7</ele>
        <time>2021-12-09T10:45:58.000Z</time>
      </trkpt>
      <trkpt lat="47.32497" lon="-2.32084">
        <ele>7</ele>
        <time>2021-12-09T10:46:01.000Z</time>
      </trkpt>
      <trkpt lat="47.32491" lon="-2.32096">
        <ele>7</ele>
        <time>2021-12-09T10:46:03.000Z</time>
      </trkpt>
      <trkpt lat="47.32476" lon="-2.32099">
        <ele>7</ele>
        <time>2021-12-09T10:46:06.000Z</time>
      </trkpt>
      <trkpt lat="47.32439" lon="-2.32102">
        <ele>7</ele>
        <time>2021-12-09T10:46:13.000Z</time>
      </trkpt>
      <trkpt lat="47.32405" lon="-2.32106">
        <ele>7</ele>
        <time>2021-12-09T10:46:20.000Z</time>
      </trkpt>
      <trkpt lat="47.32378" lon="-2.32108">
        <ele>7</ele>
        <time>2021-12-09T10:46:26.000Z</time>
      </trkpt>
      <trkpt lat="47.32356" lon="-2.3211">
        <ele>7</ele>
        <time>2021-12-09T10:46:32.000Z</time>
      </trkpt>
      <trkpt lat="47.32352" lon="-2.3211">
        <ele>7</ele>
        <time>2021-12-09T10:46:33.000Z</time>
      </trkpt>
      <trkpt lat="47.32343" lon="-2.32108">
        <ele>6.5999999046326</ele>
        <time>2021-12-09T10:46:35.000Z</time>
      </trkpt>
      <trkpt lat="47.32339" lon="-2.32107">
        <ele>6.1999998092651</ele>
        <time>2021-12-09T10:46:36.000Z</time>
      </trkpt>
      <trkpt lat="47.32335" lon="-2.32106">
        <ele>5.8000001907349</ele>
        <time>2021-12-09T10:46:37.000Z</time>
      </trkpt>
      <trkpt lat="47.32331" lon="-2.32105">
        <ele>5.4000000953674</ele>
        <time>2021-12-09T10:46:38.000Z</time>
      </trkpt>
      <trkpt lat="47.32327" lon="-2.32105">
        <ele>5</ele>
        <time>2021-12-09T10:46:39.000Z</time>
      </trkpt>
      <trkpt lat="47.32315" lon="-2.32102">
        <ele>5</ele>
        <time>2021-12-09T10:46:42.000Z</time>
      </trkpt>
      <trkpt lat="47.32306" lon="-2.32101">
        <ele>5</ele>
        <time>2021-12-09T10:46:44.000Z</time>
      </trkpt>
      <trkpt lat="47.32297" lon="-2.32101">
        <ele>5</ele>
        <time>2021-12-09T10:46:46.000Z</time>
      </trkpt>
      <trkpt lat="47.32277" lon="-2.32103">
        <ele>5</ele>
        <time>2021-12-09T10:46:50.000Z</time>
      </trkpt>
      <trkpt lat="47.32241" lon="-2.32108">
        <ele>5</ele>
        <time>2021-12-09T10:46:57.000Z</time>
      </trkpt>
      <trkpt lat="47.32217" lon="-2.32114">
        <ele>5</ele>
        <time>2021-12-09T10:47:02.000Z</time>
      </trkpt>
      <trkpt lat="47.32212" lon="-2.32117">
        <ele>5</ele>
        <time>2021-12-09T10:47:05.000Z</time>
      </trkpt>
      <trkpt lat="47.32211" lon="-2.32116">
        <ele>5</ele>
        <time>2021-12-09T10:47:07.000Z</time>
      </trkpt>
      <trkpt lat="47.3221" lon="-2.32118">
        <ele>5</ele>
        <time>2021-12-09T10:47:09.000Z</time>
      </trkpt>
      <trkpt lat="47.32208" lon="-2.32119">
        <ele>5</ele>
        <time>2021-12-09T10:47:10.000Z</time>
      </trkpt>
      <trkpt lat="47.322" lon="-2.3212">
        <ele>5</ele>
        <time>2021-12-09T10:47:13.000Z</time>
      </trkpt>
      <trkpt lat="47.32197" lon="-2.32121">
        <ele>5</ele>
        <time>2021-12-09T10:47:14.000Z</time>
      </trkpt>
      <trkpt lat="47.32176" lon="-2.32137">
        <ele>5</ele>
        <time>2021-12-09T10:47:19.000Z</time>
      </trkpt>
      <trkpt lat="47.32148" lon="-2.32161">
        <ele>5</ele>
        <time>2021-12-09T10:47:25.000Z</time>
      </trkpt>
      <trkpt lat="47.32123" lon="-2.32177">
        <ele>5</ele>
        <time>2021-12-09T10:47:30.000Z</time>
      </trkpt>
      <trkpt lat="47.32118" lon="-2.32179">
        <ele>5</ele>
        <time>2021-12-09T10:47:31.000Z</time>
      </trkpt>
      <trkpt lat="47.32087" lon="-2.32184">
        <ele>5</ele>
        <time>2021-12-09T10:47:37.000Z</time>
      </trkpt>
      <trkpt lat="47.32057" lon="-2.32187">
        <ele>5</ele>
        <time>2021-12-09T10:47:43.000Z</time>
      </trkpt>
      <trkpt lat="47.32032" lon="-2.3219">
        <ele>5.4000000953674</ele>
        <time>2021-12-09T10:47:48.000Z</time>
      </trkpt>
      <trkpt lat="47.32027" lon="-2.32191">
        <ele>5.8000001907349</ele>
        <time>2021-12-09T10:47:49.000Z</time>
      </trkpt>
      <trkpt lat="47.32023" lon="-2.32193">
        <ele>6.4000000953674</ele>
        <time>2021-12-09T10:47:50.000Z</time>
      </trkpt>
      <trkpt lat="47.32017" lon="-2.32194">
        <ele>6.8000001907349</ele>
        <time>2021-12-09T10:47:51.000Z</time>
      </trkpt>
      <trkpt lat="47.32013" lon="-2.32197">
        <ele>7.1999998092651</ele>
        <time>2021-12-09T10:47:52.000Z</time>
      </trkpt>
      <trkpt lat="47.31999" lon="-2.32207">
        <ele>7.1999998092651</ele>
        <time>2021-12-09T10:47:55.000Z</time>
      </trkpt>
      <trkpt lat="47.31972" lon="-2.3223">
        <ele>7.1999998092651</ele>
        <time>2021-12-09T10:48:01.000Z</time>
      </trkpt>
      <trkpt lat="47.31965" lon="-2.32241">
        <ele>7.1999998092651</ele>
        <time>2021-12-09T10:48:04.000Z</time>
      </trkpt>
      <trkpt lat="47.31963" lon="-2.32245">
        <ele>7.5999999046326</ele>
        <time>2021-12-09T10:48:05.000Z</time>
      </trkpt>
      <trkpt lat="47.31961" lon="-2.32249">
        <ele>8</ele>
        <time>2021-12-09T10:48:06.000Z</time>
      </trkpt>
      <trkpt lat="47.3196" lon="-2.32254">
        <ele>8.3999996185303</ele>
        <time>2021-12-09T10:48:07.000Z</time>
      </trkpt>
      <trkpt lat="47.31959" lon="-2.32258">
        <ele>9</ele>
        <time>2021-12-09T10:48:08.000Z</time>
      </trkpt>
      <trkpt lat="47.31957" lon="-2.32261">
        <ele>9.3999996185303</ele>
        <time>2021-12-09T10:48:09.000Z</time>
      </trkpt>
      <trkpt lat="47.31955" lon="-2.32263">
        <ele>9.3999996185303</ele>
        <time>2021-12-09T10:48:10.000Z</time>
      </trkpt>
      <trkpt lat="47.31951" lon="-2.32262">
        <ele>9.8000001907349</ele>
        <time>2021-12-09T10:48:12.000Z</time>
      </trkpt>
      <trkpt lat="47.3195" lon="-2.32259">
        <ele>10.39999961853</ele>
        <time>2021-12-09T10:48:13.000Z</time>
      </trkpt>
      <trkpt lat="47.3195" lon="-2.32255">
        <ele>10.800000190735</ele>
        <time>2021-12-09T10:48:14.000Z</time>
      </trkpt>
      <trkpt lat="47.3195" lon="-2.32252">
        <ele>11.199999809265</ele>
        <time>2021-12-09T10:48:15.000Z</time>
      </trkpt>
      <trkpt lat="47.31951" lon="-2.32248">
        <ele>11.800000190735</ele>
        <time>2021-12-09T10:48:16.000Z</time>
      </trkpt>
      <trkpt lat="47.31951" lon="-2.32244">
        <ele>11.800000190735</ele>
        <time>2021-12-09T10:48:17.000Z</time>
      </trkpt>
      <trkpt lat="47.31956" lon="-2.32225">
        <ele>11.800000190735</ele>
        <time>2021-12-09T10:48:21.000Z</time>
      </trkpt>
      <trkpt lat="47.31955" lon="-2.3222">
        <ele>11.800000190735</ele>
        <time>2021-12-09T10:48:22.000Z</time>
      </trkpt>
      <trkpt lat="47.31951" lon="-2.32214">
        <ele>12.199999809265</ele>
        <time>2021-12-09T10:48:24.000Z</time>
      </trkpt>
      <trkpt lat="47.31948" lon="-2.32212">
        <ele>12.60000038147</ele>
        <time>2021-12-09T10:48:25.000Z</time>
      </trkpt>
      <trkpt lat="47.31944" lon="-2.32212">
        <ele>13</ele>
        <time>2021-12-09T10:48:26.000Z</time>
      </trkpt>
      <trkpt lat="47.31942" lon="-2.32211">
        <ele>13.39999961853</ele>
        <time>2021-12-09T10:48:27.000Z</time>
      </trkpt>
      <trkpt lat="47.31939" lon="-2.32211">
        <ele>13.800000190735</ele>
        <time>2021-12-09T10:48:28.000Z</time>
      </trkpt>
      <trkpt lat="47.31921" lon="-2.32205">
        <ele>14.199999809265</ele>
        <time>2021-12-09T10:48:34.000Z</time>
      </trkpt>
      <trkpt lat="47.31918" lon="-2.32204">
        <ele>14.60000038147</ele>
        <time>2021-12-09T10:48:35.000Z</time>
      </trkpt>
      <trkpt lat="47.31915" lon="-2.32203">
        <ele>15</ele>
        <time>2021-12-09T10:48:36.000Z</time>
      </trkpt>
      <trkpt lat="47.31912" lon="-2.32203">
        <ele>15.39999961853</ele>
        <time>2021-12-09T10:48:37.000Z</time>
      </trkpt>
      <trkpt lat="47.3191" lon="-2.32204">
        <ele>15.800000190735</ele>
        <time>2021-12-09T10:48:38.000Z</time>
      </trkpt>
      <trkpt lat="47.31904" lon="-2.32204">
        <ele>15.800000190735</ele>
        <time>2021-12-09T10:48:40.000Z</time>
      </trkpt>
      <trkpt lat="47.31896" lon="-2.32206">
        <ele>16.39999961853</ele>
        <time>2021-12-09T10:48:43.000Z</time>
      </trkpt>
      <trkpt lat="47.31894" lon="-2.32206">
        <ele>16.799999237061</ele>
        <time>2021-12-09T10:48:44.000Z</time>
      </trkpt>
      <trkpt lat="47.31892" lon="-2.32207">
        <ele>17.200000762939</ele>
        <time>2021-12-09T10:48:45.000Z</time>
      </trkpt>
      <trkpt lat="47.31889" lon="-2.32207">
        <ele>17.60000038147</ele>
        <time>2021-12-09T10:48:46.000Z</time>
      </trkpt>
      <trkpt lat="47.31886" lon="-2.32209">
        <ele>18</ele>
        <time>2021-12-09T10:48:47.000Z</time>
      </trkpt>
      <trkpt lat="47.31871" lon="-2.32213">
        <ele>18</ele>
        <time>2021-12-09T10:48:52.000Z</time>
      </trkpt>
      <trkpt lat="47.31861" lon="-2.32216">
        <ele>18.39999961853</ele>
        <time>2021-12-09T10:48:56.000Z</time>
      </trkpt>
      <trkpt lat="47.31859" lon="-2.32217">
        <ele>19</ele>
        <time>2021-12-09T10:48:57.000Z</time>
      </trkpt>
      <trkpt lat="47.31857" lon="-2.32218">
        <ele>19.39999961853</ele>
        <time>2021-12-09T10:48:58.000Z</time>
      </trkpt>
      <trkpt lat="47.31855" lon="-2.32219">
        <ele>19.799999237061</ele>
        <time>2021-12-09T10:48:59.000Z</time>
      </trkpt>
      <trkpt lat="47.31852" lon="-2.3222">
        <ele>20.200000762939</ele>
        <time>2021-12-09T10:49:00.000Z</time>
      </trkpt>
      <trkpt lat="47.31841" lon="-2.32224">
        <ele>20.60000038147</ele>
        <time>2021-12-09T10:49:05.000Z</time>
      </trkpt>
      <trkpt lat="47.31838" lon="-2.32225">
        <ele>21</ele>
        <time>2021-12-09T10:49:06.000Z</time>
      </trkpt>
      <trkpt lat="47.31836" lon="-2.32225">
        <ele>21.60000038147</ele>
        <time>2021-12-09T10:49:07.000Z</time>
      </trkpt>
      <trkpt lat="47.31833" lon="-2.32225">
        <ele>22</ele>
        <time>2021-12-09T10:49:08.000Z</time>
      </trkpt>
      <trkpt lat="47.3183" lon="-2.32225">
        <ele>22.39999961853</ele>
        <time>2021-12-09T10:49:09.000Z</time>
      </trkpt>
      <trkpt lat="47.31822" lon="-2.32226">
        <ele>22.39999961853</ele>
        <time>2021-12-09T10:49:12.000Z</time>
      </trkpt>
      <trkpt lat="47.31801" lon="-2.32228">
        <ele>22.39999961853</ele>
        <time>2021-12-09T10:49:19.000Z</time>
      </trkpt>
      <trkpt lat="47.31794" lon="-2.32229">
        <ele>22.799999237061</ele>
        <time>2021-12-09T10:49:21.000Z</time>
      </trkpt>
      <trkpt lat="47.31791" lon="-2.32229">
        <ele>23.200000762939</ele>
        <time>2021-12-09T10:49:22.000Z</time>
      </trkpt>
      <trkpt lat="47.31788" lon="-2.3223">
        <ele>23.60000038147</ele>
        <time>2021-12-09T10:49:23.000Z</time>
      </trkpt>
      <trkpt lat="47.31785" lon="-2.32231">
        <ele>24</ele>
        <time>2021-12-09T10:49:24.000Z</time>
      </trkpt>
      <trkpt lat="47.31782" lon="-2.32231">
        <ele>24.39999961853</ele>
        <time>2021-12-09T10:49:25.000Z</time>
      </trkpt>
      <trkpt lat="47.31763" lon="-2.32232">
        <ele>24.39999961853</ele>
        <time>2021-12-09T10:49:32.000Z</time>
      </trkpt>
      <trkpt lat="47.31758" lon="-2.32235">
        <ele>24.39999961853</ele>
        <time>2021-12-09T10:49:34.000Z</time>
      </trkpt>
      <trkpt lat="47.31756" lon="-2.32244">
        <ele>24.39999961853</ele>
        <time>2021-12-09T10:49:36.000Z</time>
      </trkpt>
      <trkpt lat="47.31757" lon="-2.32254">
        <ele>24.39999961853</ele>
        <time>2021-12-09T10:49:38.000Z</time>
      </trkpt>
      <trkpt lat="47.3176" lon="-2.3227">
        <ele>24.39999961853</ele>
        <time>2021-12-09T10:49:41.000Z</time>
      </trkpt>
      <trkpt lat="47.31764" lon="-2.32294">
        <ele>24.39999961853</ele>
        <time>2021-12-09T10:49:45.000Z</time>
      </trkpt>
      <trkpt lat="47.31769" lon="-2.32315">
        <ele>24.39999961853</ele>
        <time>2021-12-09T10:49:48.000Z</time>
      </trkpt>
      <trkpt lat="47.31777" lon="-2.32358">
        <ele>24.39999961853</ele>
        <time>2021-12-09T10:49:54.000Z</time>
      </trkpt>
      <trkpt lat="47.31786" lon="-2.32415">
        <ele>24.39999961853</ele>
        <time>2021-12-09T10:50:01.000Z</time>
      </trkpt>
      <trkpt lat="47.31789" lon="-2.32442">
        <ele>24</ele>
        <time>2021-12-09T10:50:04.000Z</time>
      </trkpt>
      <trkpt lat="47.31789" lon="-2.3245">
        <ele>23.60000038147</ele>
        <time>2021-12-09T10:50:05.000Z</time>
      </trkpt>
      <trkpt lat="47.3179" lon="-2.32457">
        <ele>23.200000762939</ele>
        <time>2021-12-09T10:50:06.000Z</time>
      </trkpt>
      <trkpt lat="47.31792" lon="-2.32464">
        <ele>22.799999237061</ele>
        <time>2021-12-09T10:50:07.000Z</time>
      </trkpt>
      <trkpt lat="47.31793" lon="-2.3247">
        <ele>22.39999961853</ele>
        <time>2021-12-09T10:50:08.000Z</time>
      </trkpt>
      <trkpt lat="47.31796" lon="-2.32485">
        <ele>21.799999237061</ele>
        <time>2021-12-09T10:50:10.000Z</time>
      </trkpt>
      <trkpt lat="47.31798" lon="-2.32494">
        <ele>21.39999961853</ele>
        <time>2021-12-09T10:50:11.000Z</time>
      </trkpt>
      <trkpt lat="47.318" lon="-2.32504">
        <ele>20.799999237061</ele>
        <time>2021-12-09T10:50:12.000Z</time>
      </trkpt>
      <trkpt lat="47.31802" lon="-2.32513">
        <ele>20.39999961853</ele>
        <time>2021-12-09T10:50:13.000Z</time>
      </trkpt>
      <trkpt lat="47.31804" lon="-2.32522">
        <ele>19.799999237061</ele>
        <time>2021-12-09T10:50:14.000Z</time>
      </trkpt>
      <trkpt lat="47.31811" lon="-2.32551">
        <ele>19.39999961853</ele>
        <time>2021-12-09T10:50:17.000Z</time>
      </trkpt>
      <trkpt lat="47.31814" lon="-2.32561">
        <ele>19</ele>
        <time>2021-12-09T10:50:18.000Z</time>
      </trkpt>
      <trkpt lat="47.31816" lon="-2.32571">
        <ele>18.60000038147</ele>
        <time>2021-12-09T10:50:19.000Z</time>
      </trkpt>
      <trkpt lat="47.31819" lon="-2.32581">
        <ele>18.200000762939</ele>
        <time>2021-12-09T10:50:20.000Z</time>
      </trkpt>
      <trkpt lat="47.31821" lon="-2.32591">
        <ele>17.799999237061</ele>
        <time>2021-12-09T10:50:21.000Z</time>
      </trkpt>
      <trkpt lat="47.31828" lon="-2.32619">
        <ele>17.799999237061</ele>
        <time>2021-12-09T10:50:24.000Z</time>
      </trkpt>
      <trkpt lat="47.31834" lon="-2.32646">
        <ele>16.799999237061</ele>
        <time>2021-12-09T10:50:27.000Z</time>
      </trkpt>
      <trkpt lat="47.31836" lon="-2.32654">
        <ele>16.39999961853</ele>
        <time>2021-12-09T10:50:28.000Z</time>
      </trkpt>
      <trkpt lat="47.31838" lon="-2.32662">
        <ele>16</ele>
        <time>2021-12-09T10:50:29.000Z</time>
      </trkpt>
      <trkpt lat="47.3184" lon="-2.32669">
        <ele>15.39999961853</ele>
        <time>2021-12-09T10:50:30.000Z</time>
      </trkpt>
      <trkpt lat="47.31857" lon="-2.32714">
        <ele>15.39999961853</ele>
        <time>2021-12-09T10:50:36.000Z</time>
      </trkpt>
      <trkpt lat="47.31863" lon="-2.32728">
        <ele>15</ele>
        <time>2021-12-09T10:50:38.000Z</time>
      </trkpt>
      <trkpt lat="47.31866" lon="-2.32736">
        <ele>14.60000038147</ele>
        <time>2021-12-09T10:50:39.000Z</time>
      </trkpt>
      <trkpt lat="47.31869" lon="-2.32744">
        <ele>14.199999809265</ele>
        <time>2021-12-09T10:50:40.000Z</time>
      </trkpt>
      <trkpt lat="47.31873" lon="-2.32752">
        <ele>13.800000190735</ele>
        <time>2021-12-09T10:50:41.000Z</time>
      </trkpt>
      <trkpt lat="47.31876" lon="-2.3276">
        <ele>13.39999961853</ele>
        <time>2021-12-09T10:50:42.000Z</time>
      </trkpt>
      <trkpt lat="47.31878" lon="-2.32769">
        <ele>13.39999961853</ele>
        <time>2021-12-09T10:50:43.000Z</time>
      </trkpt>
      <trkpt lat="47.31885" lon="-2.32811">
        <ele>13.39999961853</ele>
        <time>2021-12-09T10:50:48.000Z</time>
      </trkpt>
      <trkpt lat="47.31885" lon="-2.3282">
        <ele>13.39999961853</ele>
        <time>2021-12-09T10:50:49.000Z</time>
      </trkpt>
      <trkpt lat="47.31888" lon="-2.32863">
        <ele>13.39999961853</ele>
        <time>2021-12-09T10:50:54.000Z</time>
      </trkpt>
      <trkpt lat="47.31888" lon="-2.32871">
        <ele>13.39999961853</ele>
        <time>2021-12-09T10:50:55.000Z</time>
      </trkpt>
      <trkpt lat="47.31889" lon="-2.32894">
        <ele>13.39999961853</ele>
        <time>2021-12-09T10:50:58.000Z</time>
      </trkpt>
      <trkpt lat="47.3189" lon="-2.32916">
        <ele>13.39999961853</ele>
        <time>2021-12-09T10:51:01.000Z</time>
      </trkpt>
      <trkpt lat="47.31889" lon="-2.32955">
        <ele>13</ele>
        <time>2021-12-09T10:51:06.000Z</time>
      </trkpt>
      <trkpt lat="47.31888" lon="-2.32963">
        <ele>12.60000038147</ele>
        <time>2021-12-09T10:51:07.000Z</time>
      </trkpt>
      <trkpt lat="47.31886" lon="-2.3297">
        <ele>12.199999809265</ele>
        <time>2021-12-09T10:51:08.000Z</time>
      </trkpt>
      <trkpt lat="47.31885" lon="-2.32977">
        <ele>11.800000190735</ele>
        <time>2021-12-09T10:51:09.000Z</time>
      </trkpt>
      <trkpt lat="47.31884" lon="-2.32984">
        <ele>11.39999961853</ele>
        <time>2021-12-09T10:51:10.000Z</time>
      </trkpt>
      <trkpt lat="47.31882" lon="-2.32994">
        <ele>11.39999961853</ele>
        <time>2021-12-09T10:51:12.000Z</time>
      </trkpt>
      <trkpt lat="47.31884" lon="-2.33019">
        <ele>11.39999961853</ele>
        <time>2021-12-09T10:51:17.000Z</time>
      </trkpt>
      <trkpt lat="47.31882" lon="-2.33052">
        <ele>11.39999961853</ele>
        <time>2021-12-09T10:51:23.000Z</time>
      </trkpt>
      <trkpt lat="47.3188" lon="-2.3309">
        <ele>11.39999961853</ele>
        <time>2021-12-09T10:51:30.000Z</time>
      </trkpt>
      <trkpt lat="47.31878" lon="-2.33124">
        <ele>11.39999961853</ele>
        <time>2021-12-09T10:51:37.000Z</time>
      </trkpt>
      <trkpt lat="47.31874" lon="-2.33146">
        <ele>11.800000190735</ele>
        <time>2021-12-09T10:51:42.000Z</time>
      </trkpt>
      <trkpt lat="47.31874" lon="-2.33151">
        <ele>12.199999809265</ele>
        <time>2021-12-09T10:51:43.000Z</time>
      </trkpt>
      <trkpt lat="47.31873" lon="-2.33156">
        <ele>12.60000038147</ele>
        <time>2021-12-09T10:51:44.000Z</time>
      </trkpt>
      <trkpt lat="47.31872" lon="-2.33161">
        <ele>13</ele>
        <time>2021-12-09T10:51:45.000Z</time>
      </trkpt>
      <trkpt lat="47.31872" lon="-2.33166">
        <ele>13.39999961853</ele>
        <time>2021-12-09T10:51:46.000Z</time>
      </trkpt>
      <trkpt lat="47.31867" lon="-2.33192">
        <ele>13.39999961853</ele>
        <time>2021-12-09T10:51:51.000Z</time>
      </trkpt>
      <trkpt lat="47.31863" lon="-2.33228">
        <ele>13.39999961853</ele>
        <time>2021-12-09T10:51:58.000Z</time>
      </trkpt>
      <trkpt lat="47.31853" lon="-2.33256">
        <ele>13.800000190735</ele>
        <time>2021-12-09T10:52:02.000Z</time>
      </trkpt>
      <trkpt lat="47.31851" lon="-2.33261">
        <ele>14.199999809265</ele>
        <time>2021-12-09T10:52:03.000Z</time>
      </trkpt>
      <trkpt lat="47.31848" lon="-2.33265">
        <ele>14.60000038147</ele>
        <time>2021-12-09T10:52:04.000Z</time>
      </trkpt>
      <trkpt lat="47.31846" lon="-2.33269">
        <ele>15</ele>
        <time>2021-12-09T10:52:05.000Z</time>
      </trkpt>
      <trkpt lat="47.31844" lon="-2.33273">
        <ele>15.39999961853</ele>
        <time>2021-12-09T10:52:06.000Z</time>
      </trkpt>
      <trkpt lat="47.31831" lon="-2.3329">
        <ele>15.39999961853</ele>
        <time>2021-12-09T10:52:11.000Z</time>
      </trkpt>
      <trkpt lat="47.31816" lon="-2.33304">
        <ele>15.800000190735</ele>
        <time>2021-12-09T10:52:18.000Z</time>
      </trkpt>
      <trkpt lat="47.31814" lon="-2.33305">
        <ele>16.200000762939</ele>
        <time>2021-12-09T10:52:19.000Z</time>
      </trkpt>
      <trkpt lat="47.31812" lon="-2.33307">
        <ele>16.799999237061</ele>
        <time>2021-12-09T10:52:20.000Z</time>
      </trkpt>
      <trkpt lat="47.31809" lon="-2.33309">
        <ele>17.200000762939</ele>
        <time>2021-12-09T10:52:21.000Z</time>
      </trkpt>
      <trkpt lat="47.31807" lon="-2.33311">
        <ele>17.60000038147</ele>
        <time>2021-12-09T10:52:22.000Z</time>
      </trkpt>
      <trkpt lat="47.31802" lon="-2.33316">
        <ele>17.60000038147</ele>
        <time>2021-12-09T10:52:24.000Z</time>
      </trkpt>
      <trkpt lat="47.31795" lon="-2.33322">
        <ele>18</ele>
        <time>2021-12-09T10:52:27.000Z</time>
      </trkpt>
      <trkpt lat="47.31794" lon="-2.33323">
        <ele>18.60000038147</ele>
        <time>2021-12-09T10:52:28.000Z</time>
      </trkpt>
      <trkpt lat="47.31791" lon="-2.33325">
        <ele>19</ele>
        <time>2021-12-09T10:52:29.000Z</time>
      </trkpt>
      <trkpt lat="47.31789" lon="-2.33327">
        <ele>19.39999961853</ele>
        <time>2021-12-09T10:52:30.000Z</time>
      </trkpt>
      <trkpt lat="47.31786" lon="-2.33329">
        <ele>19.799999237061</ele>
        <time>2021-12-09T10:52:31.000Z</time>
      </trkpt>
      <trkpt lat="47.31777" lon="-2.33332">
        <ele>19.799999237061</ele>
        <time>2021-12-09T10:52:34.000Z</time>
      </trkpt>
      <trkpt lat="47.31772" lon="-2.33329">
        <ele>20.200000762939</ele>
        <time>2021-12-09T10:52:36.000Z</time>
      </trkpt>
      <trkpt lat="47.31771" lon="-2.33327">
        <ele>20.60000038147</ele>
        <time>2021-12-09T10:52:37.000Z</time>
      </trkpt>
      <trkpt lat="47.31769" lon="-2.33325">
        <ele>21</ele>
        <time>2021-12-09T10:52:38.000Z</time>
      </trkpt>
      <trkpt lat="47.31768" lon="-2.33323">
        <ele>21.39999961853</ele>
        <time>2021-12-09T10:52:39.000Z</time>
      </trkpt>
      <trkpt lat="47.31767" lon="-2.33321">
        <ele>21.799999237061</ele>
        <time>2021-12-09T10:52:40.000Z</time>
      </trkpt>
      <trkpt lat="47.31763" lon="-2.33311">
        <ele>21.799999237061</ele>
        <time>2021-12-09T10:52:43.000Z</time>
      </trkpt>
      <trkpt lat="47.31753" lon="-2.33284">
        <ele>21.799999237061</ele>
        <time>2021-12-09T10:52:50.000Z</time>
      </trkpt>
      <trkpt lat="47.31746" lon="-2.33256">
        <ele>21.799999237061</ele>
        <time>2021-12-09T10:52:57.000Z</time>
      </trkpt>
      <trkpt lat="47.31739" lon="-2.33255">
        <ele>22.200000762939</ele>
        <time>2021-12-09T10:53:00.000Z</time>
      </trkpt>
      <trkpt lat="47.31736" lon="-2.33256">
        <ele>22.60000038147</ele>
        <time>2021-12-09T10:53:01.000Z</time>
      </trkpt>
      <trkpt lat="47.31733" lon="-2.33257">
        <ele>23</ele>
        <time>2021-12-09T10:53:02.000Z</time>
      </trkpt>
      <trkpt lat="47.3173" lon="-2.33258">
        <ele>23.39999961853</ele>
        <time>2021-12-09T10:53:03.000Z</time>
      </trkpt>
      <trkpt lat="47.31727" lon="-2.33259">
        <ele>23.799999237061</ele>
        <time>2021-12-09T10:53:04.000Z</time>
      </trkpt>
      <trkpt lat="47.31712" lon="-2.33263">
        <ele>23.799999237061</ele>
        <time>2021-12-09T10:53:09.000Z</time>
      </trkpt>
      <trkpt lat="47.317" lon="-2.33268">
        <ele>24.200000762939</ele>
        <time>2021-12-09T10:53:15.000Z</time>
      </trkpt>
      <trkpt lat="47.31697" lon="-2.33269">
        <ele>24.60000038147</ele>
        <time>2021-12-09T10:53:16.000Z</time>
      </trkpt>
      <trkpt lat="47.31693" lon="-2.33271">
        <ele>25.200000762939</ele>
        <time>2021-12-09T10:53:17.000Z</time>
      </trkpt>
      <trkpt lat="47.3169" lon="-2.33272">
        <ele>25.60000038147</ele>
        <time>2021-12-09T10:53:18.000Z</time>
      </trkpt>
      <trkpt lat="47.31685" lon="-2.33273">
        <ele>26</ele>
        <time>2021-12-09T10:53:19.000Z</time>
      </trkpt>
      <trkpt lat="47.3167" lon="-2.33278">
        <ele>26</ele>
        <time>2021-12-09T10:53:23.000Z</time>
      </trkpt>
      <trkpt lat="47.31641" lon="-2.33294">
        <ele>26</ele>
        <time>2021-12-09T10:53:31.000Z</time>
      </trkpt>
      <trkpt lat="47.31637" lon="-2.33295">
        <ele>26.39999961853</ele>
        <time>2021-12-09T10:53:32.000Z</time>
      </trkpt>
      <trkpt lat="47.31634" lon="-2.33296">
        <ele>26.799999237061</ele>
        <time>2021-12-09T10:53:33.000Z</time>
      </trkpt>
      <trkpt lat="47.3163" lon="-2.33298">
        <ele>27.200000762939</ele>
        <time>2021-12-09T10:53:34.000Z</time>
      </trkpt>
      <trkpt lat="47.31627" lon="-2.333">
        <ele>27.60000038147</ele>
        <time>2021-12-09T10:53:35.000Z</time>
      </trkpt>
      <trkpt lat="47.31623" lon="-2.33302">
        <ele>28</ele>
        <time>2021-12-09T10:53:36.000Z</time>
      </trkpt>
      <trkpt lat="47.3162" lon="-2.33304">
        <ele>28</ele>
        <time>2021-12-09T10:53:37.000Z</time>
      </trkpt>
      <trkpt lat="47.31597" lon="-2.33318">
        <ele>28</ele>
        <time>2021-12-09T10:53:43.000Z</time>
      </trkpt>
      <trkpt lat="47.31563" lon="-2.33335">
        <ele>28</ele>
        <time>2021-12-09T10:53:51.000Z</time>
      </trkpt>
      <trkpt lat="47.31522" lon="-2.33352">
        <ele>28</ele>
        <time>2021-12-09T10:53:59.000Z</time>
      </trkpt>
      <trkpt lat="47.3149" lon="-2.33369">
        <ele>28</ele>
        <time>2021-12-09T10:54:06.000Z</time>
      </trkpt>
      <trkpt lat="47.31478" lon="-2.33363">
        <ele>28</ele>
        <time>2021-12-09T10:54:09.000Z</time>
      </trkpt>
      <trkpt lat="47.3147" lon="-2.33345">
        <ele>28</ele>
        <time>2021-12-09T10:54:12.000Z</time>
      </trkpt>
      <trkpt lat="47.31467" lon="-2.33339">
        <ele>28</ele>
        <time>2021-12-09T10:54:13.000Z</time>
      </trkpt>
      <trkpt lat="47.31445" lon="-2.333">
        <ele>28</ele>
        <time>2021-12-09T10:54:20.000Z</time>
      </trkpt>
      <trkpt lat="47.31437" lon="-2.3329">
        <ele>28</ele>
        <time>2021-12-09T10:54:22.000Z</time>
      </trkpt>
      <trkpt lat="47.31421" lon="-2.33276">
        <ele>28</ele>
        <time>2021-12-09T10:54:25.000Z</time>
      </trkpt>
      <trkpt lat="47.31372" lon="-2.33238">
        <ele>28</ele>
        <time>2021-12-09T10:54:34.000Z</time>
      </trkpt>
      <trkpt lat="47.31334" lon="-2.33207">
        <ele>28</ele>
        <time>2021-12-09T10:54:41.000Z</time>
      </trkpt>
      <trkpt lat="47.31329" lon="-2.33202">
        <ele>27.60000038147</ele>
        <time>2021-12-09T10:54:42.000Z</time>
      </trkpt>
      <trkpt lat="47.31323" lon="-2.33197">
        <ele>27.200000762939</ele>
        <time>2021-12-09T10:54:43.000Z</time>
      </trkpt>
      <trkpt lat="47.31317" lon="-2.33193">
        <ele>26.799999237061</ele>
        <time>2021-12-09T10:54:44.000Z</time>
      </trkpt>
      <trkpt lat="47.31312" lon="-2.33188">
        <ele>26.39999961853</ele>
        <time>2021-12-09T10:54:45.000Z</time>
      </trkpt>
      <trkpt lat="47.31306" lon="-2.33183">
        <ele>26</ele>
        <time>2021-12-09T10:54:46.000Z</time>
      </trkpt>
      <trkpt lat="47.31296" lon="-2.33174">
        <ele>26</ele>
        <time>2021-12-09T10:54:48.000Z</time>
      </trkpt>
      <trkpt lat="47.31269" lon="-2.33159">
        <ele>26</ele>
        <time>2021-12-09T10:54:53.000Z</time>
      </trkpt>
      <trkpt lat="47.31235" lon="-2.33151">
        <ele>26</ele>
        <time>2021-12-09T10:54:59.000Z</time>
      </trkpt>
      <trkpt lat="47.31217" lon="-2.33151">
        <ele>26</ele>
        <time>2021-12-09T10:55:02.000Z</time>
      </trkpt>
      <trkpt lat="47.31206" lon="-2.33154">
        <ele>26</ele>
        <time>2021-12-09T10:55:04.000Z</time>
      </trkpt>
      <trkpt lat="47.31195" lon="-2.33159">
        <ele>26</ele>
        <time>2021-12-09T10:55:06.000Z</time>
      </trkpt>
      <trkpt lat="47.31185" lon="-2.33164">
        <ele>26</ele>
        <time>2021-12-09T10:55:08.000Z</time>
      </trkpt>
      <trkpt lat="47.3117" lon="-2.33175">
        <ele>26</ele>
        <time>2021-12-09T10:55:11.000Z</time>
      </trkpt>
      <trkpt lat="47.31165" lon="-2.33177">
        <ele>26</ele>
        <time>2021-12-09T10:55:12.000Z</time>
      </trkpt>
      <trkpt lat="47.31148" lon="-2.3319">
        <ele>26</ele>
        <time>2021-12-09T10:55:16.000Z</time>
      </trkpt>
      <trkpt lat="47.3113" lon="-2.33201">
        <ele>26</ele>
        <time>2021-12-09T10:55:20.000Z</time>
      </trkpt>
      <trkpt lat="47.31121" lon="-2.33206">
        <ele>26</ele>
        <time>2021-12-09T10:55:22.000Z</time>
      </trkpt>
      <trkpt lat="47.31113" lon="-2.33214">
        <ele>26</ele>
        <time>2021-12-09T10:55:24.000Z</time>
      </trkpt>
      <trkpt lat="47.31109" lon="-2.33227">
        <ele>26</ele>
        <time>2021-12-09T10:55:26.000Z</time>
      </trkpt>
      <trkpt lat="47.31107" lon="-2.33241">
        <ele>26</ele>
        <time>2021-12-09T10:55:28.000Z</time>
      </trkpt>
      <trkpt lat="47.31105" lon="-2.33263">
        <ele>26</ele>
        <time>2021-12-09T10:55:31.000Z</time>
      </trkpt>
      <trkpt lat="47.31101" lon="-2.33325">
        <ele>26</ele>
        <time>2021-12-09T10:55:39.000Z</time>
      </trkpt>
      <trkpt lat="47.31099" lon="-2.33384">
        <ele>26</ele>
        <time>2021-12-09T10:55:47.000Z</time>
      </trkpt>
      <trkpt lat="47.31099" lon="-2.33407">
        <ele>26.799999237061</ele>
        <time>2021-12-09T10:55:50.000Z</time>
      </trkpt>
      <trkpt lat="47.31099" lon="-2.33414">
        <ele>27.200000762939</ele>
        <time>2021-12-09T10:55:51.000Z</time>
      </trkpt>
      <trkpt lat="47.31099" lon="-2.33421">
        <ele>27.60000038147</ele>
        <time>2021-12-09T10:55:52.000Z</time>
      </trkpt>
      <trkpt lat="47.31099" lon="-2.33428">
        <ele>28</ele>
        <time>2021-12-09T10:55:53.000Z</time>
      </trkpt>
      <trkpt lat="47.31099" lon="-2.33435">
        <ele>28</ele>
        <time>2021-12-09T10:55:54.000Z</time>
      </trkpt>
      <trkpt lat="47.31099" lon="-2.33457">
        <ele>28</ele>
        <time>2021-12-09T10:55:57.000Z</time>
      </trkpt>
      <trkpt lat="47.311" lon="-2.33479">
        <ele>28</ele>
        <time>2021-12-09T10:56:00.000Z</time>
      </trkpt>
      <trkpt lat="47.311" lon="-2.33487">
        <ele>28</ele>
        <time>2021-12-09T10:56:01.000Z</time>
      </trkpt>
      <trkpt lat="47.31104" lon="-2.33513">
        <ele>28</ele>
        <time>2021-12-09T10:56:05.000Z</time>
      </trkpt>
      <trkpt lat="47.31107" lon="-2.33526">
        <ele>28</ele>
        <time>2021-12-09T10:56:07.000Z</time>
      </trkpt>
      <trkpt lat="47.31111" lon="-2.33545">
        <ele>28.39999961853</ele>
        <time>2021-12-09T10:56:10.000Z</time>
      </trkpt>
      <trkpt lat="47.31111" lon="-2.33553">
        <ele>28.799999237061</ele>
        <time>2021-12-09T10:56:11.000Z</time>
      </trkpt>
      <trkpt lat="47.31112" lon="-2.3356">
        <ele>29.200000762939</ele>
        <time>2021-12-09T10:56:12.000Z</time>
      </trkpt>
      <trkpt lat="47.31112" lon="-2.33568">
        <ele>29.60000038147</ele>
        <time>2021-12-09T10:56:13.000Z</time>
      </trkpt>
      <trkpt lat="47.31112" lon="-2.33576">
        <ele>30</ele>
        <time>2021-12-09T10:56:14.000Z</time>
      </trkpt>
      <trkpt lat="47.31112" lon="-2.336">
        <ele>30</ele>
        <time>2021-12-09T10:56:17.000Z</time>
      </trkpt>
      <trkpt lat="47.31111" lon="-2.33607">
        <ele>30</ele>
        <time>2021-12-09T10:56:18.000Z</time>
      </trkpt>
      <trkpt lat="47.31107" lon="-2.33638">
        <ele>30</ele>
        <time>2021-12-09T10:56:22.000Z</time>
      </trkpt>
      <trkpt lat="47.31106" lon="-2.33645">
        <ele>30</ele>
        <time>2021-12-09T10:56:23.000Z</time>
      </trkpt>
      <trkpt lat="47.311" lon="-2.33684">
        <ele>30</ele>
        <time>2021-12-09T10:56:28.000Z</time>
      </trkpt>
      <trkpt lat="47.31093" lon="-2.33735">
        <ele>30</ele>
        <time>2021-12-09T10:56:35.000Z</time>
      </trkpt>
      <trkpt lat="47.31086" lon="-2.33771">
        <ele>30</ele>
        <time>2021-12-09T10:56:40.000Z</time>
      </trkpt>
      <trkpt lat="47.31083" lon="-2.33777">
        <ele>30</ele>
        <time>2021-12-09T10:56:41.000Z</time>
      </trkpt>
      <trkpt lat="47.3107" lon="-2.33808">
        <ele>30</ele>
        <time>2021-12-09T10:56:46.000Z</time>
      </trkpt>
      <trkpt lat="47.31068" lon="-2.33822">
        <ele>30</ele>
        <time>2021-12-09T10:56:48.000Z</time>
      </trkpt>
      <trkpt lat="47.31066" lon="-2.33845">
        <ele>30</ele>
        <time>2021-12-09T10:56:51.000Z</time>
      </trkpt>
      <trkpt lat="47.31064" lon="-2.33868">
        <ele>30</ele>
        <time>2021-12-09T10:56:54.000Z</time>
      </trkpt>
      <trkpt lat="47.31063" lon="-2.33919">
        <ele>30</ele>
        <time>2021-12-09T10:57:01.000Z</time>
      </trkpt>
      <trkpt lat="47.31059" lon="-2.3394">
        <ele>30</ele>
        <time>2021-12-09T10:57:04.000Z</time>
      </trkpt>
      <trkpt lat="47.31052" lon="-2.3395">
        <ele>30</ele>
        <time>2021-12-09T10:57:06.000Z</time>
      </trkpt>
      <trkpt lat="47.31035" lon="-2.33955">
        <ele>30</ele>
        <time>2021-12-09T10:57:10.000Z</time>
      </trkpt>
      <trkpt lat="47.3103" lon="-2.33955">
        <ele>30</ele>
        <time>2021-12-09T10:57:11.000Z</time>
      </trkpt>
      <trkpt lat="47.31001" lon="-2.33958">
        <ele>30</ele>
        <time>2021-12-09T10:57:17.000Z</time>
      </trkpt>
      <trkpt lat="47.30992" lon="-2.33958">
        <ele>30.39999961853</ele>
        <time>2021-12-09T10:57:19.000Z</time>
      </trkpt>
      <trkpt lat="47.30987" lon="-2.33959">
        <ele>30.799999237061</ele>
        <time>2021-12-09T10:57:20.000Z</time>
      </trkpt>
      <trkpt lat="47.30982" lon="-2.33959">
        <ele>31.39999961853</ele>
        <time>2021-12-09T10:57:21.000Z</time>
      </trkpt>
      <trkpt lat="47.30977" lon="-2.33959">
        <ele>31.799999237061</ele>
        <time>2021-12-09T10:57:22.000Z</time>
      </trkpt>
      <trkpt lat="47.30972" lon="-2.33959">
        <ele>32.200000762939</ele>
        <time>2021-12-09T10:57:23.000Z</time>
      </trkpt>
      <trkpt lat="47.30967" lon="-2.33958">
        <ele>32.200000762939</ele>
        <time>2021-12-09T10:57:24.000Z</time>
      </trkpt>
      <trkpt lat="47.30931" lon="-2.33951">
        <ele>32.200000762939</ele>
        <time>2021-12-09T10:57:31.000Z</time>
      </trkpt>
      <trkpt lat="47.30892" lon="-2.3395">
        <ele>32.200000762939</ele>
        <time>2021-12-09T10:57:38.000Z</time>
      </trkpt>
      <trkpt lat="47.30854" lon="-2.33955">
        <ele>32.200000762939</ele>
        <time>2021-12-09T10:57:45.000Z</time>
      </trkpt>
      <trkpt lat="47.30838" lon="-2.33958">
        <ele>32.200000762939</ele>
        <time>2021-12-09T10:57:48.000Z</time>
      </trkpt>
      <trkpt lat="47.30822" lon="-2.33962">
        <ele>32.200000762939</ele>
        <time>2021-12-09T10:57:51.000Z</time>
      </trkpt>
      <trkpt lat="47.30788" lon="-2.33972">
        <ele>32.200000762939</ele>
        <time>2021-12-09T10:57:58.000Z</time>
      </trkpt>
      <trkpt lat="47.30781" lon="-2.33977">
        <ele>32.200000762939</ele>
        <time>2021-12-09T10:58:00.000Z</time>
      </trkpt>
      <trkpt lat="47.30778" lon="-2.33988">
        <ele>32.200000762939</ele>
        <time>2021-12-09T10:58:02.000Z</time>
      </trkpt>
      <trkpt lat="47.30779" lon="-2.33998">
        <ele>32.200000762939</ele>
        <time>2021-12-09T10:58:04.000Z</time>
      </trkpt>
      <trkpt lat="47.3078" lon="-2.34008">
        <ele>32.200000762939</ele>
        <time>2021-12-09T10:58:06.000Z</time>
      </trkpt>
      <trkpt lat="47.3078" lon="-2.34045">
        <ele>32.200000762939</ele>
        <time>2021-12-09T10:58:12.000Z</time>
      </trkpt>
      <trkpt lat="47.30779" lon="-2.34077">
        <ele>32.200000762939</ele>
        <time>2021-12-09T10:58:17.000Z</time>
      </trkpt>
      <trkpt lat="47.30778" lon="-2.34083">
        <ele>32.200000762939</ele>
        <time>2021-12-09T10:58:18.000Z</time>
      </trkpt>
      <trkpt lat="47.30778" lon="-2.34089">
        <ele>32.200000762939</ele>
        <time>2021-12-09T10:58:19.000Z</time>
      </trkpt>
      <trkpt lat="47.30776" lon="-2.34122">
        <ele>32.200000762939</ele>
        <time>2021-12-09T10:58:24.000Z</time>
      </trkpt>
      <trkpt lat="47.30774" lon="-2.34148">
        <ele>32.599998474121</ele>
        <time>2021-12-09T10:58:28.000Z</time>
      </trkpt>
      <trkpt lat="47.30773" lon="-2.34154">
        <ele>33</ele>
        <time>2021-12-09T10:58:29.000Z</time>
      </trkpt>
      <trkpt lat="47.30772" lon="-2.3416">
        <ele>33.400001525879</ele>
        <time>2021-12-09T10:58:30.000Z</time>
      </trkpt>
      <trkpt lat="47.30773" lon="-2.34166">
        <ele>33.799999237061</ele>
        <time>2021-12-09T10:58:31.000Z</time>
      </trkpt>
      <trkpt lat="47.30773" lon="-2.34172">
        <ele>34.200000762939</ele>
        <time>2021-12-09T10:58:32.000Z</time>
      </trkpt>
      <trkpt lat="47.30773" lon="-2.34185">
        <ele>34.200000762939</ele>
        <time>2021-12-09T10:58:34.000Z</time>
      </trkpt>
      <trkpt lat="47.30764" lon="-2.34213">
        <ele>34.200000762939</ele>
        <time>2021-12-09T10:58:39.000Z</time>
      </trkpt>
      <trkpt lat="47.30747" lon="-2.34218">
        <ele>34.200000762939</ele>
        <time>2021-12-09T10:58:43.000Z</time>
      </trkpt>
      <trkpt lat="47.30733" lon="-2.34224">
        <ele>34.200000762939</ele>
        <time>2021-12-09T10:58:47.000Z</time>
      </trkpt>
      <trkpt lat="47.30731" lon="-2.34229">
        <ele>34.200000762939</ele>
        <time>2021-12-09T10:58:48.000Z</time>
      </trkpt>
      <trkpt lat="47.30729" lon="-2.34244">
        <ele>34.200000762939</ele>
        <time>2021-12-09T10:58:51.000Z</time>
      </trkpt>
      <trkpt lat="47.30729" lon="-2.3425">
        <ele>34.200000762939</ele>
        <time>2021-12-09T10:58:52.000Z</time>
      </trkpt>
      <trkpt lat="47.30725" lon="-2.34274">
        <ele>34.200000762939</ele>
        <time>2021-12-09T10:58:56.000Z</time>
      </trkpt>
      <trkpt lat="47.30713" lon="-2.34299">
        <ele>34.200000762939</ele>
        <time>2021-12-09T10:59:00.000Z</time>
      </trkpt>
      <trkpt lat="47.3071" lon="-2.34305">
        <ele>34.200000762939</ele>
        <time>2021-12-09T10:59:01.000Z</time>
      </trkpt>
      <trkpt lat="47.30696" lon="-2.3433">
        <ele>34.200000762939</ele>
        <time>2021-12-09T10:59:06.000Z</time>
      </trkpt>
      <trkpt lat="47.3068" lon="-2.34358">
        <ele>34.200000762939</ele>
        <time>2021-12-09T10:59:11.000Z</time>
      </trkpt>
      <trkpt lat="47.30678" lon="-2.34363">
        <ele>34.200000762939</ele>
        <time>2021-12-09T10:59:12.000Z</time>
      </trkpt>
      <trkpt lat="47.30661" lon="-2.34388">
        <ele>34.200000762939</ele>
        <time>2021-12-09T10:59:18.000Z</time>
      </trkpt>
      <trkpt lat="47.30657" lon="-2.34393">
        <ele>34.200000762939</ele>
        <time>2021-12-09T10:59:19.000Z</time>
      </trkpt>
      <trkpt lat="47.30644" lon="-2.34414">
        <ele>34.200000762939</ele>
        <time>2021-12-09T10:59:23.000Z</time>
      </trkpt>
      <trkpt lat="47.30627" lon="-2.34438">
        <ele>34.200000762939</ele>
        <time>2021-12-09T10:59:28.000Z</time>
      </trkpt>
      <trkpt lat="47.30623" lon="-2.34442">
        <ele>34.200000762939</ele>
        <time>2021-12-09T10:59:29.000Z</time>
      </trkpt>
      <trkpt lat="47.3062" lon="-2.34447">
        <ele>34.599998474121</ele>
        <time>2021-12-09T10:59:30.000Z</time>
      </trkpt>
      <trkpt lat="47.30617" lon="-2.34452">
        <ele>35</ele>
        <time>2021-12-09T10:59:31.000Z</time>
      </trkpt>
      <trkpt lat="47.30613" lon="-2.34456">
        <ele>35.400001525879</ele>
        <time>2021-12-09T10:59:32.000Z</time>
      </trkpt>
      <trkpt lat="47.3061" lon="-2.34461">
        <ele>36.200000762939</ele>
        <time>2021-12-09T10:59:33.000Z</time>
      </trkpt>
      <trkpt lat="47.306" lon="-2.34478">
        <ele>36.200000762939</ele>
        <time>2021-12-09T10:59:36.000Z</time>
      </trkpt>
      <trkpt lat="47.30581" lon="-2.34513">
        <ele>36.200000762939</ele>
        <time>2021-12-09T10:59:42.000Z</time>
      </trkpt>
      <trkpt lat="47.30578" lon="-2.3452">
        <ele>36.200000762939</ele>
        <time>2021-12-09T10:59:43.000Z</time>
      </trkpt>
      <trkpt lat="47.30555" lon="-2.34562">
        <ele>36.200000762939</ele>
        <time>2021-12-09T10:59:49.000Z</time>
      </trkpt>
      <trkpt lat="47.30534" lon="-2.34592">
        <ele>36.200000762939</ele>
        <time>2021-12-09T10:59:54.000Z</time>
      </trkpt>
      <trkpt lat="47.30527" lon="-2.34603">
        <ele>35.799999237061</ele>
        <time>2021-12-09T10:59:56.000Z</time>
      </trkpt>
      <trkpt lat="47.30523" lon="-2.34607">
        <ele>35.400001525879</ele>
        <time>2021-12-09T10:59:57.000Z</time>
      </trkpt>
      <trkpt lat="47.30519" lon="-2.34612">
        <ele>34.599998474121</ele>
        <time>2021-12-09T10:59:58.000Z</time>
      </trkpt>
      <trkpt lat="47.30516" lon="-2.34617">
        <ele>34.200000762939</ele>
        <time>2021-12-09T10:59:59.000Z</time>
      </trkpt>
      <trkpt lat="47.3051" lon="-2.34628">
        <ele>34.200000762939</ele>
        <time>2021-12-09T11:00:01.000Z</time>
      </trkpt>
      <trkpt lat="47.30503" lon="-2.34643">
        <ele>34.200000762939</ele>
        <time>2021-12-09T11:00:04.000Z</time>
      </trkpt>
      <trkpt lat="47.30499" lon="-2.34649">
        <ele>34.200000762939</ele>
        <time>2021-12-09T11:00:05.000Z</time>
      </trkpt>
      <trkpt lat="47.30492" lon="-2.34658">
        <ele>34.200000762939</ele>
        <time>2021-12-09T11:00:07.000Z</time>
      </trkpt>
      <trkpt lat="47.30488" lon="-2.34663">
        <ele>34.200000762939</ele>
        <time>2021-12-09T11:00:08.000Z</time>
      </trkpt>
      <trkpt lat="47.30462" lon="-2.34691">
        <ele>34.200000762939</ele>
        <time>2021-12-09T11:00:14.000Z</time>
      </trkpt>
      <trkpt lat="47.30452" lon="-2.34698">
        <ele>34.200000762939</ele>
        <time>2021-12-09T11:00:16.000Z</time>
      </trkpt>
      <trkpt lat="47.30443" lon="-2.34706">
        <ele>34.200000762939</ele>
        <time>2021-12-09T11:00:18.000Z</time>
      </trkpt>
      <trkpt lat="47.30433" lon="-2.34721">
        <ele>34.200000762939</ele>
        <time>2021-12-09T11:00:21.000Z</time>
      </trkpt>
      <trkpt lat="47.30413" lon="-2.34732">
        <ele>34.200000762939</ele>
        <time>2021-12-09T11:00:25.000Z</time>
      </trkpt>
      <trkpt lat="47.30395" lon="-2.34744">
        <ele>34.200000762939</ele>
        <time>2021-12-09T11:00:29.000Z</time>
      </trkpt>
      <trkpt lat="47.30361" lon="-2.34767">
        <ele>34.200000762939</ele>
        <time>2021-12-09T11:00:36.000Z</time>
      </trkpt>
      <trkpt lat="47.30342" lon="-2.34784">
        <ele>34.200000762939</ele>
        <time>2021-12-09T11:00:40.000Z</time>
      </trkpt>
      <trkpt lat="47.30338" lon="-2.3479">
        <ele>34.200000762939</ele>
        <time>2021-12-09T11:00:41.000Z</time>
      </trkpt>
      <trkpt lat="47.30321" lon="-2.34823">
        <ele>34.200000762939</ele>
        <time>2021-12-09T11:00:46.000Z</time>
      </trkpt>
      <trkpt lat="47.30316" lon="-2.34828">
        <ele>34.200000762939</ele>
        <time>2021-12-09T11:00:47.000Z</time>
      </trkpt>
      <trkpt lat="47.30298" lon="-2.34849">
        <ele>34.200000762939</ele>
        <time>2021-12-09T11:00:51.000Z</time>
      </trkpt>
      <trkpt lat="47.30292" lon="-2.34852">
        <ele>34.200000762939</ele>
        <time>2021-12-09T11:00:52.000Z</time>
      </trkpt>
      <trkpt lat="47.30272" lon="-2.34862">
        <ele>34.200000762939</ele>
        <time>2021-12-09T11:00:56.000Z</time>
      </trkpt>
      <trkpt lat="47.30267" lon="-2.34866">
        <ele>34.200000762939</ele>
        <time>2021-12-09T11:00:57.000Z</time>
      </trkpt>
      <trkpt lat="47.30236" lon="-2.34888">
        <ele>34.200000762939</ele>
        <time>2021-12-09T11:01:03.000Z</time>
      </trkpt>
      <trkpt lat="47.30217" lon="-2.34906">
        <ele>34.200000762939</ele>
        <time>2021-12-09T11:01:07.000Z</time>
      </trkpt>
      <trkpt lat="47.30214" lon="-2.34914">
        <ele>34.200000762939</ele>
        <time>2021-12-09T11:01:08.000Z</time>
      </trkpt>
      <trkpt lat="47.30211" lon="-2.34937">
        <ele>34.200000762939</ele>
        <time>2021-12-09T11:01:11.000Z</time>
      </trkpt>
      <trkpt lat="47.30211" lon="-2.34945">
        <ele>34.200000762939</ele>
        <time>2021-12-09T11:01:12.000Z</time>
      </trkpt>
      <trkpt lat="47.3021" lon="-2.34979">
        <ele>34.200000762939</ele>
        <time>2021-12-09T11:01:17.000Z</time>
      </trkpt>
      <trkpt lat="47.3021" lon="-2.35014">
        <ele>33.799999237061</ele>
        <time>2021-12-09T11:01:22.000Z</time>
      </trkpt>
      <trkpt lat="47.30211" lon="-2.35023">
        <ele>33.200000762939</ele>
        <time>2021-12-09T11:01:23.000Z</time>
      </trkpt>
      <trkpt lat="47.30211" lon="-2.35031">
        <ele>32.799999237061</ele>
        <time>2021-12-09T11:01:24.000Z</time>
      </trkpt>
      <trkpt lat="47.3021" lon="-2.35039">
        <ele>32.400001525879</ele>
        <time>2021-12-09T11:01:25.000Z</time>
      </trkpt>
      <trkpt lat="47.3021" lon="-2.35047">
        <ele>32</ele>
        <time>2021-12-09T11:01:26.000Z</time>
      </trkpt>
      <trkpt lat="47.3021" lon="-2.35079">
        <ele>32</ele>
        <time>2021-12-09T11:01:30.000Z</time>
      </trkpt>
      <trkpt lat="47.30211" lon="-2.35087">
        <ele>32</ele>
        <time>2021-12-09T11:01:31.000Z</time>
      </trkpt>
      <trkpt lat="47.3021" lon="-2.35116">
        <ele>32</ele>
        <time>2021-12-09T11:01:35.000Z</time>
      </trkpt>
      <trkpt lat="47.30209" lon="-2.35137">
        <ele>31.60000038147</ele>
        <time>2021-12-09T11:01:38.000Z</time>
      </trkpt>
      <trkpt lat="47.30209" lon="-2.35145">
        <ele>31.200000762939</ele>
        <time>2021-12-09T11:01:39.000Z</time>
      </trkpt>
      <trkpt lat="47.30209" lon="-2.35153">
        <ele>30.60000038147</ele>
        <time>2021-12-09T11:01:40.000Z</time>
      </trkpt>
      <trkpt lat="47.30208" lon="-2.35159">
        <ele>30.200000762939</ele>
        <time>2021-12-09T11:01:41.000Z</time>
      </trkpt>
      <trkpt lat="47.30206" lon="-2.35164">
        <ele>29.799999237061</ele>
        <time>2021-12-09T11:01:42.000Z</time>
      </trkpt>
      <trkpt lat="47.30199" lon="-2.35169">
        <ele>29.799999237061</ele>
        <time>2021-12-09T11:01:44.000Z</time>
      </trkpt>
      <trkpt lat="47.30191" lon="-2.35171">
        <ele>29.799999237061</ele>
        <time>2021-12-09T11:01:46.000Z</time>
      </trkpt>
      <trkpt lat="47.30185" lon="-2.35174">
        <ele>29.799999237061</ele>
        <time>2021-12-09T11:01:48.000Z</time>
      </trkpt>
      <trkpt lat="47.30169" lon="-2.35182">
        <ele>29.799999237061</ele>
        <time>2021-12-09T11:01:53.000Z</time>
      </trkpt>
      <trkpt lat="47.30158" lon="-2.35193">
        <ele>29.799999237061</ele>
        <time>2021-12-09T11:01:58.000Z</time>
      </trkpt>
      <trkpt lat="47.30155" lon="-2.35193">
        <ele>29.799999237061</ele>
        <time>2021-12-09T11:01:59.000Z</time>
      </trkpt>
      <trkpt lat="47.30153" lon="-2.35193">
        <ele>29.39999961853</ele>
        <time>2021-12-09T11:02:00.000Z</time>
      </trkpt>
      <trkpt lat="47.3015" lon="-2.35193">
        <ele>28.60000038147</ele>
        <time>2021-12-09T11:02:01.000Z</time>
      </trkpt>
      <trkpt lat="47.30148" lon="-2.35193">
        <ele>28.200000762939</ele>
        <time>2021-12-09T11:02:02.000Z</time>
      </trkpt>
      <trkpt lat="47.30145" lon="-2.35194">
        <ele>27.799999237061</ele>
        <time>2021-12-09T11:02:03.000Z</time>
      </trkpt>
      <trkpt lat="47.30134" lon="-2.35197">
        <ele>27.799999237061</ele>
        <time>2021-12-09T11:02:07.000Z</time>
      </trkpt>
      <trkpt lat="47.30117" lon="-2.35205">
        <ele>27.799999237061</ele>
        <time>2021-12-09T11:02:13.000Z</time>
      </trkpt>
      <trkpt lat="47.30115" lon="-2.35205">
        <ele>27.799999237061</ele>
        <time>2021-12-09T11:02:16.000Z</time>
      </trkpt>
      <trkpt lat="47.30111" lon="-2.35206">
        <ele>27.799999237061</ele>
        <time>2021-12-09T11:02:18.000Z</time>
      </trkpt>
      <trkpt lat="47.30102" lon="-2.3521">
        <ele>27.799999237061</ele>
        <time>2021-12-09T11:02:24.000Z</time>
      </trkpt>
      <trkpt lat="47.30097" lon="-2.35213">
        <ele>27.799999237061</ele>
        <time>2021-12-09T11:02:26.000Z</time>
      </trkpt>
      <trkpt lat="47.30089" lon="-2.35215">
        <ele>27.799999237061</ele>
        <time>2021-12-09T11:02:29.000Z</time>
      </trkpt>
      <trkpt lat="47.3008" lon="-2.35219">
        <ele>27.799999237061</ele>
        <time>2021-12-09T11:02:33.000Z</time>
      </trkpt>
      <trkpt lat="47.30075" lon="-2.35222">
        <ele>27.799999237061</ele>
        <time>2021-12-09T11:02:35.000Z</time>
      </trkpt>
      <trkpt lat="47.30069" lon="-2.35223">
        <ele>27.799999237061</ele>
        <time>2021-12-09T11:02:38.000Z</time>
      </trkpt>
      <trkpt lat="47.30057" lon="-2.35232">
        <ele>27.799999237061</ele>
        <time>2021-12-09T11:02:44.000Z</time>
      </trkpt>
      <trkpt lat="47.30037" lon="-2.35245">
        <ele>27.799999237061</ele>
        <time>2021-12-09T11:02:51.000Z</time>
      </trkpt>
      <trkpt lat="47.3003" lon="-2.35247">
        <ele>27.799999237061</ele>
        <time>2021-12-09T11:02:55.000Z</time>
      </trkpt>
      <trkpt lat="47.30018" lon="-2.35255">
        <ele>27.799999237061</ele>
        <time>2021-12-09T11:03:00.000Z</time>
      </trkpt>
      <trkpt lat="47.30007" lon="-2.35259">
        <ele>27.799999237061</ele>
        <time>2021-12-09T11:03:05.000Z</time>
      </trkpt>
      <trkpt lat="47.30002" lon="-2.35262">
        <ele>27.799999237061</ele>
        <time>2021-12-09T11:03:10.000Z</time>
      </trkpt>
      <trkpt lat="47.29998" lon="-2.35263">
        <ele>27.799999237061</ele>
        <time>2021-12-09T11:07:35.000Z</time>
      </trkpt>
      <trkpt lat="47.29992" lon="-2.35267">
        <ele>27.799999237061</ele>
        <time>2021-12-09T11:07:38.000Z</time>
      </trkpt>
      <trkpt lat="47.29979" lon="-2.35281">
        <ele>27.799999237061</ele>
        <time>2021-12-09T11:07:43.000Z</time>
      </trkpt>
      <trkpt lat="47.29956" lon="-2.35311">
        <ele>27.799999237061</ele>
        <time>2021-12-09T11:07:51.000Z</time>
      </trkpt>
      <trkpt lat="47.2993" lon="-2.35344">
        <ele>27.799999237061</ele>
        <time>2021-12-09T11:07:59.000Z</time>
      </trkpt>
      <trkpt lat="47.29907" lon="-2.35372">
        <ele>27.799999237061</ele>
        <time>2021-12-09T11:08:05.000Z</time>
      </trkpt>
      <trkpt lat="47.29895" lon="-2.35386">
        <ele>27.799999237061</ele>
        <time>2021-12-09T11:08:08.000Z</time>
      </trkpt>
      <trkpt lat="47.29882" lon="-2.354">
        <ele>27.799999237061</ele>
        <time>2021-12-09T11:08:11.000Z</time>
      </trkpt>
      <trkpt lat="47.29855" lon="-2.35428">
        <ele>27.799999237061</ele>
        <time>2021-12-09T11:08:18.000Z</time>
      </trkpt>
      <trkpt lat="47.29827" lon="-2.35466">
        <ele>27.799999237061</ele>
        <time>2021-12-09T11:08:26.000Z</time>
      </trkpt>
      <trkpt lat="47.29825" lon="-2.3549">
        <ele>27.799999237061</ele>
        <time>2021-12-09T11:08:30.000Z</time>
      </trkpt>
      <trkpt lat="47.29827" lon="-2.35494">
        <ele>28.200000762939</ele>
        <time>2021-12-09T11:08:31.000Z</time>
      </trkpt>
      <trkpt lat="47.29829" lon="-2.355">
        <ele>28.60000038147</ele>
        <time>2021-12-09T11:08:32.000Z</time>
      </trkpt>
      <trkpt lat="47.29831" lon="-2.35506">
        <ele>29</ele>
        <time>2021-12-09T11:08:33.000Z</time>
      </trkpt>
      <trkpt lat="47.29833" lon="-2.35513">
        <ele>29.39999961853</ele>
        <time>2021-12-09T11:08:34.000Z</time>
      </trkpt>
      <trkpt lat="47.29835" lon="-2.35519">
        <ele>29.799999237061</ele>
        <time>2021-12-09T11:08:35.000Z</time>
      </trkpt>
      <trkpt lat="47.29847" lon="-2.35559">
        <ele>29.799999237061</ele>
        <time>2021-12-09T11:08:41.000Z</time>
      </trkpt>
      <trkpt lat="47.29849" lon="-2.35565">
        <ele>29.799999237061</ele>
        <time>2021-12-09T11:08:42.000Z</time>
      </trkpt>
      <trkpt lat="47.29864" lon="-2.35617">
        <ele>29.799999237061</ele>
        <time>2021-12-09T11:08:50.000Z</time>
      </trkpt>
      <trkpt lat="47.29866" lon="-2.35624">
        <ele>30.200000762939</ele>
        <time>2021-12-09T11:08:51.000Z</time>
      </trkpt>
      <trkpt lat="47.29867" lon="-2.35631">
        <ele>30.60000038147</ele>
        <time>2021-12-09T11:08:52.000Z</time>
      </trkpt>
      <trkpt lat="47.29869" lon="-2.35638">
        <ele>31</ele>
        <time>2021-12-09T11:08:53.000Z</time>
      </trkpt>
      <trkpt lat="47.2987" lon="-2.35645">
        <ele>31.39999961853</ele>
        <time>2021-12-09T11:08:54.000Z</time>
      </trkpt>
      <trkpt lat="47.29873" lon="-2.35652">
        <ele>31.799999237061</ele>
        <time>2021-12-09T11:08:55.000Z</time>
      </trkpt>
      <trkpt lat="47.29877" lon="-2.35667">
        <ele>31.799999237061</ele>
        <time>2021-12-09T11:08:57.000Z</time>
      </trkpt>
      <trkpt lat="47.29888" lon="-2.35714">
        <ele>31.799999237061</ele>
        <time>2021-12-09T11:09:04.000Z</time>
      </trkpt>
      <trkpt lat="47.29893" lon="-2.35748">
        <ele>31.799999237061</ele>
        <time>2021-12-09T11:09:11.000Z</time>
      </trkpt>
      <trkpt lat="47.29892" lon="-2.35753">
        <ele>31.799999237061</ele>
        <time>2021-12-09T11:09:13.000Z</time>
      </trkpt>
      <trkpt lat="47.29888" lon="-2.35756">
        <ele>31.799999237061</ele>
        <time>2021-12-09T11:09:15.000Z</time>
      </trkpt>
      <trkpt lat="47.29876" lon="-2.3577">
        <ele>31.799999237061</ele>
        <time>2021-12-09T11:09:20.000Z</time>
      </trkpt>
      <trkpt lat="47.29864" lon="-2.35776">
        <ele>31.799999237061</ele>
        <time>2021-12-09T11:09:23.000Z</time>
      </trkpt>
      <trkpt lat="47.29854" lon="-2.3578">
        <ele>31.799999237061</ele>
        <time>2021-12-09T11:09:25.000Z</time>
      </trkpt>
      <trkpt lat="47.29841" lon="-2.35786">
        <ele>31.799999237061</ele>
        <time>2021-12-09T11:09:28.000Z</time>
      </trkpt>
      <trkpt lat="47.29832" lon="-2.35789">
        <ele>31.799999237061</ele>
        <time>2021-12-09T11:09:30.000Z</time>
      </trkpt>
      <trkpt lat="47.29827" lon="-2.35789">
        <ele>32.200000762939</ele>
        <time>2021-12-09T11:09:31.000Z</time>
      </trkpt>
      <trkpt lat="47.29822" lon="-2.35791">
        <ele>32.599998474121</ele>
        <time>2021-12-09T11:09:32.000Z</time>
      </trkpt>
      <trkpt lat="47.29818" lon="-2.35793">
        <ele>33.200000762939</ele>
        <time>2021-12-09T11:09:33.000Z</time>
      </trkpt>
      <trkpt lat="47.29813" lon="-2.35794">
        <ele>33.599998474121</ele>
        <time>2021-12-09T11:09:34.000Z</time>
      </trkpt>
      <trkpt lat="47.29809" lon="-2.35796">
        <ele>34</ele>
        <time>2021-12-09T11:09:35.000Z</time>
      </trkpt>
      <trkpt lat="47.29801" lon="-2.35799">
        <ele>34</ele>
        <time>2021-12-09T11:09:37.000Z</time>
      </trkpt>
      <trkpt lat="47.29756" lon="-2.35814">
        <ele>34</ele>
        <time>2021-12-09T11:09:47.000Z</time>
      </trkpt>
      <trkpt lat="47.29719" lon="-2.35834">
        <ele>34</ele>
        <time>2021-12-09T11:09:54.000Z</time>
      </trkpt>
      <trkpt lat="47.29684" lon="-2.35848">
        <ele>34</ele>
        <time>2021-12-09T11:10:00.000Z</time>
      </trkpt>
      <trkpt lat="47.29678" lon="-2.3585">
        <ele>34</ele>
        <time>2021-12-09T11:10:01.000Z</time>
      </trkpt>
      <trkpt lat="47.29664" lon="-2.35862">
        <ele>34</ele>
        <time>2021-12-09T11:10:04.000Z</time>
      </trkpt>
      <trkpt lat="47.29655" lon="-2.35868">
        <ele>34</ele>
        <time>2021-12-09T11:10:06.000Z</time>
      </trkpt>
      <trkpt lat="47.29646" lon="-2.35873">
        <ele>33.599998474121</ele>
        <time>2021-12-09T11:10:08.000Z</time>
      </trkpt>
      <trkpt lat="47.2964" lon="-2.35877">
        <ele>33.200000762939</ele>
        <time>2021-12-09T11:10:09.000Z</time>
      </trkpt>
      <trkpt lat="47.29636" lon="-2.35879">
        <ele>32.799999237061</ele>
        <time>2021-12-09T11:10:10.000Z</time>
      </trkpt>
      <trkpt lat="47.29631" lon="-2.35882">
        <ele>32.400001525879</ele>
        <time>2021-12-09T11:10:11.000Z</time>
      </trkpt>
      <trkpt lat="47.29626" lon="-2.35884">
        <ele>32</ele>
        <time>2021-12-09T11:10:12.000Z</time>
      </trkpt>
      <trkpt lat="47.29609" lon="-2.35892">
        <ele>32</ele>
        <time>2021-12-09T11:10:16.000Z</time>
      </trkpt>
      <trkpt lat="47.29586" lon="-2.35906">
        <ele>32</ele>
        <time>2021-12-09T11:10:22.000Z</time>
      </trkpt>
      <trkpt lat="47.29578" lon="-2.35912">
        <ele>32</ele>
        <time>2021-12-09T11:10:24.000Z</time>
      </trkpt>
      <trkpt lat="47.29564" lon="-2.35919">
        <ele>32</ele>
        <time>2021-12-09T11:10:27.000Z</time>
      </trkpt>
      <trkpt lat="47.29535" lon="-2.35936">
        <ele>32</ele>
        <time>2021-12-09T11:10:34.000Z</time>
      </trkpt>
      <trkpt lat="47.29509" lon="-2.35952">
        <ele>32</ele>
        <time>2021-12-09T11:10:42.000Z</time>
      </trkpt>
      <trkpt lat="47.29485" lon="-2.3597">
        <ele>32</ele>
        <time>2021-12-09T11:10:49.000Z</time>
      </trkpt>
      <trkpt lat="47.29476" lon="-2.3598">
        <ele>32</ele>
        <time>2021-12-09T11:10:52.000Z</time>
      </trkpt>
      <trkpt lat="47.29471" lon="-2.35992">
        <ele>32</ele>
        <time>2021-12-09T11:10:54.000Z</time>
      </trkpt>
      <trkpt lat="47.29469" lon="-2.35995">
        <ele>32</ele>
        <time>2021-12-09T11:10:55.000Z</time>
      </trkpt>
      <trkpt lat="47.29462" lon="-2.35994">
        <ele>32</ele>
        <time>2021-12-09T11:10:57.000Z</time>
      </trkpt>
      <trkpt lat="47.29458" lon="-2.35977">
        <ele>32</ele>
        <time>2021-12-09T11:11:00.000Z</time>
      </trkpt>
      <trkpt lat="47.29458" lon="-2.3597">
        <ele>32</ele>
        <time>2021-12-09T11:11:01.000Z</time>
      </trkpt>
      <trkpt lat="47.29452" lon="-2.35949">
        <ele>32</ele>
        <time>2021-12-09T11:11:04.000Z</time>
      </trkpt>
      <trkpt lat="47.29442" lon="-2.35925">
        <ele>32</ele>
        <time>2021-12-09T11:11:08.000Z</time>
      </trkpt>
      <trkpt lat="47.29433" lon="-2.35907">
        <ele>32</ele>
        <time>2021-12-09T11:11:11.000Z</time>
      </trkpt>
      <trkpt lat="47.29427" lon="-2.35895">
        <ele>32</ele>
        <time>2021-12-09T11:11:13.000Z</time>
      </trkpt>
      <trkpt lat="47.29415" lon="-2.35879">
        <ele>32</ele>
        <time>2021-12-09T11:11:16.000Z</time>
      </trkpt>
      <trkpt lat="47.29407" lon="-2.35869">
        <ele>32</ele>
        <time>2021-12-09T11:11:18.000Z</time>
      </trkpt>
      <trkpt lat="47.29392" lon="-2.35852">
        <ele>32</ele>
        <time>2021-12-09T11:11:22.000Z</time>
      </trkpt>
      <trkpt lat="47.29367" lon="-2.35826">
        <ele>32</ele>
        <time>2021-12-09T11:11:28.000Z</time>
      </trkpt>
      <trkpt lat="47.29341" lon="-2.35805">
        <ele>32</ele>
        <time>2021-12-09T11:11:33.000Z</time>
      </trkpt>
      <trkpt lat="47.29337" lon="-2.35801">
        <ele>32</ele>
        <time>2021-12-09T11:11:34.000Z</time>
      </trkpt>
      <trkpt lat="47.29303" lon="-2.35771">
        <ele>32</ele>
        <time>2021-12-09T11:11:41.000Z</time>
      </trkpt>
      <trkpt lat="47.29299" lon="-2.35767">
        <ele>32</ele>
        <time>2021-12-09T11:11:42.000Z</time>
      </trkpt>
      <trkpt lat="47.29281" lon="-2.35752">
        <ele>32</ele>
        <time>2021-12-09T11:11:46.000Z</time>
      </trkpt>
      <trkpt lat="47.29269" lon="-2.35741">
        <ele>32</ele>
        <time>2021-12-09T11:11:49.000Z</time>
      </trkpt>
      <trkpt lat="47.29262" lon="-2.35735">
        <ele>32</ele>
        <time>2021-12-09T11:11:51.000Z</time>
      </trkpt>
      <trkpt lat="47.2925" lon="-2.35745">
        <ele>32</ele>
        <time>2021-12-09T11:11:54.000Z</time>
      </trkpt>
      <trkpt lat="47.29242" lon="-2.35757">
        <ele>32</ele>
        <time>2021-12-09T11:11:56.000Z</time>
      </trkpt>
      <trkpt lat="47.29229" lon="-2.35774">
        <ele>32</ele>
        <time>2021-12-09T11:11:59.000Z</time>
      </trkpt>
      <trkpt lat="47.29224" lon="-2.35779">
        <ele>32</ele>
        <time>2021-12-09T11:12:00.000Z</time>
      </trkpt>
      <trkpt lat="47.29204" lon="-2.35796">
        <ele>32</ele>
        <time>2021-12-09T11:12:04.000Z</time>
      </trkpt>
      <trkpt lat="47.29199" lon="-2.358">
        <ele>32</ele>
        <time>2021-12-09T11:12:05.000Z</time>
      </trkpt>
      <trkpt lat="47.29189" lon="-2.35808">
        <ele>32</ele>
        <time>2021-12-09T11:12:07.000Z</time>
      </trkpt>
      <trkpt lat="47.29174" lon="-2.35817">
        <ele>32</ele>
        <time>2021-12-09T11:12:10.000Z</time>
      </trkpt>
      <trkpt lat="47.29137" lon="-2.35848">
        <ele>32</ele>
        <time>2021-12-09T11:12:18.000Z</time>
      </trkpt>
      <trkpt lat="47.29104" lon="-2.35887">
        <ele>32</ele>
        <time>2021-12-09T11:12:26.000Z</time>
      </trkpt>
      <trkpt lat="47.29071" lon="-2.35925">
        <ele>32</ele>
        <time>2021-12-09T11:12:34.000Z</time>
      </trkpt>
      <trkpt lat="47.2903" lon="-2.35972">
        <ele>32</ele>
        <time>2021-12-09T11:12:44.000Z</time>
      </trkpt>
      <trkpt lat="47.28985" lon="-2.36015">
        <ele>32</ele>
        <time>2021-12-09T11:12:54.000Z</time>
      </trkpt>
      <trkpt lat="47.28953" lon="-2.36044">
        <ele>32</ele>
        <time>2021-12-09T11:13:01.000Z</time>
      </trkpt>
      <trkpt lat="47.28917" lon="-2.36068">
        <ele>32</ele>
        <time>2021-12-09T11:13:08.000Z</time>
      </trkpt>
      <trkpt lat="47.28884" lon="-2.36099">
        <ele>32</ele>
        <time>2021-12-09T11:13:15.000Z</time>
      </trkpt>
      <trkpt lat="47.28855" lon="-2.36127">
        <ele>32</ele>
        <time>2021-12-09T11:13:21.000Z</time>
      </trkpt>
      <trkpt lat="47.28826" lon="-2.36166">
        <ele>32</ele>
        <time>2021-12-09T11:13:28.000Z</time>
      </trkpt>
      <trkpt lat="47.28822" lon="-2.36171">
        <ele>32</ele>
        <time>2021-12-09T11:13:29.000Z</time>
      </trkpt>
      <trkpt lat="47.28805" lon="-2.36186">
        <ele>32</ele>
        <time>2021-12-09T11:13:33.000Z</time>
      </trkpt>
      <trkpt lat="47.28776" lon="-2.36206">
        <ele>32</ele>
        <time>2021-12-09T11:13:40.000Z</time>
      </trkpt>
      <trkpt lat="47.28756" lon="-2.36219">
        <ele>32</ele>
        <time>2021-12-09T11:13:46.000Z</time>
      </trkpt>
      <trkpt lat="47.28745" lon="-2.36226">
        <ele>32</ele>
        <time>2021-12-09T11:13:51.000Z</time>
      </trkpt>
      <trkpt lat="47.28737" lon="-2.36234">
        <ele>32</ele>
        <time>2021-12-09T11:13:57.000Z</time>
      </trkpt>
      <trkpt lat="47.2873" lon="-2.36242">
        <ele>32</ele>
        <time>2021-12-09T11:14:03.000Z</time>
      </trkpt>
      <trkpt lat="47.28726" lon="-2.36242">
        <ele>32</ele>
        <time>2021-12-09T11:14:07.000Z</time>
      </trkpt>
      <trkpt lat="47.28723" lon="-2.3624">
        <ele>32</ele>
        <time>2021-12-09T11:14:09.000Z</time>
      </trkpt>
      <trkpt lat="47.28711" lon="-2.36234">
        <ele>32.400001525879</ele>
        <time>2021-12-09T11:14:14.000Z</time>
      </trkpt>
      <trkpt lat="47.28711" lon="-2.36234">
        <ele>32.799999237061</ele>
        <time>2021-12-09T11:14:15.000Z</time>
      </trkpt>
      <trkpt lat="47.2871" lon="-2.36233">
        <ele>33.200000762939</ele>
        <time>2021-12-09T11:14:16.000Z</time>
      </trkpt>
      <trkpt lat="47.28709" lon="-2.36232">
        <ele>33.599998474121</ele>
        <time>2021-12-09T11:14:17.000Z</time>
      </trkpt>
      <trkpt lat="47.28708" lon="-2.36231">
        <ele>34</ele>
        <time>2021-12-09T11:14:18.000Z</time>
      </trkpt>
      <trkpt lat="47.28666" lon="-2.3619">
        <ele>38.200000762939</ele>
        <time>2021-12-09T11:15:22.000Z</time>
      </trkpt>
      <trkpt lat="47.28665" lon="-2.36187">
        <ele>38.200000762939</ele>
        <time>2021-12-09T11:15:23.000Z</time>
      </trkpt>
      <trkpt lat="47.28658" lon="-2.36177">
        <ele>38.799999237061</ele>
        <time>2021-12-09T11:15:27.000Z</time>
      </trkpt>
      <trkpt lat="47.28656" lon="-2.36175">
        <ele>39.200000762939</ele>
        <time>2021-12-09T11:15:28.000Z</time>
      </trkpt>
      <trkpt lat="47.28653" lon="-2.36173">
        <ele>39.599998474121</ele>
        <time>2021-12-09T11:15:29.000Z</time>
      </trkpt>
      <trkpt lat="47.28652" lon="-2.36171">
        <ele>40</ele>
        <time>2021-12-09T11:15:30.000Z</time>
      </trkpt>
      <trkpt lat="47.2865" lon="-2.36168">
        <ele>40.400001525879</ele>
        <time>2021-12-09T11:15:31.000Z</time>
      </trkpt>
      <trkpt lat="47.28639" lon="-2.36152">
        <ele>40.400001525879</ele>
        <time>2021-12-09T11:15:36.000Z</time>
      </trkpt>
      <trkpt lat="47.28637" lon="-2.36149">
        <ele>40.799999237061</ele>
        <time>2021-12-09T11:15:37.000Z</time>
      </trkpt>
      <trkpt lat="47.28635" lon="-2.36146">
        <ele>41.200000762939</ele>
        <time>2021-12-09T11:15:38.000Z</time>
      </trkpt>
      <trkpt lat="47.28633" lon="-2.36144">
        <ele>41.799999237061</ele>
        <time>2021-12-09T11:15:39.000Z</time>
      </trkpt>
      <trkpt lat="47.28631" lon="-2.36144">
        <ele>42.200000762939</ele>
        <time>2021-12-09T11:15:40.000Z</time>
      </trkpt>
      <trkpt lat="47.28628" lon="-2.36145">
        <ele>42.599998474121</ele>
        <time>2021-12-09T11:15:41.000Z</time>
      </trkpt>
      <trkpt lat="47.28619" lon="-2.36152">
        <ele>42.599998474121</ele>
        <time>2021-12-09T11:15:45.000Z</time>
      </trkpt>
      <trkpt lat="47.28605" lon="-2.36157">
        <ele>42.599998474121</ele>
        <time>2021-12-09T11:15:49.000Z</time>
      </trkpt>
      <trkpt lat="47.28588" lon="-2.3615">
        <ele>42.599998474121</ele>
        <time>2021-12-09T11:15:54.000Z</time>
      </trkpt>
      <trkpt lat="47.28573" lon="-2.36151">
        <ele>42.599998474121</ele>
        <time>2021-12-09T11:15:58.000Z</time>
      </trkpt>
      <trkpt lat="47.28558" lon="-2.36157">
        <ele>42</ele>
        <time>2021-12-09T11:16:01.000Z</time>
      </trkpt>
      <trkpt lat="47.28553" lon="-2.36156">
        <ele>41.599998474121</ele>
        <time>2021-12-09T11:16:02.000Z</time>
      </trkpt>
      <trkpt lat="47.28548" lon="-2.36152">
        <ele>41</ele>
        <time>2021-12-09T11:16:03.000Z</time>
      </trkpt>
      <trkpt lat="47.28542" lon="-2.36148">
        <ele>40.599998474121</ele>
        <time>2021-12-09T11:16:04.000Z</time>
      </trkpt>
      <trkpt lat="47.28538" lon="-2.36143">
        <ele>40</ele>
        <time>2021-12-09T11:16:05.000Z</time>
      </trkpt>
      <trkpt lat="47.28535" lon="-2.36129">
        <ele>40</ele>
        <time>2021-12-09T11:16:07.000Z</time>
      </trkpt>
      <trkpt lat="47.28534" lon="-2.3612">
        <ele>40</ele>
        <time>2021-12-09T11:16:08.000Z</time>
      </trkpt>
      <trkpt lat="47.2853" lon="-2.3609">
        <ele>40</ele>
        <time>2021-12-09T11:16:13.000Z</time>
      </trkpt>
      <trkpt lat="47.28516" lon="-2.36064">
        <ele>40</ele>
        <time>2021-12-09T11:16:19.000Z</time>
      </trkpt>
      <trkpt lat="47.28504" lon="-2.36047">
        <ele>40</ele>
        <time>2021-12-09T11:16:24.000Z</time>
      </trkpt>
      <trkpt lat="47.285" lon="-2.36045">
        <ele>40</ele>
        <time>2021-12-09T11:16:25.000Z</time>
      </trkpt>
      <trkpt lat="47.2848" lon="-2.36036">
        <ele>40</ele>
        <time>2021-12-09T11:16:30.000Z</time>
      </trkpt>
      <trkpt lat="47.28466" lon="-2.36012">
        <ele>40</ele>
        <time>2021-12-09T11:16:35.000Z</time>
      </trkpt>
      <trkpt lat="47.28456" lon="-2.35999">
        <ele>40</ele>
        <time>2021-12-09T11:16:38.000Z</time>
      </trkpt>
      <trkpt lat="47.2845" lon="-2.35997">
        <ele>40</ele>
        <time>2021-12-09T11:16:39.000Z</time>
      </trkpt>
      <trkpt lat="47.28424" lon="-2.36004">
        <ele>40</ele>
        <time>2021-12-09T11:16:44.000Z</time>
      </trkpt>
      <trkpt lat="47.28404" lon="-2.3602">
        <ele>40</ele>
        <time>2021-12-09T11:16:49.000Z</time>
      </trkpt>
      <trkpt lat="47.28394" lon="-2.36021">
        <ele>40</ele>
        <time>2021-12-09T11:16:51.000Z</time>
      </trkpt>
      <trkpt lat="47.28389" lon="-2.36022">
        <ele>39.599998474121</ele>
        <time>2021-12-09T11:16:52.000Z</time>
      </trkpt>
      <trkpt lat="47.28383" lon="-2.36023">
        <ele>39.200000762939</ele>
        <time>2021-12-09T11:16:53.000Z</time>
      </trkpt>
      <trkpt lat="47.28377" lon="-2.36025">
        <ele>38.599998474121</ele>
        <time>2021-12-09T11:16:54.000Z</time>
      </trkpt>
      <trkpt lat="47.28371" lon="-2.36027">
        <ele>38</ele>
        <time>2021-12-09T11:16:55.000Z</time>
      </trkpt>
      <trkpt lat="47.28363" lon="-2.36029">
        <ele>37.400001525879</ele>
        <time>2021-12-09T11:16:56.000Z</time>
      </trkpt>
      <trkpt lat="47.28355" lon="-2.36032">
        <ele>36.799999237061</ele>
        <time>2021-12-09T11:16:57.000Z</time>
      </trkpt>
      <trkpt lat="47.28348" lon="-2.36036">
        <ele>36</ele>
        <time>2021-12-09T11:16:58.000Z</time>
      </trkpt>
      <trkpt lat="47.28341" lon="-2.36041">
        <ele>35.200000762939</ele>
        <time>2021-12-09T11:16:59.000Z</time>
      </trkpt>
      <trkpt lat="47.28334" lon="-2.36046">
        <ele>34.400001525879</ele>
        <time>2021-12-09T11:17:00.000Z</time>
      </trkpt>
      <trkpt lat="47.28328" lon="-2.36051">
        <ele>33.599998474121</ele>
        <time>2021-12-09T11:17:01.000Z</time>
      </trkpt>
      <trkpt lat="47.28322" lon="-2.36054">
        <ele>32.799999237061</ele>
        <time>2021-12-09T11:17:02.000Z</time>
      </trkpt>
      <trkpt lat="47.28312" lon="-2.36054">
        <ele>32.799999237061</ele>
        <time>2021-12-09T11:17:04.000Z</time>
      </trkpt>
      <trkpt lat="47.28302" lon="-2.36052">
        <ele>32.400001525879</ele>
        <time>2021-12-09T11:17:06.000Z</time>
      </trkpt>
      <trkpt lat="47.28297" lon="-2.3605">
        <ele>32</ele>
        <time>2021-12-09T11:17:07.000Z</time>
      </trkpt>
      <trkpt lat="47.28292" lon="-2.36047">
        <ele>31.39999961853</ele>
        <time>2021-12-09T11:17:08.000Z</time>
      </trkpt>
      <trkpt lat="47.28288" lon="-2.36043">
        <ele>31</ele>
        <time>2021-12-09T11:17:09.000Z</time>
      </trkpt>
      <trkpt lat="47.28285" lon="-2.36038">
        <ele>30.39999961853</ele>
        <time>2021-12-09T11:17:10.000Z</time>
      </trkpt>
      <trkpt lat="47.28281" lon="-2.36033">
        <ele>29.799999237061</ele>
        <time>2021-12-09T11:17:11.000Z</time>
      </trkpt>
      <trkpt lat="47.28279" lon="-2.36026">
        <ele>29</ele>
        <time>2021-12-09T11:17:12.000Z</time>
      </trkpt>
      <trkpt lat="47.28278" lon="-2.36018">
        <ele>28.200000762939</ele>
        <time>2021-12-09T11:17:13.000Z</time>
      </trkpt>
      <trkpt lat="47.28279" lon="-2.36009">
        <ele>26.39999961853</ele>
        <time>2021-12-09T11:17:14.000Z</time>
      </trkpt>
      <trkpt lat="47.2828" lon="-2.36001">
        <ele>25.60000038147</ele>
        <time>2021-12-09T11:17:15.000Z</time>
      </trkpt>
      <trkpt lat="47.28281" lon="-2.35994">
        <ele>24.60000038147</ele>
        <time>2021-12-09T11:17:16.000Z</time>
      </trkpt>
      <trkpt lat="47.28282" lon="-2.35988">
        <ele>23.799999237061</ele>
        <time>2021-12-09T11:17:17.000Z</time>
      </trkpt>
      <trkpt lat="47.28282" lon="-2.35982">
        <ele>22.799999237061</ele>
        <time>2021-12-09T11:17:18.000Z</time>
      </trkpt>
      <trkpt lat="47.28281" lon="-2.35977">
        <ele>22.799999237061</ele>
        <time>2021-12-09T11:17:19.000Z</time>
      </trkpt>
      <trkpt lat="47.28279" lon="-2.35972">
        <ele>22.799999237061</ele>
        <time>2021-12-09T11:17:20.000Z</time>
      </trkpt>
      <trkpt lat="47.28263" lon="-2.35941">
        <ele>22.799999237061</ele>
        <time>2021-12-09T11:17:27.000Z</time>
      </trkpt>
      <trkpt lat="47.28258" lon="-2.35928">
        <ele>23.200000762939</ele>
        <time>2021-12-09T11:17:30.000Z</time>
      </trkpt>
      <trkpt lat="47.28256" lon="-2.35924">
        <ele>23.799999237061</ele>
        <time>2021-12-09T11:17:31.000Z</time>
      </trkpt>
      <trkpt lat="47.28255" lon="-2.3592">
        <ele>24.200000762939</ele>
        <time>2021-12-09T11:17:32.000Z</time>
      </trkpt>
      <trkpt lat="47.28253" lon="-2.35918">
        <ele>24.60000038147</ele>
        <time>2021-12-09T11:17:33.000Z</time>
      </trkpt>
      <trkpt lat="47.28251" lon="-2.35917">
        <ele>25</ele>
        <time>2021-12-09T11:17:34.000Z</time>
      </trkpt>
      <trkpt lat="47.28247" lon="-2.35917">
        <ele>25</ele>
        <time>2021-12-09T11:17:35.000Z</time>
      </trkpt>
      <trkpt lat="47.28227" lon="-2.35914">
        <ele>25</ele>
        <time>2021-12-09T11:17:40.000Z</time>
      </trkpt>
      <trkpt lat="47.2821" lon="-2.35905">
        <ele>24.60000038147</ele>
        <time>2021-12-09T11:17:45.000Z</time>
      </trkpt>
      <trkpt lat="47.28208" lon="-2.35902">
        <ele>24.200000762939</ele>
        <time>2021-12-09T11:17:46.000Z</time>
      </trkpt>
      <trkpt lat="47.28206" lon="-2.35898">
        <ele>23.799999237061</ele>
        <time>2021-12-09T11:17:47.000Z</time>
      </trkpt>
      <trkpt lat="47.28205" lon="-2.35894">
        <ele>23.39999961853</ele>
        <time>2021-12-09T11:17:48.000Z</time>
      </trkpt>
      <trkpt lat="47.28203" lon="-2.35889">
        <ele>23</ele>
        <time>2021-12-09T11:17:49.000Z</time>
      </trkpt>
      <trkpt lat="47.28199" lon="-2.35882">
        <ele>23</ele>
        <time>2021-12-09T11:17:50.000Z</time>
      </trkpt>
      <trkpt lat="47.2819" lon="-2.35855">
        <ele>23</ele>
        <time>2021-12-09T11:17:56.000Z</time>
      </trkpt>
      <trkpt lat="47.28184" lon="-2.35833">
        <ele>23</ele>
        <time>2021-12-09T11:18:01.000Z</time>
      </trkpt>
      <trkpt lat="47.28177" lon="-2.35813">
        <ele>23.39999961853</ele>
        <time>2021-12-09T11:18:06.000Z</time>
      </trkpt>
      <trkpt lat="47.28176" lon="-2.3581">
        <ele>23.799999237061</ele>
        <time>2021-12-09T11:18:07.000Z</time>
      </trkpt>
      <trkpt lat="47.28175" lon="-2.35808">
        <ele>24.200000762939</ele>
        <time>2021-12-09T11:18:08.000Z</time>
      </trkpt>
      <trkpt lat="47.28174" lon="-2.35806">
        <ele>24.60000038147</ele>
        <time>2021-12-09T11:18:09.000Z</time>
      </trkpt>
      <trkpt lat="47.28173" lon="-2.35803">
        <ele>25</ele>
        <time>2021-12-09T11:18:10.000Z</time>
      </trkpt>
      <trkpt lat="47.28172" lon="-2.35797">
        <ele>25</ele>
        <time>2021-12-09T11:18:12.000Z</time>
      </trkpt>
      <trkpt lat="47.28169" lon="-2.35787">
        <ele>24.60000038147</ele>
        <time>2021-12-09T11:18:16.000Z</time>
      </trkpt>
      <trkpt lat="47.28168" lon="-2.35783">
        <ele>24.200000762939</ele>
        <time>2021-12-09T11:18:17.000Z</time>
      </trkpt>
      <trkpt lat="47.28167" lon="-2.35781">
        <ele>23.799999237061</ele>
        <time>2021-12-09T11:18:18.000Z</time>
      </trkpt>
      <trkpt lat="47.28165" lon="-2.35778">
        <ele>23.39999961853</ele>
        <time>2021-12-09T11:18:19.000Z</time>
      </trkpt>
      <trkpt lat="47.28163" lon="-2.35774">
        <ele>22.799999237061</ele>
        <time>2021-12-09T11:18:20.000Z</time>
      </trkpt>
      <trkpt lat="47.28145" lon="-2.3576">
        <ele>22.799999237061</ele>
        <time>2021-12-09T11:18:25.000Z</time>
      </trkpt>
      <trkpt lat="47.28119" lon="-2.35762">
        <ele>22.39999961853</ele>
        <time>2021-12-09T11:18:30.000Z</time>
      </trkpt>
      <trkpt lat="47.28115" lon="-2.35765">
        <ele>22</ele>
        <time>2021-12-09T11:18:31.000Z</time>
      </trkpt>
      <trkpt lat="47.28113" lon="-2.35767">
        <ele>21.60000038147</ele>
        <time>2021-12-09T11:18:32.000Z</time>
      </trkpt>
      <trkpt lat="47.28111" lon="-2.35771">
        <ele>21.200000762939</ele>
        <time>2021-12-09T11:18:33.000Z</time>
      </trkpt>
      <trkpt lat="47.28109" lon="-2.35774">
        <ele>20.799999237061</ele>
        <time>2021-12-09T11:18:34.000Z</time>
      </trkpt>
      <trkpt lat="47.28107" lon="-2.35777">
        <ele>20.799999237061</ele>
        <time>2021-12-09T11:18:35.000Z</time>
      </trkpt>
      <trkpt lat="47.28098" lon="-2.3579">
        <ele>20.799999237061</ele>
        <time>2021-12-09T11:18:40.000Z</time>
      </trkpt>
      <trkpt lat="47.28096" lon="-2.35793">
        <ele>20.799999237061</ele>
        <time>2021-12-09T11:18:41.000Z</time>
      </trkpt>
      <trkpt lat="47.28088" lon="-2.35806">
        <ele>20.799999237061</ele>
        <time>2021-12-09T11:18:46.000Z</time>
      </trkpt>
      <trkpt lat="47.2808" lon="-2.35799">
        <ele>20.799999237061</ele>
        <time>2021-12-09T11:18:50.000Z</time>
      </trkpt>
      <trkpt lat="47.28081" lon="-2.35794">
        <ele>21.200000762939</ele>
        <time>2021-12-09T11:18:52.000Z</time>
      </trkpt>
      <trkpt lat="47.28083" lon="-2.3579">
        <ele>22.200000762939</ele>
        <time>2021-12-09T11:18:53.000Z</time>
      </trkpt>
      <trkpt lat="47.28085" lon="-2.35787">
        <ele>22.60000038147</ele>
        <time>2021-12-09T11:18:54.000Z</time>
      </trkpt>
      <trkpt lat="47.28086" lon="-2.35783">
        <ele>23</ele>
        <time>2021-12-09T11:18:55.000Z</time>
      </trkpt>
      <trkpt lat="47.28087" lon="-2.35752">
        <ele>23.39999961853</ele>
        <time>2021-12-09T11:19:01.000Z</time>
      </trkpt>
      <trkpt lat="47.28088" lon="-2.35748">
        <ele>23.799999237061</ele>
        <time>2021-12-09T11:19:02.000Z</time>
      </trkpt>
      <trkpt lat="47.28088" lon="-2.35743">
        <ele>24.200000762939</ele>
        <time>2021-12-09T11:19:03.000Z</time>
      </trkpt>
      <trkpt lat="47.28088" lon="-2.35739">
        <ele>24.60000038147</ele>
        <time>2021-12-09T11:19:04.000Z</time>
      </trkpt>
      <trkpt lat="47.28088" lon="-2.35734">
        <ele>25</ele>
        <time>2021-12-09T11:19:05.000Z</time>
      </trkpt>
      <trkpt lat="47.28092" lon="-2.35723">
        <ele>25</ele>
        <time>2021-12-09T11:19:08.000Z</time>
      </trkpt>
      <trkpt lat="47.28092" lon="-2.35696">
        <ele>25</ele>
        <time>2021-12-09T11:19:14.000Z</time>
      </trkpt>
      <trkpt lat="47.28087" lon="-2.35659">
        <ele>25</ele>
        <time>2021-12-09T11:19:20.000Z</time>
      </trkpt>
      <trkpt lat="47.28079" lon="-2.35634">
        <ele>24.60000038147</ele>
        <time>2021-12-09T11:19:24.000Z</time>
      </trkpt>
      <trkpt lat="47.28078" lon="-2.35629">
        <ele>24</ele>
        <time>2021-12-09T11:19:25.000Z</time>
      </trkpt>
      <trkpt lat="47.28078" lon="-2.35625">
        <ele>23.60000038147</ele>
        <time>2021-12-09T11:19:26.000Z</time>
      </trkpt>
      <trkpt lat="47.28078" lon="-2.35621">
        <ele>23</ele>
        <time>2021-12-09T11:19:27.000Z</time>
      </trkpt>
      <trkpt lat="47.2808" lon="-2.35617">
        <ele>22.39999961853</ele>
        <time>2021-12-09T11:19:28.000Z</time>
      </trkpt>
      <trkpt lat="47.28081" lon="-2.35615">
        <ele>22</ele>
        <time>2021-12-09T11:19:29.000Z</time>
      </trkpt>
      <trkpt lat="47.28083" lon="-2.35615">
        <ele>21.60000038147</ele>
        <time>2021-12-09T11:19:30.000Z</time>
      </trkpt>
      <trkpt lat="47.28085" lon="-2.35615">
        <ele>21.200000762939</ele>
        <time>2021-12-09T11:19:31.000Z</time>
      </trkpt>
      <trkpt lat="47.28085" lon="-2.35616">
        <ele>20.799999237061</ele>
        <time>2021-12-09T11:19:32.000Z</time>
      </trkpt>
      <trkpt lat="47.28086" lon="-2.35617">
        <ele>20.39999961853</ele>
        <time>2021-12-09T11:19:33.000Z</time>
      </trkpt>
      <trkpt lat="47.28089" lon="-2.35623">
        <ele>20.39999961853</ele>
        <time>2021-12-09T11:19:37.000Z</time>
      </trkpt>
      <trkpt lat="47.2809" lon="-2.35617">
        <ele>20.39999961853</ele>
        <time>2021-12-09T11:24:16.000Z</time>
      </trkpt>
      <trkpt lat="47.28083" lon="-2.35606">
        <ele>20.39999961853</ele>
        <time>2021-12-09T11:24:21.000Z</time>
      </trkpt>
      <trkpt lat="47.28071" lon="-2.35588">
        <ele>20.39999961853</ele>
        <time>2021-12-09T11:24:28.000Z</time>
      </trkpt>
      <trkpt lat="47.28058" lon="-2.35577">
        <ele>20.39999961853</ele>
        <time>2021-12-09T11:24:34.000Z</time>
      </trkpt>
      <trkpt lat="47.28039" lon="-2.35572">
        <ele>20.39999961853</ele>
        <time>2021-12-09T11:24:40.000Z</time>
      </trkpt>
      <trkpt lat="47.28028" lon="-2.3556">
        <ele>20.39999961853</ele>
        <time>2021-12-09T11:24:44.000Z</time>
      </trkpt>
      <trkpt lat="47.2802" lon="-2.35555">
        <ele>20.39999961853</ele>
        <time>2021-12-09T11:24:46.000Z</time>
      </trkpt>
      <trkpt lat="47.28012" lon="-2.35557">
        <ele>20.39999961853</ele>
        <time>2021-12-09T11:24:48.000Z</time>
      </trkpt>
      <trkpt lat="47.27989" lon="-2.35564">
        <ele>20.39999961853</ele>
        <time>2021-12-09T11:24:54.000Z</time>
      </trkpt>
      <trkpt lat="47.27959" lon="-2.35577">
        <ele>20.39999961853</ele>
        <time>2021-12-09T11:25:01.000Z</time>
      </trkpt>
      <trkpt lat="47.2792" lon="-2.35587">
        <ele>20.39999961853</ele>
        <time>2021-12-09T11:25:09.000Z</time>
      </trkpt>
      <trkpt lat="47.27905" lon="-2.35591">
        <ele>20</ele>
        <time>2021-12-09T11:25:12.000Z</time>
      </trkpt>
      <trkpt lat="47.27899" lon="-2.35592">
        <ele>19.60000038147</ele>
        <time>2021-12-09T11:25:13.000Z</time>
      </trkpt>
      <trkpt lat="47.27894" lon="-2.35594">
        <ele>19</ele>
        <time>2021-12-09T11:25:14.000Z</time>
      </trkpt>
      <trkpt lat="47.27888" lon="-2.35595">
        <ele>18.60000038147</ele>
        <time>2021-12-09T11:25:15.000Z</time>
      </trkpt>
      <trkpt lat="47.27882" lon="-2.35597">
        <ele>18.200000762939</ele>
        <time>2021-12-09T11:25:16.000Z</time>
      </trkpt>
      <trkpt lat="47.27876" lon="-2.35598">
        <ele>18.200000762939</ele>
        <time>2021-12-09T11:25:17.000Z</time>
      </trkpt>
      <trkpt lat="47.27835" lon="-2.35611">
        <ele>17.799999237061</ele>
        <time>2021-12-09T11:25:24.000Z</time>
      </trkpt>
      <trkpt lat="47.27829" lon="-2.35612">
        <ele>17.39999961853</ele>
        <time>2021-12-09T11:25:25.000Z</time>
      </trkpt>
      <trkpt lat="47.27823" lon="-2.35614">
        <ele>16.799999237061</ele>
        <time>2021-12-09T11:25:26.000Z</time>
      </trkpt>
      <trkpt lat="47.27817" lon="-2.35615">
        <ele>16.39999961853</ele>
        <time>2021-12-09T11:25:27.000Z</time>
      </trkpt>
      <trkpt lat="47.27811" lon="-2.35617">
        <ele>16</ele>
        <time>2021-12-09T11:25:28.000Z</time>
      </trkpt>
      <trkpt lat="47.27782" lon="-2.3563">
        <ele>16</ele>
        <time>2021-12-09T11:25:33.000Z</time>
      </trkpt>
      <trkpt lat="47.27776" lon="-2.35634">
        <ele>15.60000038147</ele>
        <time>2021-12-09T11:25:34.000Z</time>
      </trkpt>
      <trkpt lat="47.27771" lon="-2.35638">
        <ele>15.199999809265</ele>
        <time>2021-12-09T11:25:35.000Z</time>
      </trkpt>
      <trkpt lat="47.27766" lon="-2.35643">
        <ele>14.800000190735</ele>
        <time>2021-12-09T11:25:36.000Z</time>
      </trkpt>
      <trkpt lat="47.27762" lon="-2.35648">
        <ele>14.39999961853</ele>
        <time>2021-12-09T11:25:37.000Z</time>
      </trkpt>
      <trkpt lat="47.27757" lon="-2.35654">
        <ele>14</ele>
        <time>2021-12-09T11:25:38.000Z</time>
      </trkpt>
      <trkpt lat="47.27753" lon="-2.35659">
        <ele>14</ele>
        <time>2021-12-09T11:25:39.000Z</time>
      </trkpt>
      <trkpt lat="47.27749" lon="-2.35665">
        <ele>14</ele>
        <time>2021-12-09T11:25:40.000Z</time>
      </trkpt>
      <trkpt lat="47.27733" lon="-2.35691">
        <ele>14</ele>
        <time>2021-12-09T11:25:44.000Z</time>
      </trkpt>
      <trkpt lat="47.27706" lon="-2.35724">
        <ele>13.60000038147</ele>
        <time>2021-12-09T11:25:50.000Z</time>
      </trkpt>
      <trkpt lat="47.27701" lon="-2.35728">
        <ele>13</ele>
        <time>2021-12-09T11:25:51.000Z</time>
      </trkpt>
      <trkpt lat="47.27695" lon="-2.35732">
        <ele>12.60000038147</ele>
        <time>2021-12-09T11:25:52.000Z</time>
      </trkpt>
      <trkpt lat="47.2769" lon="-2.35737">
        <ele>12.199999809265</ele>
        <time>2021-12-09T11:25:53.000Z</time>
      </trkpt>
      <trkpt lat="47.27686" lon="-2.35742">
        <ele>11.800000190735</ele>
        <time>2021-12-09T11:25:54.000Z</time>
      </trkpt>
      <trkpt lat="47.27676" lon="-2.35748">
        <ele>11.800000190735</ele>
        <time>2021-12-09T11:25:56.000Z</time>
      </trkpt>
      <trkpt lat="47.27664" lon="-2.35737">
        <ele>11.39999961853</ele>
        <time>2021-12-09T11:25:59.000Z</time>
      </trkpt>
      <trkpt lat="47.27659" lon="-2.35731">
        <ele>10.800000190735</ele>
        <time>2021-12-09T11:26:00.000Z</time>
      </trkpt>
      <trkpt lat="47.27655" lon="-2.35727">
        <ele>10.39999961853</ele>
        <time>2021-12-09T11:26:01.000Z</time>
      </trkpt>
      <trkpt lat="47.2765" lon="-2.35724">
        <ele>10</ele>
        <time>2021-12-09T11:26:02.000Z</time>
      </trkpt>
      <trkpt lat="47.27644" lon="-2.35722">
        <ele>9.6000003814697</ele>
        <time>2021-12-09T11:26:03.000Z</time>
      </trkpt>
      <trkpt lat="47.27639" lon="-2.3572">
        <ele>9.6000003814697</ele>
        <time>2021-12-09T11:26:04.000Z</time>
      </trkpt>
      <trkpt lat="47.27612" lon="-2.35712">
        <ele>9.6000003814697</ele>
        <time>2021-12-09T11:26:08.000Z</time>
      </trkpt>
      <trkpt lat="47.27568" lon="-2.35701">
        <ele>9.6000003814697</ele>
        <time>2021-12-09T11:26:15.000Z</time>
      </trkpt>
      <trkpt lat="47.27562" lon="-2.357">
        <ele>9.6000003814697</ele>
        <time>2021-12-09T11:26:16.000Z</time>
      </trkpt>
      <trkpt lat="47.27545" lon="-2.35697">
        <ele>9.1999998092651</ele>
        <time>2021-12-09T11:26:19.000Z</time>
      </trkpt>
      <trkpt lat="47.27539" lon="-2.35696">
        <ele>8.8000001907349</ele>
        <time>2021-12-09T11:26:20.000Z</time>
      </trkpt>
      <trkpt lat="47.27534" lon="-2.35694">
        <ele>8.1999998092651</ele>
        <time>2021-12-09T11:26:21.000Z</time>
      </trkpt>
      <trkpt lat="47.27528" lon="-2.35693">
        <ele>7.8000001907349</ele>
        <time>2021-12-09T11:26:22.000Z</time>
      </trkpt>
      <trkpt lat="47.27522" lon="-2.35691">
        <ele>7.4000000953674</ele>
        <time>2021-12-09T11:26:23.000Z</time>
      </trkpt>
      <trkpt lat="47.27483" lon="-2.35682">
        <ele>7.4000000953674</ele>
        <time>2021-12-09T11:26:29.000Z</time>
      </trkpt>
      <trkpt lat="47.27437" lon="-2.35672">
        <ele>7.4000000953674</ele>
        <time>2021-12-09T11:26:36.000Z</time>
      </trkpt>
      <trkpt lat="47.27419" lon="-2.35669">
        <ele>7.4000000953674</ele>
        <time>2021-12-09T11:26:40.000Z</time>
      </trkpt>
      <trkpt lat="47.27407" lon="-2.3567">
        <ele>7.4000000953674</ele>
        <time>2021-12-09T11:26:42.000Z</time>
      </trkpt>
      <trkpt lat="47.27397" lon="-2.35675">
        <ele>7.4000000953674</ele>
        <time>2021-12-09T11:26:44.000Z</time>
      </trkpt>
      <trkpt lat="47.27386" lon="-2.35682">
        <ele>7.4000000953674</ele>
        <time>2021-12-09T11:26:46.000Z</time>
      </trkpt>
      <trkpt lat="47.27345" lon="-2.35712">
        <ele>7.4000000953674</ele>
        <time>2021-12-09T11:26:54.000Z</time>
      </trkpt>
      <trkpt lat="47.27332" lon="-2.35723">
        <ele>7</ele>
        <time>2021-12-09T11:26:57.000Z</time>
      </trkpt>
      <trkpt lat="47.27328" lon="-2.35727">
        <ele>6.5999999046326</ele>
        <time>2021-12-09T11:26:58.000Z</time>
      </trkpt>
      <trkpt lat="47.27324" lon="-2.35732">
        <ele>6.1999998092651</ele>
        <time>2021-12-09T11:26:59.000Z</time>
      </trkpt>
      <trkpt lat="47.27322" lon="-2.35737">
        <ele>5.8000001907349</ele>
        <time>2021-12-09T11:27:00.000Z</time>
      </trkpt>
      <trkpt lat="47.27319" lon="-2.35741">
        <ele>5.1999998092651</ele>
        <time>2021-12-09T11:27:01.000Z</time>
      </trkpt>
      <trkpt lat="47.27313" lon="-2.35745">
        <ele>5.1999998092651</ele>
        <time>2021-12-09T11:27:03.000Z</time>
      </trkpt>
      <trkpt lat="47.27309" lon="-2.35744">
        <ele>5.1999998092651</ele>
        <time>2021-12-09T11:27:04.000Z</time>
      </trkpt>
      <trkpt lat="47.27303" lon="-2.3573">
        <ele>5.1999998092651</ele>
        <time>2021-12-09T11:27:07.000Z</time>
      </trkpt>
      <trkpt lat="47.27296" lon="-2.35715">
        <ele>5.1999998092651</ele>
        <time>2021-12-09T11:27:10.000Z</time>
      </trkpt>
      <trkpt lat="47.2729" lon="-2.35698">
        <ele>5.1999998092651</ele>
        <time>2021-12-09T11:27:13.000Z</time>
      </trkpt>
      <trkpt lat="47.27288" lon="-2.35692">
        <ele>5.1999998092651</ele>
        <time>2021-12-09T11:27:14.000Z</time>
      </trkpt>
      <trkpt lat="47.27277" lon="-2.35667">
        <ele>5.1999998092651</ele>
        <time>2021-12-09T11:27:18.000Z</time>
      </trkpt>
      <trkpt lat="47.27253" lon="-2.3561">
        <ele>5.1999998092651</ele>
        <time>2021-12-09T11:27:27.000Z</time>
      </trkpt>
      <trkpt lat="47.27227" lon="-2.35554">
        <ele>5.1999998092651</ele>
        <time>2021-12-09T11:27:36.000Z</time>
      </trkpt>
      <trkpt lat="47.27202" lon="-2.35498">
        <ele>5.1999998092651</ele>
        <time>2021-12-09T11:27:45.000Z</time>
      </trkpt>
      <trkpt lat="47.27177" lon="-2.35448">
        <ele>5.1999998092651</ele>
        <time>2021-12-09T11:27:53.000Z</time>
      </trkpt>
      <trkpt lat="47.27147" lon="-2.35388">
        <ele>5.1999998092651</ele>
        <time>2021-12-09T11:28:02.000Z</time>
      </trkpt>
      <trkpt lat="47.27117" lon="-2.35336">
        <ele>5.1999998092651</ele>
        <time>2021-12-09T11:28:10.000Z</time>
      </trkpt>
      <trkpt lat="47.27079" lon="-2.35278">
        <ele>5.1999998092651</ele>
        <time>2021-12-09T11:28:19.000Z</time>
      </trkpt>
      <trkpt lat="47.27043" lon="-2.35221">
        <ele>5.1999998092651</ele>
        <time>2021-12-09T11:28:28.000Z</time>
      </trkpt>
      <trkpt lat="47.27013" lon="-2.35174">
        <ele>5.1999998092651</ele>
        <time>2021-12-09T11:28:35.000Z</time>
      </trkpt>
      <trkpt lat="47.26975" lon="-2.35116">
        <ele>5.1999998092651</ele>
        <time>2021-12-09T11:28:44.000Z</time>
      </trkpt>
      <trkpt lat="47.26945" lon="-2.35071">
        <ele>5.1999998092651</ele>
        <time>2021-12-09T11:28:51.000Z</time>
      </trkpt>
      <trkpt lat="47.26906" lon="-2.35012">
        <ele>5.1999998092651</ele>
        <time>2021-12-09T11:29:00.000Z</time>
      </trkpt>
      <trkpt lat="47.26901" lon="-2.35005">
        <ele>5.1999998092651</ele>
        <time>2021-12-09T11:29:01.000Z</time>
      </trkpt>
      <trkpt lat="47.26862" lon="-2.34947">
        <ele>5.1999998092651</ele>
        <time>2021-12-09T11:29:10.000Z</time>
      </trkpt>
      <trkpt lat="47.26833" lon="-2.34902">
        <ele>5.1999998092651</ele>
        <time>2021-12-09T11:29:17.000Z</time>
      </trkpt>
      <trkpt lat="47.268" lon="-2.34853">
        <ele>5.1999998092651</ele>
        <time>2021-12-09T11:29:25.000Z</time>
      </trkpt>
      <trkpt lat="47.26773" lon="-2.34814">
        <ele>5.1999998092651</ele>
        <time>2021-12-09T11:29:32.000Z</time>
      </trkpt>
      <trkpt lat="47.26764" lon="-2.34804">
        <ele>5.1999998092651</ele>
        <time>2021-12-09T11:29:34.000Z</time>
      </trkpt>
      <trkpt lat="47.26752" lon="-2.34788">
        <ele>5.1999998092651</ele>
        <time>2021-12-09T11:29:37.000Z</time>
      </trkpt>
      <trkpt lat="47.26712" lon="-2.34739">
        <ele>5.1999998092651</ele>
        <time>2021-12-09T11:29:46.000Z</time>
      </trkpt>
      <trkpt lat="47.26686" lon="-2.34706">
        <ele>5.1999998092651</ele>
        <time>2021-12-09T11:29:52.000Z</time>
      </trkpt>
      <trkpt lat="47.2665" lon="-2.34664">
        <ele>5.1999998092651</ele>
        <time>2021-12-09T11:30:00.000Z</time>
      </trkpt>
      <trkpt lat="47.26612" lon="-2.34617">
        <ele>5.1999998092651</ele>
        <time>2021-12-09T11:30:09.000Z</time>
      </trkpt>
      <trkpt lat="47.26586" lon="-2.34586">
        <ele>5.1999998092651</ele>
        <time>2021-12-09T11:30:15.000Z</time>
      </trkpt>
      <trkpt lat="47.26544" lon="-2.34542">
        <ele>5.1999998092651</ele>
        <time>2021-12-09T11:30:24.000Z</time>
      </trkpt>
      <trkpt lat="47.26498" lon="-2.34505">
        <ele>5.1999998092651</ele>
        <time>2021-12-09T11:30:33.000Z</time>
      </trkpt>
      <trkpt lat="47.26452" lon="-2.34472">
        <ele>5.1999998092651</ele>
        <time>2021-12-09T11:30:41.000Z</time>
      </trkpt>
      <trkpt lat="47.26402" lon="-2.34436">
        <ele>5.1999998092651</ele>
        <time>2021-12-09T11:30:50.000Z</time>
      </trkpt>
      <trkpt lat="47.26367" lon="-2.34407">
        <ele>5.1999998092651</ele>
        <time>2021-12-09T11:30:57.000Z</time>
      </trkpt>
      <trkpt lat="47.26332" lon="-2.34378">
        <ele>5.1999998092651</ele>
        <time>2021-12-09T11:31:04.000Z</time>
      </trkpt>
      <trkpt lat="47.26315" lon="-2.34359">
        <ele>5.1999998092651</ele>
        <time>2021-12-09T11:31:08.000Z</time>
      </trkpt>
      <trkpt lat="47.26298" lon="-2.3434">
        <ele>5.1999998092651</ele>
        <time>2021-12-09T11:31:12.000Z</time>
      </trkpt>
      <trkpt lat="47.26293" lon="-2.34335">
        <ele>5.1999998092651</ele>
        <time>2021-12-09T11:31:13.000Z</time>
      </trkpt>
      <trkpt lat="47.26269" lon="-2.34311">
        <ele>5.1999998092651</ele>
        <time>2021-12-09T11:31:18.000Z</time>
      </trkpt>
      <trkpt lat="47.26235" lon="-2.34275">
        <ele>5.1999998092651</ele>
        <time>2021-12-09T11:31:25.000Z</time>
      </trkpt>
      <trkpt lat="47.26221" lon="-2.3426">
        <ele>5.1999998092651</ele>
        <time>2021-12-09T11:31:28.000Z</time>
      </trkpt>
      <trkpt lat="47.26207" lon="-2.34244">
        <ele>5.1999998092651</ele>
        <time>2021-12-09T11:31:31.000Z</time>
      </trkpt>
      <trkpt lat="47.26168" lon="-2.34205">
        <ele>5.1999998092651</ele>
        <time>2021-12-09T11:31:39.000Z</time>
      </trkpt>
      <trkpt lat="47.26149" lon="-2.34188">
        <ele>5.1999998092651</ele>
        <time>2021-12-09T11:31:43.000Z</time>
      </trkpt>
      <trkpt lat="47.26138" lon="-2.34182">
        <ele>5.1999998092651</ele>
        <time>2021-12-09T11:31:45.000Z</time>
      </trkpt>
      <trkpt lat="47.26117" lon="-2.34165">
        <ele>5.1999998092651</ele>
        <time>2021-12-09T11:31:49.000Z</time>
      </trkpt>
      <trkpt lat="47.26101" lon="-2.34155">
        <ele>5.1999998092651</ele>
        <time>2021-12-09T11:31:52.000Z</time>
      </trkpt>
      <trkpt lat="47.2609" lon="-2.34149">
        <ele>5.1999998092651</ele>
        <time>2021-12-09T11:31:54.000Z</time>
      </trkpt>
      <trkpt lat="47.26052" lon="-2.34129">
        <ele>5.1999998092651</ele>
        <time>2021-12-09T11:32:01.000Z</time>
      </trkpt>
      <trkpt lat="47.26008" lon="-2.34107">
        <ele>5.1999998092651</ele>
        <time>2021-12-09T11:32:09.000Z</time>
      </trkpt>
      <trkpt lat="47.2597" lon="-2.34088">
        <ele>5.1999998092651</ele>
        <time>2021-12-09T11:32:16.000Z</time>
      </trkpt>
      <trkpt lat="47.25927" lon="-2.34071">
        <ele>5.1999998092651</ele>
        <time>2021-12-09T11:32:24.000Z</time>
      </trkpt>
      <trkpt lat="47.25906" lon="-2.34065">
        <ele>5.1999998092651</ele>
        <time>2021-12-09T11:32:28.000Z</time>
      </trkpt>
      <trkpt lat="47.25898" lon="-2.34047">
        <ele>5.1999998092651</ele>
        <time>2021-12-09T11:32:31.000Z</time>
      </trkpt>
      <trkpt lat="47.25902" lon="-2.34025">
        <ele>5.1999998092651</ele>
        <time>2021-12-09T11:32:34.000Z</time>
      </trkpt>
      <trkpt lat="47.25903" lon="-2.3402">
        <ele>5.1999998092651</ele>
        <time>2021-12-09T11:32:35.000Z</time>
      </trkpt>
      <trkpt lat="47.25908" lon="-2.34006">
        <ele>5.1999998092651</ele>
        <time>2021-12-09T11:32:37.000Z</time>
      </trkpt>
      <trkpt lat="47.25911" lon="-2.33993">
        <ele>5.1999998092651</ele>
        <time>2021-12-09T11:32:39.000Z</time>
      </trkpt>
      <trkpt lat="47.25926" lon="-2.33947">
        <ele>5.1999998092651</ele>
        <time>2021-12-09T11:32:46.000Z</time>
      </trkpt>
      <trkpt lat="47.25936" lon="-2.3393">
        <ele>5.1999998092651</ele>
        <time>2021-12-09T11:32:49.000Z</time>
      </trkpt>
      <trkpt lat="47.25942" lon="-2.33922">
        <ele>5.1999998092651</ele>
        <time>2021-12-09T11:32:51.000Z</time>
      </trkpt>
      <trkpt lat="47.25947" lon="-2.33899">
        <ele>5.1999998092651</ele>
        <time>2021-12-09T11:32:55.000Z</time>
      </trkpt>
      <trkpt lat="47.25958" lon="-2.33869">
        <ele>5.1999998092651</ele>
        <time>2021-12-09T11:33:00.000Z</time>
      </trkpt>
      <trkpt lat="47.25974" lon="-2.33817">
        <ele>5.1999998092651</ele>
        <time>2021-12-09T11:33:07.000Z</time>
      </trkpt>
      <trkpt lat="47.25997" lon="-2.33747">
        <ele>5.1999998092651</ele>
        <time>2021-12-09T11:33:16.000Z</time>
      </trkpt>
      <trkpt lat="47.26014" lon="-2.33699">
        <ele>4.8000001907349</ele>
        <time>2021-12-09T11:33:22.000Z</time>
      </trkpt>
      <trkpt lat="47.26017" lon="-2.33691">
        <ele>4.4000000953674</ele>
        <time>2021-12-09T11:33:23.000Z</time>
      </trkpt>
      <trkpt lat="47.26019" lon="-2.33683">
        <ele>4</ele>
        <time>2021-12-09T11:33:24.000Z</time>
      </trkpt>
      <trkpt lat="47.26021" lon="-2.33676">
        <ele>3.5999999046326</ele>
        <time>2021-12-09T11:33:25.000Z</time>
      </trkpt>
      <trkpt lat="47.26024" lon="-2.33669">
        <ele>3.2000000476837</ele>
        <time>2021-12-09T11:33:26.000Z</time>
      </trkpt>
      <trkpt lat="47.26027" lon="-2.33665">
        <ele>3.2000000476837</ele>
        <time>2021-12-09T11:33:27.000Z</time>
      </trkpt>
      <trkpt lat="47.26041" lon="-2.33664">
        <ele>3.2000000476837</ele>
        <time>2021-12-09T11:33:30.000Z</time>
      </trkpt>
      <trkpt lat="47.26046" lon="-2.33665">
        <ele>3.2000000476837</ele>
        <time>2021-12-09T11:33:31.000Z</time>
      </trkpt>
      <trkpt lat="47.26058" lon="-2.33661">
        <ele>3.2000000476837</ele>
        <time>2021-12-09T11:33:34.000Z</time>
      </trkpt>
      <trkpt lat="47.26064" lon="-2.33642">
        <ele>3.2000000476837</ele>
        <time>2021-12-09T11:33:37.000Z</time>
      </trkpt>
      <trkpt lat="47.26066" lon="-2.33635">
        <ele>3.2000000476837</ele>
        <time>2021-12-09T11:33:38.000Z</time>
      </trkpt>
      <trkpt lat="47.26071" lon="-2.33613">
        <ele>3.2000000476837</ele>
        <time>2021-12-09T11:33:41.000Z</time>
      </trkpt>
      <trkpt lat="47.26076" lon="-2.33598">
        <ele>3.2000000476837</ele>
        <time>2021-12-09T11:33:43.000Z</time>
      </trkpt>
      <trkpt lat="47.26092" lon="-2.33557">
        <ele>3.2000000476837</ele>
        <time>2021-12-09T11:33:49.000Z</time>
      </trkpt>
      <trkpt lat="47.26112" lon="-2.33499">
        <ele>3.2000000476837</ele>
        <time>2021-12-09T11:33:57.000Z</time>
      </trkpt>
      <trkpt lat="47.26126" lon="-2.33459">
        <ele>3.2000000476837</ele>
        <time>2021-12-09T11:34:03.000Z</time>
      </trkpt>
      <trkpt lat="47.26131" lon="-2.33442">
        <ele>3.2000000476837</ele>
        <time>2021-12-09T11:34:07.000Z</time>
      </trkpt>
      <trkpt lat="47.26133" lon="-2.33431">
        <ele>3.2000000476837</ele>
        <time>2021-12-09T11:34:09.000Z</time>
      </trkpt>
      <trkpt lat="47.26129" lon="-2.3342">
        <ele>3.2000000476837</ele>
        <time>2021-12-09T11:34:11.000Z</time>
      </trkpt>
      <trkpt lat="47.26114" lon="-2.33405">
        <ele>3.2000000476837</ele>
        <time>2021-12-09T11:34:15.000Z</time>
      </trkpt>
      <trkpt lat="47.26111" lon="-2.334">
        <ele>3.2000000476837</ele>
        <time>2021-12-09T11:34:16.000Z</time>
      </trkpt>
      <trkpt lat="47.26096" lon="-2.33379">
        <ele>3.2000000476837</ele>
        <time>2021-12-09T11:34:20.000Z</time>
      </trkpt>
      <trkpt lat="47.26092" lon="-2.33375">
        <ele>3.2000000476837</ele>
        <time>2021-12-09T11:34:21.000Z</time>
      </trkpt>
      <trkpt lat="47.2608" lon="-2.33361">
        <ele>3.2000000476837</ele>
        <time>2021-12-09T11:34:24.000Z</time>
      </trkpt>
      <trkpt lat="47.26077" lon="-2.33354">
        <ele>3.2000000476837</ele>
        <time>2021-12-09T11:34:25.000Z</time>
      </trkpt>
      <trkpt lat="47.26067" lon="-2.33323">
        <ele>3.2000000476837</ele>
        <time>2021-12-09T11:34:29.000Z</time>
      </trkpt>
      <trkpt lat="47.26065" lon="-2.33316">
        <ele>3.2000000476837</ele>
        <time>2021-12-09T11:34:30.000Z</time>
      </trkpt>
      <trkpt lat="47.26043" lon="-2.33256">
        <ele>3.2000000476837</ele>
        <time>2021-12-09T11:34:38.000Z</time>
      </trkpt>
      <trkpt lat="47.26023" lon="-2.332">
        <ele>3.2000000476837</ele>
        <time>2021-12-09T11:34:45.000Z</time>
      </trkpt>
      <trkpt lat="47.26003" lon="-2.3314">
        <ele>3.2000000476837</ele>
        <time>2021-12-09T11:34:53.000Z</time>
      </trkpt>
      <trkpt lat="47.2599" lon="-2.33097">
        <ele>3.2000000476837</ele>
        <time>2021-12-09T11:34:59.000Z</time>
      </trkpt>
      <trkpt lat="47.25988" lon="-2.3309">
        <ele>3.2000000476837</ele>
        <time>2021-12-09T11:35:00.000Z</time>
      </trkpt>
      <trkpt lat="47.25978" lon="-2.33065">
        <ele>3.2000000476837</ele>
        <time>2021-12-09T11:35:04.000Z</time>
      </trkpt>
      <trkpt lat="47.25975" lon="-2.33059">
        <ele>3.2000000476837</ele>
        <time>2021-12-09T11:35:05.000Z</time>
      </trkpt>
      <trkpt lat="47.25971" lon="-2.33045">
        <ele>3.2000000476837</ele>
        <time>2021-12-09T11:35:07.000Z</time>
      </trkpt>
      <trkpt lat="47.25964" lon="-2.33024">
        <ele>3.2000000476837</ele>
        <time>2021-12-09T11:35:10.000Z</time>
      </trkpt>
      <trkpt lat="47.25945" lon="-2.3297">
        <ele>3.2000000476837</ele>
        <time>2021-12-09T11:35:17.000Z</time>
      </trkpt>
      <trkpt lat="47.25921" lon="-2.32902">
        <ele>3.2000000476837</ele>
        <time>2021-12-09T11:35:26.000Z</time>
      </trkpt>
      <trkpt lat="47.25902" lon="-2.3285">
        <ele>3.2000000476837</ele>
        <time>2021-12-09T11:35:33.000Z</time>
      </trkpt>
      <trkpt lat="47.25881" lon="-2.32791">
        <ele>3.2000000476837</ele>
        <time>2021-12-09T11:35:41.000Z</time>
      </trkpt>
      <trkpt lat="47.25868" lon="-2.3275">
        <ele>3.2000000476837</ele>
        <time>2021-12-09T11:35:47.000Z</time>
      </trkpt>
      <trkpt lat="47.25863" lon="-2.3273">
        <ele>3.2000000476837</ele>
        <time>2021-12-09T11:35:50.000Z</time>
      </trkpt>
      <trkpt lat="47.25864" lon="-2.32718">
        <ele>3.2000000476837</ele>
        <time>2021-12-09T11:35:52.000Z</time>
      </trkpt>
      <trkpt lat="47.25857" lon="-2.32704">
        <ele>3.2000000476837</ele>
        <time>2021-12-09T11:35:55.000Z</time>
      </trkpt>
      <trkpt lat="47.25851" lon="-2.32693">
        <ele>3.2000000476837</ele>
        <time>2021-12-09T11:35:57.000Z</time>
      </trkpt>
      <trkpt lat="47.25846" lon="-2.32677">
        <ele>3.2000000476837</ele>
        <time>2021-12-09T11:35:59.000Z</time>
      </trkpt>
      <trkpt lat="47.2584" lon="-2.32653">
        <ele>3.2000000476837</ele>
        <time>2021-12-09T11:36:02.000Z</time>
      </trkpt>
      <trkpt lat="47.25833" lon="-2.32629">
        <ele>3.2000000476837</ele>
        <time>2021-12-09T11:36:05.000Z</time>
      </trkpt>
      <trkpt lat="47.25821" lon="-2.32573">
        <ele>3.2000000476837</ele>
        <time>2021-12-09T11:36:12.000Z</time>
      </trkpt>
      <trkpt lat="47.2581" lon="-2.32526">
        <ele>3.2000000476837</ele>
        <time>2021-12-09T11:36:18.000Z</time>
      </trkpt>
      <trkpt lat="47.25808" lon="-2.32518">
        <ele>3.2000000476837</ele>
        <time>2021-12-09T11:36:19.000Z</time>
      </trkpt>
      <trkpt lat="47.25799" lon="-2.32477">
        <ele>3.2000000476837</ele>
        <time>2021-12-09T11:36:25.000Z</time>
      </trkpt>
      <trkpt lat="47.25801" lon="-2.32467">
        <ele>3.2000000476837</ele>
        <time>2021-12-09T11:36:27.000Z</time>
      </trkpt>
      <trkpt lat="47.25805" lon="-2.32461">
        <ele>3.2000000476837</ele>
        <time>2021-12-09T11:36:29.000Z</time>
      </trkpt>
      <trkpt lat="47.25819" lon="-2.32457">
        <ele>3.2000000476837</ele>
        <time>2021-12-09T11:36:33.000Z</time>
      </trkpt>
      <trkpt lat="47.25832" lon="-2.32466">
        <ele>3.2000000476837</ele>
        <time>2021-12-09T11:36:36.000Z</time>
      </trkpt>
      <trkpt lat="47.25842" lon="-2.3247">
        <ele>3.2000000476837</ele>
        <time>2021-12-09T11:36:38.000Z</time>
      </trkpt>
      <trkpt lat="47.25862" lon="-2.32472">
        <ele>3.2000000476837</ele>
        <time>2021-12-09T11:36:42.000Z</time>
      </trkpt>
      <trkpt lat="47.25872" lon="-2.32471">
        <ele>3.2000000476837</ele>
        <time>2021-12-09T11:36:44.000Z</time>
      </trkpt>
      <trkpt lat="47.25893" lon="-2.32464">
        <ele>3.2000000476837</ele>
        <time>2021-12-09T11:36:48.000Z</time>
      </trkpt>
      <trkpt lat="47.25898" lon="-2.32459">
        <ele>3.2000000476837</ele>
        <time>2021-12-09T11:36:49.000Z</time>
      </trkpt>
      <trkpt lat="47.25921" lon="-2.32432">
        <ele>3.2000000476837</ele>
        <time>2021-12-09T11:36:54.000Z</time>
      </trkpt>
      <trkpt lat="47.25952" lon="-2.3239">
        <ele>3.2000000476837</ele>
        <time>2021-12-09T11:37:01.000Z</time>
      </trkpt>
      <trkpt lat="47.2598" lon="-2.32356">
        <ele>3.2000000476837</ele>
        <time>2021-12-09T11:37:07.000Z</time>
      </trkpt>
      <trkpt lat="47.26019" lon="-2.32307">
        <ele>3.2000000476837</ele>
        <time>2021-12-09T11:37:16.000Z</time>
      </trkpt>
      <trkpt lat="47.26049" lon="-2.32272">
        <ele>3.2000000476837</ele>
        <time>2021-12-09T11:37:23.000Z</time>
      </trkpt>
      <trkpt lat="47.26082" lon="-2.32231">
        <ele>3.2000000476837</ele>
        <time>2021-12-09T11:37:31.000Z</time>
      </trkpt>
      <trkpt lat="47.26108" lon="-2.32192">
        <ele>3.2000000476837</ele>
        <time>2021-12-09T11:37:38.000Z</time>
      </trkpt>
      <trkpt lat="47.26126" lon="-2.32137">
        <ele>3.2000000476837</ele>
        <time>2021-12-09T11:37:46.000Z</time>
      </trkpt>
      <trkpt lat="47.26143" lon="-2.32079">
        <ele>3.2000000476837</ele>
        <time>2021-12-09T11:37:54.000Z</time>
      </trkpt>
      <trkpt lat="47.2616" lon="-2.32033">
        <ele>3.2000000476837</ele>
        <time>2021-12-09T11:38:01.000Z</time>
      </trkpt>
      <trkpt lat="47.26166" lon="-2.32023">
        <ele>3.2000000476837</ele>
        <time>2021-12-09T11:38:03.000Z</time>
      </trkpt>
      <trkpt lat="47.26174" lon="-2.32019">
        <ele>3.2000000476837</ele>
        <time>2021-12-09T11:38:05.000Z</time>
      </trkpt>
      <trkpt lat="47.26185" lon="-2.32022">
        <ele>3.2000000476837</ele>
        <time>2021-12-09T11:38:08.000Z</time>
      </trkpt>
      <trkpt lat="47.26188" lon="-2.32023">
        <ele>3.2000000476837</ele>
        <time>2021-12-09T11:38:09.000Z</time>
      </trkpt>
      <trkpt lat="47.26195" lon="-2.32022">
        <ele>3.2000000476837</ele>
        <time>2021-12-09T11:38:13.000Z</time>
      </trkpt>
      <trkpt lat="47.26196" lon="-2.3202">
        <ele>3.2000000476837</ele>
        <time>2021-12-09T11:38:14.000Z</time>
      </trkpt>
      <trkpt lat="47.26202" lon="-2.32005">
        <ele>3.2000000476837</ele>
        <time>2021-12-09T11:38:19.000Z</time>
      </trkpt>
      <trkpt lat="47.26214" lon="-2.31989">
        <ele>3.2000000476837</ele>
        <time>2021-12-09T11:38:24.000Z</time>
      </trkpt>
      <trkpt lat="47.26228" lon="-2.31973">
        <ele>3.2000000476837</ele>
        <time>2021-12-09T11:38:28.000Z</time>
      </trkpt>
      <trkpt lat="47.26232" lon="-2.31969">
        <ele>3.2000000476837</ele>
        <time>2021-12-09T11:38:29.000Z</time>
      </trkpt>
      <trkpt lat="47.2624" lon="-2.31962">
        <ele>3.2000000476837</ele>
        <time>2021-12-09T11:38:31.000Z</time>
      </trkpt>
      <trkpt lat="47.26246" lon="-2.31956">
        <ele>3.2000000476837</ele>
        <time>2021-12-09T11:38:33.000Z</time>
      </trkpt>
      <trkpt lat="47.26254" lon="-2.31943">
        <ele>3.2000000476837</ele>
        <time>2021-12-09T11:38:37.000Z</time>
      </trkpt>
      <trkpt lat="47.26265" lon="-2.31923">
        <ele>3.2000000476837</ele>
        <time>2021-12-09T11:38:42.000Z</time>
      </trkpt>
      <trkpt lat="47.26268" lon="-2.31917">
        <ele>3.2000000476837</ele>
        <time>2021-12-09T11:38:43.000Z</time>
      </trkpt>
      <trkpt lat="47.26285" lon="-2.31899">
        <ele>3.2000000476837</ele>
        <time>2021-12-09T11:38:48.000Z</time>
      </trkpt>
      <trkpt lat="47.26294" lon="-2.31881">
        <ele>3.2000000476837</ele>
        <time>2021-12-09T11:38:53.000Z</time>
      </trkpt>
      <trkpt lat="47.26298" lon="-2.31848">
        <ele>3.2000000476837</ele>
        <time>2021-12-09T11:38:59.000Z</time>
      </trkpt>
      <trkpt lat="47.26301" lon="-2.31813">
        <ele>3.2000000476837</ele>
        <time>2021-12-09T11:39:05.000Z</time>
      </trkpt>
      <trkpt lat="47.26304" lon="-2.31777">
        <ele>3.2000000476837</ele>
        <time>2021-12-09T11:39:11.000Z</time>
      </trkpt>
      <trkpt lat="47.263" lon="-2.31742">
        <ele>3.2000000476837</ele>
        <time>2021-12-09T11:39:17.000Z</time>
      </trkpt>
      <trkpt lat="47.26305" lon="-2.31715">
        <ele>3.2000000476837</ele>
        <time>2021-12-09T11:39:22.000Z</time>
      </trkpt>
      <trkpt lat="47.2632" lon="-2.31708">
        <ele>3.2000000476837</ele>
        <time>2021-12-09T11:39:26.000Z</time>
      </trkpt>
      <trkpt lat="47.26332" lon="-2.31696">
        <ele>3.2000000476837</ele>
        <time>2021-12-09T11:39:30.000Z</time>
      </trkpt>
      <trkpt lat="47.26333" lon="-2.31691">
        <ele>3.2000000476837</ele>
        <time>2021-12-09T11:39:31.000Z</time>
      </trkpt>
      <trkpt lat="47.26338" lon="-2.31686">
        <ele>3.5999999046326</ele>
        <time>2021-12-09T11:39:33.000Z</time>
      </trkpt>
      <trkpt lat="47.2634" lon="-2.31686">
        <ele>4.1999998092651</ele>
        <time>2021-12-09T11:39:34.000Z</time>
      </trkpt>
      <trkpt lat="47.26344" lon="-2.31685">
        <ele>4.5999999046326</ele>
        <time>2021-12-09T11:39:35.000Z</time>
      </trkpt>
      <trkpt lat="47.26346" lon="-2.31683">
        <ele>5</ele>
        <time>2021-12-09T11:39:36.000Z</time>
      </trkpt>
      <trkpt lat="47.26349" lon="-2.31682">
        <ele>5.4000000953674</ele>
        <time>2021-12-09T11:39:37.000Z</time>
      </trkpt>
      <trkpt lat="47.26358" lon="-2.31678">
        <ele>5.4000000953674</ele>
        <time>2021-12-09T11:39:40.000Z</time>
      </trkpt>
      <trkpt lat="47.2638" lon="-2.31668">
        <ele>5.4000000953674</ele>
        <time>2021-12-09T11:39:47.000Z</time>
      </trkpt>
      <trkpt lat="47.26389" lon="-2.31662">
        <ele>5.8000001907349</ele>
        <time>2021-12-09T11:39:50.000Z</time>
      </trkpt>
      <trkpt lat="47.26392" lon="-2.31661">
        <ele>6.1999998092651</ele>
        <time>2021-12-09T11:39:51.000Z</time>
      </trkpt>
      <trkpt lat="47.26395" lon="-2.31659">
        <ele>6.5999999046326</ele>
        <time>2021-12-09T11:39:52.000Z</time>
      </trkpt>
      <trkpt lat="47.26397" lon="-2.31658">
        <ele>7</ele>
        <time>2021-12-09T11:39:53.000Z</time>
      </trkpt>
      <trkpt lat="47.26399" lon="-2.31656">
        <ele>7.4000000953674</ele>
        <time>2021-12-09T11:39:54.000Z</time>
      </trkpt>
      <trkpt lat="47.26411" lon="-2.31645">
        <ele>7.4000000953674</ele>
        <time>2021-12-09T11:39:58.000Z</time>
      </trkpt>
      <trkpt lat="47.26411" lon="-2.31639">
        <ele>7.4000000953674</ele>
        <time>2021-12-09T11:39:59.000Z</time>
      </trkpt>
      <trkpt lat="47.26411" lon="-2.31631">
        <ele>7.4000000953674</ele>
        <time>2021-12-09T11:40:01.000Z</time>
      </trkpt>
      <trkpt lat="47.26411" lon="-2.316">
        <ele>7.4000000953674</ele>
        <time>2021-12-09T11:40:07.000Z</time>
      </trkpt>
      <trkpt lat="47.26411" lon="-2.31571">
        <ele>7.4000000953674</ele>
        <time>2021-12-09T11:40:13.000Z</time>
      </trkpt>
      <trkpt lat="47.26414" lon="-2.3155">
        <ele>7.4000000953674</ele>
        <time>2021-12-09T11:40:19.000Z</time>
      </trkpt>
      <trkpt lat="47.26418" lon="-2.31552">
        <ele>7.4000000953674</ele>
        <time>2021-12-09T11:40:22.000Z</time>
      </trkpt>
      <trkpt lat="47.26418" lon="-2.31553">
        <ele>7.4000000953674</ele>
        <time>2021-12-09T11:40:24.000Z</time>
      </trkpt>
    </trkseg>
  </trk>
</gpx>